<?xml version="1.0" encoding="UTF-8" standalone="no" ?>
<gpx xmlns="http://www.topografix.com/GPX/1/1" xmlns:xsi="http://www.w3.org/2001/XMLSchema-instance" xsi:schemaLocation="http://www.topografix.com/GPX/1/1 http://www.topografix.com/GPX/1/1/gpx.xsd" version="1.1" creator="VisuGPX - https://www.visugpx.com">
  <metadata>
    <name>Chateaubourg</name>
    <desc><![CDATA[2010-11-06_Les Vignes de Chateaubourg]]></desc>
  </metadata>
  <trk>
    <name><![CDATA[Les Vignes de Chateaubourg]]></name>
    <trkseg>
      <trkpt lat="45.11977" lon="4.98394">
        <ele>228.28300476074</ele>
        <time>2010-11-06T12:36:53Z</time>
      </trkpt>
      <trkpt lat="45.1198" lon="4.98392">
        <ele>228.17199707031</ele>
        <time>2010-11-06T12:36:54Z</time>
      </trkpt>
      <trkpt lat="45.11996" lon="4.98396">
        <ele>228.08399963379</ele>
        <time>2010-11-06T12:36:58Z</time>
      </trkpt>
      <trkpt lat="45.12023" lon="4.98412">
        <ele>229.13499450684</ele>
        <time>2010-11-06T12:37:05Z</time>
      </trkpt>
      <trkpt lat="45.1203" lon="4.98425">
        <ele>229.60600280762</ele>
        <time>2010-11-06T12:37:08Z</time>
      </trkpt>
      <trkpt lat="45.12046" lon="4.9843">
        <ele>229.54400634766</ele>
        <time>2010-11-06T12:37:12Z</time>
      </trkpt>
      <trkpt lat="45.12052" lon="4.98412">
        <ele>229.57000732422</ele>
        <time>2010-11-06T12:37:15Z</time>
      </trkpt>
      <trkpt lat="45.12052" lon="4.98398">
        <ele>229.66299438477</ele>
        <time>2010-11-06T12:37:17Z</time>
      </trkpt>
      <trkpt lat="45.12056" lon="4.98352">
        <ele>228.90199279785</ele>
        <time>2010-11-06T12:37:23Z</time>
      </trkpt>
      <trkpt lat="45.12065" lon="4.98298">
        <ele>227.91499328613</ele>
        <time>2010-11-06T12:37:29Z</time>
      </trkpt>
      <trkpt lat="45.12072" lon="4.98206">
        <ele>227.29499816894</ele>
        <time>2010-11-06T12:37:39Z</time>
      </trkpt>
      <trkpt lat="45.12066" lon="4.98142">
        <ele>226.78300476074</ele>
        <time>2010-11-06T12:37:46Z</time>
      </trkpt>
      <trkpt lat="45.12054" lon="4.98079">
        <ele>225.63400268555</ele>
        <time>2010-11-06T12:37:53Z</time>
      </trkpt>
      <trkpt lat="45.12032" lon="4.98001">
        <ele>225.10000610352</ele>
        <time>2010-11-06T12:38:02Z</time>
      </trkpt>
      <trkpt lat="45.12009" lon="4.97907">
        <ele>224.18200683594</ele>
        <time>2010-11-06T12:38:12Z</time>
      </trkpt>
      <trkpt lat="45.11995" lon="4.9783">
        <ele>223.35000610352</ele>
        <time>2010-11-06T12:38:20Z</time>
      </trkpt>
      <trkpt lat="45.11978" lon="4.9773">
        <ele>222.08500671387</ele>
        <time>2010-11-06T12:38:30Z</time>
      </trkpt>
      <trkpt lat="45.11963" lon="4.97641">
        <ele>221.80799865723</ele>
        <time>2010-11-06T12:38:39Z</time>
      </trkpt>
      <trkpt lat="45.11951" lon="4.97576">
        <ele>221.92300415039</ele>
        <time>2010-11-06T12:38:46Z</time>
      </trkpt>
      <trkpt lat="45.1194" lon="4.97507">
        <ele>220.97300720215</ele>
        <time>2010-11-06T12:38:53Z</time>
      </trkpt>
      <trkpt lat="45.11918" lon="4.97384">
        <ele>219.46699523926</ele>
        <time>2010-11-06T12:39:05Z</time>
      </trkpt>
      <trkpt lat="45.11899" lon="4.97275">
        <ele>218.95100402832</ele>
        <time>2010-11-06T12:39:16Z</time>
      </trkpt>
      <trkpt lat="45.11884" lon="4.9719">
        <ele>219.64500427246</ele>
        <time>2010-11-06T12:39:25Z</time>
      </trkpt>
      <trkpt lat="45.11877" lon="4.9715">
        <ele>220.32099914551</ele>
        <time>2010-11-06T12:39:30Z</time>
      </trkpt>
      <trkpt lat="45.11878" lon="4.9713">
        <ele>220.63000488281</ele>
        <time>2010-11-06T12:39:33Z</time>
      </trkpt>
      <trkpt lat="45.1189" lon="4.971">
        <ele>220.77799987793</ele>
        <time>2010-11-06T12:39:38Z</time>
      </trkpt>
      <trkpt lat="45.11901" lon="4.9707">
        <ele>221.66600036621</ele>
        <time>2010-11-06T12:39:43Z</time>
      </trkpt>
      <trkpt lat="45.1189" lon="4.97055">
        <ele>221.71600341797</ele>
        <time>2010-11-06T12:39:46Z</time>
      </trkpt>
      <trkpt lat="45.11853" lon="4.97015">
        <ele>221.09599304199</ele>
        <time>2010-11-06T12:39:54Z</time>
      </trkpt>
      <trkpt lat="45.11807" lon="4.96951">
        <ele>220.67500305176</ele>
        <time>2010-11-06T12:40:04Z</time>
      </trkpt>
      <trkpt lat="45.11771" lon="4.96893">
        <ele>219.94200134277</ele>
        <time>2010-11-06T12:40:11Z</time>
      </trkpt>
      <trkpt lat="45.11761" lon="4.96858">
        <ele>219.81599426269</ele>
        <time>2010-11-06T12:40:14Z</time>
      </trkpt>
      <trkpt lat="45.11749" lon="4.96825">
        <ele>219.79299926758</ele>
        <time>2010-11-06T12:40:17Z</time>
      </trkpt>
      <trkpt lat="45.11741" lon="4.96821">
        <ele>219.71200561523</ele>
        <time>2010-11-06T12:40:18Z</time>
      </trkpt>
      <trkpt lat="45.11701" lon="4.96784">
        <ele>218.51400756836</ele>
        <time>2010-11-06T12:40:23Z</time>
      </trkpt>
      <trkpt lat="45.11669" lon="4.96728">
        <ele>217.72300720215</ele>
        <time>2010-11-06T12:40:28Z</time>
      </trkpt>
      <trkpt lat="45.11638" lon="4.96654">
        <ele>217.47999572754</ele>
        <time>2010-11-06T12:40:34Z</time>
      </trkpt>
      <trkpt lat="45.11601" lon="4.96557">
        <ele>217.14500427246</ele>
        <time>2010-11-06T12:40:42Z</time>
      </trkpt>
      <trkpt lat="45.11585" lon="4.96516">
        <ele>217.51600646973</ele>
        <time>2010-11-06T12:40:46Z</time>
      </trkpt>
      <trkpt lat="45.11581" lon="4.96507">
        <ele>217.59899902344</ele>
        <time>2010-11-06T12:40:47Z</time>
      </trkpt>
      <trkpt lat="45.11577" lon="4.96469">
        <ele>218.37699890137</ele>
        <time>2010-11-06T12:40:51Z</time>
      </trkpt>
      <trkpt lat="45.11573" lon="4.96446">
        <ele>219.96099853516</ele>
        <time>2010-11-06T12:40:56Z</time>
      </trkpt>
      <trkpt lat="45.11573" lon="4.96445">
        <ele>220.04699707031</ele>
        <time>2010-11-06T12:40:58Z</time>
      </trkpt>
      <trkpt lat="45.11577" lon="4.96463">
        <ele>219.41999816894</ele>
        <time>2010-11-06T12:41:15Z</time>
      </trkpt>
      <trkpt lat="45.11577" lon="4.96475">
        <ele>218.90699768066</ele>
        <time>2010-11-06T12:41:17Z</time>
      </trkpt>
      <trkpt lat="45.11569" lon="4.96483">
        <ele>218.55400085449</ele>
        <time>2010-11-06T12:41:21Z</time>
      </trkpt>
      <trkpt lat="45.1156" lon="4.96468">
        <ele>218.04299926758</ele>
        <time>2010-11-06T12:41:24Z</time>
      </trkpt>
      <trkpt lat="45.11557" lon="4.96462">
        <ele>217.98100280762</ele>
        <time>2010-11-06T12:41:25Z</time>
      </trkpt>
      <trkpt lat="45.11528" lon="4.96417">
        <ele>218.12300109863</ele>
        <time>2010-11-06T12:41:32Z</time>
      </trkpt>
      <trkpt lat="45.11489" lon="4.96356">
        <ele>218.05999755859</ele>
        <time>2010-11-06T12:41:40Z</time>
      </trkpt>
      <trkpt lat="45.11441" lon="4.9628">
        <ele>219.30200195312</ele>
        <time>2010-11-06T12:41:50Z</time>
      </trkpt>
      <trkpt lat="45.1141" lon="4.96221">
        <ele>219.39900207519</ele>
        <time>2010-11-06T12:41:57Z</time>
      </trkpt>
      <trkpt lat="45.11366" lon="4.96132">
        <ele>219.03999328613</ele>
        <time>2010-11-06T12:42:07Z</time>
      </trkpt>
      <trkpt lat="45.11337" lon="4.96075">
        <ele>218.44700622559</ele>
        <time>2010-11-06T12:42:14Z</time>
      </trkpt>
      <trkpt lat="45.11323" lon="4.96053">
        <ele>218.07200622559</ele>
        <time>2010-11-06T12:42:17Z</time>
      </trkpt>
      <trkpt lat="45.11296" lon="4.96008">
        <ele>217.77699279785</ele>
        <time>2010-11-06T12:42:23Z</time>
      </trkpt>
      <trkpt lat="45.11257" lon="4.9594">
        <ele>216.5359954834</ele>
        <time>2010-11-06T12:42:32Z</time>
      </trkpt>
      <trkpt lat="45.11237" lon="4.9591">
        <ele>216.34100341797</ele>
        <time>2010-11-06T12:42:36Z</time>
      </trkpt>
      <trkpt lat="45.11184" lon="4.95832">
        <ele>215.63200378418</ele>
        <time>2010-11-06T12:42:47Z</time>
      </trkpt>
      <trkpt lat="45.1117" lon="4.95812">
        <ele>215.65600585938</ele>
        <time>2010-11-06T12:42:50Z</time>
      </trkpt>
      <trkpt lat="45.11134" lon="4.95749">
        <ele>215.48599243164</ele>
        <time>2010-11-06T12:42:58Z</time>
      </trkpt>
      <trkpt lat="45.11102" lon="4.95688">
        <ele>216.15299987793</ele>
        <time>2010-11-06T12:43:06Z</time>
      </trkpt>
      <trkpt lat="45.11076" lon="4.95662">
        <ele>216.4940032959</ele>
        <time>2010-11-06T12:43:11Z</time>
      </trkpt>
      <trkpt lat="45.11032" lon="4.95618">
        <ele>216.32200622559</ele>
        <time>2010-11-06T12:43:19Z</time>
      </trkpt>
      <trkpt lat="45.11012" lon="4.95593">
        <ele>216.08599853516</ele>
        <time>2010-11-06T12:43:23Z</time>
      </trkpt>
      <trkpt lat="45.10983" lon="4.95547">
        <ele>215.53700256348</ele>
        <time>2010-11-06T12:43:29Z</time>
      </trkpt>
      <trkpt lat="45.1096" lon="4.95492">
        <ele>214.61500549316</ele>
        <time>2010-11-06T12:43:35Z</time>
      </trkpt>
      <trkpt lat="45.10942" lon="4.95422">
        <ele>213.51699829102</ele>
        <time>2010-11-06T12:43:42Z</time>
      </trkpt>
      <trkpt lat="45.10921" lon="4.95343">
        <ele>213.56300354004</ele>
        <time>2010-11-06T12:43:50Z</time>
      </trkpt>
      <trkpt lat="45.109" lon="4.95282">
        <ele>213.42900085449</ele>
        <time>2010-11-06T12:43:57Z</time>
      </trkpt>
      <trkpt lat="45.10875" lon="4.95209">
        <ele>214.51899719238</ele>
        <time>2010-11-06T12:44:06Z</time>
      </trkpt>
      <trkpt lat="45.10862" lon="4.95169">
        <ele>215.69299316406</ele>
        <time>2010-11-06T12:44:12Z</time>
      </trkpt>
      <trkpt lat="45.10851" lon="4.95123">
        <ele>217.72599792481</ele>
        <time>2010-11-06T12:44:19Z</time>
      </trkpt>
      <trkpt lat="45.10847" lon="4.95088">
        <ele>219.66499328613</ele>
        <time>2010-11-06T12:44:25Z</time>
      </trkpt>
      <trkpt lat="45.10847" lon="4.9504">
        <ele>222.05400085449</ele>
        <time>2010-11-06T12:44:33Z</time>
      </trkpt>
      <trkpt lat="45.10848" lon="4.95034">
        <ele>222.21499633789</ele>
        <time>2010-11-06T12:44:34Z</time>
      </trkpt>
      <trkpt lat="45.1085" lon="4.94995">
        <ele>224.3690032959</ele>
        <time>2010-11-06T12:44:41Z</time>
      </trkpt>
      <trkpt lat="45.10852" lon="4.94962">
        <ele>226.2619934082</ele>
        <time>2010-11-06T12:44:47Z</time>
      </trkpt>
      <trkpt lat="45.10854" lon="4.94939">
        <ele>227.38600158691</ele>
        <time>2010-11-06T12:44:51Z</time>
      </trkpt>
      <trkpt lat="45.10856" lon="4.94901">
        <ele>229.13000488281</ele>
        <time>2010-11-06T12:44:58Z</time>
      </trkpt>
      <trkpt lat="45.10859" lon="4.94862">
        <ele>230.97399902344</ele>
        <time>2010-11-06T12:45:06Z</time>
      </trkpt>
      <trkpt lat="45.10869" lon="4.94834">
        <ele>231.51800537109</ele>
        <time>2010-11-06T12:45:12Z</time>
      </trkpt>
      <trkpt lat="45.1087" lon="4.94829">
        <ele>231.66600036621</ele>
        <time>2010-11-06T12:45:13Z</time>
      </trkpt>
      <trkpt lat="45.10872" lon="4.94817">
        <ele>231.75900268555</ele>
        <time>2010-11-06T12:45:15Z</time>
      </trkpt>
      <trkpt lat="45.10874" lon="4.94794">
        <ele>232.21499633789</ele>
        <time>2010-11-06T12:45:19Z</time>
      </trkpt>
      <trkpt lat="45.10891" lon="4.94734">
        <ele>231.80900573731</ele>
        <time>2010-11-06T12:45:28Z</time>
      </trkpt>
      <trkpt lat="45.10915" lon="4.94653">
        <ele>231.85600280762</ele>
        <time>2010-11-06T12:45:39Z</time>
      </trkpt>
      <trkpt lat="45.10927" lon="4.94585">
        <ele>231.58200073242</ele>
        <time>2010-11-06T12:45:47Z</time>
      </trkpt>
      <trkpt lat="45.10928" lon="4.94529">
        <ele>231.23300170898</ele>
        <time>2010-11-06T12:45:53Z</time>
      </trkpt>
      <trkpt lat="45.10925" lon="4.94466">
        <ele>230.89599609375</ele>
        <time>2010-11-06T12:46:00Z</time>
      </trkpt>
      <trkpt lat="45.10922" lon="4.9441">
        <ele>230.89900207519</ele>
        <time>2010-11-06T12:46:06Z</time>
      </trkpt>
      <trkpt lat="45.10916" lon="4.94338">
        <ele>231.23300170898</ele>
        <time>2010-11-06T12:46:14Z</time>
      </trkpt>
      <trkpt lat="45.10897" lon="4.94291">
        <ele>231.05400085449</ele>
        <time>2010-11-06T12:46:20Z</time>
      </trkpt>
      <trkpt lat="45.10853" lon="4.94239">
        <ele>229.96200561523</ele>
        <time>2010-11-06T12:46:28Z</time>
      </trkpt>
      <trkpt lat="45.10801" lon="4.94179">
        <ele>229.50799560547</ele>
        <time>2010-11-06T12:46:37Z</time>
      </trkpt>
      <trkpt lat="45.10759" lon="4.94125">
        <ele>229.90199279785</ele>
        <time>2010-11-06T12:46:45Z</time>
      </trkpt>
      <trkpt lat="45.10732" lon="4.94075">
        <ele>230.97599792481</ele>
        <time>2010-11-06T12:46:52Z</time>
      </trkpt>
      <trkpt lat="45.10706" lon="4.94005">
        <ele>232.13400268555</ele>
        <time>2010-11-06T12:47:01Z</time>
      </trkpt>
      <trkpt lat="45.10691" lon="4.93928">
        <ele>233.02099609375</ele>
        <time>2010-11-06T12:47:10Z</time>
      </trkpt>
      <trkpt lat="45.10681" lon="4.93848">
        <ele>232.89999389648</ele>
        <time>2010-11-06T12:47:19Z</time>
      </trkpt>
      <trkpt lat="45.10671" lon="4.93769">
        <ele>231.72999572754</ele>
        <time>2010-11-06T12:47:27Z</time>
      </trkpt>
      <trkpt lat="45.10664" lon="4.93702">
        <ele>229.83200073242</ele>
        <time>2010-11-06T12:47:33Z</time>
      </trkpt>
      <trkpt lat="45.10661" lon="4.93677">
        <ele>229.11599731445</ele>
        <time>2010-11-06T12:47:35Z</time>
      </trkpt>
      <trkpt lat="45.10652" lon="4.93613">
        <ele>226.20500183106</ele>
        <time>2010-11-06T12:47:40Z</time>
      </trkpt>
      <trkpt lat="45.10636" lon="4.9353">
        <ele>220.52299499512</ele>
        <time>2010-11-06T12:47:46Z</time>
      </trkpt>
      <trkpt lat="45.10616" lon="4.93427">
        <ele>217.35699462891</ele>
        <time>2010-11-06T12:47:53Z</time>
      </trkpt>
      <trkpt lat="45.10613" lon="4.93412">
        <ele>217.1309967041</ele>
        <time>2010-11-06T12:47:54Z</time>
      </trkpt>
      <trkpt lat="45.10594" lon="4.93314">
        <ele>215.71899414062</ele>
        <time>2010-11-06T12:48:01Z</time>
      </trkpt>
      <trkpt lat="45.10577" lon="4.93223">
        <ele>214.23199462891</ele>
        <time>2010-11-06T12:48:08Z</time>
      </trkpt>
      <trkpt lat="45.10559" lon="4.93132">
        <ele>212.97999572754</ele>
        <time>2010-11-06T12:48:15Z</time>
      </trkpt>
      <trkpt lat="45.10541" lon="4.93038">
        <ele>212.17300415039</ele>
        <time>2010-11-06T12:48:23Z</time>
      </trkpt>
      <trkpt lat="45.10521" lon="4.92939">
        <ele>210.93200683594</ele>
        <time>2010-11-06T12:48:32Z</time>
      </trkpt>
      <trkpt lat="45.10506" lon="4.92863">
        <ele>211.28100585938</ele>
        <time>2010-11-06T12:48:39Z</time>
      </trkpt>
      <trkpt lat="45.10491" lon="4.92781">
        <ele>211.38499450684</ele>
        <time>2010-11-06T12:48:47Z</time>
      </trkpt>
      <trkpt lat="45.10478" lon="4.92729">
        <ele>210.56599426269</ele>
        <time>2010-11-06T12:48:53Z</time>
      </trkpt>
      <trkpt lat="45.10466" lon="4.92666">
        <ele>210.16999816894</ele>
        <time>2010-11-06T12:49:00Z</time>
      </trkpt>
      <trkpt lat="45.10455" lon="4.92605">
        <ele>210.69700622559</ele>
        <time>2010-11-06T12:49:07Z</time>
      </trkpt>
      <trkpt lat="45.10444" lon="4.9254">
        <ele>209.80999755859</ele>
        <time>2010-11-06T12:49:14Z</time>
      </trkpt>
      <trkpt lat="45.10433" lon="4.92479">
        <ele>208.60600280762</ele>
        <time>2010-11-06T12:49:20Z</time>
      </trkpt>
      <trkpt lat="45.10417" lon="4.92387">
        <ele>206.2859954834</ele>
        <time>2010-11-06T12:49:28Z</time>
      </trkpt>
      <trkpt lat="45.10398" lon="4.92282">
        <ele>205.67399597168</ele>
        <time>2010-11-06T12:49:37Z</time>
      </trkpt>
      <trkpt lat="45.10377" lon="4.9216">
        <ele>205.81599426269</ele>
        <time>2010-11-06T12:49:48Z</time>
      </trkpt>
      <trkpt lat="45.10361" lon="4.92073">
        <ele>206.24600219727</ele>
        <time>2010-11-06T12:49:56Z</time>
      </trkpt>
      <trkpt lat="45.10347" lon="4.91991">
        <ele>206.93699645996</ele>
        <time>2010-11-06T12:50:04Z</time>
      </trkpt>
      <trkpt lat="45.10331" lon="4.91901">
        <ele>207.62199401856</ele>
        <time>2010-11-06T12:50:13Z</time>
      </trkpt>
      <trkpt lat="45.10314" lon="4.91805">
        <ele>208.69400024414</ele>
        <time>2010-11-06T12:50:23Z</time>
      </trkpt>
      <trkpt lat="45.10313" lon="4.91795">
        <ele>208.91499328613</ele>
        <time>2010-11-06T12:50:24Z</time>
      </trkpt>
      <trkpt lat="45.10297" lon="4.91765">
        <ele>209.55799865723</ele>
        <time>2010-11-06T12:50:28Z</time>
      </trkpt>
      <trkpt lat="45.10276" lon="4.91761">
        <ele>209.31700134277</ele>
        <time>2010-11-06T12:50:31Z</time>
      </trkpt>
      <trkpt lat="45.10176" lon="4.91777">
        <ele>208.68499755859</ele>
        <time>2010-11-06T12:50:44Z</time>
      </trkpt>
      <trkpt lat="45.10122" lon="4.91787">
        <ele>208.41400146484</ele>
        <time>2010-11-06T12:50:51Z</time>
      </trkpt>
      <trkpt lat="45.10068" lon="4.91795">
        <ele>208.49299621582</ele>
        <time>2010-11-06T12:50:58Z</time>
      </trkpt>
      <trkpt lat="45.09984" lon="4.91811">
        <ele>208.97599792481</ele>
        <time>2010-11-06T12:51:09Z</time>
      </trkpt>
      <trkpt lat="45.09931" lon="4.91822">
        <ele>209.39500427246</ele>
        <time>2010-11-06T12:51:16Z</time>
      </trkpt>
      <trkpt lat="45.09863" lon="4.91836">
        <ele>209.91200256348</ele>
        <time>2010-11-06T12:51:25Z</time>
      </trkpt>
      <trkpt lat="45.09787" lon="4.9185">
        <ele>210.54200744629</ele>
        <time>2010-11-06T12:51:35Z</time>
      </trkpt>
      <trkpt lat="45.09728" lon="4.91861">
        <ele>211.51499938965</ele>
        <time>2010-11-06T12:51:43Z</time>
      </trkpt>
      <trkpt lat="45.0965" lon="4.91874">
        <ele>213.22500610352</ele>
        <time>2010-11-06T12:51:54Z</time>
      </trkpt>
      <trkpt lat="45.09596" lon="4.91883">
        <ele>214.28399658203</ele>
        <time>2010-11-06T12:52:02Z</time>
      </trkpt>
      <trkpt lat="45.0955" lon="4.9189">
        <ele>215.45799255371</ele>
        <time>2010-11-06T12:52:09Z</time>
      </trkpt>
      <trkpt lat="45.09489" lon="4.91893">
        <ele>216.47399902344</ele>
        <time>2010-11-06T12:52:18Z</time>
      </trkpt>
      <trkpt lat="45.09443" lon="4.91879">
        <ele>217.38900756836</ele>
        <time>2010-11-06T12:52:25Z</time>
      </trkpt>
      <trkpt lat="45.09397" lon="4.91862">
        <ele>219.99299621582</ele>
        <time>2010-11-06T12:52:33Z</time>
      </trkpt>
      <trkpt lat="45.09344" lon="4.91844">
        <ele>222.73300170898</ele>
        <time>2010-11-06T12:52:43Z</time>
      </trkpt>
      <trkpt lat="45.09282" lon="4.91821">
        <ele>225.98100280762</ele>
        <time>2010-11-06T12:52:55Z</time>
      </trkpt>
      <trkpt lat="45.09266" lon="4.91813">
        <ele>227.48599243164</ele>
        <time>2010-11-06T12:53:00Z</time>
      </trkpt>
      <trkpt lat="45.09264" lon="4.91812">
        <ele>227.92599487305</ele>
        <time>2010-11-06T12:53:03Z</time>
      </trkpt>
      <trkpt lat="45.09266" lon="4.91812">
        <ele>227.96899414062</ele>
        <time>2010-11-06T12:53:07Z</time>
      </trkpt>
      <trkpt lat="45.09266" lon="4.91812">
        <ele>227.83999633789</ele>
        <time>2010-11-06T12:53:08Z</time>
      </trkpt>
      <trkpt lat="45.09267" lon="4.91813">
        <ele>226.99099731445</ele>
        <time>2010-11-06T12:53:26Z</time>
      </trkpt>
      <trkpt lat="45.09267" lon="4.91813">
        <ele>226.90899658203</ele>
        <time>2010-11-06T12:53:27Z</time>
      </trkpt>
      <trkpt lat="45.09264" lon="4.91814">
        <ele>224.375</ele>
        <time>2010-11-06T13:00:16Z</time>
      </trkpt>
      <trkpt lat="45.09263" lon="4.91813">
        <ele>224.43499755859</ele>
        <time>2010-11-06T13:00:17Z</time>
      </trkpt>
      <trkpt lat="45.0926" lon="4.91812">
        <ele>224.59100341797</ele>
        <time>2010-11-06T13:00:19Z</time>
      </trkpt>
      <trkpt lat="45.09246" lon="4.91808">
        <ele>225.29699707031</ele>
        <time>2010-11-06T13:00:25Z</time>
      </trkpt>
      <trkpt lat="45.0923" lon="4.91809">
        <ele>226.00399780273</ele>
        <time>2010-11-06T13:00:30Z</time>
      </trkpt>
      <trkpt lat="45.09202" lon="4.91811">
        <ele>227.50700378418</ele>
        <time>2010-11-06T13:00:36Z</time>
      </trkpt>
      <trkpt lat="45.09162" lon="4.91825">
        <ele>229.66400146484</ele>
        <time>2010-11-06T13:00:43Z</time>
      </trkpt>
      <trkpt lat="45.09144" lon="4.91831">
        <ele>230.78300476074</ele>
        <time>2010-11-06T13:00:46Z</time>
      </trkpt>
      <trkpt lat="45.09126" lon="4.91838">
        <ele>231.97599792481</ele>
        <time>2010-11-06T13:00:49Z</time>
      </trkpt>
      <trkpt lat="45.0912" lon="4.91841">
        <ele>232.46299743652</ele>
        <time>2010-11-06T13:00:50Z</time>
      </trkpt>
      <trkpt lat="45.09084" lon="4.91856">
        <ele>234.24499511719</ele>
        <time>2010-11-06T13:00:56Z</time>
      </trkpt>
      <trkpt lat="45.0906" lon="4.91865">
        <ele>235.67799377441</ele>
        <time>2010-11-06T13:01:00Z</time>
      </trkpt>
      <trkpt lat="45.09039" lon="4.91869">
        <ele>237.19500732422</ele>
        <time>2010-11-06T13:01:04Z</time>
      </trkpt>
      <trkpt lat="45.08999" lon="4.91877">
        <ele>238.68800354004</ele>
        <time>2010-11-06T13:01:11Z</time>
      </trkpt>
      <trkpt lat="45.08958" lon="4.91886">
        <ele>239.68499755859</ele>
        <time>2010-11-06T13:01:17Z</time>
      </trkpt>
      <trkpt lat="45.08911" lon="4.91896">
        <ele>241.09100341797</ele>
        <time>2010-11-06T13:01:23Z</time>
      </trkpt>
      <trkpt lat="45.08874" lon="4.91902">
        <ele>242.49000549316</ele>
        <time>2010-11-06T13:01:28Z</time>
      </trkpt>
      <trkpt lat="45.08859" lon="4.91904">
        <ele>242.88900756836</ele>
        <time>2010-11-06T13:01:30Z</time>
      </trkpt>
      <trkpt lat="45.08801" lon="4.9191">
        <ele>244.76699829102</ele>
        <time>2010-11-06T13:01:38Z</time>
      </trkpt>
      <trkpt lat="45.08735" lon="4.91915">
        <ele>247.26899719238</ele>
        <time>2010-11-06T13:01:48Z</time>
      </trkpt>
      <trkpt lat="45.08691" lon="4.9192">
        <ele>248.80200195312</ele>
        <time>2010-11-06T13:01:55Z</time>
      </trkpt>
      <trkpt lat="45.0863" lon="4.91925">
        <ele>251.07899475098</ele>
        <time>2010-11-06T13:02:05Z</time>
      </trkpt>
      <trkpt lat="45.08577" lon="4.91935">
        <ele>253.30200195312</ele>
        <time>2010-11-06T13:02:14Z</time>
      </trkpt>
      <trkpt lat="45.08533" lon="4.91953">
        <ele>255.17999267578</ele>
        <time>2010-11-06T13:02:22Z</time>
      </trkpt>
      <trkpt lat="45.08496" lon="4.91969">
        <ele>256.18399047852</ele>
        <time>2010-11-06T13:02:29Z</time>
      </trkpt>
      <trkpt lat="45.08457" lon="4.91986">
        <ele>256.12701416016</ele>
        <time>2010-11-06T13:02:36Z</time>
      </trkpt>
      <trkpt lat="45.08394" lon="4.92012">
        <ele>255.30999755859</ele>
        <time>2010-11-06T13:02:46Z</time>
      </trkpt>
      <trkpt lat="45.08345" lon="4.92032">
        <ele>254.37199401856</ele>
        <time>2010-11-06T13:02:54Z</time>
      </trkpt>
      <trkpt lat="45.08306" lon="4.92036">
        <ele>253.67999267578</ele>
        <time>2010-11-06T13:03:00Z</time>
      </trkpt>
      <trkpt lat="45.08258" lon="4.92035">
        <ele>255.22799682617</ele>
        <time>2010-11-06T13:03:08Z</time>
      </trkpt>
      <trkpt lat="45.08247" lon="4.92034">
        <ele>255.74699401856</ele>
        <time>2010-11-06T13:03:10Z</time>
      </trkpt>
      <trkpt lat="45.08224" lon="4.92022">
        <ele>256.79098510742</ele>
        <time>2010-11-06T13:03:15Z</time>
      </trkpt>
      <trkpt lat="45.08195" lon="4.91984">
        <ele>258.74600219727</ele>
        <time>2010-11-06T13:03:23Z</time>
      </trkpt>
      <trkpt lat="45.08185" lon="4.9196">
        <ele>259.16101074219</ele>
        <time>2010-11-06T13:03:27Z</time>
      </trkpt>
      <trkpt lat="45.08171" lon="4.91924">
        <ele>259.66500854492</ele>
        <time>2010-11-06T13:03:34Z</time>
      </trkpt>
      <trkpt lat="45.08158" lon="4.91891">
        <ele>258.9169921875</ele>
        <time>2010-11-06T13:03:41Z</time>
      </trkpt>
      <trkpt lat="45.0815" lon="4.9189">
        <ele>258.78799438477</ele>
        <time>2010-11-06T13:03:45Z</time>
      </trkpt>
      <trkpt lat="45.08153" lon="4.91892">
        <ele>259.05499267578</ele>
        <time>2010-11-06T13:03:48Z</time>
      </trkpt>
      <trkpt lat="45.08154" lon="4.91892">
        <ele>259.15399169922</ele>
        <time>2010-11-06T13:03:49Z</time>
      </trkpt>
      <trkpt lat="45.08159" lon="4.91889">
        <ele>258.99398803711</ele>
        <time>2010-11-06T13:04:19Z</time>
      </trkpt>
      <trkpt lat="45.08155" lon="4.91871">
        <ele>258.34799194336</ele>
        <time>2010-11-06T13:04:23Z</time>
      </trkpt>
      <trkpt lat="45.08154" lon="4.91858">
        <ele>257.7380065918</ele>
        <time>2010-11-06T13:04:25Z</time>
      </trkpt>
      <trkpt lat="45.08155" lon="4.91825">
        <ele>255.75700378418</ele>
        <time>2010-11-06T13:04:29Z</time>
      </trkpt>
      <trkpt lat="45.08157" lon="4.91806">
        <ele>255.12800598144</ele>
        <time>2010-11-06T13:04:31Z</time>
      </trkpt>
      <trkpt lat="45.08169" lon="4.91729">
        <ele>252.03999328613</ele>
        <time>2010-11-06T13:04:38Z</time>
      </trkpt>
      <trkpt lat="45.0818" lon="4.91663">
        <ele>248.875</ele>
        <time>2010-11-06T13:04:43Z</time>
      </trkpt>
      <trkpt lat="45.08181" lon="4.91649">
        <ele>247.98300170898</ele>
        <time>2010-11-06T13:04:44Z</time>
      </trkpt>
      <trkpt lat="45.08176" lon="4.91588">
        <ele>245.24600219727</ele>
        <time>2010-11-06T13:04:48Z</time>
      </trkpt>
      <trkpt lat="45.08156" lon="4.91546">
        <ele>242.64799499512</ele>
        <time>2010-11-06T13:04:51Z</time>
      </trkpt>
      <trkpt lat="45.08136" lon="4.91524">
        <ele>241.08200073242</ele>
        <time>2010-11-06T13:04:53Z</time>
      </trkpt>
      <trkpt lat="45.08047" lon="4.91436">
        <ele>234.25999450684</ele>
        <time>2010-11-06T13:05:01Z</time>
      </trkpt>
      <trkpt lat="45.07995" lon="4.9137">
        <ele>231.12899780273</ele>
        <time>2010-11-06T13:05:06Z</time>
      </trkpt>
      <trkpt lat="45.07936" lon="4.91288">
        <ele>226.80999755859</ele>
        <time>2010-11-06T13:05:12Z</time>
      </trkpt>
      <trkpt lat="45.07894" lon="4.91214">
        <ele>224.05999755859</ele>
        <time>2010-11-06T13:05:17Z</time>
      </trkpt>
      <trkpt lat="45.07868" lon="4.91173">
        <ele>222.22999572754</ele>
        <time>2010-11-06T13:05:20Z</time>
      </trkpt>
      <trkpt lat="45.07828" lon="4.91127">
        <ele>220.83399963379</ele>
        <time>2010-11-06T13:05:24Z</time>
      </trkpt>
      <trkpt lat="45.07807" lon="4.91107">
        <ele>220.15899658203</ele>
        <time>2010-11-06T13:05:26Z</time>
      </trkpt>
      <trkpt lat="45.07755" lon="4.91035">
        <ele>219.27299499512</ele>
        <time>2010-11-06T13:05:32Z</time>
      </trkpt>
      <trkpt lat="45.07706" lon="4.90965">
        <ele>218.0890045166</ele>
        <time>2010-11-06T13:05:38Z</time>
      </trkpt>
      <trkpt lat="45.07673" lon="4.90904">
        <ele>216.82200622559</ele>
        <time>2010-11-06T13:05:43Z</time>
      </trkpt>
      <trkpt lat="45.07647" lon="4.9083">
        <ele>216.00799560547</ele>
        <time>2010-11-06T13:05:49Z</time>
      </trkpt>
      <trkpt lat="45.07624" lon="4.90757">
        <ele>215.04299926758</ele>
        <time>2010-11-06T13:05:55Z</time>
      </trkpt>
      <trkpt lat="45.07618" lon="4.90732">
        <ele>214.70399475098</ele>
        <time>2010-11-06T13:05:57Z</time>
      </trkpt>
      <trkpt lat="45.07613" lon="4.90682">
        <ele>213.18200683594</ele>
        <time>2010-11-06T13:06:01Z</time>
      </trkpt>
      <trkpt lat="45.07621" lon="4.90587">
        <ele>210.75</ele>
        <time>2010-11-06T13:06:08Z</time>
      </trkpt>
      <trkpt lat="45.07626" lon="4.90558">
        <ele>209.38900756836</ele>
        <time>2010-11-06T13:06:10Z</time>
      </trkpt>
      <trkpt lat="45.07652" lon="4.90488">
        <ele>205.42399597168</ele>
        <time>2010-11-06T13:06:15Z</time>
      </trkpt>
      <trkpt lat="45.07697" lon="4.90387">
        <ele>199.64700317383</ele>
        <time>2010-11-06T13:06:22Z</time>
      </trkpt>
      <trkpt lat="45.07714" lon="4.90322">
        <ele>198.69999694824</ele>
        <time>2010-11-06T13:06:26Z</time>
      </trkpt>
      <trkpt lat="45.07721" lon="4.90223">
        <ele>196.99000549316</ele>
        <time>2010-11-06T13:06:32Z</time>
      </trkpt>
      <trkpt lat="45.07722" lon="4.90188">
        <ele>196.08799743652</ele>
        <time>2010-11-06T13:06:34Z</time>
      </trkpt>
      <trkpt lat="45.07726" lon="4.90079">
        <ele>193.86700439453</ele>
        <time>2010-11-06T13:06:40Z</time>
      </trkpt>
      <trkpt lat="45.07745" lon="4.89996">
        <ele>192.85200500488</ele>
        <time>2010-11-06T13:06:45Z</time>
      </trkpt>
      <trkpt lat="45.0775" lon="4.89981">
        <ele>192.49499511719</ele>
        <time>2010-11-06T13:06:46Z</time>
      </trkpt>
      <trkpt lat="45.07786" lon="4.89912">
        <ele>190.52099609375</ele>
        <time>2010-11-06T13:06:51Z</time>
      </trkpt>
      <trkpt lat="45.07837" lon="4.89825">
        <ele>189.31300354004</ele>
        <time>2010-11-06T13:06:58Z</time>
      </trkpt>
      <trkpt lat="45.07869" lon="4.89769">
        <ele>188.80200195312</ele>
        <time>2010-11-06T13:07:03Z</time>
      </trkpt>
      <trkpt lat="45.0788" lon="4.89717">
        <ele>188.45100402832</ele>
        <time>2010-11-06T13:07:07Z</time>
      </trkpt>
      <trkpt lat="45.07885" lon="4.89639">
        <ele>187.6369934082</ele>
        <time>2010-11-06T13:07:13Z</time>
      </trkpt>
      <trkpt lat="45.07891" lon="4.8959">
        <ele>187.07699584961</ele>
        <time>2010-11-06T13:07:17Z</time>
      </trkpt>
      <trkpt lat="45.07891" lon="4.89508">
        <ele>187.43899536133</ele>
        <time>2010-11-06T13:07:24Z</time>
      </trkpt>
      <trkpt lat="45.07887" lon="4.8945">
        <ele>187.40800476074</ele>
        <time>2010-11-06T13:07:29Z</time>
      </trkpt>
      <trkpt lat="45.07876" lon="4.89394">
        <ele>187.48500061035</ele>
        <time>2010-11-06T13:07:34Z</time>
      </trkpt>
      <trkpt lat="45.07854" lon="4.89322">
        <ele>188.03999328613</ele>
        <time>2010-11-06T13:07:41Z</time>
      </trkpt>
      <trkpt lat="45.07831" lon="4.89262">
        <ele>187.71200561523</ele>
        <time>2010-11-06T13:07:47Z</time>
      </trkpt>
      <trkpt lat="45.07799" lon="4.89179">
        <ele>187.22399902344</ele>
        <time>2010-11-06T13:07:55Z</time>
      </trkpt>
      <trkpt lat="45.07778" lon="4.89113">
        <ele>182.0359954834</ele>
        <time>2010-11-06T13:08:00Z</time>
      </trkpt>
      <trkpt lat="45.07763" lon="4.89069">
        <ele>179.30700683594</ele>
        <time>2010-11-06T13:08:03Z</time>
      </trkpt>
      <trkpt lat="45.07732" lon="4.89021">
        <ele>178.05000305176</ele>
        <time>2010-11-06T13:08:07Z</time>
      </trkpt>
      <trkpt lat="45.07696" lon="4.88985">
        <ele>177.98899841309</ele>
        <time>2010-11-06T13:08:11Z</time>
      </trkpt>
      <trkpt lat="45.07648" lon="4.88959">
        <ele>176.8390045166</ele>
        <time>2010-11-06T13:08:16Z</time>
      </trkpt>
      <trkpt lat="45.07602" lon="4.88952">
        <ele>176.80700683594</ele>
        <time>2010-11-06T13:08:21Z</time>
      </trkpt>
      <trkpt lat="45.07567" lon="4.88956">
        <ele>176.38999938965</ele>
        <time>2010-11-06T13:08:25Z</time>
      </trkpt>
      <trkpt lat="45.07537" lon="4.88949">
        <ele>176.08299255371</ele>
        <time>2010-11-06T13:08:29Z</time>
      </trkpt>
      <trkpt lat="45.07513" lon="4.88951">
        <ele>175.42999267578</ele>
        <time>2010-11-06T13:08:32Z</time>
      </trkpt>
      <trkpt lat="45.07497" lon="4.88944">
        <ele>174.77099609375</ele>
        <time>2010-11-06T13:08:34Z</time>
      </trkpt>
      <trkpt lat="45.07433" lon="4.88907">
        <ele>173.14399719238</ele>
        <time>2010-11-06T13:08:42Z</time>
      </trkpt>
      <trkpt lat="45.07413" lon="4.88912">
        <ele>173.33099365234</ele>
        <time>2010-11-06T13:08:45Z</time>
      </trkpt>
      <trkpt lat="45.07409" lon="4.88919">
        <ele>173.33099365234</ele>
        <time>2010-11-06T13:08:46Z</time>
      </trkpt>
      <trkpt lat="45.07374" lon="4.88938">
        <ele>172.56700134277</ele>
        <time>2010-11-06T13:08:51Z</time>
      </trkpt>
      <trkpt lat="45.07335" lon="4.8896">
        <ele>171.71800231934</ele>
        <time>2010-11-06T13:08:56Z</time>
      </trkpt>
      <trkpt lat="45.07301" lon="4.88968">
        <ele>171.57699584961</ele>
        <time>2010-11-06T13:09:00Z</time>
      </trkpt>
      <trkpt lat="45.07237" lon="4.88978">
        <ele>171.24699401856</ele>
        <time>2010-11-06T13:09:07Z</time>
      </trkpt>
      <trkpt lat="45.07204" lon="4.8899">
        <ele>171.47099304199</ele>
        <time>2010-11-06T13:09:11Z</time>
      </trkpt>
      <trkpt lat="45.07165" lon="4.89015">
        <ele>170.53900146484</ele>
        <time>2010-11-06T13:09:16Z</time>
      </trkpt>
      <trkpt lat="45.07124" lon="4.89035">
        <ele>169.93099975586</ele>
        <time>2010-11-06T13:09:21Z</time>
      </trkpt>
      <trkpt lat="45.07091" lon="4.89064">
        <ele>169.46000671387</ele>
        <time>2010-11-06T13:09:26Z</time>
      </trkpt>
      <trkpt lat="45.07054" lon="4.89078">
        <ele>169.13900756836</ele>
        <time>2010-11-06T13:09:31Z</time>
      </trkpt>
      <trkpt lat="45.07047" lon="4.89078">
        <ele>169.2380065918</ele>
        <time>2010-11-06T13:09:32Z</time>
      </trkpt>
      <trkpt lat="45.06993" lon="4.89073">
        <ele>168.98899841309</ele>
        <time>2010-11-06T13:09:39Z</time>
      </trkpt>
      <trkpt lat="45.06949" lon="4.89072">
        <ele>167.94400024414</ele>
        <time>2010-11-06T13:09:44Z</time>
      </trkpt>
      <trkpt lat="45.06888" lon="4.89069">
        <ele>167.95100402832</ele>
        <time>2010-11-06T13:09:51Z</time>
      </trkpt>
      <trkpt lat="45.06806" lon="4.89064">
        <ele>167.37399291992</ele>
        <time>2010-11-06T13:10:01Z</time>
      </trkpt>
      <trkpt lat="45.06734" lon="4.89057">
        <ele>166.99299621582</ele>
        <time>2010-11-06T13:10:10Z</time>
      </trkpt>
      <trkpt lat="45.06668" lon="4.89058">
        <ele>166.27799987793</ele>
        <time>2010-11-06T13:10:18Z</time>
      </trkpt>
      <trkpt lat="45.06607" lon="4.89057">
        <ele>166.20100402832</ele>
        <time>2010-11-06T13:10:26Z</time>
      </trkpt>
      <trkpt lat="45.06586" lon="4.89057">
        <ele>166.35499572754</ele>
        <time>2010-11-06T13:10:30Z</time>
      </trkpt>
      <trkpt lat="45.06583" lon="4.89057">
        <ele>166.58000183106</ele>
        <time>2010-11-06T13:10:32Z</time>
      </trkpt>
      <trkpt lat="45.06581" lon="4.89057">
        <ele>166.74600219727</ele>
        <time>2010-11-06T13:10:34Z</time>
      </trkpt>
      <trkpt lat="45.0658" lon="4.89057">
        <ele>166.80700683594</ele>
        <time>2010-11-06T13:10:37Z</time>
      </trkpt>
      <trkpt lat="45.06575" lon="4.89056">
        <ele>166.58599853516</ele>
        <time>2010-11-06T13:11:01Z</time>
      </trkpt>
      <trkpt lat="45.06562" lon="4.89058">
        <ele>166.33099365234</ele>
        <time>2010-11-06T13:11:05Z</time>
      </trkpt>
      <trkpt lat="45.06539" lon="4.89062">
        <ele>165.30999755859</ele>
        <time>2010-11-06T13:11:09Z</time>
      </trkpt>
      <trkpt lat="45.06519" lon="4.89068">
        <ele>163.9640045166</ele>
        <time>2010-11-06T13:11:12Z</time>
      </trkpt>
      <trkpt lat="45.06474" lon="4.8908">
        <ele>162.5890045166</ele>
        <time>2010-11-06T13:11:18Z</time>
      </trkpt>
      <trkpt lat="45.06457" lon="4.89083">
        <ele>162.06599426269</ele>
        <time>2010-11-06T13:11:20Z</time>
      </trkpt>
      <trkpt lat="45.06425" lon="4.89099">
        <ele>160.55099487305</ele>
        <time>2010-11-06T13:11:24Z</time>
      </trkpt>
      <trkpt lat="45.06418" lon="4.89106">
        <ele>160.10899353027</ele>
        <time>2010-11-06T13:11:25Z</time>
      </trkpt>
      <trkpt lat="45.06397" lon="4.8913">
        <ele>159.64500427246</ele>
        <time>2010-11-06T13:11:28Z</time>
      </trkpt>
      <trkpt lat="45.06365" lon="4.89147">
        <ele>158.64100646973</ele>
        <time>2010-11-06T13:11:32Z</time>
      </trkpt>
      <trkpt lat="45.06348" lon="4.89151">
        <ele>158.35800170898</ele>
        <time>2010-11-06T13:11:34Z</time>
      </trkpt>
      <trkpt lat="45.0627" lon="4.89156">
        <ele>156.55799865723</ele>
        <time>2010-11-06T13:11:43Z</time>
      </trkpt>
      <trkpt lat="45.06211" lon="4.89162">
        <ele>156.49600219727</ele>
        <time>2010-11-06T13:11:50Z</time>
      </trkpt>
      <trkpt lat="45.06134" lon="4.8917">
        <ele>157.46200561523</ele>
        <time>2010-11-06T13:11:59Z</time>
      </trkpt>
      <trkpt lat="45.06075" lon="4.89175">
        <ele>156.73199462891</ele>
        <time>2010-11-06T13:12:06Z</time>
      </trkpt>
      <trkpt lat="45.05999" lon="4.89182">
        <ele>156.60600280762</ele>
        <time>2010-11-06T13:12:15Z</time>
      </trkpt>
      <trkpt lat="45.0593" lon="4.89183">
        <ele>155.80000305176</ele>
        <time>2010-11-06T13:12:23Z</time>
      </trkpt>
      <trkpt lat="45.05886" lon="4.8917">
        <ele>155.01800537109</ele>
        <time>2010-11-06T13:12:28Z</time>
      </trkpt>
      <trkpt lat="45.05801" lon="4.89139">
        <ele>155.35499572754</ele>
        <time>2010-11-06T13:12:38Z</time>
      </trkpt>
      <trkpt lat="45.05714" lon="4.89107">
        <ele>156.02099609375</ele>
        <time>2010-11-06T13:12:48Z</time>
      </trkpt>
      <trkpt lat="45.05653" lon="4.89067">
        <ele>155.89199829102</ele>
        <time>2010-11-06T13:12:55Z</time>
      </trkpt>
      <trkpt lat="45.05581" lon="4.89012">
        <ele>156.01499938965</ele>
        <time>2010-11-06T13:13:04Z</time>
      </trkpt>
      <trkpt lat="45.05512" lon="4.88971">
        <ele>154.79299926758</ele>
        <time>2010-11-06T13:13:12Z</time>
      </trkpt>
      <trkpt lat="45.05436" lon="4.88928">
        <ele>155.17599487305</ele>
        <time>2010-11-06T13:13:21Z</time>
      </trkpt>
      <trkpt lat="45.05363" lon="4.8889">
        <ele>155.65600585938</ele>
        <time>2010-11-06T13:13:30Z</time>
      </trkpt>
      <trkpt lat="45.05347" lon="4.88881">
        <ele>155.57699584961</ele>
        <time>2010-11-06T13:13:32Z</time>
      </trkpt>
      <trkpt lat="45.05285" lon="4.88866">
        <ele>155.78799438477</ele>
        <time>2010-11-06T13:13:39Z</time>
      </trkpt>
      <trkpt lat="45.05214" lon="4.88855">
        <ele>156.00799560547</ele>
        <time>2010-11-06T13:13:47Z</time>
      </trkpt>
      <trkpt lat="45.05128" lon="4.8884">
        <ele>155.42999267578</ele>
        <time>2010-11-06T13:13:56Z</time>
      </trkpt>
      <trkpt lat="45.05051" lon="4.8883">
        <ele>154.08999633789</ele>
        <time>2010-11-06T13:14:04Z</time>
      </trkpt>
      <trkpt lat="45.04986" lon="4.88816">
        <ele>154.00900268555</ele>
        <time>2010-11-06T13:14:11Z</time>
      </trkpt>
      <trkpt lat="45.04896" lon="4.88793">
        <ele>153.73300170898</ele>
        <time>2010-11-06T13:14:21Z</time>
      </trkpt>
      <trkpt lat="45.04819" lon="4.88775">
        <ele>155.08999633789</ele>
        <time>2010-11-06T13:14:30Z</time>
      </trkpt>
      <trkpt lat="45.04733" lon="4.88756">
        <ele>154.91900634766</ele>
        <time>2010-11-06T13:14:40Z</time>
      </trkpt>
      <trkpt lat="45.04666" lon="4.88738">
        <ele>154.67100524902</ele>
        <time>2010-11-06T13:14:48Z</time>
      </trkpt>
      <trkpt lat="45.04575" lon="4.88716">
        <ele>154.47999572754</ele>
        <time>2010-11-06T13:14:59Z</time>
      </trkpt>
      <trkpt lat="45.04484" lon="4.88707">
        <ele>154.51699829102</ele>
        <time>2010-11-06T13:15:10Z</time>
      </trkpt>
      <trkpt lat="45.04399" lon="4.887">
        <ele>155.20700073242</ele>
        <time>2010-11-06T13:15:20Z</time>
      </trkpt>
      <trkpt lat="45.04326" lon="4.88699">
        <ele>153.97200012207</ele>
        <time>2010-11-06T13:15:28Z</time>
      </trkpt>
      <trkpt lat="45.04253" lon="4.88698">
        <ele>154.24600219727</ele>
        <time>2010-11-06T13:15:36Z</time>
      </trkpt>
      <trkpt lat="45.04175" lon="4.88694">
        <ele>154.69500732422</ele>
        <time>2010-11-06T13:15:45Z</time>
      </trkpt>
      <trkpt lat="45.04094" lon="4.88691">
        <ele>153.00999450684</ele>
        <time>2010-11-06T13:15:54Z</time>
      </trkpt>
      <trkpt lat="45.04023" lon="4.88688">
        <ele>152.72700500488</ele>
        <time>2010-11-06T13:16:02Z</time>
      </trkpt>
      <trkpt lat="45.03992" lon="4.88688">
        <ele>153.25199890137</ele>
        <time>2010-11-06T13:16:06Z</time>
      </trkpt>
      <trkpt lat="45.03965" lon="4.88696">
        <ele>152.93299865723</ele>
        <time>2010-11-06T13:16:10Z</time>
      </trkpt>
      <trkpt lat="45.03952" lon="4.8869">
        <ele>153.01699829102</ele>
        <time>2010-11-06T13:16:12Z</time>
      </trkpt>
      <trkpt lat="45.03934" lon="4.88681">
        <ele>153.91600036621</ele>
        <time>2010-11-06T13:16:15Z</time>
      </trkpt>
      <trkpt lat="45.03903" lon="4.88657">
        <ele>153.08599853516</ele>
        <time>2010-11-06T13:16:20Z</time>
      </trkpt>
      <trkpt lat="45.03834" lon="4.88588">
        <ele>152.65800476074</ele>
        <time>2010-11-06T13:16:31Z</time>
      </trkpt>
      <trkpt lat="45.03782" lon="4.88541">
        <ele>152.60800170898</ele>
        <time>2010-11-06T13:16:39Z</time>
      </trkpt>
      <trkpt lat="45.03714" lon="4.88477">
        <ele>153.73899841309</ele>
        <time>2010-11-06T13:16:49Z</time>
      </trkpt>
      <trkpt lat="45.03645" lon="4.88411">
        <ele>154.42900085449</ele>
        <time>2010-11-06T13:16:59Z</time>
      </trkpt>
      <trkpt lat="45.03581" lon="4.88351">
        <ele>153.88999938965</ele>
        <time>2010-11-06T13:17:08Z</time>
      </trkpt>
      <trkpt lat="45.03527" lon="4.88309">
        <ele>153.65600585938</ele>
        <time>2010-11-06T13:17:15Z</time>
      </trkpt>
      <trkpt lat="45.03454" lon="4.88257">
        <ele>153.19200134277</ele>
        <time>2010-11-06T13:17:24Z</time>
      </trkpt>
      <trkpt lat="45.03381" lon="4.88211">
        <ele>152.99899291992</ele>
        <time>2010-11-06T13:17:33Z</time>
      </trkpt>
      <trkpt lat="45.03326" lon="4.88168">
        <ele>153.31799316406</ele>
        <time>2010-11-06T13:17:40Z</time>
      </trkpt>
      <trkpt lat="45.03243" lon="4.88104">
        <ele>152.63299560547</ele>
        <time>2010-11-06T13:17:51Z</time>
      </trkpt>
      <trkpt lat="45.03195" lon="4.88072">
        <ele>151.18099975586</ele>
        <time>2010-11-06T13:17:57Z</time>
      </trkpt>
      <trkpt lat="45.0314" lon="4.88026">
        <ele>151.22700500488</ele>
        <time>2010-11-06T13:18:04Z</time>
      </trkpt>
      <trkpt lat="45.03072" lon="4.8797">
        <ele>150.38200378418</ele>
        <time>2010-11-06T13:18:13Z</time>
      </trkpt>
      <trkpt lat="45.02985" lon="4.87914">
        <ele>149.26699829102</ele>
        <time>2010-11-06T13:18:24Z</time>
      </trkpt>
      <trkpt lat="45.0297" lon="4.87901">
        <ele>149.05499267578</ele>
        <time>2010-11-06T13:18:26Z</time>
      </trkpt>
      <trkpt lat="45.02946" lon="4.87869">
        <ele>148.90400695801</ele>
        <time>2010-11-06T13:18:30Z</time>
      </trkpt>
      <trkpt lat="45.02903" lon="4.8779">
        <ele>150.08200073242</ele>
        <time>2010-11-06T13:18:39Z</time>
      </trkpt>
      <trkpt lat="45.02855" lon="4.87705">
        <ele>150.65400695801</ele>
        <time>2010-11-06T13:18:49Z</time>
      </trkpt>
      <trkpt lat="45.02815" lon="4.87609">
        <ele>150.90299987793</ele>
        <time>2010-11-06T13:18:59Z</time>
      </trkpt>
      <trkpt lat="45.02781" lon="4.87536">
        <ele>152.92599487305</ele>
        <time>2010-11-06T13:19:07Z</time>
      </trkpt>
      <trkpt lat="45.02747" lon="4.87461">
        <ele>153.35099792481</ele>
        <time>2010-11-06T13:19:15Z</time>
      </trkpt>
      <trkpt lat="45.02718" lon="4.87394">
        <ele>150.15100097656</ele>
        <time>2010-11-06T13:19:21Z</time>
      </trkpt>
      <trkpt lat="45.02692" lon="4.87334">
        <ele>146.89999389648</ele>
        <time>2010-11-06T13:19:26Z</time>
      </trkpt>
      <trkpt lat="45.02655" lon="4.87244">
        <ele>146.15699768066</ele>
        <time>2010-11-06T13:19:34Z</time>
      </trkpt>
      <trkpt lat="45.02614" lon="4.87151">
        <ele>146.60000610352</ele>
        <time>2010-11-06T13:19:43Z</time>
      </trkpt>
      <trkpt lat="45.02576" lon="4.87065">
        <ele>147.89599609375</ele>
        <time>2010-11-06T13:19:52Z</time>
      </trkpt>
      <trkpt lat="45.02545" lon="4.86979">
        <ele>148.80400085449</ele>
        <time>2010-11-06T13:20:01Z</time>
      </trkpt>
      <trkpt lat="45.02512" lon="4.86886">
        <ele>149.09399414062</ele>
        <time>2010-11-06T13:20:11Z</time>
      </trkpt>
      <trkpt lat="45.02494" lon="4.8684">
        <ele>149.73199462891</ele>
        <time>2010-11-06T13:20:17Z</time>
      </trkpt>
      <trkpt lat="45.02492" lon="4.86832">
        <ele>150.43400573731</ele>
        <time>2010-11-06T13:20:20Z</time>
      </trkpt>
      <trkpt lat="45.02492" lon="4.86831">
        <ele>150.50799560547</ele>
        <time>2010-11-06T13:20:21Z</time>
      </trkpt>
      <trkpt lat="45.02487" lon="4.86819">
        <ele>150.50700378418</ele>
        <time>2010-11-06T13:20:26Z</time>
      </trkpt>
      <trkpt lat="45.02477" lon="4.86801">
        <ele>150.06100463867</ele>
        <time>2010-11-06T13:20:30Z</time>
      </trkpt>
      <trkpt lat="45.02459" lon="4.86766">
        <ele>149.44200134277</ele>
        <time>2010-11-06T13:20:36Z</time>
      </trkpt>
      <trkpt lat="45.02438" lon="4.86724">
        <ele>149.06399536133</ele>
        <time>2010-11-06T13:20:42Z</time>
      </trkpt>
      <trkpt lat="45.0241" lon="4.86668">
        <ele>148.84100341797</ele>
        <time>2010-11-06T13:20:50Z</time>
      </trkpt>
      <trkpt lat="45.02374" lon="4.86596">
        <ele>148.7440032959</ele>
        <time>2010-11-06T13:20:59Z</time>
      </trkpt>
      <trkpt lat="45.02334" lon="4.86519">
        <ele>148.17300415039</ele>
        <time>2010-11-06T13:21:08Z</time>
      </trkpt>
      <trkpt lat="45.02286" lon="4.86426">
        <ele>147.84599304199</ele>
        <time>2010-11-06T13:21:18Z</time>
      </trkpt>
      <trkpt lat="45.02244" lon="4.86343">
        <ele>147.67500305176</ele>
        <time>2010-11-06T13:21:27Z</time>
      </trkpt>
      <trkpt lat="45.02207" lon="4.86285">
        <ele>147.45300292969</ele>
        <time>2010-11-06T13:21:34Z</time>
      </trkpt>
      <trkpt lat="45.0217" lon="4.86205">
        <ele>145.35400390625</ele>
        <time>2010-11-06T13:21:42Z</time>
      </trkpt>
      <trkpt lat="45.02139" lon="4.8615">
        <ele>141.74499511719</ele>
        <time>2010-11-06T13:21:47Z</time>
      </trkpt>
      <trkpt lat="45.02127" lon="4.86128">
        <ele>140.85000610352</ele>
        <time>2010-11-06T13:21:49Z</time>
      </trkpt>
      <trkpt lat="45.02104" lon="4.86081">
        <ele>139.11700439453</ele>
        <time>2010-11-06T13:21:53Z</time>
      </trkpt>
      <trkpt lat="45.02079" lon="4.86021">
        <ele>136.89700317383</ele>
        <time>2010-11-06T13:21:58Z</time>
      </trkpt>
      <trkpt lat="45.02048" lon="4.85963">
        <ele>135.53799438477</ele>
        <time>2010-11-06T13:22:03Z</time>
      </trkpt>
      <trkpt lat="45.0203" lon="4.85928">
        <ele>134.09899902344</ele>
        <time>2010-11-06T13:22:06Z</time>
      </trkpt>
      <trkpt lat="45.02003" lon="4.85855">
        <ele>134.6130065918</ele>
        <time>2010-11-06T13:22:12Z</time>
      </trkpt>
      <trkpt lat="45.01995" lon="4.85831">
        <ele>134.01600646973</ele>
        <time>2010-11-06T13:22:14Z</time>
      </trkpt>
      <trkpt lat="45.0197" lon="4.85798">
        <ele>133.83399963379</ele>
        <time>2010-11-06T13:22:18Z</time>
      </trkpt>
      <trkpt lat="45.01961" lon="4.85796">
        <ele>133.85299682617</ele>
        <time>2010-11-06T13:22:19Z</time>
      </trkpt>
      <trkpt lat="45.01877" lon="4.85779">
        <ele>133.83799743652</ele>
        <time>2010-11-06T13:22:29Z</time>
      </trkpt>
      <trkpt lat="45.01847" lon="4.85774">
        <ele>134.42900085449</ele>
        <time>2010-11-06T13:22:33Z</time>
      </trkpt>
      <trkpt lat="45.01786" lon="4.85761">
        <ele>135.41999816894</ele>
        <time>2010-11-06T13:22:41Z</time>
      </trkpt>
      <trkpt lat="45.01727" lon="4.85752">
        <ele>136.34800720215</ele>
        <time>2010-11-06T13:22:49Z</time>
      </trkpt>
      <trkpt lat="45.01686" lon="4.85755">
        <ele>138.18499755859</ele>
        <time>2010-11-06T13:22:55Z</time>
      </trkpt>
      <trkpt lat="45.01648" lon="4.85761">
        <ele>140.23199462891</ele>
        <time>2010-11-06T13:23:01Z</time>
      </trkpt>
      <trkpt lat="45.01636" lon="4.85763">
        <ele>140.91499328613</ele>
        <time>2010-11-06T13:23:03Z</time>
      </trkpt>
      <trkpt lat="45.01592" lon="4.85768">
        <ele>142.04499816894</ele>
        <time>2010-11-06T13:23:10Z</time>
      </trkpt>
      <trkpt lat="45.01567" lon="4.85756">
        <ele>141.40400695801</ele>
        <time>2010-11-06T13:23:14Z</time>
      </trkpt>
      <trkpt lat="45.01557" lon="4.85729">
        <ele>140.96600341797</ele>
        <time>2010-11-06T13:23:17Z</time>
      </trkpt>
      <trkpt lat="45.0155" lon="4.85686">
        <ele>139.38800048828</ele>
        <time>2010-11-06T13:23:21Z</time>
      </trkpt>
      <trkpt lat="45.0155" lon="4.85653">
        <ele>137.8869934082</ele>
        <time>2010-11-06T13:23:24Z</time>
      </trkpt>
      <trkpt lat="45.01541" lon="4.8561">
        <ele>137.23599243164</ele>
        <time>2010-11-06T13:23:28Z</time>
      </trkpt>
      <trkpt lat="45.01537" lon="4.85599">
        <ele>136.67599487305</ele>
        <time>2010-11-06T13:23:29Z</time>
      </trkpt>
      <trkpt lat="45.01531" lon="4.85576">
        <ele>135.89700317383</ele>
        <time>2010-11-06T13:23:31Z</time>
      </trkpt>
      <trkpt lat="45.01514" lon="4.85528">
        <ele>133.85800170898</ele>
        <time>2010-11-06T13:23:35Z</time>
      </trkpt>
      <trkpt lat="45.01497" lon="4.85482">
        <ele>132.97799682617</ele>
        <time>2010-11-06T13:23:39Z</time>
      </trkpt>
      <trkpt lat="45.0147" lon="4.8541">
        <ele>134.56199645996</ele>
        <time>2010-11-06T13:23:46Z</time>
      </trkpt>
      <trkpt lat="45.01431" lon="4.85309">
        <ele>134.41700744629</ele>
        <time>2010-11-06T13:23:56Z</time>
      </trkpt>
      <trkpt lat="45.01402" lon="4.85233">
        <ele>132.68699645996</ele>
        <time>2010-11-06T13:24:03Z</time>
      </trkpt>
      <trkpt lat="45.01373" lon="4.85157">
        <ele>129.29800415039</ele>
        <time>2010-11-06T13:24:09Z</time>
      </trkpt>
      <trkpt lat="45.01357" lon="4.85115">
        <ele>127.80200195312</ele>
        <time>2010-11-06T13:24:12Z</time>
      </trkpt>
      <trkpt lat="45.01343" lon="4.85074">
        <ele>126.41600036621</ele>
        <time>2010-11-06T13:24:15Z</time>
      </trkpt>
      <trkpt lat="45.01321" lon="4.84995">
        <ele>125.87300109863</ele>
        <time>2010-11-06T13:24:21Z</time>
      </trkpt>
      <trkpt lat="45.01311" lon="4.8496">
        <ele>125.59899902344</ele>
        <time>2010-11-06T13:24:24Z</time>
      </trkpt>
      <trkpt lat="45.01305" lon="4.84926">
        <ele>125.76100158691</ele>
        <time>2010-11-06T13:24:27Z</time>
      </trkpt>
      <trkpt lat="45.0129" lon="4.84872">
        <ele>126.2799987793</ele>
        <time>2010-11-06T13:24:32Z</time>
      </trkpt>
      <trkpt lat="45.01261" lon="4.84801">
        <ele>126.42800140381</ele>
        <time>2010-11-06T13:24:39Z</time>
      </trkpt>
      <trkpt lat="45.01221" lon="4.8475">
        <ele>126.18900299072</ele>
        <time>2010-11-06T13:24:45Z</time>
      </trkpt>
      <trkpt lat="45.01167" lon="4.84685">
        <ele>126.35500335693</ele>
        <time>2010-11-06T13:24:53Z</time>
      </trkpt>
      <trkpt lat="45.01117" lon="4.84623">
        <ele>126.3629989624</ele>
        <time>2010-11-06T13:25:01Z</time>
      </trkpt>
      <trkpt lat="45.01095" lon="4.84589">
        <ele>126.19300079346</ele>
        <time>2010-11-06T13:25:05Z</time>
      </trkpt>
      <trkpt lat="45.01084" lon="4.84547">
        <ele>125.59700012207</ele>
        <time>2010-11-06T13:25:09Z</time>
      </trkpt>
      <trkpt lat="45.01081" lon="4.84536">
        <ele>125.54499816894</ele>
        <time>2010-11-06T13:25:10Z</time>
      </trkpt>
      <trkpt lat="45.01072" lon="4.84478">
        <ele>124.70400238037</ele>
        <time>2010-11-06T13:25:15Z</time>
      </trkpt>
      <trkpt lat="45.01075" lon="4.84381">
        <ele>124.39199829102</ele>
        <time>2010-11-06T13:25:23Z</time>
      </trkpt>
      <trkpt lat="45.01078" lon="4.84288">
        <ele>123.76599884033</ele>
        <time>2010-11-06T13:25:31Z</time>
      </trkpt>
      <trkpt lat="45.01077" lon="4.84222">
        <ele>123.86399841309</ele>
        <time>2010-11-06T13:25:37Z</time>
      </trkpt>
      <trkpt lat="45.01077" lon="4.84179">
        <ele>123.90200042725</ele>
        <time>2010-11-06T13:25:41Z</time>
      </trkpt>
      <trkpt lat="45.01061" lon="4.84156">
        <ele>124.422996521</ele>
        <time>2010-11-06T13:25:44Z</time>
      </trkpt>
      <trkpt lat="45.01041" lon="4.84147">
        <ele>125.46900177002</ele>
        <time>2010-11-06T13:25:47Z</time>
      </trkpt>
      <trkpt lat="45.01013" lon="4.84129">
        <ele>127.26899719238</ele>
        <time>2010-11-06T13:25:52Z</time>
      </trkpt>
      <trkpt lat="45.01011" lon="4.8412">
        <ele>127.56800079346</ele>
        <time>2010-11-06T13:25:53Z</time>
      </trkpt>
      <trkpt lat="45.01011" lon="4.84084">
        <ele>129.24000549316</ele>
        <time>2010-11-06T13:25:57Z</time>
      </trkpt>
      <trkpt lat="45.01021" lon="4.84026">
        <ele>129.07099914551</ele>
        <time>2010-11-06T13:26:03Z</time>
      </trkpt>
      <trkpt lat="45.01038" lon="4.83925">
        <ele>129.37100219727</ele>
        <time>2010-11-06T13:26:13Z</time>
      </trkpt>
      <trkpt lat="45.01057" lon="4.83808">
        <ele>128.44599914551</ele>
        <time>2010-11-06T13:26:24Z</time>
      </trkpt>
      <trkpt lat="45.01065" lon="4.8377">
        <ele>126.28600311279</ele>
        <time>2010-11-06T13:26:27Z</time>
      </trkpt>
      <trkpt lat="45.01077" lon="4.83734">
        <ele>124.70600128174</ele>
        <time>2010-11-06T13:26:30Z</time>
      </trkpt>
      <trkpt lat="45.01082" lon="4.83724">
        <ele>124.63200378418</ele>
        <time>2010-11-06T13:26:31Z</time>
      </trkpt>
      <trkpt lat="45.01141" lon="4.83618">
        <ele>124.82900238037</ele>
        <time>2010-11-06T13:26:42Z</time>
      </trkpt>
      <trkpt lat="45.01146" lon="4.83609">
        <ele>124.90599822998</ele>
        <time>2010-11-06T13:26:43Z</time>
      </trkpt>
      <trkpt lat="45.01174" lon="4.83581">
        <ele>124.70500183106</ele>
        <time>2010-11-06T13:26:47Z</time>
      </trkpt>
      <trkpt lat="45.01208" lon="4.83575">
        <ele>124.68800354004</ele>
        <time>2010-11-06T13:26:51Z</time>
      </trkpt>
      <trkpt lat="45.01225" lon="4.83579">
        <ele>124.20500183106</ele>
        <time>2010-11-06T13:26:53Z</time>
      </trkpt>
      <trkpt lat="45.01318" lon="4.83626">
        <ele>123.98999786377</ele>
        <time>2010-11-06T13:27:04Z</time>
      </trkpt>
      <trkpt lat="45.014" lon="4.83667">
        <ele>123.94999694824</ele>
        <time>2010-11-06T13:27:14Z</time>
      </trkpt>
      <trkpt lat="45.01464" lon="4.83696">
        <ele>123.827003479</ele>
        <time>2010-11-06T13:27:22Z</time>
      </trkpt>
      <trkpt lat="45.01505" lon="4.83701">
        <ele>123.25499725342</ele>
        <time>2010-11-06T13:27:27Z</time>
      </trkpt>
      <trkpt lat="45.01545" lon="4.83692">
        <ele>123.56500244141</ele>
        <time>2010-11-06T13:27:32Z</time>
      </trkpt>
      <trkpt lat="45.0159" lon="4.83665">
        <ele>123.82599639893</ele>
        <time>2010-11-06T13:27:38Z</time>
      </trkpt>
      <trkpt lat="45.01665" lon="4.83621">
        <ele>123.66300201416</ele>
        <time>2010-11-06T13:27:48Z</time>
      </trkpt>
      <trkpt lat="45.01726" lon="4.83593">
        <ele>124.06400299072</ele>
        <time>2010-11-06T13:27:56Z</time>
      </trkpt>
      <trkpt lat="45.01781" lon="4.8356">
        <ele>124.90000152588</ele>
        <time>2010-11-06T13:28:04Z</time>
      </trkpt>
      <trkpt lat="45.01843" lon="4.83516">
        <ele>125.14199829102</ele>
        <time>2010-11-06T13:28:13Z</time>
      </trkpt>
      <trkpt lat="45.0188" lon="4.83475">
        <ele>125.53900146484</ele>
        <time>2010-11-06T13:28:19Z</time>
      </trkpt>
      <trkpt lat="45.01904" lon="4.83435">
        <ele>126.36199951172</ele>
        <time>2010-11-06T13:28:24Z</time>
      </trkpt>
      <trkpt lat="45.0192" lon="4.83404">
        <ele>127.952003479</ele>
        <time>2010-11-06T13:28:29Z</time>
      </trkpt>
      <trkpt lat="45.01931" lon="4.83386">
        <ele>127.42700195312</ele>
        <time>2010-11-06T13:28:34Z</time>
      </trkpt>
      <trkpt lat="45.0194" lon="4.83359">
        <ele>126.61399841309</ele>
        <time>2010-11-06T13:28:40Z</time>
      </trkpt>
      <trkpt lat="45.01934" lon="4.83344">
        <ele>126.15899658203</ele>
        <time>2010-11-06T13:28:43Z</time>
      </trkpt>
      <trkpt lat="45.01929" lon="4.83342">
        <ele>126.12200164795</ele>
        <time>2010-11-06T13:28:44Z</time>
      </trkpt>
      <trkpt lat="45.01908" lon="4.83335">
        <ele>126.2919998169</ele>
        <time>2010-11-06T13:28:48Z</time>
      </trkpt>
      <trkpt lat="45.0187" lon="4.83323">
        <ele>127.31400299072</ele>
        <time>2010-11-06T13:28:54Z</time>
      </trkpt>
      <trkpt lat="45.01825" lon="4.8331">
        <ele>128.10000610352</ele>
        <time>2010-11-06T13:29:01Z</time>
      </trkpt>
      <trkpt lat="45.01771" lon="4.83305">
        <ele>128.88299560547</ele>
        <time>2010-11-06T13:29:09Z</time>
      </trkpt>
      <trkpt lat="45.01707" lon="4.83309">
        <ele>129.30499267578</ele>
        <time>2010-11-06T13:29:18Z</time>
      </trkpt>
      <trkpt lat="45.01638" lon="4.83315">
        <ele>128.24800109863</ele>
        <time>2010-11-06T13:29:27Z</time>
      </trkpt>
      <trkpt lat="45.01579" lon="4.83327">
        <ele>126.39399719238</ele>
        <time>2010-11-06T13:29:34Z</time>
      </trkpt>
      <trkpt lat="45.01535" lon="4.83334">
        <ele>124.71499633789</ele>
        <time>2010-11-06T13:29:39Z</time>
      </trkpt>
      <trkpt lat="45.01479" lon="4.83332">
        <ele>124.2919998169</ele>
        <time>2010-11-06T13:29:45Z</time>
      </trkpt>
      <trkpt lat="45.01401" lon="4.83323">
        <ele>124.9169998169</ele>
        <time>2010-11-06T13:29:54Z</time>
      </trkpt>
      <trkpt lat="45.01333" lon="4.83315">
        <ele>126.53099822998</ele>
        <time>2010-11-06T13:30:03Z</time>
      </trkpt>
      <trkpt lat="45.01274" lon="4.83312">
        <ele>128.55799865723</ele>
        <time>2010-11-06T13:30:11Z</time>
      </trkpt>
      <trkpt lat="45.01232" lon="4.83319">
        <ele>129.80900573731</ele>
        <time>2010-11-06T13:30:17Z</time>
      </trkpt>
      <trkpt lat="45.01164" lon="4.83334">
        <ele>131.2200012207</ele>
        <time>2010-11-06T13:30:26Z</time>
      </trkpt>
      <trkpt lat="45.01105" lon="4.83353">
        <ele>131.61599731445</ele>
        <time>2010-11-06T13:30:33Z</time>
      </trkpt>
      <trkpt lat="45.01049" lon="4.83362">
        <ele>133.37600708008</ele>
        <time>2010-11-06T13:30:40Z</time>
      </trkpt>
      <trkpt lat="45.00986" lon="4.83365">
        <ele>134.50100708008</ele>
        <time>2010-11-06T13:30:48Z</time>
      </trkpt>
      <trkpt lat="45.00942" lon="4.83354">
        <ele>135.4049987793</ele>
        <time>2010-11-06T13:30:54Z</time>
      </trkpt>
      <trkpt lat="45.00897" lon="4.83345">
        <ele>137.10800170898</ele>
        <time>2010-11-06T13:31:01Z</time>
      </trkpt>
      <trkpt lat="45.00871" lon="4.83347">
        <ele>137.94400024414</ele>
        <time>2010-11-06T13:31:05Z</time>
      </trkpt>
      <trkpt lat="45.0082" lon="4.83361">
        <ele>138.14500427246</ele>
        <time>2010-11-06T13:31:13Z</time>
      </trkpt>
      <trkpt lat="45.00767" lon="4.83379">
        <ele>137.20799255371</ele>
        <time>2010-11-06T13:31:20Z</time>
      </trkpt>
      <trkpt lat="45.00699" lon="4.83405">
        <ele>136.35600280762</ele>
        <time>2010-11-06T13:31:28Z</time>
      </trkpt>
      <trkpt lat="45.0065" lon="4.83423">
        <ele>135.94299316406</ele>
        <time>2010-11-06T13:31:34Z</time>
      </trkpt>
      <trkpt lat="45.00601" lon="4.83446">
        <ele>135.83200073242</ele>
        <time>2010-11-06T13:31:40Z</time>
      </trkpt>
      <trkpt lat="45.00549" lon="4.83478">
        <ele>134.59599304199</ele>
        <time>2010-11-06T13:31:46Z</time>
      </trkpt>
      <trkpt lat="45.00516" lon="4.83511">
        <ele>134.31300354004</ele>
        <time>2010-11-06T13:31:50Z</time>
      </trkpt>
      <trkpt lat="45.00481" lon="4.83565">
        <ele>133.00500488281</ele>
        <time>2010-11-06T13:31:55Z</time>
      </trkpt>
      <trkpt lat="45.00435" lon="4.83652">
        <ele>131.28100585938</ele>
        <time>2010-11-06T13:32:02Z</time>
      </trkpt>
      <trkpt lat="45.00384" lon="4.83751">
        <ele>131.14900207519</ele>
        <time>2010-11-06T13:32:10Z</time>
      </trkpt>
      <trkpt lat="45.00343" lon="4.83829">
        <ele>130.35400390625</ele>
        <time>2010-11-06T13:32:17Z</time>
      </trkpt>
      <trkpt lat="45.00299" lon="4.83895">
        <ele>130.46099853516</ele>
        <time>2010-11-06T13:32:24Z</time>
      </trkpt>
      <trkpt lat="45.00255" lon="4.83944">
        <ele>129.93800354004</ele>
        <time>2010-11-06T13:32:30Z</time>
      </trkpt>
      <trkpt lat="45.00205" lon="4.8398">
        <ele>129.60499572754</ele>
        <time>2010-11-06T13:32:36Z</time>
      </trkpt>
      <trkpt lat="45.00151" lon="4.84004">
        <ele>129.39399719238</ele>
        <time>2010-11-06T13:32:42Z</time>
      </trkpt>
      <trkpt lat="45.00077" lon="4.84029">
        <ele>129.52000427246</ele>
        <time>2010-11-06T13:32:50Z</time>
      </trkpt>
      <trkpt lat="44.99988" lon="4.84061">
        <ele>130.13200378418</ele>
        <time>2010-11-06T13:33:00Z</time>
      </trkpt>
      <trkpt lat="44.99929" lon="4.84084">
        <ele>130.10400390625</ele>
        <time>2010-11-06T13:33:07Z</time>
      </trkpt>
      <trkpt lat="44.99874" lon="4.8411">
        <ele>132.88200378418</ele>
        <time>2010-11-06T13:33:14Z</time>
      </trkpt>
      <trkpt lat="44.99831" lon="4.84142">
        <ele>133.28399658203</ele>
        <time>2010-11-06T13:33:20Z</time>
      </trkpt>
      <trkpt lat="44.99751" lon="4.84213">
        <ele>133.51899719238</ele>
        <time>2010-11-06T13:33:31Z</time>
      </trkpt>
      <trkpt lat="44.99673" lon="4.84281">
        <ele>134.60800170898</ele>
        <time>2010-11-06T13:33:42Z</time>
      </trkpt>
      <trkpt lat="44.99667" lon="4.84286">
        <ele>134.71600341797</ele>
        <time>2010-11-06T13:33:43Z</time>
      </trkpt>
      <trkpt lat="44.99648" lon="4.84292">
        <ele>135.16400146484</ele>
        <time>2010-11-06T13:33:46Z</time>
      </trkpt>
      <trkpt lat="44.99638" lon="4.84278">
        <ele>136.36000061035</ele>
        <time>2010-11-06T13:33:49Z</time>
      </trkpt>
      <trkpt lat="44.99616" lon="4.84241">
        <ele>139.32299804688</ele>
        <time>2010-11-06T13:33:58Z</time>
      </trkpt>
      <trkpt lat="44.99593" lon="4.84225">
        <ele>141.32400512695</ele>
        <time>2010-11-06T13:34:05Z</time>
      </trkpt>
      <trkpt lat="44.99578" lon="4.84219">
        <ele>142.04499816894</ele>
        <time>2010-11-06T13:34:09Z</time>
      </trkpt>
      <trkpt lat="44.99548" lon="4.84214">
        <ele>144.60299682617</ele>
        <time>2010-11-06T13:34:17Z</time>
      </trkpt>
      <trkpt lat="44.99531" lon="4.84215">
        <ele>144.84199523926</ele>
        <time>2010-11-06T13:34:22Z</time>
      </trkpt>
      <trkpt lat="44.99513" lon="4.84228">
        <ele>148.43099975586</ele>
        <time>2010-11-06T13:34:28Z</time>
      </trkpt>
      <trkpt lat="44.99494" lon="4.84247">
        <ele>150.3809967041</ele>
        <time>2010-11-06T13:34:35Z</time>
      </trkpt>
      <trkpt lat="44.9947" lon="4.84259">
        <ele>153.12300109863</ele>
        <time>2010-11-06T13:34:43Z</time>
      </trkpt>
      <trkpt lat="44.99449" lon="4.84252">
        <ele>155.37899780273</ele>
        <time>2010-11-06T13:34:50Z</time>
      </trkpt>
      <trkpt lat="44.99438" lon="4.84239">
        <ele>157.63400268555</ele>
        <time>2010-11-06T13:34:56Z</time>
      </trkpt>
      <trkpt lat="44.99433" lon="4.84232">
        <ele>158.73699951172</ele>
        <time>2010-11-06T13:34:59Z</time>
      </trkpt>
      <trkpt lat="44.99421" lon="4.84218">
        <ele>160.89599609375</ele>
        <time>2010-11-06T13:35:05Z</time>
      </trkpt>
      <trkpt lat="44.99413" lon="4.84202">
        <ele>162.91299438477</ele>
        <time>2010-11-06T13:35:11Z</time>
      </trkpt>
      <trkpt lat="44.9941" lon="4.84181">
        <ele>165.05499267578</ele>
        <time>2010-11-06T13:35:17Z</time>
      </trkpt>
      <trkpt lat="44.99416" lon="4.84169">
        <ele>167.16700744629</ele>
        <time>2010-11-06T13:35:21Z</time>
      </trkpt>
      <trkpt lat="44.99419" lon="4.84168">
        <ele>167.44299316406</ele>
        <time>2010-11-06T13:35:22Z</time>
      </trkpt>
      <trkpt lat="44.99426" lon="4.84169">
        <ele>168.27499389648</ele>
        <time>2010-11-06T13:35:24Z</time>
      </trkpt>
      <trkpt lat="44.99441" lon="4.84196">
        <ele>169.57000732422</ele>
        <time>2010-11-06T13:35:31Z</time>
      </trkpt>
      <trkpt lat="44.99456" lon="4.84207">
        <ele>170.83799743652</ele>
        <time>2010-11-06T13:35:36Z</time>
      </trkpt>
      <trkpt lat="44.99473" lon="4.84198">
        <ele>172.00300598144</ele>
        <time>2010-11-06T13:35:41Z</time>
      </trkpt>
      <trkpt lat="44.99495" lon="4.84168">
        <ele>174.22500610352</ele>
        <time>2010-11-06T13:35:49Z</time>
      </trkpt>
      <trkpt lat="44.995" lon="4.84148">
        <ele>175.32899475098</ele>
        <time>2010-11-06T13:35:53Z</time>
      </trkpt>
      <trkpt lat="44.99498" lon="4.84119">
        <ele>176.57499694824</ele>
        <time>2010-11-06T13:35:58Z</time>
      </trkpt>
      <trkpt lat="44.9949" lon="4.84089">
        <ele>179.6130065918</ele>
        <time>2010-11-06T13:36:05Z</time>
      </trkpt>
      <trkpt lat="44.9948" lon="4.8407">
        <ele>180.27400207519</ele>
        <time>2010-11-06T13:36:12Z</time>
      </trkpt>
      <trkpt lat="44.99468" lon="4.84057">
        <ele>181.15600585938</ele>
        <time>2010-11-06T13:36:18Z</time>
      </trkpt>
      <trkpt lat="44.99453" lon="4.8404">
        <ele>181.4940032959</ele>
        <time>2010-11-06T13:36:26Z</time>
      </trkpt>
      <trkpt lat="44.99446" lon="4.84026">
        <ele>186.0299987793</ele>
        <time>2010-11-06T13:36:31Z</time>
      </trkpt>
      <trkpt lat="44.99446" lon="4.84006">
        <ele>186.96699523926</ele>
        <time>2010-11-06T13:36:36Z</time>
      </trkpt>
      <trkpt lat="44.99459" lon="4.83987">
        <ele>187.83799743652</ele>
        <time>2010-11-06T13:36:42Z</time>
      </trkpt>
      <trkpt lat="44.99476" lon="4.83985">
        <ele>190.11399841309</ele>
        <time>2010-11-06T13:36:47Z</time>
      </trkpt>
      <trkpt lat="44.99509" lon="4.83988">
        <ele>192.75900268555</ele>
        <time>2010-11-06T13:36:56Z</time>
      </trkpt>
      <trkpt lat="44.99531" lon="4.83981">
        <ele>193.46699523926</ele>
        <time>2010-11-06T13:37:02Z</time>
      </trkpt>
      <trkpt lat="44.99545" lon="4.83988">
        <ele>196.08000183106</ele>
        <time>2010-11-06T13:37:06Z</time>
      </trkpt>
      <trkpt lat="44.99568" lon="4.83991">
        <ele>197.68299865723</ele>
        <time>2010-11-06T13:37:12Z</time>
      </trkpt>
      <trkpt lat="44.99588" lon="4.83988">
        <ele>199.35499572754</ele>
        <time>2010-11-06T13:37:17Z</time>
      </trkpt>
      <trkpt lat="44.99613" lon="4.83966">
        <ele>201.93499755859</ele>
        <time>2010-11-06T13:37:24Z</time>
      </trkpt>
      <trkpt lat="44.99622" lon="4.83952">
        <ele>202.99899291992</ele>
        <time>2010-11-06T13:37:27Z</time>
      </trkpt>
      <trkpt lat="44.99636" lon="4.83938">
        <ele>204.75</ele>
        <time>2010-11-06T13:37:31Z</time>
      </trkpt>
      <trkpt lat="44.99652" lon="4.83931">
        <ele>206.35200500488</ele>
        <time>2010-11-06T13:37:35Z</time>
      </trkpt>
      <trkpt lat="44.99665" lon="4.8393">
        <ele>207.18400573731</ele>
        <time>2010-11-06T13:37:38Z</time>
      </trkpt>
      <trkpt lat="44.99694" lon="4.83941">
        <ele>209.38900756836</ele>
        <time>2010-11-06T13:37:44Z</time>
      </trkpt>
      <trkpt lat="44.99699" lon="4.83942">
        <ele>209.63299560547</ele>
        <time>2010-11-06T13:37:45Z</time>
      </trkpt>
      <trkpt lat="44.9972" lon="4.83941">
        <ele>211.48699951172</ele>
        <time>2010-11-06T13:37:49Z</time>
      </trkpt>
      <trkpt lat="44.99751" lon="4.83923">
        <ele>214.24899291992</ele>
        <time>2010-11-06T13:37:56Z</time>
      </trkpt>
      <trkpt lat="44.99768" lon="4.83907">
        <ele>216.19500732422</ele>
        <time>2010-11-06T13:38:01Z</time>
      </trkpt>
      <trkpt lat="44.9977" lon="4.83903">
        <ele>216.67700195312</ele>
        <time>2010-11-06T13:38:02Z</time>
      </trkpt>
      <trkpt lat="44.9977" lon="4.83894">
        <ele>217.57099914551</ele>
        <time>2010-11-06T13:38:04Z</time>
      </trkpt>
      <trkpt lat="44.99763" lon="4.83888">
        <ele>219.07099914551</ele>
        <time>2010-11-06T13:38:07Z</time>
      </trkpt>
      <trkpt lat="44.9976" lon="4.83888">
        <ele>219.32099914551</ele>
        <time>2010-11-06T13:38:08Z</time>
      </trkpt>
      <trkpt lat="44.99735" lon="4.83889">
        <ele>222.4049987793</ele>
        <time>2010-11-06T13:38:16Z</time>
      </trkpt>
      <trkpt lat="44.99718" lon="4.83891">
        <ele>223.61099243164</ele>
        <time>2010-11-06T13:38:21Z</time>
      </trkpt>
      <trkpt lat="44.9971" lon="4.8389">
        <ele>223.70199584961</ele>
        <time>2010-11-06T13:38:23Z</time>
      </trkpt>
      <trkpt lat="44.9968" lon="4.83874">
        <ele>225.27000427246</ele>
        <time>2010-11-06T13:38:31Z</time>
      </trkpt>
      <trkpt lat="44.99659" lon="4.83858">
        <ele>227.74200439453</ele>
        <time>2010-11-06T13:38:38Z</time>
      </trkpt>
      <trkpt lat="44.99652" lon="4.83851">
        <ele>229.06900024414</ele>
        <time>2010-11-06T13:38:41Z</time>
      </trkpt>
      <trkpt lat="44.99633" lon="4.83839">
        <ele>231.52499389648</ele>
        <time>2010-11-06T13:38:48Z</time>
      </trkpt>
      <trkpt lat="44.9961" lon="4.8383">
        <ele>233.03100585938</ele>
        <time>2010-11-06T13:38:55Z</time>
      </trkpt>
      <trkpt lat="44.99584" lon="4.83819">
        <ele>233.33299255371</ele>
        <time>2010-11-06T13:39:01Z</time>
      </trkpt>
      <trkpt lat="44.99543" lon="4.83803">
        <ele>234.20300292969</ele>
        <time>2010-11-06T13:39:09Z</time>
      </trkpt>
      <trkpt lat="44.99501" lon="4.83787">
        <ele>236.29699707031</ele>
        <time>2010-11-06T13:39:17Z</time>
      </trkpt>
      <trkpt lat="44.99477" lon="4.83776">
        <ele>239.18200683594</ele>
        <time>2010-11-06T13:39:24Z</time>
      </trkpt>
      <trkpt lat="44.99469" lon="4.83772">
        <ele>240.41900634766</ele>
        <time>2010-11-06T13:39:27Z</time>
      </trkpt>
      <trkpt lat="44.99451" lon="4.83764">
        <ele>243.37199401856</ele>
        <time>2010-11-06T13:39:34Z</time>
      </trkpt>
      <trkpt lat="44.99436" lon="4.83753">
        <ele>245.24200439453</ele>
        <time>2010-11-06T13:39:40Z</time>
      </trkpt>
      <trkpt lat="44.9942" lon="4.8375">
        <ele>247.34700012207</ele>
        <time>2010-11-06T13:39:46Z</time>
      </trkpt>
      <trkpt lat="44.99408" lon="4.83761">
        <ele>249.24800109863</ele>
        <time>2010-11-06T13:39:51Z</time>
      </trkpt>
      <trkpt lat="44.99397" lon="4.83788">
        <ele>251.35600280762</ele>
        <time>2010-11-06T13:39:58Z</time>
      </trkpt>
      <trkpt lat="44.99387" lon="4.83809">
        <ele>253.35800170898</ele>
        <time>2010-11-06T13:40:04Z</time>
      </trkpt>
      <trkpt lat="44.99372" lon="4.83831">
        <ele>255.52699279785</ele>
        <time>2010-11-06T13:40:11Z</time>
      </trkpt>
      <trkpt lat="44.99359" lon="4.83835">
        <ele>257.46600341797</ele>
        <time>2010-11-06T13:40:16Z</time>
      </trkpt>
      <trkpt lat="44.99343" lon="4.83833">
        <ele>258.52099609375</ele>
        <time>2010-11-06T13:40:21Z</time>
      </trkpt>
      <trkpt lat="44.99339" lon="4.8382">
        <ele>260.25500488281</ele>
        <time>2010-11-06T13:40:25Z</time>
      </trkpt>
      <trkpt lat="44.99343" lon="4.83817">
        <ele>260.94100952148</ele>
        <time>2010-11-06T13:40:27Z</time>
      </trkpt>
      <trkpt lat="44.99345" lon="4.83817">
        <ele>261.24700927734</ele>
        <time>2010-11-06T13:40:28Z</time>
      </trkpt>
      <trkpt lat="44.9936" lon="4.83818">
        <ele>262.22900390625</ele>
        <time>2010-11-06T13:40:33Z</time>
      </trkpt>
      <trkpt lat="44.99372" lon="4.83807">
        <ele>263.96798706055</ele>
        <time>2010-11-06T13:40:38Z</time>
      </trkpt>
      <trkpt lat="44.99374" lon="4.83786">
        <ele>265.74398803711</ele>
        <time>2010-11-06T13:40:43Z</time>
      </trkpt>
      <trkpt lat="44.99364" lon="4.83767">
        <ele>267.25500488281</ele>
        <time>2010-11-06T13:40:48Z</time>
      </trkpt>
      <trkpt lat="44.99348" lon="4.83754">
        <ele>269.74499511719</ele>
        <time>2010-11-06T13:40:54Z</time>
      </trkpt>
      <trkpt lat="44.99329" lon="4.83735">
        <ele>272.29000854492</ele>
        <time>2010-11-06T13:41:02Z</time>
      </trkpt>
      <trkpt lat="44.99311" lon="4.83708">
        <ele>274.32998657227</ele>
        <time>2010-11-06T13:41:10Z</time>
      </trkpt>
      <trkpt lat="44.993" lon="4.83683">
        <ele>276.75201416016</ele>
        <time>2010-11-06T13:41:17Z</time>
      </trkpt>
      <trkpt lat="44.99295" lon="4.83658">
        <ele>278.52301025391</ele>
        <time>2010-11-06T13:41:23Z</time>
      </trkpt>
      <trkpt lat="44.99293" lon="4.83633">
        <ele>280.61199951172</ele>
        <time>2010-11-06T13:41:29Z</time>
      </trkpt>
      <trkpt lat="44.99293" lon="4.83611">
        <ele>282.35198974609</ele>
        <time>2010-11-06T13:41:35Z</time>
      </trkpt>
      <trkpt lat="44.99298" lon="4.83592">
        <ele>284.1549987793</ele>
        <time>2010-11-06T13:41:41Z</time>
      </trkpt>
      <trkpt lat="44.99303" lon="4.83574">
        <ele>286.01098632812</ele>
        <time>2010-11-06T13:41:47Z</time>
      </trkpt>
      <trkpt lat="44.99302" lon="4.83558">
        <ele>287.62600708008</ele>
        <time>2010-11-06T13:41:52Z</time>
      </trkpt>
      <trkpt lat="44.99293" lon="4.83551">
        <ele>289.64999389648</ele>
        <time>2010-11-06T13:41:58Z</time>
      </trkpt>
      <trkpt lat="44.99287" lon="4.83549">
        <ele>290.44500732422</ele>
        <time>2010-11-06T13:42:01Z</time>
      </trkpt>
      <trkpt lat="44.99273" lon="4.83545">
        <ele>292.86599731445</ele>
        <time>2010-11-06T13:42:09Z</time>
      </trkpt>
      <trkpt lat="44.99264" lon="4.83541">
        <ele>294.09201049805</ele>
        <time>2010-11-06T13:42:14Z</time>
      </trkpt>
      <trkpt lat="44.99255" lon="4.83538">
        <ele>295.20300292969</ele>
        <time>2010-11-06T13:42:19Z</time>
      </trkpt>
      <trkpt lat="44.99244" lon="4.83533">
        <ele>297.73901367188</ele>
        <time>2010-11-06T13:42:25Z</time>
      </trkpt>
      <trkpt lat="44.99232" lon="4.83528">
        <ele>299.33200073242</ele>
        <time>2010-11-06T13:42:31Z</time>
      </trkpt>
      <trkpt lat="44.99217" lon="4.83526">
        <ele>301.69500732422</ele>
        <time>2010-11-06T13:42:39Z</time>
      </trkpt>
      <trkpt lat="44.99206" lon="4.83523">
        <ele>303.36999511719</ele>
        <time>2010-11-06T13:42:45Z</time>
      </trkpt>
      <trkpt lat="44.99195" lon="4.83517">
        <ele>305.30499267578</ele>
        <time>2010-11-06T13:42:52Z</time>
      </trkpt>
      <trkpt lat="44.99189" lon="4.83506">
        <ele>306.43301391602</ele>
        <time>2010-11-06T13:42:57Z</time>
      </trkpt>
      <trkpt lat="44.99192" lon="4.83493">
        <ele>307.47601318359</ele>
        <time>2010-11-06T13:43:02Z</time>
      </trkpt>
      <trkpt lat="44.992" lon="4.83476">
        <ele>309.33200073242</ele>
        <time>2010-11-06T13:43:09Z</time>
      </trkpt>
      <trkpt lat="44.99205" lon="4.83458">
        <ele>311.29400634766</ele>
        <time>2010-11-06T13:43:16Z</time>
      </trkpt>
      <trkpt lat="44.99208" lon="4.83441">
        <ele>312.99398803711</ele>
        <time>2010-11-06T13:43:22Z</time>
      </trkpt>
      <trkpt lat="44.99214" lon="4.83421">
        <ele>314.58999633789</ele>
        <time>2010-11-06T13:43:29Z</time>
      </trkpt>
      <trkpt lat="44.99223" lon="4.83405">
        <ele>316.74499511719</ele>
        <time>2010-11-06T13:43:36Z</time>
      </trkpt>
      <trkpt lat="44.99229" lon="4.8339">
        <ele>318.49798583984</ele>
        <time>2010-11-06T13:43:42Z</time>
      </trkpt>
      <trkpt lat="44.99226" lon="4.8338">
        <ele>320.05700683594</ele>
        <time>2010-11-06T13:43:46Z</time>
      </trkpt>
      <trkpt lat="44.99216" lon="4.83384">
        <ele>321.23999023438</ele>
        <time>2010-11-06T13:43:51Z</time>
      </trkpt>
      <trkpt lat="44.99206" lon="4.83402">
        <ele>322.50100708008</ele>
        <time>2010-11-06T13:43:57Z</time>
      </trkpt>
      <trkpt lat="44.99193" lon="4.8341">
        <ele>322.73199462891</ele>
        <time>2010-11-06T13:44:01Z</time>
      </trkpt>
      <trkpt lat="44.99178" lon="4.83416">
        <ele>323.32598876953</ele>
        <time>2010-11-06T13:44:05Z</time>
      </trkpt>
      <trkpt lat="44.99162" lon="4.83421">
        <ele>324.24700927734</ele>
        <time>2010-11-06T13:44:09Z</time>
      </trkpt>
      <trkpt lat="44.99144" lon="4.83423">
        <ele>324.85900878906</ele>
        <time>2010-11-06T13:44:13Z</time>
      </trkpt>
      <trkpt lat="44.99112" lon="4.83425">
        <ele>326.10400390625</ele>
        <time>2010-11-06T13:44:20Z</time>
      </trkpt>
      <trkpt lat="44.9909" lon="4.83438">
        <ele>327.86599731445</ele>
        <time>2010-11-06T13:44:26Z</time>
      </trkpt>
      <trkpt lat="44.9908" lon="4.83457">
        <ele>329.30899047852</ele>
        <time>2010-11-06T13:44:31Z</time>
      </trkpt>
      <trkpt lat="44.99067" lon="4.83467">
        <ele>331.12399291992</ele>
        <time>2010-11-06T13:44:36Z</time>
      </trkpt>
      <trkpt lat="44.99054" lon="4.83462">
        <ele>332.86499023438</ele>
        <time>2010-11-06T13:44:41Z</time>
      </trkpt>
      <trkpt lat="44.99035" lon="4.8345">
        <ele>335.72698974609</ele>
        <time>2010-11-06T13:44:49Z</time>
      </trkpt>
      <trkpt lat="44.99017" lon="4.83443">
        <ele>337.74398803711</ele>
        <time>2010-11-06T13:44:56Z</time>
      </trkpt>
      <trkpt lat="44.99001" lon="4.83437">
        <ele>339.49600219727</ele>
        <time>2010-11-06T13:45:02Z</time>
      </trkpt>
      <trkpt lat="44.98985" lon="4.83426">
        <ele>341.76901245117</ele>
        <time>2010-11-06T13:45:09Z</time>
      </trkpt>
      <trkpt lat="44.98969" lon="4.83408">
        <ele>343.81100463867</ele>
        <time>2010-11-06T13:45:17Z</time>
      </trkpt>
      <trkpt lat="44.98955" lon="4.83389">
        <ele>345.89099121094</ele>
        <time>2010-11-06T13:45:25Z</time>
      </trkpt>
      <trkpt lat="44.98939" lon="4.83372">
        <ele>348.54699707031</ele>
        <time>2010-11-06T13:45:34Z</time>
      </trkpt>
      <trkpt lat="44.98925" lon="4.83366">
        <ele>350.59899902344</ele>
        <time>2010-11-06T13:45:42Z</time>
      </trkpt>
      <trkpt lat="44.98917" lon="4.83363">
        <ele>351.83099365234</ele>
        <time>2010-11-06T13:45:48Z</time>
      </trkpt>
      <trkpt lat="44.98917" lon="4.83363">
        <ele>352.00100708008</ele>
        <time>2010-11-06T13:45:49Z</time>
      </trkpt>
      <trkpt lat="44.98919" lon="4.83358">
        <ele>352.49200439453</ele>
        <time>2010-11-06T13:46:38Z</time>
      </trkpt>
      <trkpt lat="44.9892" lon="4.83347">
        <ele>353.625</ele>
        <time>2010-11-06T13:46:43Z</time>
      </trkpt>
      <trkpt lat="44.98924" lon="4.83342">
        <ele>354.16799926758</ele>
        <time>2010-11-06T13:46:46Z</time>
      </trkpt>
      <trkpt lat="44.98925" lon="4.83328">
        <ele>355.75100708008</ele>
        <time>2010-11-06T13:46:51Z</time>
      </trkpt>
      <trkpt lat="44.98921" lon="4.83326">
        <ele>356.17300415039</ele>
        <time>2010-11-06T13:46:53Z</time>
      </trkpt>
      <trkpt lat="44.98908" lon="4.83322">
        <ele>357.90701293945</ele>
        <time>2010-11-06T13:46:59Z</time>
      </trkpt>
      <trkpt lat="44.98891" lon="4.83319">
        <ele>360.49700927734</ele>
        <time>2010-11-06T13:47:07Z</time>
      </trkpt>
      <trkpt lat="44.98878" lon="4.83313">
        <ele>361.79299926758</ele>
        <time>2010-11-06T13:47:13Z</time>
      </trkpt>
      <trkpt lat="44.9887" lon="4.83301">
        <ele>363.04901123047</ele>
        <time>2010-11-06T13:47:18Z</time>
      </trkpt>
      <trkpt lat="44.98875" lon="4.83289">
        <ele>364.38198852539</ele>
        <time>2010-11-06T13:47:23Z</time>
      </trkpt>
      <trkpt lat="44.98889" lon="4.83277">
        <ele>365.86599731445</ele>
        <time>2010-11-06T13:47:30Z</time>
      </trkpt>
      <trkpt lat="44.98893" lon="4.83262">
        <ele>366.98599243164</ele>
        <time>2010-11-06T13:47:35Z</time>
      </trkpt>
      <trkpt lat="44.98893" lon="4.83253">
        <ele>367.90701293945</ele>
        <time>2010-11-06T13:47:38Z</time>
      </trkpt>
      <trkpt lat="44.98887" lon="4.83238">
        <ele>369.36898803711</ele>
        <time>2010-11-06T13:47:44Z</time>
      </trkpt>
      <trkpt lat="44.98885" lon="4.83236">
        <ele>369.71798706055</ele>
        <time>2010-11-06T13:47:45Z</time>
      </trkpt>
      <trkpt lat="44.98868" lon="4.8322">
        <ele>371.85800170898</ele>
        <time>2010-11-06T13:47:54Z</time>
      </trkpt>
      <trkpt lat="44.98855" lon="4.83204">
        <ele>373.87298583984</ele>
        <time>2010-11-06T13:48:02Z</time>
      </trkpt>
      <trkpt lat="44.98848" lon="4.83189">
        <ele>375.40798950195</ele>
        <time>2010-11-06T13:48:09Z</time>
      </trkpt>
      <trkpt lat="44.98839" lon="4.83174">
        <ele>377.28201293945</ele>
        <time>2010-11-06T13:48:16Z</time>
      </trkpt>
      <trkpt lat="44.9883" lon="4.8316">
        <ele>379.09399414062</ele>
        <time>2010-11-06T13:48:23Z</time>
      </trkpt>
      <trkpt lat="44.98818" lon="4.83148">
        <ele>380.74600219727</ele>
        <time>2010-11-06T13:48:30Z</time>
      </trkpt>
      <trkpt lat="44.98807" lon="4.83135">
        <ele>382.78201293945</ele>
        <time>2010-11-06T13:48:37Z</time>
      </trkpt>
      <trkpt lat="44.98803" lon="4.83127">
        <ele>383.56399536133</ele>
        <time>2010-11-06T13:48:41Z</time>
      </trkpt>
      <trkpt lat="44.98806" lon="4.83116">
        <ele>384.51400756836</ele>
        <time>2010-11-06T13:48:46Z</time>
      </trkpt>
      <trkpt lat="44.98811" lon="4.83102">
        <ele>385.68399047852</ele>
        <time>2010-11-06T13:48:53Z</time>
      </trkpt>
      <trkpt lat="44.98814" lon="4.83086">
        <ele>386.96798706055</ele>
        <time>2010-11-06T13:48:59Z</time>
      </trkpt>
      <trkpt lat="44.98816" lon="4.83068">
        <ele>389.62100219727</ele>
        <time>2010-11-06T13:49:06Z</time>
      </trkpt>
      <trkpt lat="44.98816" lon="4.83039">
        <ele>391.86499023438</ele>
        <time>2010-11-06T13:49:15Z</time>
      </trkpt>
      <trkpt lat="44.98814" lon="4.83014">
        <ele>393.20700073242</ele>
        <time>2010-11-06T13:49:23Z</time>
      </trkpt>
      <trkpt lat="44.98808" lon="4.83">
        <ele>393.55099487305</ele>
        <time>2010-11-06T13:49:31Z</time>
      </trkpt>
      <trkpt lat="44.98803" lon="4.82991">
        <ele>393.57998657227</ele>
        <time>2010-11-06T13:49:37Z</time>
      </trkpt>
      <trkpt lat="44.988" lon="4.82988">
        <ele>393.69000244141</ele>
        <time>2010-11-06T13:49:42Z</time>
      </trkpt>
      <trkpt lat="44.98804" lon="4.82994">
        <ele>393.52600097656</ele>
        <time>2010-11-06T13:49:46Z</time>
      </trkpt>
      <trkpt lat="44.98812" lon="4.83012">
        <ele>393.23599243164</ele>
        <time>2010-11-06T13:49:52Z</time>
      </trkpt>
      <trkpt lat="44.98816" lon="4.83035">
        <ele>392.67199707031</ele>
        <time>2010-11-06T13:49:58Z</time>
      </trkpt>
      <trkpt lat="44.98816" lon="4.8304">
        <ele>392.45498657227</ele>
        <time>2010-11-06T13:50:00Z</time>
      </trkpt>
      <trkpt lat="44.98816" lon="4.83042">
        <ele>392.38900756836</ele>
        <time>2010-11-06T13:50:03Z</time>
      </trkpt>
      <trkpt lat="44.98817" lon="4.83044">
        <ele>392.0539855957</ele>
        <time>2010-11-06T13:50:08Z</time>
      </trkpt>
      <trkpt lat="44.98815" lon="4.83042">
        <ele>392.13500976562</ele>
        <time>2010-11-06T13:52:04Z</time>
      </trkpt>
      <trkpt lat="44.98815" lon="4.83027">
        <ele>392.7200012207</ele>
        <time>2010-11-06T13:52:10Z</time>
      </trkpt>
      <trkpt lat="44.98814" lon="4.83022">
        <ele>392.8030090332</ele>
        <time>2010-11-06T13:52:11Z</time>
      </trkpt>
      <trkpt lat="44.98805" lon="4.82996">
        <ele>393.36401367188</ele>
        <time>2010-11-06T13:52:18Z</time>
      </trkpt>
      <trkpt lat="44.98793" lon="4.82975">
        <ele>393.80099487305</ele>
        <time>2010-11-06T13:52:24Z</time>
      </trkpt>
      <trkpt lat="44.98771" lon="4.82943">
        <ele>395.15200805664</ele>
        <time>2010-11-06T13:52:32Z</time>
      </trkpt>
      <trkpt lat="44.9875" lon="4.8292">
        <ele>396.73001098633</ele>
        <time>2010-11-06T13:52:39Z</time>
      </trkpt>
      <trkpt lat="44.9873" lon="4.82905">
        <ele>398.09100341797</ele>
        <time>2010-11-06T13:52:45Z</time>
      </trkpt>
      <trkpt lat="44.98701" lon="4.82876">
        <ele>399.41400146484</ele>
        <time>2010-11-06T13:52:54Z</time>
      </trkpt>
      <trkpt lat="44.9868" lon="4.82852">
        <ele>400.29000854492</ele>
        <time>2010-11-06T13:53:01Z</time>
      </trkpt>
      <trkpt lat="44.98671" lon="4.8282">
        <ele>401.00900268555</ele>
        <time>2010-11-06T13:53:07Z</time>
      </trkpt>
      <trkpt lat="44.98661" lon="4.82775">
        <ele>402.01098632812</ele>
        <time>2010-11-06T13:53:15Z</time>
      </trkpt>
      <trkpt lat="44.98653" lon="4.82742">
        <ele>403.81799316406</ele>
        <time>2010-11-06T13:53:22Z</time>
      </trkpt>
      <trkpt lat="44.98648" lon="4.82713">
        <ele>405.30899047852</ele>
        <time>2010-11-06T13:53:28Z</time>
      </trkpt>
      <trkpt lat="44.9864" lon="4.82669">
        <ele>407.07000732422</ele>
        <time>2010-11-06T13:53:36Z</time>
      </trkpt>
      <trkpt lat="44.98633" lon="4.82627">
        <ele>408.2200012207</ele>
        <time>2010-11-06T13:53:43Z</time>
      </trkpt>
      <trkpt lat="44.98637" lon="4.82588">
        <ele>407.73498535156</ele>
        <time>2010-11-06T13:53:49Z</time>
      </trkpt>
      <trkpt lat="44.98645" lon="4.82538">
        <ele>407.81298828125</ele>
        <time>2010-11-06T13:53:56Z</time>
      </trkpt>
      <trkpt lat="44.98642" lon="4.82509">
        <ele>408.30999755859</ele>
        <time>2010-11-06T13:54:00Z</time>
      </trkpt>
      <trkpt lat="44.98643" lon="4.82484">
        <ele>410.59201049805</ele>
        <time>2010-11-06T13:54:04Z</time>
      </trkpt>
      <trkpt lat="44.98655" lon="4.82472">
        <ele>413.05599975586</ele>
        <time>2010-11-06T13:54:08Z</time>
      </trkpt>
      <trkpt lat="44.98658" lon="4.8247">
        <ele>413.29400634766</ele>
        <time>2010-11-06T13:54:09Z</time>
      </trkpt>
      <trkpt lat="44.98664" lon="4.82461">
        <ele>414.56799316406</ele>
        <time>2010-11-06T13:54:12Z</time>
      </trkpt>
      <trkpt lat="44.98676" lon="4.8243">
        <ele>416.62799072266</ele>
        <time>2010-11-06T13:54:20Z</time>
      </trkpt>
      <trkpt lat="44.98674" lon="4.82404">
        <ele>417.75299072266</ele>
        <time>2010-11-06T13:54:26Z</time>
      </trkpt>
      <trkpt lat="44.98662" lon="4.82373">
        <ele>418.73400878906</ele>
        <time>2010-11-06T13:54:33Z</time>
      </trkpt>
      <trkpt lat="44.9866" lon="4.82368">
        <ele>418.77099609375</ele>
        <time>2010-11-06T13:54:34Z</time>
      </trkpt>
      <trkpt lat="44.98649" lon="4.82335">
        <ele>419.64898681641</ele>
        <time>2010-11-06T13:54:40Z</time>
      </trkpt>
      <trkpt lat="44.98648" lon="4.82293">
        <ele>420.8330078125</ele>
        <time>2010-11-06T13:54:47Z</time>
      </trkpt>
      <trkpt lat="44.98658" lon="4.82233">
        <ele>422.81399536133</ele>
        <time>2010-11-06T13:54:57Z</time>
      </trkpt>
      <trkpt lat="44.98661" lon="4.822">
        <ele>424.875</ele>
        <time>2010-11-06T13:55:03Z</time>
      </trkpt>
      <trkpt lat="44.98661" lon="4.82155">
        <ele>426.75</ele>
        <time>2010-11-06T13:55:12Z</time>
      </trkpt>
      <trkpt lat="44.98658" lon="4.82131">
        <ele>427.7799987793</ele>
        <time>2010-11-06T13:55:17Z</time>
      </trkpt>
      <trkpt lat="44.98655" lon="4.82121">
        <ele>428.31900024414</ele>
        <time>2010-11-06T13:55:21Z</time>
      </trkpt>
      <trkpt lat="44.98654" lon="4.82121">
        <ele>428.49899291992</ele>
        <time>2010-11-06T13:55:23Z</time>
      </trkpt>
      <trkpt lat="44.98655" lon="4.8212">
        <ele>428.09298706055</ele>
        <time>2010-11-06T13:55:27Z</time>
      </trkpt>
      <trkpt lat="44.98656" lon="4.82114">
        <ele>427.55499267578</ele>
        <time>2010-11-06T13:56:53Z</time>
      </trkpt>
      <trkpt lat="44.98656" lon="4.8211">
        <ele>427.41900634766</ele>
        <time>2010-11-06T13:56:54Z</time>
      </trkpt>
      <trkpt lat="44.98653" lon="4.82087">
        <ele>427.04998779297</ele>
        <time>2010-11-06T13:56:59Z</time>
      </trkpt>
      <trkpt lat="44.98647" lon="4.82051">
        <ele>427.0419921875</ele>
        <time>2010-11-06T13:57:06Z</time>
      </trkpt>
      <trkpt lat="44.98639" lon="4.8203">
        <ele>427.50299072266</ele>
        <time>2010-11-06T13:57:10Z</time>
      </trkpt>
      <trkpt lat="44.98627" lon="4.82012">
        <ele>427.62600708008</ele>
        <time>2010-11-06T13:57:14Z</time>
      </trkpt>
      <trkpt lat="44.98593" lon="4.81982">
        <ele>427.0830078125</ele>
        <time>2010-11-06T13:57:22Z</time>
      </trkpt>
      <trkpt lat="44.98589" lon="4.81978">
        <ele>427.1369934082</ele>
        <time>2010-11-06T13:57:23Z</time>
      </trkpt>
      <trkpt lat="44.98574" lon="4.81958">
        <ele>426.41598510742</ele>
        <time>2010-11-06T13:57:27Z</time>
      </trkpt>
      <trkpt lat="44.98557" lon="4.81918">
        <ele>424.52398681641</ele>
        <time>2010-11-06T13:57:32Z</time>
      </trkpt>
      <trkpt lat="44.98541" lon="4.81861">
        <ele>423.45700073242</ele>
        <time>2010-11-06T13:57:38Z</time>
      </trkpt>
      <trkpt lat="44.98539" lon="4.81844">
        <ele>423.82299804688</ele>
        <time>2010-11-06T13:57:40Z</time>
      </trkpt>
      <trkpt lat="44.9854" lon="4.81809">
        <ele>426.47500610352</ele>
        <time>2010-11-06T13:57:45Z</time>
      </trkpt>
      <trkpt lat="44.9854" lon="4.81799">
        <ele>427.26901245117</ele>
        <time>2010-11-06T13:57:47Z</time>
      </trkpt>
      <trkpt lat="44.98541" lon="4.81782">
        <ele>429.16500854492</ele>
        <time>2010-11-06T13:57:51Z</time>
      </trkpt>
      <trkpt lat="44.98542" lon="4.81766">
        <ele>431.03698730469</ele>
        <time>2010-11-06T13:57:55Z</time>
      </trkpt>
      <trkpt lat="44.98544" lon="4.81739">
        <ele>433.92199707031</ele>
        <time>2010-11-06T13:58:03Z</time>
      </trkpt>
      <trkpt lat="44.98544" lon="4.81721">
        <ele>435.89999389648</ele>
        <time>2010-11-06T13:58:08Z</time>
      </trkpt>
      <trkpt lat="44.98544" lon="4.81718">
        <ele>436.19500732422</ele>
        <time>2010-11-06T13:58:09Z</time>
      </trkpt>
      <trkpt lat="44.98546" lon="4.81707">
        <ele>436.89001464844</ele>
        <time>2010-11-06T13:58:12Z</time>
      </trkpt>
      <trkpt lat="44.9855" lon="4.81687">
        <ele>439.23199462891</ele>
        <time>2010-11-06T13:58:18Z</time>
      </trkpt>
      <trkpt lat="44.98557" lon="4.81665">
        <ele>441.23599243164</ele>
        <time>2010-11-06T13:58:25Z</time>
      </trkpt>
      <trkpt lat="44.98563" lon="4.81646">
        <ele>443.36199951172</ele>
        <time>2010-11-06T13:58:31Z</time>
      </trkpt>
      <trkpt lat="44.98571" lon="4.81621">
        <ele>445.31399536133</ele>
        <time>2010-11-06T13:58:39Z</time>
      </trkpt>
      <trkpt lat="44.98576" lon="4.81591">
        <ele>447.2919921875</ele>
        <time>2010-11-06T13:58:47Z</time>
      </trkpt>
      <trkpt lat="44.98582" lon="4.81553">
        <ele>450.13198852539</ele>
        <time>2010-11-06T13:58:57Z</time>
      </trkpt>
      <trkpt lat="44.98587" lon="4.81519">
        <ele>452.85400390625</ele>
        <time>2010-11-06T13:59:06Z</time>
      </trkpt>
      <trkpt lat="44.98592" lon="4.81492">
        <ele>454.49798583984</ele>
        <time>2010-11-06T13:59:13Z</time>
      </trkpt>
      <trkpt lat="44.98597" lon="4.81458">
        <ele>457.10800170898</ele>
        <time>2010-11-06T13:59:22Z</time>
      </trkpt>
      <trkpt lat="44.98603" lon="4.81431">
        <ele>459.88101196289</ele>
        <time>2010-11-06T13:59:30Z</time>
      </trkpt>
      <trkpt lat="44.98608" lon="4.81406">
        <ele>461.81399536133</ele>
        <time>2010-11-06T13:59:37Z</time>
      </trkpt>
      <trkpt lat="44.98611" lon="4.81385">
        <ele>462.5299987793</ele>
        <time>2010-11-06T13:59:42Z</time>
      </trkpt>
      <trkpt lat="44.98616" lon="4.81351">
        <ele>463.25201416016</ele>
        <time>2010-11-06T13:59:49Z</time>
      </trkpt>
      <trkpt lat="44.98613" lon="4.8133">
        <ele>464.73098754883</ele>
        <time>2010-11-06T13:59:54Z</time>
      </trkpt>
      <trkpt lat="44.98605" lon="4.81311">
        <ele>466.3330078125</ele>
        <time>2010-11-06T13:59:59Z</time>
      </trkpt>
      <trkpt lat="44.9859" lon="4.81285">
        <ele>468.70700073242</ele>
        <time>2010-11-06T14:00:06Z</time>
      </trkpt>
      <trkpt lat="44.98574" lon="4.81255">
        <ele>471.84201049805</ele>
        <time>2010-11-06T14:00:14Z</time>
      </trkpt>
      <trkpt lat="44.98572" lon="4.81251">
        <ele>472.0530090332</ele>
        <time>2010-11-06T14:00:15Z</time>
      </trkpt>
      <trkpt lat="44.98553" lon="4.81226">
        <ele>476.30099487305</ele>
        <time>2010-11-06T14:00:23Z</time>
      </trkpt>
      <trkpt lat="44.98551" lon="4.81222">
        <ele>476.55599975586</ele>
        <time>2010-11-06T14:00:24Z</time>
      </trkpt>
      <trkpt lat="44.9854" lon="4.81206">
        <ele>478.82000732422</ele>
        <time>2010-11-06T14:00:29Z</time>
      </trkpt>
      <trkpt lat="44.98532" lon="4.81183">
        <ele>481.76000976562</ele>
        <time>2010-11-06T14:00:36Z</time>
      </trkpt>
      <trkpt lat="44.98528" lon="4.8116">
        <ele>483.47900390625</ele>
        <time>2010-11-06T14:00:43Z</time>
      </trkpt>
      <trkpt lat="44.98523" lon="4.81131">
        <ele>486.63101196289</ele>
        <time>2010-11-06T14:00:51Z</time>
      </trkpt>
      <trkpt lat="44.98521" lon="4.81128">
        <ele>486.90200805664</ele>
        <time>2010-11-06T14:00:52Z</time>
      </trkpt>
      <trkpt lat="44.9851" lon="4.8111">
        <ele>489.54800415039</ele>
        <time>2010-11-06T14:00:59Z</time>
      </trkpt>
      <trkpt lat="44.98495" lon="4.81087">
        <ele>492.44500732422</ele>
        <time>2010-11-06T14:01:08Z</time>
      </trkpt>
      <trkpt lat="44.98482" lon="4.81068">
        <ele>493.34100341797</ele>
        <time>2010-11-06T14:01:15Z</time>
      </trkpt>
      <trkpt lat="44.98466" lon="4.81047">
        <ele>496.3219909668</ele>
        <time>2010-11-06T14:01:23Z</time>
      </trkpt>
      <trkpt lat="44.98452" lon="4.81029">
        <ele>498.80499267578</ele>
        <time>2010-11-06T14:01:29Z</time>
      </trkpt>
      <trkpt lat="44.98437" lon="4.8101">
        <ele>501.44000244141</ele>
        <time>2010-11-06T14:01:34Z</time>
      </trkpt>
      <trkpt lat="44.98429" lon="4.80995">
        <ele>503.62100219727</ele>
        <time>2010-11-06T14:01:38Z</time>
      </trkpt>
      <trkpt lat="44.98418" lon="4.80965">
        <ele>505.52499389648</ele>
        <time>2010-11-06T14:01:47Z</time>
      </trkpt>
      <trkpt lat="44.9841" lon="4.80952">
        <ele>506.47500610352</ele>
        <time>2010-11-06T14:01:53Z</time>
      </trkpt>
      <trkpt lat="44.98404" lon="4.8094">
        <ele>507.81600952148</ele>
        <time>2010-11-06T14:02:00Z</time>
      </trkpt>
      <trkpt lat="44.98398" lon="4.80936">
        <ele>507.98400878906</ele>
        <time>2010-11-06T14:02:05Z</time>
      </trkpt>
      <trkpt lat="44.98388" lon="4.80927">
        <ele>507.98400878906</ele>
        <time>2010-11-06T14:02:14Z</time>
      </trkpt>
      <trkpt lat="44.98373" lon="4.80915">
        <ele>507.95401000977</ele>
        <time>2010-11-06T14:02:22Z</time>
      </trkpt>
      <trkpt lat="44.98357" lon="4.80899">
        <ele>508.77600097656</ele>
        <time>2010-11-06T14:02:30Z</time>
      </trkpt>
      <trkpt lat="44.98344" lon="4.80887">
        <ele>510.67599487305</ele>
        <time>2010-11-06T14:02:37Z</time>
      </trkpt>
      <trkpt lat="44.98334" lon="4.80873">
        <ele>512.14697265625</ele>
        <time>2010-11-06T14:02:43Z</time>
      </trkpt>
      <trkpt lat="44.98323" lon="4.80854">
        <ele>513.73699951172</ele>
        <time>2010-11-06T14:02:50Z</time>
      </trkpt>
      <trkpt lat="44.98314" lon="4.80829">
        <ele>515.25701904297</ele>
        <time>2010-11-06T14:02:58Z</time>
      </trkpt>
      <trkpt lat="44.98303" lon="4.80798">
        <ele>516.83599853516</ele>
        <time>2010-11-06T14:03:07Z</time>
      </trkpt>
      <trkpt lat="44.9829" lon="4.80765">
        <ele>518.35601806641</ele>
        <time>2010-11-06T14:03:16Z</time>
      </trkpt>
      <trkpt lat="44.98285" lon="4.80737">
        <ele>519.98400878906</ele>
        <time>2010-11-06T14:03:23Z</time>
      </trkpt>
      <trkpt lat="44.9829" lon="4.80708">
        <ele>521.32202148438</ele>
        <time>2010-11-06T14:03:30Z</time>
      </trkpt>
      <trkpt lat="44.98302" lon="4.80684">
        <ele>522.28100585938</ele>
        <time>2010-11-06T14:03:37Z</time>
      </trkpt>
      <trkpt lat="44.98323" lon="4.80656">
        <ele>524.07598876953</ele>
        <time>2010-11-06T14:03:46Z</time>
      </trkpt>
      <trkpt lat="44.98334" lon="4.80629">
        <ele>526.18200683594</ele>
        <time>2010-11-06T14:03:52Z</time>
      </trkpt>
      <trkpt lat="44.98336" lon="4.80602">
        <ele>527.76300048828</ele>
        <time>2010-11-06T14:03:58Z</time>
      </trkpt>
      <trkpt lat="44.98324" lon="4.80591">
        <ele>528.52398681641</ele>
        <time>2010-11-06T14:04:02Z</time>
      </trkpt>
      <trkpt lat="44.98294" lon="4.80589">
        <ele>530.36700439453</ele>
        <time>2010-11-06T14:04:10Z</time>
      </trkpt>
      <trkpt lat="44.98259" lon="4.80595">
        <ele>531.59301757812</ele>
        <time>2010-11-06T14:04:19Z</time>
      </trkpt>
      <trkpt lat="44.98237" lon="4.80605">
        <ele>532.75201416016</ele>
        <time>2010-11-06T14:04:25Z</time>
      </trkpt>
      <trkpt lat="44.98205" lon="4.80625">
        <ele>534.41497802734</ele>
        <time>2010-11-06T14:04:34Z</time>
      </trkpt>
      <trkpt lat="44.98177" lon="4.80646">
        <ele>535.89501953125</ele>
        <time>2010-11-06T14:04:42Z</time>
      </trkpt>
      <trkpt lat="44.98149" lon="4.80664">
        <ele>536.76000976562</ele>
        <time>2010-11-06T14:04:50Z</time>
      </trkpt>
      <trkpt lat="44.98137" lon="4.80667">
        <ele>538.375</ele>
        <time>2010-11-06T14:04:54Z</time>
      </trkpt>
      <trkpt lat="44.98128" lon="4.80662">
        <ele>539.49200439453</ele>
        <time>2010-11-06T14:04:59Z</time>
      </trkpt>
      <trkpt lat="44.98124" lon="4.80655">
        <ele>539.02697753906</ele>
        <time>2010-11-06T14:05:01Z</time>
      </trkpt>
      <trkpt lat="44.98103" lon="4.80632">
        <ele>538.11199951172</ele>
        <time>2010-11-06T14:05:06Z</time>
      </trkpt>
      <trkpt lat="44.98092" lon="4.80604">
        <ele>538.59600830078</ele>
        <time>2010-11-06T14:05:10Z</time>
      </trkpt>
      <trkpt lat="44.98083" lon="4.80563">
        <ele>541.85400390625</ele>
        <time>2010-11-06T14:05:16Z</time>
      </trkpt>
      <trkpt lat="44.9807" lon="4.8053">
        <ele>545.51098632812</ele>
        <time>2010-11-06T14:05:21Z</time>
      </trkpt>
      <trkpt lat="44.98066" lon="4.80496">
        <ele>548.43701171875</ele>
        <time>2010-11-06T14:05:26Z</time>
      </trkpt>
      <trkpt lat="44.98075" lon="4.80482">
        <ele>550.458984375</ele>
        <time>2010-11-06T14:05:29Z</time>
      </trkpt>
      <trkpt lat="44.98079" lon="4.8048">
        <ele>550.73999023438</ele>
        <time>2010-11-06T14:05:30Z</time>
      </trkpt>
      <trkpt lat="44.98101" lon="4.80467">
        <ele>553.35900878906</ele>
        <time>2010-11-06T14:05:37Z</time>
      </trkpt>
      <trkpt lat="44.98118" lon="4.80454">
        <ele>555.09802246094</ele>
        <time>2010-11-06T14:05:44Z</time>
      </trkpt>
      <trkpt lat="44.98128" lon="4.80437">
        <ele>557.20599365234</ele>
        <time>2010-11-06T14:05:50Z</time>
      </trkpt>
      <trkpt lat="44.98127" lon="4.80422">
        <ele>558.12701416016</ele>
        <time>2010-11-06T14:05:54Z</time>
      </trkpt>
      <trkpt lat="44.98119" lon="4.80401">
        <ele>560.46398925781</ele>
        <time>2010-11-06T14:06:01Z</time>
      </trkpt>
      <trkpt lat="44.98111" lon="4.80384">
        <ele>562.20001220703</ele>
        <time>2010-11-06T14:06:07Z</time>
      </trkpt>
      <trkpt lat="44.98104" lon="4.80369">
        <ele>564</ele>
        <time>2010-11-06T14:06:13Z</time>
      </trkpt>
      <trkpt lat="44.98098" lon="4.80351">
        <ele>565.35699462891</ele>
        <time>2010-11-06T14:06:19Z</time>
      </trkpt>
      <trkpt lat="44.98097" lon="4.80341">
        <ele>565.61602783203</ele>
        <time>2010-11-06T14:06:22Z</time>
      </trkpt>
      <trkpt lat="44.98099" lon="4.80311">
        <ele>565.791015625</ele>
        <time>2010-11-06T14:06:29Z</time>
      </trkpt>
      <trkpt lat="44.98095" lon="4.80289">
        <ele>566.54302978516</ele>
        <time>2010-11-06T14:06:34Z</time>
      </trkpt>
      <trkpt lat="44.98086" lon="4.80269">
        <ele>568.33099365234</ele>
        <time>2010-11-06T14:06:40Z</time>
      </trkpt>
      <trkpt lat="44.98083" lon="4.80247">
        <ele>570.34997558594</ele>
        <time>2010-11-06T14:06:46Z</time>
      </trkpt>
      <trkpt lat="44.98088" lon="4.80231">
        <ele>571.98602294922</ele>
        <time>2010-11-06T14:06:51Z</time>
      </trkpt>
      <trkpt lat="44.98101" lon="4.8022">
        <ele>573.95397949219</ele>
        <time>2010-11-06T14:06:57Z</time>
      </trkpt>
      <trkpt lat="44.98116" lon="4.80212">
        <ele>575.63702392578</ele>
        <time>2010-11-06T14:07:03Z</time>
      </trkpt>
      <trkpt lat="44.98132" lon="4.80203">
        <ele>577.26202392578</ele>
        <time>2010-11-06T14:07:09Z</time>
      </trkpt>
      <trkpt lat="44.98145" lon="4.80194">
        <ele>578.46301269531</ele>
        <time>2010-11-06T14:07:15Z</time>
      </trkpt>
      <trkpt lat="44.98161" lon="4.80184">
        <ele>579.49298095703</ele>
        <time>2010-11-06T14:07:21Z</time>
      </trkpt>
      <trkpt lat="44.98183" lon="4.80176">
        <ele>581.29400634766</ele>
        <time>2010-11-06T14:07:29Z</time>
      </trkpt>
      <trkpt lat="44.98206" lon="4.80178">
        <ele>583.09899902344</ele>
        <time>2010-11-06T14:07:37Z</time>
      </trkpt>
      <trkpt lat="44.9822" lon="4.80171">
        <ele>584.71197509766</ele>
        <time>2010-11-06T14:07:42Z</time>
      </trkpt>
      <trkpt lat="44.98233" lon="4.80154">
        <ele>586.76098632812</ele>
        <time>2010-11-06T14:07:49Z</time>
      </trkpt>
      <trkpt lat="44.98238" lon="4.80128">
        <ele>588.12200927734</ele>
        <time>2010-11-06T14:07:56Z</time>
      </trkpt>
      <trkpt lat="44.9824" lon="4.80105">
        <ele>589.17999267578</ele>
        <time>2010-11-06T14:08:02Z</time>
      </trkpt>
      <trkpt lat="44.98235" lon="4.80084">
        <ele>589.72302246094</ele>
        <time>2010-11-06T14:08:07Z</time>
      </trkpt>
      <trkpt lat="44.98219" lon="4.80065">
        <ele>590.70098876953</ele>
        <time>2010-11-06T14:08:13Z</time>
      </trkpt>
      <trkpt lat="44.98196" lon="4.80041">
        <ele>592.1259765625</ele>
        <time>2010-11-06T14:08:20Z</time>
      </trkpt>
      <trkpt lat="44.98188" lon="4.80014">
        <ele>593.35302734375</ele>
        <time>2010-11-06T14:08:25Z</time>
      </trkpt>
      <trkpt lat="44.98196" lon="4.79993">
        <ele>594.90100097656</ele>
        <time>2010-11-06T14:08:29Z</time>
      </trkpt>
      <trkpt lat="44.98207" lon="4.79971">
        <ele>595.92602539062</ele>
        <time>2010-11-06T14:08:34Z</time>
      </trkpt>
      <trkpt lat="44.98206" lon="4.79954">
        <ele>596.57202148438</ele>
        <time>2010-11-06T14:08:37Z</time>
      </trkpt>
      <trkpt lat="44.98202" lon="4.79946">
        <ele>596.96801757812</ele>
        <time>2010-11-06T14:08:39Z</time>
      </trkpt>
      <trkpt lat="44.98182" lon="4.79916">
        <ele>598.42901611328</ele>
        <time>2010-11-06T14:08:47Z</time>
      </trkpt>
      <trkpt lat="44.98165" lon="4.79897">
        <ele>599.84997558594</ele>
        <time>2010-11-06T14:08:53Z</time>
      </trkpt>
      <trkpt lat="44.98146" lon="4.79885">
        <ele>601.32598876953</ele>
        <time>2010-11-06T14:08:59Z</time>
      </trkpt>
      <trkpt lat="44.98128" lon="4.79893">
        <ele>602.17700195312</ele>
        <time>2010-11-06T14:09:04Z</time>
      </trkpt>
      <trkpt lat="44.98109" lon="4.79891">
        <ele>602.95202636719</ele>
        <time>2010-11-06T14:09:09Z</time>
      </trkpt>
      <trkpt lat="44.98096" lon="4.79877">
        <ele>603.59301757812</ele>
        <time>2010-11-06T14:09:13Z</time>
      </trkpt>
      <trkpt lat="44.98091" lon="4.79856">
        <ele>604.81597900391</ele>
        <time>2010-11-06T14:09:17Z</time>
      </trkpt>
      <trkpt lat="44.98081" lon="4.79822">
        <ele>606.68798828125</ele>
        <time>2010-11-06T14:09:24Z</time>
      </trkpt>
      <trkpt lat="44.98055" lon="4.79789">
        <ele>608.53997802734</ele>
        <time>2010-11-06T14:09:33Z</time>
      </trkpt>
      <trkpt lat="44.98051" lon="4.79786">
        <ele>608.78302001953</ele>
        <time>2010-11-06T14:09:34Z</time>
      </trkpt>
      <trkpt lat="44.98031" lon="4.7978">
        <ele>609.85900878906</ele>
        <time>2010-11-06T14:09:39Z</time>
      </trkpt>
      <trkpt lat="44.98002" lon="4.79789">
        <ele>611.44897460938</ele>
        <time>2010-11-06T14:09:46Z</time>
      </trkpt>
      <trkpt lat="44.97994" lon="4.79792">
        <ele>611.97497558594</ele>
        <time>2010-11-06T14:09:48Z</time>
      </trkpt>
      <trkpt lat="44.97974" lon="4.79789">
        <ele>613.10900878906</ele>
        <time>2010-11-06T14:09:53Z</time>
      </trkpt>
      <trkpt lat="44.9797" lon="4.79786">
        <ele>613.42297363281</ele>
        <time>2010-11-06T14:09:54Z</time>
      </trkpt>
      <trkpt lat="44.97945" lon="4.79756">
        <ele>615.45202636719</ele>
        <time>2010-11-06T14:10:02Z</time>
      </trkpt>
      <trkpt lat="44.97939" lon="4.79748">
        <ele>615.85998535156</ele>
        <time>2010-11-06T14:10:04Z</time>
      </trkpt>
      <trkpt lat="44.97928" lon="4.7971">
        <ele>617.82501220703</ele>
        <time>2010-11-06T14:10:11Z</time>
      </trkpt>
      <trkpt lat="44.97921" lon="4.79685">
        <ele>618.68499755859</ele>
        <time>2010-11-06T14:10:17Z</time>
      </trkpt>
      <trkpt lat="44.97907" lon="4.7968">
        <ele>618.26397705078</ele>
        <time>2010-11-06T14:10:22Z</time>
      </trkpt>
      <trkpt lat="44.97902" lon="4.7968">
        <ele>618.21502685547</ele>
        <time>2010-11-06T14:10:24Z</time>
      </trkpt>
      <trkpt lat="44.97897" lon="4.79686">
        <ele>618.07702636719</ele>
        <time>2010-11-06T14:10:28Z</time>
      </trkpt>
      <trkpt lat="44.97897" lon="4.79687">
        <ele>618.02600097656</ele>
        <time>2010-11-06T14:10:30Z</time>
      </trkpt>
      <trkpt lat="44.97897" lon="4.79692">
        <ele>618.12298583984</ele>
        <time>2010-11-06T14:10:51Z</time>
      </trkpt>
      <trkpt lat="44.97901" lon="4.79696">
        <ele>618.08197021484</ele>
        <time>2010-11-06T14:10:57Z</time>
      </trkpt>
      <trkpt lat="44.979" lon="4.79696">
        <ele>617.98999023438</ele>
        <time>2010-11-06T14:11:06Z</time>
      </trkpt>
      <trkpt lat="44.97902" lon="4.79691">
        <ele>619.85900878906</ele>
        <time>2010-11-06T14:19:38Z</time>
      </trkpt>
      <trkpt lat="44.97902" lon="4.79691">
        <ele>619.90301513672</ele>
        <time>2010-11-06T14:19:39Z</time>
      </trkpt>
      <trkpt lat="44.97902" lon="4.79691">
        <ele>619.94500732422</ele>
        <time>2010-11-06T14:19:40Z</time>
      </trkpt>
      <trkpt lat="44.97906" lon="4.79687">
        <ele>619.87200927734</ele>
        <time>2010-11-06T14:20:14Z</time>
      </trkpt>
      <trkpt lat="44.97911" lon="4.79685">
        <ele>619.77301025391</ele>
        <time>2010-11-06T14:20:16Z</time>
      </trkpt>
      <trkpt lat="44.97928" lon="4.79681">
        <ele>620.55700683594</ele>
        <time>2010-11-06T14:20:23Z</time>
      </trkpt>
      <trkpt lat="44.97933" lon="4.7968">
        <ele>621.10797119141</ele>
        <time>2010-11-06T14:20:25Z</time>
      </trkpt>
      <trkpt lat="44.97938" lon="4.79661">
        <ele>620.89099121094</ele>
        <time>2010-11-06T14:20:31Z</time>
      </trkpt>
      <trkpt lat="44.97939" lon="4.79656">
        <ele>620.67199707031</ele>
        <time>2010-11-06T14:20:32Z</time>
      </trkpt>
      <trkpt lat="44.97949" lon="4.79628">
        <ele>618.84197998047</ele>
        <time>2010-11-06T14:20:37Z</time>
      </trkpt>
      <trkpt lat="44.97957" lon="4.79623">
        <ele>618.03997802734</ele>
        <time>2010-11-06T14:20:39Z</time>
      </trkpt>
      <trkpt lat="44.97979" lon="4.79614">
        <ele>616.20599365234</ele>
        <time>2010-11-06T14:20:44Z</time>
      </trkpt>
      <trkpt lat="44.9799" lon="4.79609">
        <ele>615.23297119141</ele>
        <time>2010-11-06T14:20:46Z</time>
      </trkpt>
      <trkpt lat="44.98008" lon="4.79583">
        <ele>613.12701416016</ele>
        <time>2010-11-06T14:20:50Z</time>
      </trkpt>
      <trkpt lat="44.98003" lon="4.79552">
        <ele>612.27099609375</ele>
        <time>2010-11-06T14:20:53Z</time>
      </trkpt>
      <trkpt lat="44.97982" lon="4.795">
        <ele>609.1259765625</ele>
        <time>2010-11-06T14:20:58Z</time>
      </trkpt>
      <trkpt lat="44.97944" lon="4.79429">
        <ele>606.44097900391</ele>
        <time>2010-11-06T14:21:05Z</time>
      </trkpt>
      <trkpt lat="44.97937" lon="4.79419">
        <ele>605.97998046875</ele>
        <time>2010-11-06T14:21:06Z</time>
      </trkpt>
      <trkpt lat="44.97892" lon="4.79375">
        <ele>603.72601318359</ele>
        <time>2010-11-06T14:21:12Z</time>
      </trkpt>
      <trkpt lat="44.97883" lon="4.79368">
        <ele>603.20599365234</ele>
        <time>2010-11-06T14:21:13Z</time>
      </trkpt>
      <trkpt lat="44.9786" lon="4.79326">
        <ele>601.61401367188</ele>
        <time>2010-11-06T14:21:17Z</time>
      </trkpt>
      <trkpt lat="44.97854" lon="4.79285">
        <ele>599.32202148438</ele>
        <time>2010-11-06T14:21:20Z</time>
      </trkpt>
      <trkpt lat="44.9784" lon="4.79264">
        <ele>598.11999511719</ele>
        <time>2010-11-06T14:21:22Z</time>
      </trkpt>
      <trkpt lat="44.9783" lon="4.79258">
        <ele>597.56097412109</ele>
        <time>2010-11-06T14:21:23Z</time>
      </trkpt>
      <trkpt lat="44.97799" lon="4.79246">
        <ele>596.05200195312</ele>
        <time>2010-11-06T14:21:26Z</time>
      </trkpt>
      <trkpt lat="44.97758" lon="4.79219">
        <ele>593.85400390625</ele>
        <time>2010-11-06T14:21:30Z</time>
      </trkpt>
      <trkpt lat="44.97749" lon="4.79211">
        <ele>593.12799072266</ele>
        <time>2010-11-06T14:21:31Z</time>
      </trkpt>
      <trkpt lat="44.97705" lon="4.79194">
        <ele>590.28399658203</ele>
        <time>2010-11-06T14:21:35Z</time>
      </trkpt>
      <trkpt lat="44.97694" lon="4.79192">
        <ele>589.74200439453</ele>
        <time>2010-11-06T14:21:36Z</time>
      </trkpt>
      <trkpt lat="44.97651" lon="4.79173">
        <ele>588.00299072266</ele>
        <time>2010-11-06T14:21:40Z</time>
      </trkpt>
      <trkpt lat="44.9763" lon="4.79161">
        <ele>587.62701416016</ele>
        <time>2010-11-06T14:21:42Z</time>
      </trkpt>
      <trkpt lat="44.97587" lon="4.79123">
        <ele>587.21197509766</ele>
        <time>2010-11-06T14:21:47Z</time>
      </trkpt>
      <trkpt lat="44.97573" lon="4.79104">
        <ele>587.19097900391</ele>
        <time>2010-11-06T14:21:49Z</time>
      </trkpt>
      <trkpt lat="44.97552" lon="4.79049">
        <ele>587.46002197266</ele>
        <time>2010-11-06T14:21:54Z</time>
      </trkpt>
      <trkpt lat="44.97543" lon="4.78994">
        <ele>587.98699951172</ele>
        <time>2010-11-06T14:21:59Z</time>
      </trkpt>
      <trkpt lat="44.97531" lon="4.78956">
        <ele>588.74200439453</ele>
        <time>2010-11-06T14:22:03Z</time>
      </trkpt>
      <trkpt lat="44.97523" lon="4.78911">
        <ele>589.08197021484</ele>
        <time>2010-11-06T14:22:08Z</time>
      </trkpt>
      <trkpt lat="44.97535" lon="4.78897">
        <ele>587.80401611328</ele>
        <time>2010-11-06T14:22:10Z</time>
      </trkpt>
      <trkpt lat="44.97541" lon="4.78892">
        <ele>587.21502685547</ele>
        <time>2010-11-06T14:22:11Z</time>
      </trkpt>
      <trkpt lat="44.97593" lon="4.78878">
        <ele>585.55401611328</ele>
        <time>2010-11-06T14:22:18Z</time>
      </trkpt>
      <trkpt lat="44.97609" lon="4.78877">
        <ele>585.15002441406</ele>
        <time>2010-11-06T14:22:20Z</time>
      </trkpt>
      <trkpt lat="44.97636" lon="4.78852">
        <ele>583.80798339844</ele>
        <time>2010-11-06T14:22:24Z</time>
      </trkpt>
      <trkpt lat="44.97636" lon="4.78818">
        <ele>583.30499267578</ele>
        <time>2010-11-06T14:22:27Z</time>
      </trkpt>
      <trkpt lat="44.97633" lon="4.78785">
        <ele>582.18701171875</ele>
        <time>2010-11-06T14:22:30Z</time>
      </trkpt>
      <trkpt lat="44.97643" lon="4.78767">
        <ele>581.28997802734</ele>
        <time>2010-11-06T14:22:32Z</time>
      </trkpt>
      <trkpt lat="44.97667" lon="4.78758">
        <ele>579.62097167969</ele>
        <time>2010-11-06T14:22:35Z</time>
      </trkpt>
      <trkpt lat="44.97684" lon="4.78757">
        <ele>578.63702392578</ele>
        <time>2010-11-06T14:22:37Z</time>
      </trkpt>
      <trkpt lat="44.97702" lon="4.78757">
        <ele>577.61102294922</ele>
        <time>2010-11-06T14:22:39Z</time>
      </trkpt>
      <trkpt lat="44.97729" lon="4.78762">
        <ele>576.04498291016</ele>
        <time>2010-11-06T14:22:42Z</time>
      </trkpt>
      <trkpt lat="44.97747" lon="4.78764">
        <ele>575.38800048828</ele>
        <time>2010-11-06T14:22:44Z</time>
      </trkpt>
      <trkpt lat="44.97772" lon="4.78751">
        <ele>574.06298828125</ele>
        <time>2010-11-06T14:22:47Z</time>
      </trkpt>
      <trkpt lat="44.97786" lon="4.78733">
        <ele>572.90100097656</ele>
        <time>2010-11-06T14:22:49Z</time>
      </trkpt>
      <trkpt lat="44.97809" lon="4.78692">
        <ele>572.16400146484</ele>
        <time>2010-11-06T14:22:53Z</time>
      </trkpt>
      <trkpt lat="44.97815" lon="4.78657">
        <ele>571.7919921875</ele>
        <time>2010-11-06T14:22:56Z</time>
      </trkpt>
      <trkpt lat="44.97807" lon="4.78624">
        <ele>571.67602539062</ele>
        <time>2010-11-06T14:22:59Z</time>
      </trkpt>
      <trkpt lat="44.97789" lon="4.78592">
        <ele>572.61401367188</ele>
        <time>2010-11-06T14:23:03Z</time>
      </trkpt>
      <trkpt lat="44.97771" lon="4.78584">
        <ele>573.56201171875</ele>
        <time>2010-11-06T14:23:06Z</time>
      </trkpt>
      <trkpt lat="44.97746" lon="4.78582">
        <ele>575.26098632812</ele>
        <time>2010-11-06T14:23:11Z</time>
      </trkpt>
      <trkpt lat="44.97726" lon="4.78564">
        <ele>576.63397216797</ele>
        <time>2010-11-06T14:23:17Z</time>
      </trkpt>
      <trkpt lat="44.97724" lon="4.7855">
        <ele>577.34997558594</ele>
        <time>2010-11-06T14:23:20Z</time>
      </trkpt>
      <trkpt lat="44.97722" lon="4.7851">
        <ele>578.17297363281</ele>
        <time>2010-11-06T14:23:28Z</time>
      </trkpt>
      <trkpt lat="44.97716" lon="4.78487">
        <ele>578.47900390625</ele>
        <time>2010-11-06T14:23:32Z</time>
      </trkpt>
      <trkpt lat="44.97699" lon="4.7845">
        <ele>579.90899658203</ele>
        <time>2010-11-06T14:23:39Z</time>
      </trkpt>
      <trkpt lat="44.9768" lon="4.78424">
        <ele>581.53002929688</ele>
        <time>2010-11-06T14:23:45Z</time>
      </trkpt>
      <trkpt lat="44.97677" lon="4.7842">
        <ele>581.78601074219</ele>
        <time>2010-11-06T14:23:46Z</time>
      </trkpt>
      <trkpt lat="44.97669" lon="4.78415">
        <ele>582.18798828125</ele>
        <time>2010-11-06T14:23:48Z</time>
      </trkpt>
      <trkpt lat="44.97643" lon="4.78405">
        <ele>583.98699951172</ele>
        <time>2010-11-06T14:23:55Z</time>
      </trkpt>
      <trkpt lat="44.97606" lon="4.78394">
        <ele>586.08502197266</ele>
        <time>2010-11-06T14:24:05Z</time>
      </trkpt>
      <trkpt lat="44.97573" lon="4.7838">
        <ele>587.86199951172</ele>
        <time>2010-11-06T14:24:14Z</time>
      </trkpt>
      <trkpt lat="44.97541" lon="4.78367">
        <ele>589.65197753906</ele>
        <time>2010-11-06T14:24:23Z</time>
      </trkpt>
      <trkpt lat="44.97525" lon="4.78348">
        <ele>590.78601074219</ele>
        <time>2010-11-06T14:24:29Z</time>
      </trkpt>
      <trkpt lat="44.97528" lon="4.78329">
        <ele>591.59698486328</ele>
        <time>2010-11-06T14:24:33Z</time>
      </trkpt>
      <trkpt lat="44.97546" lon="4.78317">
        <ele>592.21398925781</ele>
        <time>2010-11-06T14:24:38Z</time>
      </trkpt>
      <trkpt lat="44.97577" lon="4.78301">
        <ele>593.33898925781</ele>
        <time>2010-11-06T14:24:46Z</time>
      </trkpt>
      <trkpt lat="44.97606" lon="4.78285">
        <ele>594.25897216797</ele>
        <time>2010-11-06T14:24:53Z</time>
      </trkpt>
      <trkpt lat="44.97622" lon="4.78258">
        <ele>595.17297363281</ele>
        <time>2010-11-06T14:24:59Z</time>
      </trkpt>
      <trkpt lat="44.9762" lon="4.78234">
        <ele>595.96197509766</ele>
        <time>2010-11-06T14:25:03Z</time>
      </trkpt>
      <trkpt lat="44.97614" lon="4.78212">
        <ele>596.38702392578</ele>
        <time>2010-11-06T14:25:07Z</time>
      </trkpt>
      <trkpt lat="44.97601" lon="4.78176">
        <ele>597.29302978516</ele>
        <time>2010-11-06T14:25:14Z</time>
      </trkpt>
      <trkpt lat="44.97582" lon="4.78129">
        <ele>598.79498291016</ele>
        <time>2010-11-06T14:25:23Z</time>
      </trkpt>
      <trkpt lat="44.97573" lon="4.78109">
        <ele>599.27001953125</ele>
        <time>2010-11-06T14:25:27Z</time>
      </trkpt>
      <trkpt lat="44.97556" lon="4.78091">
        <ele>600.06201171875</ele>
        <time>2010-11-06T14:25:32Z</time>
      </trkpt>
      <trkpt lat="44.97548" lon="4.78091">
        <ele>600.61297607422</ele>
        <time>2010-11-06T14:25:34Z</time>
      </trkpt>
      <trkpt lat="44.97521" lon="4.78101">
        <ele>602.01702880859</ele>
        <time>2010-11-06T14:25:41Z</time>
      </trkpt>
      <trkpt lat="44.97499" lon="4.78111">
        <ele>603.59600830078</ele>
        <time>2010-11-06T14:25:47Z</time>
      </trkpt>
      <trkpt lat="44.97471" lon="4.78111">
        <ele>605.09399414062</ele>
        <time>2010-11-06T14:25:54Z</time>
      </trkpt>
      <trkpt lat="44.9746" lon="4.78096">
        <ele>605.79998779297</ele>
        <time>2010-11-06T14:25:58Z</time>
      </trkpt>
      <trkpt lat="44.97461" lon="4.78076">
        <ele>607.01702880859</ele>
        <time>2010-11-06T14:26:02Z</time>
      </trkpt>
      <trkpt lat="44.97475" lon="4.78051">
        <ele>608.03900146484</ele>
        <time>2010-11-06T14:26:08Z</time>
      </trkpt>
      <trkpt lat="44.97494" lon="4.78023">
        <ele>609.23901367188</ele>
        <time>2010-11-06T14:26:15Z</time>
      </trkpt>
      <trkpt lat="44.97518" lon="4.77985">
        <ele>610.58599853516</ele>
        <time>2010-11-06T14:26:24Z</time>
      </trkpt>
      <trkpt lat="44.97538" lon="4.77965">
        <ele>611.65100097656</ele>
        <time>2010-11-06T14:26:30Z</time>
      </trkpt>
      <trkpt lat="44.97574" lon="4.77934">
        <ele>613.22601318359</ele>
        <time>2010-11-06T14:26:40Z</time>
      </trkpt>
      <trkpt lat="44.97602" lon="4.779">
        <ele>614.625</ele>
        <time>2010-11-06T14:26:49Z</time>
      </trkpt>
      <trkpt lat="44.97623" lon="4.77884">
        <ele>615.45202636719</ele>
        <time>2010-11-06T14:26:55Z</time>
      </trkpt>
      <trkpt lat="44.97657" lon="4.7788">
        <ele>615.98199462891</ele>
        <time>2010-11-06T14:27:03Z</time>
      </trkpt>
      <trkpt lat="44.97683" lon="4.77879">
        <ele>616.07000732422</ele>
        <time>2010-11-06T14:27:10Z</time>
      </trkpt>
      <trkpt lat="44.97696" lon="4.77879">
        <ele>616.20697021484</ele>
        <time>2010-11-06T14:27:15Z</time>
      </trkpt>
      <trkpt lat="44.97695" lon="4.77879">
        <ele>616.26501464844</ele>
        <time>2010-11-06T14:27:16Z</time>
      </trkpt>
      <trkpt lat="44.977" lon="4.7788">
        <ele>616.18597412109</ele>
        <time>2010-11-06T14:28:09Z</time>
      </trkpt>
      <trkpt lat="44.97702" lon="4.7788">
        <ele>616.21697998047</ele>
        <time>2010-11-06T14:28:10Z</time>
      </trkpt>
      <trkpt lat="44.97716" lon="4.77878">
        <ele>615.59002685547</ele>
        <time>2010-11-06T14:28:14Z</time>
      </trkpt>
      <trkpt lat="44.97745" lon="4.77876">
        <ele>614.07202148438</ele>
        <time>2010-11-06T14:28:20Z</time>
      </trkpt>
      <trkpt lat="44.97771" lon="4.77876">
        <ele>612.33001708984</ele>
        <time>2010-11-06T14:28:24Z</time>
      </trkpt>
      <trkpt lat="44.97812" lon="4.77879">
        <ele>609.53100585938</ele>
        <time>2010-11-06T14:28:29Z</time>
      </trkpt>
      <trkpt lat="44.9786" lon="4.77888">
        <ele>606.27197265625</ele>
        <time>2010-11-06T14:28:34Z</time>
      </trkpt>
      <trkpt lat="44.9787" lon="4.77889">
        <ele>605.53002929688</ele>
        <time>2010-11-06T14:28:35Z</time>
      </trkpt>
      <trkpt lat="44.97901" lon="4.77902">
        <ele>603.38702392578</ele>
        <time>2010-11-06T14:28:38Z</time>
      </trkpt>
      <trkpt lat="44.97933" lon="4.77911">
        <ele>601.23101806641</ele>
        <time>2010-11-06T14:28:41Z</time>
      </trkpt>
      <trkpt lat="44.97943" lon="4.7791">
        <ele>600.83697509766</ele>
        <time>2010-11-06T14:28:42Z</time>
      </trkpt>
      <trkpt lat="44.97965" lon="4.77904">
        <ele>599.14300537109</ele>
        <time>2010-11-06T14:28:44Z</time>
      </trkpt>
      <trkpt lat="44.98006" lon="4.77875">
        <ele>596.54498291016</ele>
        <time>2010-11-06T14:28:48Z</time>
      </trkpt>
      <trkpt lat="44.98015" lon="4.77866">
        <ele>595.81701660156</ele>
        <time>2010-11-06T14:28:49Z</time>
      </trkpt>
      <trkpt lat="44.98048" lon="4.77853">
        <ele>593.14001464844</ele>
        <time>2010-11-06T14:28:52Z</time>
      </trkpt>
      <trkpt lat="44.98129" lon="4.77863">
        <ele>587.91900634766</ele>
        <time>2010-11-06T14:28:59Z</time>
      </trkpt>
      <trkpt lat="44.98152" lon="4.77868">
        <ele>586.76098632812</ele>
        <time>2010-11-06T14:29:01Z</time>
      </trkpt>
      <trkpt lat="44.98185" lon="4.77857">
        <ele>584.88702392578</ele>
        <time>2010-11-06T14:29:04Z</time>
      </trkpt>
      <trkpt lat="44.98217" lon="4.7781">
        <ele>583.43902587891</ele>
        <time>2010-11-06T14:29:08Z</time>
      </trkpt>
      <trkpt lat="44.98217" lon="4.77776">
        <ele>583.30499267578</ele>
        <time>2010-11-06T14:29:10Z</time>
      </trkpt>
      <trkpt lat="44.98214" lon="4.77761">
        <ele>583.18902587891</ele>
        <time>2010-11-06T14:29:11Z</time>
      </trkpt>
      <trkpt lat="44.98209" lon="4.77664">
        <ele>580.25897216797</ele>
        <time>2010-11-06T14:29:17Z</time>
      </trkpt>
      <trkpt lat="44.9821" lon="4.77631">
        <ele>579.31097412109</ele>
        <time>2010-11-06T14:29:19Z</time>
      </trkpt>
      <trkpt lat="44.98212" lon="4.77564">
        <ele>577.56500244141</ele>
        <time>2010-11-06T14:29:23Z</time>
      </trkpt>
      <trkpt lat="44.98212" lon="4.77513">
        <ele>575.94897460938</ele>
        <time>2010-11-06T14:29:26Z</time>
      </trkpt>
      <trkpt lat="44.98201" lon="4.77468">
        <ele>575.62298583984</ele>
        <time>2010-11-06T14:29:29Z</time>
      </trkpt>
      <trkpt lat="44.98183" lon="4.77449">
        <ele>575.77899169922</ele>
        <time>2010-11-06T14:29:31Z</time>
      </trkpt>
      <trkpt lat="44.9812" lon="4.774">
        <ele>576.22601318359</ele>
        <time>2010-11-06T14:29:38Z</time>
      </trkpt>
      <trkpt lat="44.98102" lon="4.77368">
        <ele>576.42797851562</ele>
        <time>2010-11-06T14:29:41Z</time>
      </trkpt>
      <trkpt lat="44.98109" lon="4.77344">
        <ele>576.30401611328</ele>
        <time>2010-11-06T14:29:43Z</time>
      </trkpt>
      <trkpt lat="44.98117" lon="4.77336">
        <ele>576.21197509766</ele>
        <time>2010-11-06T14:29:44Z</time>
      </trkpt>
      <trkpt lat="44.98136" lon="4.77291">
        <ele>576.46600341797</ele>
        <time>2010-11-06T14:29:49Z</time>
      </trkpt>
      <trkpt lat="44.98122" lon="4.77236">
        <ele>575.93597412109</ele>
        <time>2010-11-06T14:29:54Z</time>
      </trkpt>
      <trkpt lat="44.98106" lon="4.77183">
        <ele>575.99298095703</ele>
        <time>2010-11-06T14:29:59Z</time>
      </trkpt>
      <trkpt lat="44.98119" lon="4.77155">
        <ele>574.86499023438</ele>
        <time>2010-11-06T14:30:02Z</time>
      </trkpt>
      <trkpt lat="44.98157" lon="4.77105">
        <ele>570.72100830078</ele>
        <time>2010-11-06T14:30:08Z</time>
      </trkpt>
      <trkpt lat="44.9819" lon="4.7705">
        <ele>568.05102539062</ele>
        <time>2010-11-06T14:30:13Z</time>
      </trkpt>
      <trkpt lat="44.98198" lon="4.77004">
        <ele>566.10900878906</ele>
        <time>2010-11-06T14:30:16Z</time>
      </trkpt>
      <trkpt lat="44.98187" lon="4.76976">
        <ele>564.99200439453</ele>
        <time>2010-11-06T14:30:18Z</time>
      </trkpt>
      <trkpt lat="44.9816" lon="4.76947">
        <ele>565.1669921875</ele>
        <time>2010-11-06T14:30:21Z</time>
      </trkpt>
      <trkpt lat="44.98131" lon="4.76931">
        <ele>566.2080078125</ele>
        <time>2010-11-06T14:30:24Z</time>
      </trkpt>
      <trkpt lat="44.98111" lon="4.76927">
        <ele>566.69500732422</ele>
        <time>2010-11-06T14:30:26Z</time>
      </trkpt>
      <trkpt lat="44.98039" lon="4.7692">
        <ele>567.09197998047</ele>
        <time>2010-11-06T14:30:34Z</time>
      </trkpt>
      <trkpt lat="44.98004" lon="4.76915">
        <ele>567.23101806641</ele>
        <time>2010-11-06T14:30:38Z</time>
      </trkpt>
      <trkpt lat="44.97972" lon="4.76934">
        <ele>566.21301269531</ele>
        <time>2010-11-06T14:30:42Z</time>
      </trkpt>
      <trkpt lat="44.97946" lon="4.76967">
        <ele>565.44097900391</ele>
        <time>2010-11-06T14:30:46Z</time>
      </trkpt>
      <trkpt lat="44.97928" lon="4.76969">
        <ele>565.36798095703</ele>
        <time>2010-11-06T14:30:48Z</time>
      </trkpt>
      <trkpt lat="44.97902" lon="4.76957">
        <ele>565.19097900391</ele>
        <time>2010-11-06T14:30:51Z</time>
      </trkpt>
      <trkpt lat="44.97833" lon="4.7693">
        <ele>563.41497802734</ele>
        <time>2010-11-06T14:30:59Z</time>
      </trkpt>
      <trkpt lat="44.97804" lon="4.76922">
        <ele>562.63098144531</ele>
        <time>2010-11-06T14:31:02Z</time>
      </trkpt>
      <trkpt lat="44.97766" lon="4.76926">
        <ele>562.75897216797</ele>
        <time>2010-11-06T14:31:06Z</time>
      </trkpt>
      <trkpt lat="44.97735" lon="4.76932">
        <ele>560.72497558594</ele>
        <time>2010-11-06T14:31:09Z</time>
      </trkpt>
      <trkpt lat="44.97705" lon="4.76913">
        <ele>558.35198974609</ele>
        <time>2010-11-06T14:31:12Z</time>
      </trkpt>
      <trkpt lat="44.97683" lon="4.76876">
        <ele>556.23999023438</ele>
        <time>2010-11-06T14:31:15Z</time>
      </trkpt>
      <trkpt lat="44.97673" lon="4.76848">
        <ele>554.67999267578</ele>
        <time>2010-11-06T14:31:17Z</time>
      </trkpt>
      <trkpt lat="44.97649" lon="4.76816">
        <ele>553.26000976562</ele>
        <time>2010-11-06T14:31:20Z</time>
      </trkpt>
      <trkpt lat="44.9762" lon="4.76797">
        <ele>552.47302246094</ele>
        <time>2010-11-06T14:31:23Z</time>
      </trkpt>
      <trkpt lat="44.97589" lon="4.76787">
        <ele>551.69201660156</ele>
        <time>2010-11-06T14:31:26Z</time>
      </trkpt>
      <trkpt lat="44.97549" lon="4.76791">
        <ele>551.30700683594</ele>
        <time>2010-11-06T14:31:30Z</time>
      </trkpt>
      <trkpt lat="44.97506" lon="4.76786">
        <ele>548.55902099609</ele>
        <time>2010-11-06T14:31:34Z</time>
      </trkpt>
      <trkpt lat="44.97485" lon="4.76774">
        <ele>547.19097900391</ele>
        <time>2010-11-06T14:31:36Z</time>
      </trkpt>
      <trkpt lat="44.97465" lon="4.76759">
        <ele>545.87097167969</ele>
        <time>2010-11-06T14:31:38Z</time>
      </trkpt>
      <trkpt lat="44.97437" lon="4.76732">
        <ele>544.12799072266</ele>
        <time>2010-11-06T14:31:41Z</time>
      </trkpt>
      <trkpt lat="44.9742" lon="4.76697">
        <ele>542.60998535156</ele>
        <time>2010-11-06T14:31:44Z</time>
      </trkpt>
      <trkpt lat="44.97421" lon="4.76667">
        <ele>540.85900878906</ele>
        <time>2010-11-06T14:31:46Z</time>
      </trkpt>
      <trkpt lat="44.97426" lon="4.76633">
        <ele>539.92901611328</ele>
        <time>2010-11-06T14:31:48Z</time>
      </trkpt>
      <trkpt lat="44.97429" lon="4.76617">
        <ele>539.27099609375</ele>
        <time>2010-11-06T14:31:49Z</time>
      </trkpt>
      <trkpt lat="44.97417" lon="4.76587">
        <ele>538.92700195312</ele>
        <time>2010-11-06T14:31:52Z</time>
      </trkpt>
      <trkpt lat="44.9739" lon="4.76585">
        <ele>539.03900146484</ele>
        <time>2010-11-06T14:31:55Z</time>
      </trkpt>
      <trkpt lat="44.97374" lon="4.76583">
        <ele>539.05999755859</ele>
        <time>2010-11-06T14:31:57Z</time>
      </trkpt>
      <trkpt lat="44.97342" lon="4.76564">
        <ele>538.34002685547</ele>
        <time>2010-11-06T14:32:01Z</time>
      </trkpt>
      <trkpt lat="44.97335" lon="4.76556">
        <ele>538.19000244141</ele>
        <time>2010-11-06T14:32:02Z</time>
      </trkpt>
      <trkpt lat="44.97323" lon="4.76539">
        <ele>537.7509765625</ele>
        <time>2010-11-06T14:32:04Z</time>
      </trkpt>
      <trkpt lat="44.9729" lon="4.76515">
        <ele>536.07098388672</ele>
        <time>2010-11-06T14:32:08Z</time>
      </trkpt>
      <trkpt lat="44.97265" lon="4.76493">
        <ele>534.76599121094</ele>
        <time>2010-11-06T14:32:11Z</time>
      </trkpt>
      <trkpt lat="44.97245" lon="4.7646">
        <ele>535.18902587891</ele>
        <time>2010-11-06T14:32:14Z</time>
      </trkpt>
      <trkpt lat="44.9724" lon="4.76436">
        <ele>536.04302978516</ele>
        <time>2010-11-06T14:32:16Z</time>
      </trkpt>
      <trkpt lat="44.97241" lon="4.76402">
        <ele>537.23602294922</ele>
        <time>2010-11-06T14:32:19Z</time>
      </trkpt>
      <trkpt lat="44.97232" lon="4.76382">
        <ele>537.58801269531</ele>
        <time>2010-11-06T14:32:21Z</time>
      </trkpt>
      <trkpt lat="44.97211" lon="4.76347">
        <ele>537.63397216797</ele>
        <time>2010-11-06T14:32:25Z</time>
      </trkpt>
      <trkpt lat="44.97206" lon="4.76338">
        <ele>537.33197021484</ele>
        <time>2010-11-06T14:32:26Z</time>
      </trkpt>
      <trkpt lat="44.97184" lon="4.76304">
        <ele>537.10699462891</ele>
        <time>2010-11-06T14:32:30Z</time>
      </trkpt>
      <trkpt lat="44.97151" lon="4.76284">
        <ele>536.35198974609</ele>
        <time>2010-11-06T14:32:34Z</time>
      </trkpt>
      <trkpt lat="44.97125" lon="4.76268">
        <ele>534.66900634766</ele>
        <time>2010-11-06T14:32:37Z</time>
      </trkpt>
      <trkpt lat="44.97116" lon="4.76244">
        <ele>533.46899414062</ele>
        <time>2010-11-06T14:32:39Z</time>
      </trkpt>
      <trkpt lat="44.97104" lon="4.76153">
        <ele>528.66400146484</ele>
        <time>2010-11-06T14:32:45Z</time>
      </trkpt>
      <trkpt lat="44.97091" lon="4.7611">
        <ele>527.20098876953</ele>
        <time>2010-11-06T14:32:48Z</time>
      </trkpt>
      <trkpt lat="44.97084" lon="4.76098">
        <ele>527.10198974609</ele>
        <time>2010-11-06T14:32:49Z</time>
      </trkpt>
      <trkpt lat="44.9707" lon="4.76041">
        <ele>525.95501708984</ele>
        <time>2010-11-06T14:32:53Z</time>
      </trkpt>
      <trkpt lat="44.97075" lon="4.75995">
        <ele>523.28002929688</ele>
        <time>2010-11-06T14:32:56Z</time>
      </trkpt>
      <trkpt lat="44.9708" lon="4.75964">
        <ele>522.27899169922</ele>
        <time>2010-11-06T14:32:58Z</time>
      </trkpt>
      <trkpt lat="44.97072" lon="4.75934">
        <ele>520.86499023438</ele>
        <time>2010-11-06T14:33:00Z</time>
      </trkpt>
      <trkpt lat="44.97065" lon="4.75924">
        <ele>520.38800048828</ele>
        <time>2010-11-06T14:33:01Z</time>
      </trkpt>
      <trkpt lat="44.97033" lon="4.75885">
        <ele>518.32897949219</ele>
        <time>2010-11-06T14:33:05Z</time>
      </trkpt>
      <trkpt lat="44.96981" lon="4.75849">
        <ele>515.93499755859</ele>
        <time>2010-11-06T14:33:10Z</time>
      </trkpt>
      <trkpt lat="44.96962" lon="4.75832">
        <ele>515.13598632812</ele>
        <time>2010-11-06T14:33:12Z</time>
      </trkpt>
      <trkpt lat="44.96945" lon="4.75813">
        <ele>513.74798583984</ele>
        <time>2010-11-06T14:33:14Z</time>
      </trkpt>
      <trkpt lat="44.96925" lon="4.75797">
        <ele>512.82897949219</ele>
        <time>2010-11-06T14:33:16Z</time>
      </trkpt>
      <trkpt lat="44.96911" lon="4.7577">
        <ele>511.31298828125</ele>
        <time>2010-11-06T14:33:18Z</time>
      </trkpt>
      <trkpt lat="44.96908" lon="4.75755">
        <ele>510.45300292969</ele>
        <time>2010-11-06T14:33:19Z</time>
      </trkpt>
      <trkpt lat="44.96886" lon="4.75666">
        <ele>507.09298706055</ele>
        <time>2010-11-06T14:33:25Z</time>
      </trkpt>
      <trkpt lat="44.96891" lon="4.75635">
        <ele>505.30499267578</ele>
        <time>2010-11-06T14:33:27Z</time>
      </trkpt>
      <trkpt lat="44.96911" lon="4.75616">
        <ele>503.63000488281</ele>
        <time>2010-11-06T14:33:29Z</time>
      </trkpt>
      <trkpt lat="44.96922" lon="4.7561">
        <ele>503.14700317383</ele>
        <time>2010-11-06T14:33:30Z</time>
      </trkpt>
      <trkpt lat="44.97021" lon="4.75559">
        <ele>496.15798950195</ele>
        <time>2010-11-06T14:33:39Z</time>
      </trkpt>
      <trkpt lat="44.971" lon="4.75515">
        <ele>490.17001342773</ele>
        <time>2010-11-06T14:33:46Z</time>
      </trkpt>
      <trkpt lat="44.97136" lon="4.75508">
        <ele>487.71798706055</ele>
        <time>2010-11-06T14:33:49Z</time>
      </trkpt>
      <trkpt lat="44.97149" lon="4.7551">
        <ele>486.97299194336</ele>
        <time>2010-11-06T14:33:50Z</time>
      </trkpt>
      <trkpt lat="44.97186" lon="4.75498">
        <ele>485.03201293945</ele>
        <time>2010-11-06T14:33:53Z</time>
      </trkpt>
      <trkpt lat="44.97222" lon="4.75481">
        <ele>482.15701293945</ele>
        <time>2010-11-06T14:33:56Z</time>
      </trkpt>
      <trkpt lat="44.97243" lon="4.75461">
        <ele>480.8330078125</ele>
        <time>2010-11-06T14:33:58Z</time>
      </trkpt>
      <trkpt lat="44.97271" lon="4.75422">
        <ele>478.15200805664</ele>
        <time>2010-11-06T14:34:01Z</time>
      </trkpt>
      <trkpt lat="44.97295" lon="4.75408">
        <ele>476.70599365234</ele>
        <time>2010-11-06T14:34:03Z</time>
      </trkpt>
      <trkpt lat="44.97316" lon="4.7539">
        <ele>475.14001464844</ele>
        <time>2010-11-06T14:34:05Z</time>
      </trkpt>
      <trkpt lat="44.97324" lon="4.75375">
        <ele>474.68600463867</ele>
        <time>2010-11-06T14:34:06Z</time>
      </trkpt>
      <trkpt lat="44.97337" lon="4.75344">
        <ele>474.01800537109</ele>
        <time>2010-11-06T14:34:08Z</time>
      </trkpt>
      <trkpt lat="44.97366" lon="4.75315">
        <ele>471.37298583984</ele>
        <time>2010-11-06T14:34:11Z</time>
      </trkpt>
      <trkpt lat="44.97391" lon="4.7532">
        <ele>469.72198486328</ele>
        <time>2010-11-06T14:34:13Z</time>
      </trkpt>
      <trkpt lat="44.97403" lon="4.75325">
        <ele>468.97500610352</ele>
        <time>2010-11-06T14:34:14Z</time>
      </trkpt>
      <trkpt lat="44.97461" lon="4.7535">
        <ele>465.6369934082</ele>
        <time>2010-11-06T14:34:19Z</time>
      </trkpt>
      <trkpt lat="44.97488" lon="4.75349">
        <ele>463.87200927734</ele>
        <time>2010-11-06T14:34:21Z</time>
      </trkpt>
      <trkpt lat="44.97511" lon="4.7533">
        <ele>460.93499755859</ele>
        <time>2010-11-06T14:34:23Z</time>
      </trkpt>
      <trkpt lat="44.97518" lon="4.75316">
        <ele>459.7799987793</ele>
        <time>2010-11-06T14:34:24Z</time>
      </trkpt>
      <trkpt lat="44.97532" lon="4.75285">
        <ele>458.82598876953</ele>
        <time>2010-11-06T14:34:26Z</time>
      </trkpt>
      <trkpt lat="44.97565" lon="4.75234">
        <ele>455.48901367188</ele>
        <time>2010-11-06T14:34:30Z</time>
      </trkpt>
      <trkpt lat="44.976" lon="4.75185">
        <ele>452.73901367188</ele>
        <time>2010-11-06T14:34:34Z</time>
      </trkpt>
      <trkpt lat="44.97613" lon="4.7518">
        <ele>452.21701049805</ele>
        <time>2010-11-06T14:34:35Z</time>
      </trkpt>
      <trkpt lat="44.9765" lon="4.75164">
        <ele>449.1960144043</ele>
        <time>2010-11-06T14:34:38Z</time>
      </trkpt>
      <trkpt lat="44.97686" lon="4.75164">
        <ele>447.28500366211</ele>
        <time>2010-11-06T14:34:41Z</time>
      </trkpt>
      <trkpt lat="44.97695" lon="4.75167">
        <ele>446.68301391602</ele>
        <time>2010-11-06T14:34:42Z</time>
      </trkpt>
      <trkpt lat="44.97718" lon="4.75149">
        <ele>444.54800415039</ele>
        <time>2010-11-06T14:34:45Z</time>
      </trkpt>
      <trkpt lat="44.97721" lon="4.75135">
        <ele>443.99301147461</ele>
        <time>2010-11-06T14:34:46Z</time>
      </trkpt>
      <trkpt lat="44.97731" lon="4.75094">
        <ele>442.69000244141</ele>
        <time>2010-11-06T14:34:49Z</time>
      </trkpt>
      <trkpt lat="44.97736" lon="4.75036">
        <ele>440.43600463867</ele>
        <time>2010-11-06T14:34:53Z</time>
      </trkpt>
      <trkpt lat="44.97755" lon="4.75021">
        <ele>438.36199951172</ele>
        <time>2010-11-06T14:34:55Z</time>
      </trkpt>
      <trkpt lat="44.97786" lon="4.75014">
        <ele>436.91799926758</ele>
        <time>2010-11-06T14:34:58Z</time>
      </trkpt>
      <trkpt lat="44.97808" lon="4.75017">
        <ele>435.39001464844</ele>
        <time>2010-11-06T14:35:00Z</time>
      </trkpt>
      <trkpt lat="44.97841" lon="4.75004">
        <ele>433.17599487305</ele>
        <time>2010-11-06T14:35:03Z</time>
      </trkpt>
      <trkpt lat="44.97876" lon="4.74987">
        <ele>430.47299194336</ele>
        <time>2010-11-06T14:35:06Z</time>
      </trkpt>
      <trkpt lat="44.97887" lon="4.7498">
        <ele>429.57800292969</ele>
        <time>2010-11-06T14:35:07Z</time>
      </trkpt>
      <trkpt lat="44.97956" lon="4.74938">
        <ele>424.41500854492</ele>
        <time>2010-11-06T14:35:13Z</time>
      </trkpt>
      <trkpt lat="44.97967" lon="4.74931">
        <ele>423.80999755859</ele>
        <time>2010-11-06T14:35:14Z</time>
      </trkpt>
      <trkpt lat="44.98014" lon="4.74917">
        <ele>420.38299560547</ele>
        <time>2010-11-06T14:35:18Z</time>
      </trkpt>
      <trkpt lat="44.98045" lon="4.74902">
        <ele>417.44500732422</ele>
        <time>2010-11-06T14:35:21Z</time>
      </trkpt>
      <trkpt lat="44.9805" lon="4.7489">
        <ele>417.21798706055</ele>
        <time>2010-11-06T14:35:22Z</time>
      </trkpt>
      <trkpt lat="44.98056" lon="4.74845">
        <ele>415.35501098633</ele>
        <time>2010-11-06T14:35:25Z</time>
      </trkpt>
      <trkpt lat="44.98061" lon="4.74782">
        <ele>411.78298950195</ele>
        <time>2010-11-06T14:35:29Z</time>
      </trkpt>
      <trkpt lat="44.98075" lon="4.74756">
        <ele>410.57800292969</ele>
        <time>2010-11-06T14:35:31Z</time>
      </trkpt>
      <trkpt lat="44.98107" lon="4.74733">
        <ele>408.27600097656</ele>
        <time>2010-11-06T14:35:34Z</time>
      </trkpt>
      <trkpt lat="44.98156" lon="4.74723">
        <ele>405.26800537109</ele>
        <time>2010-11-06T14:35:38Z</time>
      </trkpt>
      <trkpt lat="44.98169" lon="4.74719">
        <ele>404.28298950195</ele>
        <time>2010-11-06T14:35:39Z</time>
      </trkpt>
      <trkpt lat="44.98227" lon="4.74701">
        <ele>400.6549987793</ele>
        <time>2010-11-06T14:35:44Z</time>
      </trkpt>
      <trkpt lat="44.9827" lon="4.74711">
        <ele>398.37899780273</ele>
        <time>2010-11-06T14:35:48Z</time>
      </trkpt>
      <trkpt lat="44.9831" lon="4.74746">
        <ele>395.5830078125</ele>
        <time>2010-11-06T14:35:52Z</time>
      </trkpt>
      <trkpt lat="44.98333" lon="4.74784">
        <ele>393.2380065918</ele>
        <time>2010-11-06T14:35:55Z</time>
      </trkpt>
      <trkpt lat="44.98355" lon="4.74798">
        <ele>391.68701171875</ele>
        <time>2010-11-06T14:35:57Z</time>
      </trkpt>
      <trkpt lat="44.98409" lon="4.74836">
        <ele>387.30801391602</ele>
        <time>2010-11-06T14:36:02Z</time>
      </trkpt>
      <trkpt lat="44.98433" lon="4.74841">
        <ele>385.79800415039</ele>
        <time>2010-11-06T14:36:04Z</time>
      </trkpt>
      <trkpt lat="44.9847" lon="4.74845">
        <ele>383.74200439453</ele>
        <time>2010-11-06T14:36:07Z</time>
      </trkpt>
      <trkpt lat="44.98497" lon="4.74864">
        <ele>382.11999511719</ele>
        <time>2010-11-06T14:36:10Z</time>
      </trkpt>
      <trkpt lat="44.98502" lon="4.74872">
        <ele>382.17498779297</ele>
        <time>2010-11-06T14:36:11Z</time>
      </trkpt>
      <trkpt lat="44.98508" lon="4.74883">
        <ele>382.6780090332</ele>
        <time>2010-11-06T14:36:14Z</time>
      </trkpt>
      <trkpt lat="44.98512" lon="4.74884">
        <ele>382.625</ele>
        <time>2010-11-06T14:36:18Z</time>
      </trkpt>
      <trkpt lat="44.98513" lon="4.74881">
        <ele>382.34899902344</ele>
        <time>2010-11-06T14:36:20Z</time>
      </trkpt>
      <trkpt lat="44.98519" lon="4.74875">
        <ele>382.08599853516</ele>
        <time>2010-11-06T14:36:26Z</time>
      </trkpt>
      <trkpt lat="44.98522" lon="4.74873">
        <ele>382.14999389648</ele>
        <time>2010-11-06T14:36:28Z</time>
      </trkpt>
      <trkpt lat="44.98533" lon="4.74862">
        <ele>382.02600097656</ele>
        <time>2010-11-06T14:36:37Z</time>
      </trkpt>
      <trkpt lat="44.98531" lon="4.74857">
        <ele>381.99798583984</ele>
        <time>2010-11-06T14:36:42Z</time>
      </trkpt>
      <trkpt lat="44.98531" lon="4.74857">
        <ele>381.8869934082</ele>
        <time>2010-11-06T14:36:43Z</time>
      </trkpt>
      <trkpt lat="44.98537" lon="4.74857">
        <ele>381.82800292969</ele>
        <time>2010-11-06T14:36:59Z</time>
      </trkpt>
      <trkpt lat="44.98547" lon="4.74846">
        <ele>381.8039855957</ele>
        <time>2010-11-06T14:37:03Z</time>
      </trkpt>
      <trkpt lat="44.98551" lon="4.7483">
        <ele>382.07000732422</ele>
        <time>2010-11-06T14:37:06Z</time>
      </trkpt>
      <trkpt lat="44.98552" lon="4.74824">
        <ele>382.07000732422</ele>
        <time>2010-11-06T14:37:07Z</time>
      </trkpt>
      <trkpt lat="44.98554" lon="4.74805">
        <ele>382.39599609375</ele>
        <time>2010-11-06T14:37:10Z</time>
      </trkpt>
      <trkpt lat="44.98554" lon="4.74799">
        <ele>382.68499755859</ele>
        <time>2010-11-06T14:37:11Z</time>
      </trkpt>
      <trkpt lat="44.9855" lon="4.74773">
        <ele>383.18499755859</ele>
        <time>2010-11-06T14:37:15Z</time>
      </trkpt>
      <trkpt lat="44.98545" lon="4.7476">
        <ele>383.31600952148</ele>
        <time>2010-11-06T14:37:17Z</time>
      </trkpt>
      <trkpt lat="44.98539" lon="4.74748">
        <ele>383.40200805664</ele>
        <time>2010-11-06T14:37:19Z</time>
      </trkpt>
      <trkpt lat="44.98503" lon="4.74704">
        <ele>384.29998779297</ele>
        <time>2010-11-06T14:37:27Z</time>
      </trkpt>
      <trkpt lat="44.98474" lon="4.74674">
        <ele>385.25698852539</ele>
        <time>2010-11-06T14:37:33Z</time>
      </trkpt>
      <trkpt lat="44.98455" lon="4.74651">
        <ele>385.70001220703</ele>
        <time>2010-11-06T14:37:37Z</time>
      </trkpt>
      <trkpt lat="44.9842" lon="4.74615">
        <ele>386.52099609375</ele>
        <time>2010-11-06T14:37:44Z</time>
      </trkpt>
      <trkpt lat="44.98408" lon="4.74586">
        <ele>387.22900390625</ele>
        <time>2010-11-06T14:37:48Z</time>
      </trkpt>
      <trkpt lat="44.984" lon="4.74548">
        <ele>388.12899780273</ele>
        <time>2010-11-06T14:37:53Z</time>
      </trkpt>
      <trkpt lat="44.9838" lon="4.74532">
        <ele>388.13400268555</ele>
        <time>2010-11-06T14:37:57Z</time>
      </trkpt>
      <trkpt lat="44.98365" lon="4.74541">
        <ele>388.63500976562</ele>
        <time>2010-11-06T14:38:00Z</time>
      </trkpt>
      <trkpt lat="44.98339" lon="4.7456">
        <ele>389.37100219727</ele>
        <time>2010-11-06T14:38:05Z</time>
      </trkpt>
      <trkpt lat="44.98317" lon="4.74561">
        <ele>389.72198486328</ele>
        <time>2010-11-06T14:38:09Z</time>
      </trkpt>
      <trkpt lat="44.98312" lon="4.74558">
        <ele>389.91900634766</ele>
        <time>2010-11-06T14:38:10Z</time>
      </trkpt>
      <trkpt lat="44.98257" lon="4.74529">
        <ele>390.63900756836</ele>
        <time>2010-11-06T14:38:20Z</time>
      </trkpt>
      <trkpt lat="44.98228" lon="4.74524">
        <ele>391.11099243164</ele>
        <time>2010-11-06T14:38:25Z</time>
      </trkpt>
      <trkpt lat="44.982" lon="4.74511">
        <ele>391.65200805664</ele>
        <time>2010-11-06T14:38:30Z</time>
      </trkpt>
      <trkpt lat="44.98177" lon="4.74502">
        <ele>391.99499511719</ele>
        <time>2010-11-06T14:38:34Z</time>
      </trkpt>
      <trkpt lat="44.98158" lon="4.74513">
        <ele>392.56100463867</ele>
        <time>2010-11-06T14:38:38Z</time>
      </trkpt>
      <trkpt lat="44.98152" lon="4.74528">
        <ele>393.07800292969</ele>
        <time>2010-11-06T14:38:40Z</time>
      </trkpt>
      <trkpt lat="44.98134" lon="4.74556">
        <ele>394.69100952148</ele>
        <time>2010-11-06T14:38:45Z</time>
      </trkpt>
      <trkpt lat="44.98124" lon="4.74562">
        <ele>395.0119934082</ele>
        <time>2010-11-06T14:38:47Z</time>
      </trkpt>
      <trkpt lat="44.98076" lon="4.74585">
        <ele>396.86499023438</ele>
        <time>2010-11-06T14:38:56Z</time>
      </trkpt>
      <trkpt lat="44.98044" lon="4.74613">
        <ele>398.79098510742</ele>
        <time>2010-11-06T14:39:03Z</time>
      </trkpt>
      <trkpt lat="44.98007" lon="4.74656">
        <ele>400.25601196289</ele>
        <time>2010-11-06T14:39:12Z</time>
      </trkpt>
      <trkpt lat="44.97982" lon="4.74672">
        <ele>401.49899291992</ele>
        <time>2010-11-06T14:39:17Z</time>
      </trkpt>
      <trkpt lat="44.9797" lon="4.74681">
        <ele>402.18499755859</ele>
        <time>2010-11-06T14:39:20Z</time>
      </trkpt>
      <trkpt lat="44.97947" lon="4.74714">
        <ele>403.99099731445</ele>
        <time>2010-11-06T14:39:27Z</time>
      </trkpt>
      <trkpt lat="44.97945" lon="4.7472">
        <ele>404.08499145508</ele>
        <time>2010-11-06T14:39:28Z</time>
      </trkpt>
      <trkpt lat="44.97929" lon="4.74736">
        <ele>404.80599975586</ele>
        <time>2010-11-06T14:39:32Z</time>
      </trkpt>
      <trkpt lat="44.97889" lon="4.74755">
        <ele>406.24700927734</ele>
        <time>2010-11-06T14:39:40Z</time>
      </trkpt>
      <trkpt lat="44.97855" lon="4.7477">
        <ele>407.36898803711</ele>
        <time>2010-11-06T14:39:47Z</time>
      </trkpt>
      <trkpt lat="44.97815" lon="4.7478">
        <ele>408.52600097656</ele>
        <time>2010-11-06T14:39:55Z</time>
      </trkpt>
      <trkpt lat="44.97779" lon="4.74776">
        <ele>409.6789855957</ele>
        <time>2010-11-06T14:40:02Z</time>
      </trkpt>
      <trkpt lat="44.97749" lon="4.74784">
        <ele>410.87899780273</ele>
        <time>2010-11-06T14:40:08Z</time>
      </trkpt>
      <trkpt lat="44.97711" lon="4.74796">
        <ele>412.22198486328</ele>
        <time>2010-11-06T14:40:16Z</time>
      </trkpt>
      <trkpt lat="44.97691" lon="4.74797">
        <ele>412.93200683594</ele>
        <time>2010-11-06T14:40:20Z</time>
      </trkpt>
      <trkpt lat="44.97676" lon="4.74793">
        <ele>413.25900268555</ele>
        <time>2010-11-06T14:40:23Z</time>
      </trkpt>
      <trkpt lat="44.97657" lon="4.74799">
        <ele>413.95901489258</ele>
        <time>2010-11-06T14:40:27Z</time>
      </trkpt>
      <trkpt lat="44.97647" lon="4.74816">
        <ele>414.52099609375</ele>
        <time>2010-11-06T14:40:30Z</time>
      </trkpt>
      <trkpt lat="44.9764" lon="4.74836">
        <ele>415.23901367188</ele>
        <time>2010-11-06T14:40:33Z</time>
      </trkpt>
      <trkpt lat="44.9763" lon="4.74853">
        <ele>416.18499755859</ele>
        <time>2010-11-06T14:40:36Z</time>
      </trkpt>
      <trkpt lat="44.97598" lon="4.7489">
        <ele>417.54098510742</ele>
        <time>2010-11-06T14:40:44Z</time>
      </trkpt>
      <trkpt lat="44.9759" lon="4.74899">
        <ele>417.71200561523</ele>
        <time>2010-11-06T14:40:46Z</time>
      </trkpt>
      <trkpt lat="44.97561" lon="4.74914">
        <ele>418.74099731445</ele>
        <time>2010-11-06T14:40:52Z</time>
      </trkpt>
      <trkpt lat="44.97515" lon="4.74923">
        <ele>420.34100341797</ele>
        <time>2010-11-06T14:41:01Z</time>
      </trkpt>
      <trkpt lat="44.9747" lon="4.74937">
        <ele>422.01599121094</ele>
        <time>2010-11-06T14:41:10Z</time>
      </trkpt>
      <trkpt lat="44.9745" lon="4.74935">
        <ele>422.87298583984</ele>
        <time>2010-11-06T14:41:14Z</time>
      </trkpt>
      <trkpt lat="44.97418" lon="4.74915">
        <ele>424.43701171875</ele>
        <time>2010-11-06T14:41:21Z</time>
      </trkpt>
      <trkpt lat="44.97372" lon="4.74882">
        <ele>426.40798950195</ele>
        <time>2010-11-06T14:41:31Z</time>
      </trkpt>
      <trkpt lat="44.9734" lon="4.74864">
        <ele>427.91101074219</ele>
        <time>2010-11-06T14:41:38Z</time>
      </trkpt>
      <trkpt lat="44.97316" lon="4.74864">
        <ele>428.97500610352</ele>
        <time>2010-11-06T14:41:43Z</time>
      </trkpt>
      <trkpt lat="44.97271" lon="4.74876">
        <ele>430.47799682617</ele>
        <time>2010-11-06T14:41:52Z</time>
      </trkpt>
      <trkpt lat="44.97232" lon="4.74877">
        <ele>432.29098510742</ele>
        <time>2010-11-06T14:42:00Z</time>
      </trkpt>
      <trkpt lat="44.97204" lon="4.74877">
        <ele>433.37899780273</ele>
        <time>2010-11-06T14:42:06Z</time>
      </trkpt>
      <trkpt lat="44.97171" lon="4.7488">
        <ele>434.60000610352</ele>
        <time>2010-11-06T14:42:13Z</time>
      </trkpt>
      <trkpt lat="44.97126" lon="4.74883">
        <ele>435.97399902344</ele>
        <time>2010-11-06T14:42:22Z</time>
      </trkpt>
      <trkpt lat="44.97104" lon="4.7487">
        <ele>437.00299072266</ele>
        <time>2010-11-06T14:42:27Z</time>
      </trkpt>
      <trkpt lat="44.97097" lon="4.74852">
        <ele>437.31698608398</ele>
        <time>2010-11-06T14:42:30Z</time>
      </trkpt>
      <trkpt lat="44.97091" lon="4.74796">
        <ele>438.73400878906</ele>
        <time>2010-11-06T14:42:38Z</time>
      </trkpt>
      <trkpt lat="44.97081" lon="4.74747">
        <ele>439.94100952148</ele>
        <time>2010-11-06T14:42:45Z</time>
      </trkpt>
      <trkpt lat="44.97065" lon="4.74693">
        <ele>440.71200561523</ele>
        <time>2010-11-06T14:42:53Z</time>
      </trkpt>
      <trkpt lat="44.97046" lon="4.74679">
        <ele>441.01699829102</ele>
        <time>2010-11-06T14:42:57Z</time>
      </trkpt>
      <trkpt lat="44.97031" lon="4.74688">
        <ele>441.55999755859</ele>
        <time>2010-11-06T14:43:00Z</time>
      </trkpt>
      <trkpt lat="44.97025" lon="4.7471">
        <ele>441.80801391602</ele>
        <time>2010-11-06T14:43:03Z</time>
      </trkpt>
      <trkpt lat="44.97025" lon="4.74718">
        <ele>441.90600585938</ele>
        <time>2010-11-06T14:43:04Z</time>
      </trkpt>
      <trkpt lat="44.97024" lon="4.7475">
        <ele>442.87399291992</ele>
        <time>2010-11-06T14:43:08Z</time>
      </trkpt>
      <trkpt lat="44.97013" lon="4.74786">
        <ele>443.64898681641</ele>
        <time>2010-11-06T14:43:13Z</time>
      </trkpt>
      <trkpt lat="44.96995" lon="4.74803">
        <ele>444.22799682617</ele>
        <time>2010-11-06T14:43:17Z</time>
      </trkpt>
      <trkpt lat="44.9699" lon="4.74805">
        <ele>444.49899291992</ele>
        <time>2010-11-06T14:43:18Z</time>
      </trkpt>
      <trkpt lat="44.96979" lon="4.74807">
        <ele>445.07000732422</ele>
        <time>2010-11-06T14:43:20Z</time>
      </trkpt>
      <trkpt lat="44.96941" lon="4.74803">
        <ele>446.81100463867</ele>
        <time>2010-11-06T14:43:27Z</time>
      </trkpt>
      <trkpt lat="44.96907" lon="4.74782">
        <ele>448.43099975586</ele>
        <time>2010-11-06T14:43:34Z</time>
      </trkpt>
      <trkpt lat="44.96897" lon="4.74776">
        <ele>449.04699707031</ele>
        <time>2010-11-06T14:43:36Z</time>
      </trkpt>
      <trkpt lat="44.96859" lon="4.74773">
        <ele>450.07299804688</ele>
        <time>2010-11-06T14:43:43Z</time>
      </trkpt>
      <trkpt lat="44.96809" lon="4.74776">
        <ele>451.8030090332</ele>
        <time>2010-11-06T14:43:52Z</time>
      </trkpt>
      <trkpt lat="44.96779" lon="4.74772">
        <ele>453.22100830078</ele>
        <time>2010-11-06T14:43:58Z</time>
      </trkpt>
      <trkpt lat="44.96755" lon="4.7477">
        <ele>454.05899047852</ele>
        <time>2010-11-06T14:44:03Z</time>
      </trkpt>
      <trkpt lat="44.96719" lon="4.74767">
        <ele>455.39801025391</ele>
        <time>2010-11-06T14:44:10Z</time>
      </trkpt>
      <trkpt lat="44.96698" lon="4.74765">
        <ele>456.20001220703</ele>
        <time>2010-11-06T14:44:14Z</time>
      </trkpt>
      <trkpt lat="44.96682" lon="4.74761">
        <ele>456.73498535156</ele>
        <time>2010-11-06T14:44:17Z</time>
      </trkpt>
      <trkpt lat="44.96658" lon="4.74737">
        <ele>458.38101196289</ele>
        <time>2010-11-06T14:44:23Z</time>
      </trkpt>
      <trkpt lat="44.96645" lon="4.74725">
        <ele>458.95098876953</ele>
        <time>2010-11-06T14:44:26Z</time>
      </trkpt>
      <trkpt lat="44.96606" lon="4.74701">
        <ele>459.99899291992</ele>
        <time>2010-11-06T14:44:34Z</time>
      </trkpt>
      <trkpt lat="44.96592" lon="4.74681">
        <ele>461.0299987793</ele>
        <time>2010-11-06T14:44:38Z</time>
      </trkpt>
      <trkpt lat="44.96583" lon="4.74657">
        <ele>462.07501220703</ele>
        <time>2010-11-06T14:44:42Z</time>
      </trkpt>
      <trkpt lat="44.96565" lon="4.74635">
        <ele>463.54998779297</ele>
        <time>2010-11-06T14:44:47Z</time>
      </trkpt>
      <trkpt lat="44.96555" lon="4.74631">
        <ele>464.03900146484</ele>
        <time>2010-11-06T14:44:49Z</time>
      </trkpt>
      <trkpt lat="44.96531" lon="4.74625">
        <ele>465.09399414062</ele>
        <time>2010-11-06T14:44:54Z</time>
      </trkpt>
      <trkpt lat="44.96515" lon="4.74615">
        <ele>466.10400390625</ele>
        <time>2010-11-06T14:44:58Z</time>
      </trkpt>
      <trkpt lat="44.96493" lon="4.74586">
        <ele>467.83099365234</ele>
        <time>2010-11-06T14:45:05Z</time>
      </trkpt>
      <trkpt lat="44.9648" lon="4.74569">
        <ele>468.6969909668</ele>
        <time>2010-11-06T14:45:09Z</time>
      </trkpt>
      <trkpt lat="44.96462" lon="4.74564">
        <ele>469.39401245117</ele>
        <time>2010-11-06T14:45:13Z</time>
      </trkpt>
      <trkpt lat="44.96453" lon="4.74573">
        <ele>469.70599365234</ele>
        <time>2010-11-06T14:45:15Z</time>
      </trkpt>
      <trkpt lat="44.96446" lon="4.74583">
        <ele>469.96701049805</ele>
        <time>2010-11-06T14:45:17Z</time>
      </trkpt>
      <trkpt lat="44.9644" lon="4.74611">
        <ele>470.86599731445</ele>
        <time>2010-11-06T14:45:21Z</time>
      </trkpt>
      <trkpt lat="44.96437" lon="4.74647">
        <ele>472.35800170898</ele>
        <time>2010-11-06T14:45:26Z</time>
      </trkpt>
      <trkpt lat="44.96424" lon="4.74679">
        <ele>474.10198974609</ele>
        <time>2010-11-06T14:45:31Z</time>
      </trkpt>
      <trkpt lat="44.96418" lon="4.74691">
        <ele>474.70001220703</ele>
        <time>2010-11-06T14:45:33Z</time>
      </trkpt>
      <trkpt lat="44.96413" lon="4.74723">
        <ele>475.46798706055</ele>
        <time>2010-11-06T14:45:37Z</time>
      </trkpt>
      <trkpt lat="44.96416" lon="4.74746">
        <ele>476.18798828125</ele>
        <time>2010-11-06T14:45:40Z</time>
      </trkpt>
      <trkpt lat="44.96411" lon="4.74774">
        <ele>477.125</ele>
        <time>2010-11-06T14:45:44Z</time>
      </trkpt>
      <trkpt lat="44.96399" lon="4.74786">
        <ele>477.91101074219</ele>
        <time>2010-11-06T14:45:47Z</time>
      </trkpt>
      <trkpt lat="44.96345" lon="4.74806">
        <ele>480.47500610352</ele>
        <time>2010-11-06T14:45:58Z</time>
      </trkpt>
      <trkpt lat="44.96317" lon="4.74819">
        <ele>482.10000610352</ele>
        <time>2010-11-06T14:46:04Z</time>
      </trkpt>
      <trkpt lat="44.96293" lon="4.74837">
        <ele>483.5119934082</ele>
        <time>2010-11-06T14:46:10Z</time>
      </trkpt>
      <trkpt lat="44.96284" lon="4.74846">
        <ele>484.49200439453</ele>
        <time>2010-11-06T14:46:14Z</time>
      </trkpt>
      <trkpt lat="44.96275" lon="4.74845">
        <ele>485.13900756836</ele>
        <time>2010-11-06T14:46:19Z</time>
      </trkpt>
      <trkpt lat="44.96276" lon="4.74838">
        <ele>485.21301269531</ele>
        <time>2010-11-06T14:46:25Z</time>
      </trkpt>
      <trkpt lat="44.96276" lon="4.74838">
        <ele>485.28500366211</ele>
        <time>2010-11-06T14:46:26Z</time>
      </trkpt>
      <trkpt lat="44.9628" lon="4.74836">
        <ele>485.21099853516</ele>
        <time>2010-11-06T14:46:38Z</time>
      </trkpt>
      <trkpt lat="44.96281" lon="4.74836">
        <ele>485.3030090332</ele>
        <time>2010-11-06T14:46:40Z</time>
      </trkpt>
      <trkpt lat="44.96283" lon="4.74834">
        <ele>485.17700195312</ele>
        <time>2010-11-06T14:46:54Z</time>
      </trkpt>
      <trkpt lat="44.96284" lon="4.74833">
        <ele>485.20498657227</ele>
        <time>2010-11-06T14:46:55Z</time>
      </trkpt>
      <trkpt lat="44.96293" lon="4.74825">
        <ele>485.4880065918</ele>
        <time>2010-11-06T14:47:00Z</time>
      </trkpt>
      <trkpt lat="44.96305" lon="4.74811">
        <ele>486.23199462891</ele>
        <time>2010-11-06T14:47:05Z</time>
      </trkpt>
      <trkpt lat="44.96321" lon="4.74799">
        <ele>486.93099975586</ele>
        <time>2010-11-06T14:47:10Z</time>
      </trkpt>
      <trkpt lat="44.96325" lon="4.74797">
        <ele>487.14700317383</ele>
        <time>2010-11-06T14:47:11Z</time>
      </trkpt>
      <trkpt lat="44.96343" lon="4.74777">
        <ele>487.45901489258</ele>
        <time>2010-11-06T14:47:17Z</time>
      </trkpt>
      <trkpt lat="44.96347" lon="4.74756">
        <ele>487.45700073242</ele>
        <time>2010-11-06T14:47:21Z</time>
      </trkpt>
      <trkpt lat="44.96338" lon="4.74733">
        <ele>487.45901489258</ele>
        <time>2010-11-06T14:47:26Z</time>
      </trkpt>
      <trkpt lat="44.96316" lon="4.747">
        <ele>487.46899414062</ele>
        <time>2010-11-06T14:47:35Z</time>
      </trkpt>
      <trkpt lat="44.96297" lon="4.74676">
        <ele>489.87298583984</ele>
        <time>2010-11-06T14:47:42Z</time>
      </trkpt>
      <trkpt lat="44.9629" lon="4.74664">
        <ele>494.02301025391</ele>
        <time>2010-11-06T14:47:45Z</time>
      </trkpt>
      <trkpt lat="44.96278" lon="4.74637">
        <ele>494.05899047852</ele>
        <time>2010-11-06T14:47:51Z</time>
      </trkpt>
      <trkpt lat="44.96265" lon="4.74611">
        <ele>496.38500976562</ele>
        <time>2010-11-06T14:47:57Z</time>
      </trkpt>
      <trkpt lat="44.96264" lon="4.74606">
        <ele>496.52700805664</ele>
        <time>2010-11-06T14:47:58Z</time>
      </trkpt>
      <trkpt lat="44.96262" lon="4.74581">
        <ele>497.21798706055</ele>
        <time>2010-11-06T14:48:02Z</time>
      </trkpt>
      <trkpt lat="44.96265" lon="4.74557">
        <ele>498.25</ele>
        <time>2010-11-06T14:48:06Z</time>
      </trkpt>
      <trkpt lat="44.96263" lon="4.7454">
        <ele>499.12600708008</ele>
        <time>2010-11-06T14:48:09Z</time>
      </trkpt>
      <trkpt lat="44.96252" lon="4.74509">
        <ele>500.62298583984</ele>
        <time>2010-11-06T14:48:15Z</time>
      </trkpt>
      <trkpt lat="44.96242" lon="4.74491">
        <ele>501.61801147461</ele>
        <time>2010-11-06T14:48:19Z</time>
      </trkpt>
      <trkpt lat="44.96236" lon="4.74462">
        <ele>502.73098754883</ele>
        <time>2010-11-06T14:48:24Z</time>
      </trkpt>
      <trkpt lat="44.96238" lon="4.74451">
        <ele>503.28399658203</ele>
        <time>2010-11-06T14:48:26Z</time>
      </trkpt>
      <trkpt lat="44.96252" lon="4.74433">
        <ele>503.99200439453</ele>
        <time>2010-11-06T14:48:31Z</time>
      </trkpt>
      <trkpt lat="44.96255" lon="4.74429">
        <ele>504.06799316406</ele>
        <time>2010-11-06T14:48:32Z</time>
      </trkpt>
      <trkpt lat="44.96263" lon="4.74399">
        <ele>505.04299926758</ele>
        <time>2010-11-06T14:48:37Z</time>
      </trkpt>
      <trkpt lat="44.96262" lon="4.74392">
        <ele>505.18499755859</ele>
        <time>2010-11-06T14:48:38Z</time>
      </trkpt>
      <trkpt lat="44.9626" lon="4.74379">
        <ele>505.52301025391</ele>
        <time>2010-11-06T14:48:40Z</time>
      </trkpt>
      <trkpt lat="44.96265" lon="4.74349">
        <ele>506.69000244141</ele>
        <time>2010-11-06T14:48:45Z</time>
      </trkpt>
      <trkpt lat="44.96279" lon="4.74335">
        <ele>507.52700805664</ele>
        <time>2010-11-06T14:48:49Z</time>
      </trkpt>
      <trkpt lat="44.96283" lon="4.74332">
        <ele>507.74798583984</ele>
        <time>2010-11-06T14:48:50Z</time>
      </trkpt>
      <trkpt lat="44.96308" lon="4.7432">
        <ele>509.17199707031</ele>
        <time>2010-11-06T14:48:56Z</time>
      </trkpt>
      <trkpt lat="44.9633" lon="4.74317">
        <ele>509.90899658203</ele>
        <time>2010-11-06T14:49:01Z</time>
      </trkpt>
      <trkpt lat="44.96342" lon="4.74315">
        <ele>510.83200073242</ele>
        <time>2010-11-06T14:49:04Z</time>
      </trkpt>
      <trkpt lat="44.96363" lon="4.74297">
        <ele>512.23400878906</ele>
        <time>2010-11-06T14:49:10Z</time>
      </trkpt>
      <trkpt lat="44.96381" lon="4.74278">
        <ele>513.67700195312</ele>
        <time>2010-11-06T14:49:15Z</time>
      </trkpt>
      <trkpt lat="44.96396" lon="4.74247">
        <ele>514.79699707031</ele>
        <time>2010-11-06T14:49:21Z</time>
      </trkpt>
      <trkpt lat="44.96397" lon="4.74215">
        <ele>515.86401367188</ele>
        <time>2010-11-06T14:49:26Z</time>
      </trkpt>
      <trkpt lat="44.96396" lon="4.74209">
        <ele>516.14202880859</ele>
        <time>2010-11-06T14:49:27Z</time>
      </trkpt>
      <trkpt lat="44.96392" lon="4.74191">
        <ele>516.94000244141</ele>
        <time>2010-11-06T14:49:30Z</time>
      </trkpt>
      <trkpt lat="44.96395" lon="4.74161">
        <ele>517.77600097656</ele>
        <time>2010-11-06T14:49:35Z</time>
      </trkpt>
      <trkpt lat="44.96408" lon="4.74136">
        <ele>518.89501953125</ele>
        <time>2010-11-06T14:49:40Z</time>
      </trkpt>
      <trkpt lat="44.96435" lon="4.74116">
        <ele>520.67999267578</ele>
        <time>2010-11-06T14:49:47Z</time>
      </trkpt>
      <trkpt lat="44.9645" lon="4.74102">
        <ele>521.70397949219</ele>
        <time>2010-11-06T14:49:51Z</time>
      </trkpt>
      <trkpt lat="44.96467" lon="4.7407">
        <ele>523.05798339844</ele>
        <time>2010-11-06T14:49:57Z</time>
      </trkpt>
      <trkpt lat="44.96474" lon="4.74063">
        <ele>523.51000976562</ele>
        <time>2010-11-06T14:49:59Z</time>
      </trkpt>
      <trkpt lat="44.96505" lon="4.74037">
        <ele>525.33001708984</ele>
        <time>2010-11-06T14:50:07Z</time>
      </trkpt>
      <trkpt lat="44.96509" lon="4.74033">
        <ele>525.44201660156</ele>
        <time>2010-11-06T14:50:08Z</time>
      </trkpt>
      <trkpt lat="44.96523" lon="4.74007">
        <ele>526.67401123047</ele>
        <time>2010-11-06T14:50:13Z</time>
      </trkpt>
      <trkpt lat="44.96535" lon="4.73954">
        <ele>527.48699951172</ele>
        <time>2010-11-06T14:50:21Z</time>
      </trkpt>
      <trkpt lat="44.96536" lon="4.73925">
        <ele>527.64202880859</ele>
        <time>2010-11-06T14:50:25Z</time>
      </trkpt>
      <trkpt lat="44.96543" lon="4.73896">
        <ele>527.52899169922</ele>
        <time>2010-11-06T14:50:29Z</time>
      </trkpt>
      <trkpt lat="44.96561" lon="4.73879">
        <ele>528.00598144531</ele>
        <time>2010-11-06T14:50:33Z</time>
      </trkpt>
      <trkpt lat="44.96566" lon="4.73876">
        <ele>528.23199462891</ele>
        <time>2010-11-06T14:50:34Z</time>
      </trkpt>
      <trkpt lat="44.96612" lon="4.73852">
        <ele>529.64300537109</ele>
        <time>2010-11-06T14:50:43Z</time>
      </trkpt>
      <trkpt lat="44.96656" lon="4.73831">
        <ele>531.52197265625</ele>
        <time>2010-11-06T14:50:52Z</time>
      </trkpt>
      <trkpt lat="44.96692" lon="4.73822">
        <ele>532.1259765625</ele>
        <time>2010-11-06T14:50:59Z</time>
      </trkpt>
      <trkpt lat="44.9674" lon="4.73814">
        <ele>531.65301513672</ele>
        <time>2010-11-06T14:51:07Z</time>
      </trkpt>
      <trkpt lat="44.9678" lon="4.73797">
        <ele>531.77001953125</ele>
        <time>2010-11-06T14:51:14Z</time>
      </trkpt>
      <trkpt lat="44.96816" lon="4.73769">
        <ele>532.09399414062</ele>
        <time>2010-11-06T14:51:21Z</time>
      </trkpt>
      <trkpt lat="44.96835" lon="4.73747">
        <ele>532.0830078125</ele>
        <time>2010-11-06T14:51:25Z</time>
      </trkpt>
      <trkpt lat="44.96851" lon="4.73712">
        <ele>532.32397460938</ele>
        <time>2010-11-06T14:51:30Z</time>
      </trkpt>
      <trkpt lat="44.96849" lon="4.73679">
        <ele>531.40899658203</ele>
        <time>2010-11-06T14:51:34Z</time>
      </trkpt>
      <trkpt lat="44.96835" lon="4.73657">
        <ele>530.01898193359</ele>
        <time>2010-11-06T14:51:37Z</time>
      </trkpt>
      <trkpt lat="44.96806" lon="4.73637">
        <ele>528.18402099609</ele>
        <time>2010-11-06T14:51:41Z</time>
      </trkpt>
      <trkpt lat="44.9678" lon="4.73605">
        <ele>526.03900146484</ele>
        <time>2010-11-06T14:51:45Z</time>
      </trkpt>
      <trkpt lat="44.96742" lon="4.7357">
        <ele>523.44201660156</ele>
        <time>2010-11-06T14:51:50Z</time>
      </trkpt>
      <trkpt lat="44.96713" lon="4.73565">
        <ele>522.42901611328</ele>
        <time>2010-11-06T14:51:53Z</time>
      </trkpt>
      <trkpt lat="44.96676" lon="4.73554">
        <ele>520.74102783203</ele>
        <time>2010-11-06T14:51:57Z</time>
      </trkpt>
      <trkpt lat="44.96668" lon="4.7353">
        <ele>519.76098632812</ele>
        <time>2010-11-06T14:51:59Z</time>
      </trkpt>
      <trkpt lat="44.96655" lon="4.73495">
        <ele>518.43902587891</ele>
        <time>2010-11-06T14:52:02Z</time>
      </trkpt>
      <trkpt lat="44.96639" lon="4.73478">
        <ele>517.74200439453</ele>
        <time>2010-11-06T14:52:04Z</time>
      </trkpt>
      <trkpt lat="44.96621" lon="4.73466">
        <ele>517.63598632812</ele>
        <time>2010-11-06T14:52:06Z</time>
      </trkpt>
      <trkpt lat="44.96593" lon="4.73454">
        <ele>517.63201904297</ele>
        <time>2010-11-06T14:52:09Z</time>
      </trkpt>
      <trkpt lat="44.96562" lon="4.7345">
        <ele>516.15002441406</ele>
        <time>2010-11-06T14:52:12Z</time>
      </trkpt>
      <trkpt lat="44.96533" lon="4.73436">
        <ele>512.06701660156</ele>
        <time>2010-11-06T14:52:15Z</time>
      </trkpt>
      <trkpt lat="44.96522" lon="4.73409">
        <ele>510.79998779297</ele>
        <time>2010-11-06T14:52:17Z</time>
      </trkpt>
      <trkpt lat="44.96505" lon="4.73374">
        <ele>509.4880065918</ele>
        <time>2010-11-06T14:52:20Z</time>
      </trkpt>
      <trkpt lat="44.96479" lon="4.73349">
        <ele>508.07501220703</ele>
        <time>2010-11-06T14:52:23Z</time>
      </trkpt>
      <trkpt lat="44.96469" lon="4.73322">
        <ele>506.99499511719</ele>
        <time>2010-11-06T14:52:25Z</time>
      </trkpt>
      <trkpt lat="44.96465" lon="4.73295">
        <ele>506.11199951172</ele>
        <time>2010-11-06T14:52:27Z</time>
      </trkpt>
      <trkpt lat="44.96457" lon="4.73256">
        <ele>504.74499511719</ele>
        <time>2010-11-06T14:52:30Z</time>
      </trkpt>
      <trkpt lat="44.96458" lon="4.7323">
        <ele>503.61199951172</ele>
        <time>2010-11-06T14:52:33Z</time>
      </trkpt>
      <trkpt lat="44.96485" lon="4.73206">
        <ele>502.69799804688</ele>
        <time>2010-11-06T14:52:37Z</time>
      </trkpt>
      <trkpt lat="44.96492" lon="4.73199">
        <ele>502.47399902344</ele>
        <time>2010-11-06T14:52:38Z</time>
      </trkpt>
      <trkpt lat="44.96516" lon="4.73148">
        <ele>500.625</ele>
        <time>2010-11-06T14:52:43Z</time>
      </trkpt>
      <trkpt lat="44.96515" lon="4.73126">
        <ele>499.58999633789</ele>
        <time>2010-11-06T14:52:45Z</time>
      </trkpt>
      <trkpt lat="44.96511" lon="4.73115">
        <ele>499.04800415039</ele>
        <time>2010-11-06T14:52:46Z</time>
      </trkpt>
      <trkpt lat="44.96507" lon="4.73106">
        <ele>498.76998901367</ele>
        <time>2010-11-06T14:52:47Z</time>
      </trkpt>
      <trkpt lat="44.96489" lon="4.73082">
        <ele>497.10699462891</ele>
        <time>2010-11-06T14:52:50Z</time>
      </trkpt>
      <trkpt lat="44.96486" lon="4.7307">
        <ele>496.82699584961</ele>
        <time>2010-11-06T14:52:51Z</time>
      </trkpt>
      <trkpt lat="44.96489" lon="4.73048">
        <ele>495.64700317383</ele>
        <time>2010-11-06T14:52:53Z</time>
      </trkpt>
      <trkpt lat="44.96506" lon="4.73043">
        <ele>495.34899902344</ele>
        <time>2010-11-06T14:52:55Z</time>
      </trkpt>
      <trkpt lat="44.96525" lon="4.73046">
        <ele>495.22799682617</ele>
        <time>2010-11-06T14:52:57Z</time>
      </trkpt>
      <trkpt lat="44.96558" lon="4.73067">
        <ele>494.09899902344</ele>
        <time>2010-11-06T14:53:01Z</time>
      </trkpt>
      <trkpt lat="44.96588" lon="4.731">
        <ele>491.27899169922</ele>
        <time>2010-11-06T14:53:05Z</time>
      </trkpt>
      <trkpt lat="44.96608" lon="4.73099">
        <ele>489.7619934082</ele>
        <time>2010-11-06T14:53:07Z</time>
      </trkpt>
      <trkpt lat="44.96622" lon="4.73075">
        <ele>488.29699707031</ele>
        <time>2010-11-06T14:53:09Z</time>
      </trkpt>
      <trkpt lat="44.96629" lon="4.73063">
        <ele>488.04901123047</ele>
        <time>2010-11-06T14:53:10Z</time>
      </trkpt>
      <trkpt lat="44.96647" lon="4.73051">
        <ele>486.71600341797</ele>
        <time>2010-11-06T14:53:12Z</time>
      </trkpt>
      <trkpt lat="44.9667" lon="4.73056">
        <ele>485.67300415039</ele>
        <time>2010-11-06T14:53:14Z</time>
      </trkpt>
      <trkpt lat="44.96697" lon="4.73075">
        <ele>484.51699829102</ele>
        <time>2010-11-06T14:53:17Z</time>
      </trkpt>
      <trkpt lat="44.96717" lon="4.73072">
        <ele>483.85400390625</ele>
        <time>2010-11-06T14:53:19Z</time>
      </trkpt>
      <trkpt lat="44.96749" lon="4.73074">
        <ele>481.49798583984</ele>
        <time>2010-11-06T14:53:22Z</time>
      </trkpt>
      <trkpt lat="44.96802" lon="4.73079">
        <ele>478.70999145508</ele>
        <time>2010-11-06T14:53:27Z</time>
      </trkpt>
      <trkpt lat="44.96822" lon="4.73084">
        <ele>477.54800415039</ele>
        <time>2010-11-06T14:53:29Z</time>
      </trkpt>
      <trkpt lat="44.96862" lon="4.7309">
        <ele>475.18301391602</ele>
        <time>2010-11-06T14:53:33Z</time>
      </trkpt>
      <trkpt lat="44.96888" lon="4.73069">
        <ele>473.39999389648</ele>
        <time>2010-11-06T14:53:36Z</time>
      </trkpt>
      <trkpt lat="44.96896" lon="4.73058">
        <ele>473.10900878906</ele>
        <time>2010-11-06T14:53:37Z</time>
      </trkpt>
      <trkpt lat="44.96929" lon="4.73027">
        <ele>470.8219909668</ele>
        <time>2010-11-06T14:53:41Z</time>
      </trkpt>
      <trkpt lat="44.9694" lon="4.73026">
        <ele>470.28900146484</ele>
        <time>2010-11-06T14:53:42Z</time>
      </trkpt>
      <trkpt lat="44.96961" lon="4.73024">
        <ele>469.39801025391</ele>
        <time>2010-11-06T14:53:44Z</time>
      </trkpt>
      <trkpt lat="44.97002" lon="4.73001">
        <ele>467.24499511719</ele>
        <time>2010-11-06T14:53:48Z</time>
      </trkpt>
      <trkpt lat="44.97021" lon="4.72985">
        <ele>466.22601318359</ele>
        <time>2010-11-06T14:53:50Z</time>
      </trkpt>
      <trkpt lat="44.97031" lon="4.72944">
        <ele>465.02301025391</ele>
        <time>2010-11-06T14:53:53Z</time>
      </trkpt>
      <trkpt lat="44.97021" lon="4.72922">
        <ele>463.61401367188</ele>
        <time>2010-11-06T14:53:55Z</time>
      </trkpt>
      <trkpt lat="44.97013" lon="4.72913">
        <ele>463.40798950195</ele>
        <time>2010-11-06T14:53:56Z</time>
      </trkpt>
      <trkpt lat="44.96994" lon="4.72888">
        <ele>461.71600341797</ele>
        <time>2010-11-06T14:53:59Z</time>
      </trkpt>
      <trkpt lat="44.96985" lon="4.72866">
        <ele>460.96499633789</ele>
        <time>2010-11-06T14:54:01Z</time>
      </trkpt>
      <trkpt lat="44.96991" lon="4.7284">
        <ele>460.9460144043</ele>
        <time>2010-11-06T14:54:04Z</time>
      </trkpt>
      <trkpt lat="44.97004" lon="4.72819">
        <ele>459.68200683594</ele>
        <time>2010-11-06T14:54:07Z</time>
      </trkpt>
      <trkpt lat="44.97013" lon="4.72801">
        <ele>458.53698730469</ele>
        <time>2010-11-06T14:54:09Z</time>
      </trkpt>
      <trkpt lat="44.97024" lon="4.72746">
        <ele>455.69000244141</ele>
        <time>2010-11-06T14:54:14Z</time>
      </trkpt>
      <trkpt lat="44.97022" lon="4.72733">
        <ele>455.35000610352</ele>
        <time>2010-11-06T14:54:15Z</time>
      </trkpt>
      <trkpt lat="44.97007" lon="4.7267">
        <ele>452.63500976562</ele>
        <time>2010-11-06T14:54:20Z</time>
      </trkpt>
      <trkpt lat="44.97007" lon="4.72638">
        <ele>451.64199829102</ele>
        <time>2010-11-06T14:54:23Z</time>
      </trkpt>
      <trkpt lat="44.97019" lon="4.72629">
        <ele>450.99899291992</ele>
        <time>2010-11-06T14:54:25Z</time>
      </trkpt>
      <trkpt lat="44.97031" lon="4.72633">
        <ele>450.87100219727</ele>
        <time>2010-11-06T14:54:27Z</time>
      </trkpt>
      <trkpt lat="44.97036" lon="4.72639">
        <ele>450.94299316406</ele>
        <time>2010-11-06T14:54:28Z</time>
      </trkpt>
      <trkpt lat="44.97052" lon="4.72678">
        <ele>450.90100097656</ele>
        <time>2010-11-06T14:54:33Z</time>
      </trkpt>
      <trkpt lat="44.97075" lon="4.72694">
        <ele>450.88101196289</ele>
        <time>2010-11-06T14:54:37Z</time>
      </trkpt>
      <trkpt lat="44.97105" lon="4.72712">
        <ele>450.77899169922</ele>
        <time>2010-11-06T14:54:42Z</time>
      </trkpt>
      <trkpt lat="44.97107" lon="4.72731">
        <ele>450.86700439453</ele>
        <time>2010-11-06T14:54:44Z</time>
      </trkpt>
      <trkpt lat="44.97102" lon="4.72758">
        <ele>451.55801391602</ele>
        <time>2010-11-06T14:54:47Z</time>
      </trkpt>
      <trkpt lat="44.97104" lon="4.72776">
        <ele>452.04598999023</ele>
        <time>2010-11-06T14:54:49Z</time>
      </trkpt>
      <trkpt lat="44.9712" lon="4.72813">
        <ele>452.40301513672</ele>
        <time>2010-11-06T14:54:54Z</time>
      </trkpt>
      <trkpt lat="44.97132" lon="4.7282">
        <ele>452.60598754883</ele>
        <time>2010-11-06T14:54:56Z</time>
      </trkpt>
      <trkpt lat="44.9717" lon="4.72838">
        <ele>453.00900268555</ele>
        <time>2010-11-06T14:55:02Z</time>
      </trkpt>
      <trkpt lat="44.97207" lon="4.72859">
        <ele>454.19400024414</ele>
        <time>2010-11-06T14:55:08Z</time>
      </trkpt>
      <trkpt lat="44.97218" lon="4.72865">
        <ele>454.80099487305</ele>
        <time>2010-11-06T14:55:10Z</time>
      </trkpt>
      <trkpt lat="44.97239" lon="4.72886">
        <ele>455.17599487305</ele>
        <time>2010-11-06T14:55:14Z</time>
      </trkpt>
      <trkpt lat="44.97248" lon="4.72898">
        <ele>455.74600219727</ele>
        <time>2010-11-06T14:55:16Z</time>
      </trkpt>
      <trkpt lat="44.97273" lon="4.72919">
        <ele>456.70199584961</ele>
        <time>2010-11-06T14:55:21Z</time>
      </trkpt>
      <trkpt lat="44.97311" lon="4.7293">
        <ele>458.05200195312</ele>
        <time>2010-11-06T14:55:28Z</time>
      </trkpt>
      <trkpt lat="44.97348" lon="4.72944">
        <ele>459.05899047852</ele>
        <time>2010-11-06T14:55:35Z</time>
      </trkpt>
      <trkpt lat="44.97378" lon="4.72932">
        <ele>459.92999267578</ele>
        <time>2010-11-06T14:55:41Z</time>
      </trkpt>
      <trkpt lat="44.97385" lon="4.72921">
        <ele>460.15798950195</ele>
        <time>2010-11-06T14:55:43Z</time>
      </trkpt>
      <trkpt lat="44.97398" lon="4.72884">
        <ele>461.43899536133</ele>
        <time>2010-11-06T14:55:49Z</time>
      </trkpt>
      <trkpt lat="44.97405" lon="4.72866">
        <ele>462.41400146484</ele>
        <time>2010-11-06T14:55:52Z</time>
      </trkpt>
      <trkpt lat="44.97421" lon="4.72853">
        <ele>463.04501342773</ele>
        <time>2010-11-06T14:55:56Z</time>
      </trkpt>
      <trkpt lat="44.97433" lon="4.7286">
        <ele>463.81900024414</ele>
        <time>2010-11-06T14:55:59Z</time>
      </trkpt>
      <trkpt lat="44.97441" lon="4.72874">
        <ele>464.56600952148</ele>
        <time>2010-11-06T14:56:02Z</time>
      </trkpt>
      <trkpt lat="44.97448" lon="4.7289">
        <ele>465.39498901367</ele>
        <time>2010-11-06T14:56:05Z</time>
      </trkpt>
      <trkpt lat="44.97454" lon="4.729">
        <ele>465.61099243164</ele>
        <time>2010-11-06T14:56:07Z</time>
      </trkpt>
      <trkpt lat="44.97478" lon="4.72915">
        <ele>467.01000976562</ele>
        <time>2010-11-06T14:56:13Z</time>
      </trkpt>
      <trkpt lat="44.97492" lon="4.72917">
        <ele>467.71200561523</ele>
        <time>2010-11-06T14:56:16Z</time>
      </trkpt>
      <trkpt lat="44.9751" lon="4.72911">
        <ele>468.8039855957</ele>
        <time>2010-11-06T14:56:20Z</time>
      </trkpt>
      <trkpt lat="44.9754" lon="4.72885">
        <ele>471.00601196289</ele>
        <time>2010-11-06T14:56:28Z</time>
      </trkpt>
      <trkpt lat="44.97571" lon="4.72852">
        <ele>473.36801147461</ele>
        <time>2010-11-06T14:56:37Z</time>
      </trkpt>
      <trkpt lat="44.97609" lon="4.72824">
        <ele>475.9169921875</ele>
        <time>2010-11-06T14:56:47Z</time>
      </trkpt>
      <trkpt lat="44.97641" lon="4.72797">
        <ele>478.23901367188</ele>
        <time>2010-11-06T14:56:56Z</time>
      </trkpt>
      <trkpt lat="44.97644" lon="4.72793">
        <ele>478.40399169922</ele>
        <time>2010-11-06T14:56:57Z</time>
      </trkpt>
      <trkpt lat="44.97652" lon="4.72779">
        <ele>479.15399169922</ele>
        <time>2010-11-06T14:57:00Z</time>
      </trkpt>
      <trkpt lat="44.97661" lon="4.72759">
        <ele>479.9169921875</ele>
        <time>2010-11-06T14:57:04Z</time>
      </trkpt>
      <trkpt lat="44.97667" lon="4.72749">
        <ele>480.40600585938</ele>
        <time>2010-11-06T14:57:06Z</time>
      </trkpt>
      <trkpt lat="44.97696" lon="4.72714">
        <ele>482.87600708008</ele>
        <time>2010-11-06T14:57:15Z</time>
      </trkpt>
      <trkpt lat="44.97704" lon="4.727">
        <ele>483.72198486328</ele>
        <time>2010-11-06T14:57:18Z</time>
      </trkpt>
      <trkpt lat="44.9771" lon="4.72678">
        <ele>485.06698608398</ele>
        <time>2010-11-06T14:57:22Z</time>
      </trkpt>
      <trkpt lat="44.9771" lon="4.72654">
        <ele>486.0419921875</ele>
        <time>2010-11-06T14:57:26Z</time>
      </trkpt>
      <trkpt lat="44.97723" lon="4.72631">
        <ele>487.27200317383</ele>
        <time>2010-11-06T14:57:31Z</time>
      </trkpt>
      <trkpt lat="44.97731" lon="4.72627">
        <ele>487.84600830078</ele>
        <time>2010-11-06T14:57:33Z</time>
      </trkpt>
      <trkpt lat="44.97757" lon="4.72626">
        <ele>489.40798950195</ele>
        <time>2010-11-06T14:57:39Z</time>
      </trkpt>
      <trkpt lat="44.97777" lon="4.72614">
        <ele>490.67001342773</ele>
        <time>2010-11-06T14:57:44Z</time>
      </trkpt>
      <trkpt lat="44.97786" lon="4.72592">
        <ele>491.60800170898</ele>
        <time>2010-11-06T14:57:48Z</time>
      </trkpt>
      <trkpt lat="44.9779" lon="4.72574">
        <ele>492.63000488281</ele>
        <time>2010-11-06T14:57:51Z</time>
      </trkpt>
      <trkpt lat="44.97796" lon="4.72526">
        <ele>494.76800537109</ele>
        <time>2010-11-06T14:57:59Z</time>
      </trkpt>
      <trkpt lat="44.97797" lon="4.725">
        <ele>495.65701293945</ele>
        <time>2010-11-06T14:58:03Z</time>
      </trkpt>
      <trkpt lat="44.9781" lon="4.72468">
        <ele>497.46701049805</ele>
        <time>2010-11-06T14:58:09Z</time>
      </trkpt>
      <trkpt lat="44.97822" lon="4.72455">
        <ele>498.20999145508</ele>
        <time>2010-11-06T14:58:12Z</time>
      </trkpt>
      <trkpt lat="44.97833" lon="4.72424">
        <ele>499.75601196289</ele>
        <time>2010-11-06T14:58:17Z</time>
      </trkpt>
      <trkpt lat="44.97828" lon="4.72391">
        <ele>501.03100585938</ele>
        <time>2010-11-06T14:58:22Z</time>
      </trkpt>
      <trkpt lat="44.97815" lon="4.72375">
        <ele>502.39099121094</ele>
        <time>2010-11-06T14:58:26Z</time>
      </trkpt>
      <trkpt lat="44.978" lon="4.72362">
        <ele>503.38500976562</ele>
        <time>2010-11-06T14:58:30Z</time>
      </trkpt>
      <trkpt lat="44.97792" lon="4.72342">
        <ele>504.14401245117</ele>
        <time>2010-11-06T14:58:34Z</time>
      </trkpt>
      <trkpt lat="44.97789" lon="4.7231">
        <ele>506.03500366211</ele>
        <time>2010-11-06T14:58:40Z</time>
      </trkpt>
      <trkpt lat="44.97776" lon="4.72286">
        <ele>507.83898925781</ele>
        <time>2010-11-06T14:58:46Z</time>
      </trkpt>
      <trkpt lat="44.97773" lon="4.72281">
        <ele>508.06698608398</ele>
        <time>2010-11-06T14:58:47Z</time>
      </trkpt>
      <trkpt lat="44.97764" lon="4.72251">
        <ele>508.89898681641</ele>
        <time>2010-11-06T14:58:52Z</time>
      </trkpt>
      <trkpt lat="44.97768" lon="4.72208">
        <ele>511.08401489258</ele>
        <time>2010-11-06T14:58:59Z</time>
      </trkpt>
      <trkpt lat="44.9777" lon="4.72197">
        <ele>511.47698974609</ele>
        <time>2010-11-06T14:59:01Z</time>
      </trkpt>
      <trkpt lat="44.97783" lon="4.72175">
        <ele>512.35998535156</ele>
        <time>2010-11-06T14:59:06Z</time>
      </trkpt>
      <trkpt lat="44.97792" lon="4.72174">
        <ele>513.15301513672</ele>
        <time>2010-11-06T14:59:08Z</time>
      </trkpt>
      <trkpt lat="44.97809" lon="4.72178">
        <ele>514.48400878906</ele>
        <time>2010-11-06T14:59:12Z</time>
      </trkpt>
      <trkpt lat="44.97829" lon="4.72168">
        <ele>515.91101074219</ele>
        <time>2010-11-06T14:59:17Z</time>
      </trkpt>
      <trkpt lat="44.97831" lon="4.72163">
        <ele>516.02197265625</ele>
        <time>2010-11-06T14:59:18Z</time>
      </trkpt>
      <trkpt lat="44.97838" lon="4.72146">
        <ele>517.03002929688</ele>
        <time>2010-11-06T14:59:21Z</time>
      </trkpt>
      <trkpt lat="44.97842" lon="4.72127">
        <ele>517.52697753906</ele>
        <time>2010-11-06T14:59:24Z</time>
      </trkpt>
      <trkpt lat="44.97844" lon="4.72094">
        <ele>518.78100585938</ele>
        <time>2010-11-06T14:59:29Z</time>
      </trkpt>
      <trkpt lat="44.97838" lon="4.72042">
        <ele>521.44000244141</ele>
        <time>2010-11-06T14:59:38Z</time>
      </trkpt>
      <trkpt lat="44.97831" lon="4.72006">
        <ele>523.02600097656</ele>
        <time>2010-11-06T14:59:45Z</time>
      </trkpt>
      <trkpt lat="44.9784" lon="4.71991">
        <ele>524.1669921875</ele>
        <time>2010-11-06T14:59:49Z</time>
      </trkpt>
      <trkpt lat="44.97847" lon="4.71987">
        <ele>524.62200927734</ele>
        <time>2010-11-06T14:59:51Z</time>
      </trkpt>
      <trkpt lat="44.9785" lon="4.71986">
        <ele>524.86798095703</ele>
        <time>2010-11-06T14:59:52Z</time>
      </trkpt>
      <trkpt lat="44.97877" lon="4.71979">
        <ele>526.52600097656</ele>
        <time>2010-11-06T14:59:59Z</time>
      </trkpt>
      <trkpt lat="44.97894" lon="4.71964">
        <ele>527.86297607422</ele>
        <time>2010-11-06T15:00:04Z</time>
      </trkpt>
      <trkpt lat="44.97899" lon="4.71956">
        <ele>528.47497558594</ele>
        <time>2010-11-06T15:00:06Z</time>
      </trkpt>
      <trkpt lat="44.97899" lon="4.71927">
        <ele>529.81701660156</ele>
        <time>2010-11-06T15:00:11Z</time>
      </trkpt>
      <trkpt lat="44.97895" lon="4.71916">
        <ele>530.30401611328</ele>
        <time>2010-11-06T15:00:13Z</time>
      </trkpt>
      <trkpt lat="44.97886" lon="4.71882">
        <ele>531.78601074219</ele>
        <time>2010-11-06T15:00:19Z</time>
      </trkpt>
      <trkpt lat="44.97892" lon="4.71865">
        <ele>532.80902099609</ele>
        <time>2010-11-06T15:00:22Z</time>
      </trkpt>
      <trkpt lat="44.97903" lon="4.71851">
        <ele>533.67297363281</ele>
        <time>2010-11-06T15:00:25Z</time>
      </trkpt>
      <trkpt lat="44.97911" lon="4.71822">
        <ele>535.14001464844</ele>
        <time>2010-11-06T15:00:30Z</time>
      </trkpt>
      <trkpt lat="44.97903" lon="4.718">
        <ele>536.18701171875</ele>
        <time>2010-11-06T15:00:34Z</time>
      </trkpt>
      <trkpt lat="44.97883" lon="4.71763">
        <ele>537.75598144531</ele>
        <time>2010-11-06T15:00:41Z</time>
      </trkpt>
      <trkpt lat="44.97875" lon="4.71746">
        <ele>538.69299316406</ele>
        <time>2010-11-06T15:00:44Z</time>
      </trkpt>
      <trkpt lat="44.97873" lon="4.71719">
        <ele>539.90002441406</ele>
        <time>2010-11-06T15:00:48Z</time>
      </trkpt>
      <trkpt lat="44.97881" lon="4.71706">
        <ele>541.07702636719</ele>
        <time>2010-11-06T15:00:51Z</time>
      </trkpt>
      <trkpt lat="44.97885" lon="4.71703">
        <ele>541.37902832031</ele>
        <time>2010-11-06T15:00:52Z</time>
      </trkpt>
      <trkpt lat="44.97905" lon="4.71692">
        <ele>542.02600097656</ele>
        <time>2010-11-06T15:00:56Z</time>
      </trkpt>
      <trkpt lat="44.97922" lon="4.71665">
        <ele>542.97900390625</ele>
        <time>2010-11-06T15:01:01Z</time>
      </trkpt>
      <trkpt lat="44.97919" lon="4.71646">
        <ele>543.77899169922</ele>
        <time>2010-11-06T15:01:04Z</time>
      </trkpt>
      <trkpt lat="44.97903" lon="4.71629">
        <ele>545.44396972656</ele>
        <time>2010-11-06T15:01:08Z</time>
      </trkpt>
      <trkpt lat="44.97889" lon="4.71628">
        <ele>546.51898193359</ele>
        <time>2010-11-06T15:01:11Z</time>
      </trkpt>
      <trkpt lat="44.9785" lon="4.71636">
        <ele>549.15698242188</ele>
        <time>2010-11-06T15:01:19Z</time>
      </trkpt>
      <trkpt lat="44.97828" lon="4.71628">
        <ele>549.82800292969</ele>
        <time>2010-11-06T15:01:24Z</time>
      </trkpt>
      <trkpt lat="44.97825" lon="4.71623">
        <ele>550.01702880859</ele>
        <time>2010-11-06T15:01:25Z</time>
      </trkpt>
      <trkpt lat="44.97818" lon="4.71612">
        <ele>550.30999755859</ele>
        <time>2010-11-06T15:01:27Z</time>
      </trkpt>
      <trkpt lat="44.97802" lon="4.71595">
        <ele>551.208984375</ele>
        <time>2010-11-06T15:01:31Z</time>
      </trkpt>
      <trkpt lat="44.97767" lon="4.71572">
        <ele>553.66400146484</ele>
        <time>2010-11-06T15:01:39Z</time>
      </trkpt>
      <trkpt lat="44.97751" lon="4.71544">
        <ele>555.64599609375</ele>
        <time>2010-11-06T15:01:45Z</time>
      </trkpt>
      <trkpt lat="44.9776" lon="4.71522">
        <ele>556.70599365234</ele>
        <time>2010-11-06T15:01:49Z</time>
      </trkpt>
      <trkpt lat="44.97771" lon="4.71508">
        <ele>557.38201904297</ele>
        <time>2010-11-06T15:01:52Z</time>
      </trkpt>
      <trkpt lat="44.97779" lon="4.71483">
        <ele>558.31799316406</ele>
        <time>2010-11-06T15:01:56Z</time>
      </trkpt>
      <trkpt lat="44.97778" lon="4.71464">
        <ele>559.35998535156</ele>
        <time>2010-11-06T15:01:59Z</time>
      </trkpt>
      <trkpt lat="44.97769" lon="4.71419">
        <ele>561.48699951172</ele>
        <time>2010-11-06T15:02:07Z</time>
      </trkpt>
      <trkpt lat="44.97766" lon="4.714">
        <ele>562.77801513672</ele>
        <time>2010-11-06T15:02:12Z</time>
      </trkpt>
      <trkpt lat="44.97767" lon="4.71397">
        <ele>563.05700683594</ele>
        <time>2010-11-06T15:02:13Z</time>
      </trkpt>
      <trkpt lat="44.97762" lon="4.7139">
        <ele>564.04998779297</ele>
        <time>2010-11-06T15:02:18Z</time>
      </trkpt>
      <trkpt lat="44.9776" lon="4.71392">
        <ele>564.06896972656</ele>
        <time>2010-11-06T15:02:19Z</time>
      </trkpt>
      <trkpt lat="44.97747" lon="4.71413">
        <ele>563.85699462891</ele>
        <time>2010-11-06T15:02:26Z</time>
      </trkpt>
      <trkpt lat="44.97733" lon="4.71434">
        <ele>563.76501464844</ele>
        <time>2010-11-06T15:02:32Z</time>
      </trkpt>
      <trkpt lat="44.9772" lon="4.71439">
        <ele>563.79302978516</ele>
        <time>2010-11-06T15:02:36Z</time>
      </trkpt>
      <trkpt lat="44.97706" lon="4.71442">
        <ele>563.84600830078</ele>
        <time>2010-11-06T15:02:40Z</time>
      </trkpt>
      <trkpt lat="44.97684" lon="4.71441">
        <ele>563.68200683594</ele>
        <time>2010-11-06T15:02:46Z</time>
      </trkpt>
      <trkpt lat="44.97677" lon="4.71439">
        <ele>563.61401367188</ele>
        <time>2010-11-06T15:02:49Z</time>
      </trkpt>
      <trkpt lat="44.97679" lon="4.71436">
        <ele>563.39697265625</ele>
        <time>2010-11-06T15:02:53Z</time>
      </trkpt>
      <trkpt lat="44.97686" lon="4.71441">
        <ele>563.36602783203</ele>
        <time>2010-11-06T15:02:56Z</time>
      </trkpt>
      <trkpt lat="44.97709" lon="4.71443">
        <ele>563.71301269531</ele>
        <time>2010-11-06T15:03:04Z</time>
      </trkpt>
      <trkpt lat="44.97729" lon="4.71439">
        <ele>563.82299804688</ele>
        <time>2010-11-06T15:03:11Z</time>
      </trkpt>
      <trkpt lat="44.97742" lon="4.71426">
        <ele>563.72399902344</ele>
        <time>2010-11-06T15:03:17Z</time>
      </trkpt>
      <trkpt lat="44.9775" lon="4.71411">
        <ele>563.94299316406</ele>
        <time>2010-11-06T15:03:23Z</time>
      </trkpt>
      <trkpt lat="44.97762" lon="4.71396">
        <ele>563.79797363281</ele>
        <time>2010-11-06T15:03:31Z</time>
      </trkpt>
      <trkpt lat="44.97767" lon="4.71394">
        <ele>563.99597167969</ele>
        <time>2010-11-06T15:03:34Z</time>
      </trkpt>
      <trkpt lat="44.97771" lon="4.71385">
        <ele>564.12200927734</ele>
        <time>2010-11-06T15:03:40Z</time>
      </trkpt>
      <trkpt lat="44.97765" lon="4.7139">
        <ele>564.25701904297</ele>
        <time>2010-11-06T15:03:45Z</time>
      </trkpt>
      <trkpt lat="44.97769" lon="4.71393">
        <ele>564.10198974609</ele>
        <time>2010-11-06T15:03:49Z</time>
      </trkpt>
      <trkpt lat="44.97771" lon="4.71389">
        <ele>564.04498291016</ele>
        <time>2010-11-06T15:03:53Z</time>
      </trkpt>
      <trkpt lat="44.97771" lon="4.71389">
        <ele>564.10900878906</ele>
        <time>2010-11-06T15:03:54Z</time>
      </trkpt>
      <trkpt lat="44.97772" lon="4.71387">
        <ele>564.21600341797</ele>
        <time>2010-11-06T15:05:21Z</time>
      </trkpt>
      <trkpt lat="44.97773" lon="4.71385">
        <ele>564.208984375</ele>
        <time>2010-11-06T15:05:22Z</time>
      </trkpt>
      <trkpt lat="44.97783" lon="4.71376">
        <ele>563.84399414062</ele>
        <time>2010-11-06T15:05:26Z</time>
      </trkpt>
      <trkpt lat="44.97799" lon="4.71363">
        <ele>564.28497314453</ele>
        <time>2010-11-06T15:05:31Z</time>
      </trkpt>
      <trkpt lat="44.97807" lon="4.71358">
        <ele>564.43499755859</ele>
        <time>2010-11-06T15:05:33Z</time>
      </trkpt>
      <trkpt lat="44.97823" lon="4.71348">
        <ele>564.49499511719</ele>
        <time>2010-11-06T15:05:37Z</time>
      </trkpt>
      <trkpt lat="44.97851" lon="4.7134">
        <ele>564.74102783203</ele>
        <time>2010-11-06T15:05:44Z</time>
      </trkpt>
      <trkpt lat="44.9788" lon="4.71326">
        <ele>564.67602539062</ele>
        <time>2010-11-06T15:05:51Z</time>
      </trkpt>
      <trkpt lat="44.97885" lon="4.71323">
        <ele>564.57598876953</ele>
        <time>2010-11-06T15:05:52Z</time>
      </trkpt>
      <trkpt lat="44.97911" lon="4.71302">
        <ele>565.05200195312</ele>
        <time>2010-11-06T15:05:58Z</time>
      </trkpt>
      <trkpt lat="44.97924" lon="4.71291">
        <ele>565.26702880859</ele>
        <time>2010-11-06T15:06:01Z</time>
      </trkpt>
      <trkpt lat="44.9795" lon="4.71271">
        <ele>565.92498779297</ele>
        <time>2010-11-06T15:06:08Z</time>
      </trkpt>
      <trkpt lat="44.97974" lon="4.71253">
        <ele>565.74401855469</ele>
        <time>2010-11-06T15:06:14Z</time>
      </trkpt>
      <trkpt lat="44.98001" lon="4.71234">
        <ele>565.82202148438</ele>
        <time>2010-11-06T15:06:20Z</time>
      </trkpt>
      <trkpt lat="44.98013" lon="4.7122">
        <ele>565.98901367188</ele>
        <time>2010-11-06T15:06:23Z</time>
      </trkpt>
      <trkpt lat="44.98023" lon="4.71195">
        <ele>566.30297851562</ele>
        <time>2010-11-06T15:06:27Z</time>
      </trkpt>
      <trkpt lat="44.98027" lon="4.71182">
        <ele>566.541015625</ele>
        <time>2010-11-06T15:06:29Z</time>
      </trkpt>
      <trkpt lat="44.98046" lon="4.71154">
        <ele>567.67498779297</ele>
        <time>2010-11-06T15:06:35Z</time>
      </trkpt>
      <trkpt lat="44.9805" lon="4.71152">
        <ele>568.00897216797</ele>
        <time>2010-11-06T15:06:36Z</time>
      </trkpt>
      <trkpt lat="44.98079" lon="4.71147">
        <ele>569.76501464844</ele>
        <time>2010-11-06T15:06:43Z</time>
      </trkpt>
      <trkpt lat="44.98099" lon="4.71128">
        <ele>570.77001953125</ele>
        <time>2010-11-06T15:06:49Z</time>
      </trkpt>
      <trkpt lat="44.98103" lon="4.71118">
        <ele>571.26202392578</ele>
        <time>2010-11-06T15:06:51Z</time>
      </trkpt>
      <trkpt lat="44.9811" lon="4.71095">
        <ele>571.68200683594</ele>
        <time>2010-11-06T15:06:55Z</time>
      </trkpt>
      <trkpt lat="44.98114" lon="4.71084">
        <ele>572.01397705078</ele>
        <time>2010-11-06T15:06:57Z</time>
      </trkpt>
      <trkpt lat="44.98132" lon="4.71059">
        <ele>572.95001220703</ele>
        <time>2010-11-06T15:07:03Z</time>
      </trkpt>
      <trkpt lat="44.98136" lon="4.71057">
        <ele>573.18298339844</ele>
        <time>2010-11-06T15:07:04Z</time>
      </trkpt>
      <trkpt lat="44.98144" lon="4.71052">
        <ele>573.59997558594</ele>
        <time>2010-11-06T15:07:06Z</time>
      </trkpt>
      <trkpt lat="44.98173" lon="4.7105">
        <ele>574.94598388672</ele>
        <time>2010-11-06T15:07:13Z</time>
      </trkpt>
      <trkpt lat="44.98184" lon="4.7105">
        <ele>575.51300048828</ele>
        <time>2010-11-06T15:07:16Z</time>
      </trkpt>
      <trkpt lat="44.9821" lon="4.71034">
        <ele>576.43701171875</ele>
        <time>2010-11-06T15:07:23Z</time>
      </trkpt>
      <trkpt lat="44.98234" lon="4.71002">
        <ele>577.59698486328</ele>
        <time>2010-11-06T15:07:31Z</time>
      </trkpt>
      <trkpt lat="44.98244" lon="4.70969">
        <ele>578.27600097656</ele>
        <time>2010-11-06T15:07:37Z</time>
      </trkpt>
      <trkpt lat="44.98239" lon="4.70945">
        <ele>579.02600097656</ele>
        <time>2010-11-06T15:07:41Z</time>
      </trkpt>
      <trkpt lat="44.98232" lon="4.70903">
        <ele>579.69000244141</ele>
        <time>2010-11-06T15:07:48Z</time>
      </trkpt>
      <trkpt lat="44.98243" lon="4.70875">
        <ele>580.34301757812</ele>
        <time>2010-11-06T15:07:53Z</time>
      </trkpt>
      <trkpt lat="44.98268" lon="4.70829">
        <ele>581.90502929688</ele>
        <time>2010-11-06T15:08:02Z</time>
      </trkpt>
      <trkpt lat="44.98275" lon="4.70798">
        <ele>582.73699951172</ele>
        <time>2010-11-06T15:08:07Z</time>
      </trkpt>
      <trkpt lat="44.98266" lon="4.70753">
        <ele>583.57299804688</ele>
        <time>2010-11-06T15:08:14Z</time>
      </trkpt>
      <trkpt lat="44.98255" lon="4.70732">
        <ele>584.29602050781</ele>
        <time>2010-11-06T15:08:18Z</time>
      </trkpt>
      <trkpt lat="44.98235" lon="4.70714">
        <ele>585.09600830078</ele>
        <time>2010-11-06T15:08:23Z</time>
      </trkpt>
      <trkpt lat="44.98223" lon="4.70695">
        <ele>585.10302734375</ele>
        <time>2010-11-06T15:08:27Z</time>
      </trkpt>
      <trkpt lat="44.98215" lon="4.70671">
        <ele>585.10400390625</ele>
        <time>2010-11-06T15:08:31Z</time>
      </trkpt>
      <trkpt lat="44.98204" lon="4.70649">
        <ele>585.10998535156</ele>
        <time>2010-11-06T15:08:35Z</time>
      </trkpt>
      <trkpt lat="44.98193" lon="4.7063">
        <ele>585.11901855469</ele>
        <time>2010-11-06T15:08:39Z</time>
      </trkpt>
      <trkpt lat="44.98189" lon="4.70599">
        <ele>585.13598632812</ele>
        <time>2010-11-06T15:08:44Z</time>
      </trkpt>
      <trkpt lat="44.98199" lon="4.70585">
        <ele>585.14697265625</ele>
        <time>2010-11-06T15:08:47Z</time>
      </trkpt>
      <trkpt lat="44.98211" lon="4.70583">
        <ele>585.15100097656</ele>
        <time>2010-11-06T15:08:50Z</time>
      </trkpt>
      <trkpt lat="44.98224" lon="4.70589">
        <ele>586.18798828125</ele>
        <time>2010-11-06T15:08:53Z</time>
      </trkpt>
      <trkpt lat="44.98233" lon="4.70592">
        <ele>587.4580078125</ele>
        <time>2010-11-06T15:08:55Z</time>
      </trkpt>
      <trkpt lat="44.98242" lon="4.70595">
        <ele>590.04302978516</ele>
        <time>2010-11-06T15:08:57Z</time>
      </trkpt>
      <trkpt lat="44.9827" lon="4.70597">
        <ele>592.43499755859</ele>
        <time>2010-11-06T15:09:03Z</time>
      </trkpt>
      <trkpt lat="44.98297" lon="4.70593">
        <ele>593.33001708984</ele>
        <time>2010-11-06T15:09:09Z</time>
      </trkpt>
      <trkpt lat="44.9831" lon="4.7059">
        <ele>593.86499023438</ele>
        <time>2010-11-06T15:09:12Z</time>
      </trkpt>
      <trkpt lat="44.98342" lon="4.70575">
        <ele>594.50897216797</ele>
        <time>2010-11-06T15:09:19Z</time>
      </trkpt>
      <trkpt lat="44.98382" lon="4.70559">
        <ele>596.47601318359</ele>
        <time>2010-11-06T15:09:27Z</time>
      </trkpt>
      <trkpt lat="44.984" lon="4.70549">
        <ele>596.89599609375</ele>
        <time>2010-11-06T15:09:31Z</time>
      </trkpt>
      <trkpt lat="44.98436" lon="4.70521">
        <ele>597.75799560547</ele>
        <time>2010-11-06T15:09:39Z</time>
      </trkpt>
      <trkpt lat="44.9846" lon="4.70518">
        <ele>598.41101074219</ele>
        <time>2010-11-06T15:09:44Z</time>
      </trkpt>
      <trkpt lat="44.9851" lon="4.70536">
        <ele>598.80297851562</ele>
        <time>2010-11-06T15:09:54Z</time>
      </trkpt>
      <trkpt lat="44.9855" lon="4.70552">
        <ele>599.39099121094</ele>
        <time>2010-11-06T15:10:02Z</time>
      </trkpt>
      <trkpt lat="44.98602" lon="4.70575">
        <ele>600.20098876953</ele>
        <time>2010-11-06T15:10:12Z</time>
      </trkpt>
      <trkpt lat="44.98641" lon="4.70595">
        <ele>601.03100585938</ele>
        <time>2010-11-06T15:10:20Z</time>
      </trkpt>
      <trkpt lat="44.98684" lon="4.70635">
        <ele>601.9580078125</ele>
        <time>2010-11-06T15:10:30Z</time>
      </trkpt>
      <trkpt lat="44.98718" lon="4.70662">
        <ele>602.40899658203</ele>
        <time>2010-11-06T15:10:38Z</time>
      </trkpt>
      <trkpt lat="44.9875" lon="4.70703">
        <ele>604.15698242188</ele>
        <time>2010-11-06T15:10:47Z</time>
      </trkpt>
      <trkpt lat="44.98785" lon="4.70739">
        <ele>605.52398681641</ele>
        <time>2010-11-06T15:10:56Z</time>
      </trkpt>
      <trkpt lat="44.98821" lon="4.70774">
        <ele>606.63098144531</ele>
        <time>2010-11-06T15:11:05Z</time>
      </trkpt>
      <trkpt lat="44.98866" lon="4.70807">
        <ele>607.50500488281</ele>
        <time>2010-11-06T15:11:15Z</time>
      </trkpt>
      <trkpt lat="44.98896" lon="4.70824">
        <ele>608.17999267578</ele>
        <time>2010-11-06T15:11:22Z</time>
      </trkpt>
      <trkpt lat="44.98923" lon="4.70825">
        <ele>608.69201660156</ele>
        <time>2010-11-06T15:11:28Z</time>
      </trkpt>
      <trkpt lat="44.98959" lon="4.7082">
        <ele>607.64697265625</ele>
        <time>2010-11-06T15:11:35Z</time>
      </trkpt>
      <trkpt lat="44.98985" lon="4.70818">
        <ele>607.61401367188</ele>
        <time>2010-11-06T15:11:41Z</time>
      </trkpt>
      <trkpt lat="44.98986" lon="4.7083">
        <ele>607.60998535156</ele>
        <time>2010-11-06T15:11:45Z</time>
      </trkpt>
      <trkpt lat="44.98971" lon="4.70853">
        <ele>608.02301025391</ele>
        <time>2010-11-06T15:11:52Z</time>
      </trkpt>
      <trkpt lat="44.98963" lon="4.70865">
        <ele>607.85797119141</ele>
        <time>2010-11-06T15:11:55Z</time>
      </trkpt>
      <trkpt lat="44.98948" lon="4.70904">
        <ele>607.56201171875</ele>
        <time>2010-11-06T15:12:02Z</time>
      </trkpt>
      <trkpt lat="44.9894" lon="4.70928">
        <ele>607.38299560547</ele>
        <time>2010-11-06T15:12:06Z</time>
      </trkpt>
      <trkpt lat="44.98922" lon="4.70968">
        <ele>606.83898925781</ele>
        <time>2010-11-06T15:12:13Z</time>
      </trkpt>
      <trkpt lat="44.98919" lon="4.70974">
        <ele>606.73101806641</ele>
        <time>2010-11-06T15:12:14Z</time>
      </trkpt>
      <trkpt lat="44.98915" lon="4.71004">
        <ele>605.84600830078</ele>
        <time>2010-11-06T15:12:18Z</time>
      </trkpt>
      <trkpt lat="44.98914" lon="4.71084">
        <ele>603.85601806641</ele>
        <time>2010-11-06T15:12:26Z</time>
      </trkpt>
      <trkpt lat="44.98917" lon="4.7115">
        <ele>601.05200195312</ele>
        <time>2010-11-06T15:12:32Z</time>
      </trkpt>
      <trkpt lat="44.98929" lon="4.71209">
        <ele>598.08697509766</ele>
        <time>2010-11-06T15:12:37Z</time>
      </trkpt>
      <trkpt lat="44.98952" lon="4.71248">
        <ele>596.06097412109</ele>
        <time>2010-11-06T15:12:41Z</time>
      </trkpt>
      <trkpt lat="44.9896" lon="4.71255">
        <ele>595.86499023438</ele>
        <time>2010-11-06T15:12:42Z</time>
      </trkpt>
      <trkpt lat="44.98994" lon="4.71286">
        <ele>593.94799804688</ele>
        <time>2010-11-06T15:12:46Z</time>
      </trkpt>
      <trkpt lat="44.99047" lon="4.7133">
        <ele>590.57897949219</ele>
        <time>2010-11-06T15:12:52Z</time>
      </trkpt>
      <trkpt lat="44.99056" lon="4.71338">
        <ele>590.16497802734</ele>
        <time>2010-11-06T15:12:53Z</time>
      </trkpt>
      <trkpt lat="44.99077" lon="4.7138">
        <ele>588.68701171875</ele>
        <time>2010-11-06T15:12:57Z</time>
      </trkpt>
      <trkpt lat="44.99094" lon="4.71406">
        <ele>587.75897216797</ele>
        <time>2010-11-06T15:13:00Z</time>
      </trkpt>
      <trkpt lat="44.99103" lon="4.71406">
        <ele>587.17102050781</ele>
        <time>2010-11-06T15:13:01Z</time>
      </trkpt>
      <trkpt lat="44.99122" lon="4.71408">
        <ele>586.15399169922</ele>
        <time>2010-11-06T15:13:03Z</time>
      </trkpt>
      <trkpt lat="44.99158" lon="4.71432">
        <ele>584.10797119141</ele>
        <time>2010-11-06T15:13:07Z</time>
      </trkpt>
      <trkpt lat="44.99167" lon="4.71441">
        <ele>583.63098144531</ele>
        <time>2010-11-06T15:13:08Z</time>
      </trkpt>
      <trkpt lat="44.99183" lon="4.71461">
        <ele>582.82501220703</ele>
        <time>2010-11-06T15:13:10Z</time>
      </trkpt>
      <trkpt lat="44.99192" lon="4.7147">
        <ele>582.26397705078</ele>
        <time>2010-11-06T15:13:11Z</time>
      </trkpt>
      <trkpt lat="44.9921" lon="4.71509">
        <ele>580.2490234375</ele>
        <time>2010-11-06T15:13:14Z</time>
      </trkpt>
      <trkpt lat="44.99213" lon="4.71524">
        <ele>580.07397460938</ele>
        <time>2010-11-06T15:13:15Z</time>
      </trkpt>
      <trkpt lat="44.99238" lon="4.71575">
        <ele>576.93103027344</ele>
        <time>2010-11-06T15:13:19Z</time>
      </trkpt>
      <trkpt lat="44.99256" lon="4.71613">
        <ele>576.14501953125</ele>
        <time>2010-11-06T15:13:22Z</time>
      </trkpt>
      <trkpt lat="44.99257" lon="4.71629">
        <ele>575.75897216797</ele>
        <time>2010-11-06T15:13:23Z</time>
      </trkpt>
      <trkpt lat="44.99279" lon="4.71699">
        <ele>572.81500244141</ele>
        <time>2010-11-06T15:13:28Z</time>
      </trkpt>
      <trkpt lat="44.99307" lon="4.71753">
        <ele>571.30499267578</ele>
        <time>2010-11-06T15:13:32Z</time>
      </trkpt>
      <trkpt lat="44.99341" lon="4.71794">
        <ele>569.0009765625</ele>
        <time>2010-11-06T15:13:36Z</time>
      </trkpt>
      <trkpt lat="44.9935" lon="4.71801">
        <ele>568.89202880859</ele>
        <time>2010-11-06T15:13:37Z</time>
      </trkpt>
      <trkpt lat="44.99358" lon="4.71809">
        <ele>568.96801757812</ele>
        <time>2010-11-06T15:13:38Z</time>
      </trkpt>
      <trkpt lat="44.99367" lon="4.71844">
        <ele>568.30102539062</ele>
        <time>2010-11-06T15:13:41Z</time>
      </trkpt>
      <trkpt lat="44.99356" lon="4.71869">
        <ele>567.56799316406</ele>
        <time>2010-11-06T15:13:43Z</time>
      </trkpt>
      <trkpt lat="44.99337" lon="4.7191">
        <ele>566.51898193359</ele>
        <time>2010-11-06T15:13:47Z</time>
      </trkpt>
      <trkpt lat="44.99344" lon="4.71947">
        <ele>566.14599609375</ele>
        <time>2010-11-06T15:13:50Z</time>
      </trkpt>
      <trkpt lat="44.99344" lon="4.71983">
        <ele>566.14599609375</ele>
        <time>2010-11-06T15:13:53Z</time>
      </trkpt>
      <trkpt lat="44.99325" lon="4.72013">
        <ele>565.69702148438</ele>
        <time>2010-11-06T15:13:56Z</time>
      </trkpt>
      <trkpt lat="44.99328" lon="4.72041">
        <ele>564.25799560547</ele>
        <time>2010-11-06T15:13:58Z</time>
      </trkpt>
      <trkpt lat="44.99344" lon="4.72059">
        <ele>563.45501708984</ele>
        <time>2010-11-06T15:14:00Z</time>
      </trkpt>
      <trkpt lat="44.99362" lon="4.72076">
        <ele>562.24200439453</ele>
        <time>2010-11-06T15:14:02Z</time>
      </trkpt>
      <trkpt lat="44.99389" lon="4.72124">
        <ele>559.75701904297</ele>
        <time>2010-11-06T15:14:06Z</time>
      </trkpt>
      <trkpt lat="44.99394" lon="4.72137">
        <ele>559.22601318359</ele>
        <time>2010-11-06T15:14:07Z</time>
      </trkpt>
      <trkpt lat="44.99417" lon="4.7217">
        <ele>557.64202880859</ele>
        <time>2010-11-06T15:14:10Z</time>
      </trkpt>
      <trkpt lat="44.99446" lon="4.72194">
        <ele>555.84301757812</ele>
        <time>2010-11-06T15:14:13Z</time>
      </trkpt>
      <trkpt lat="44.99467" lon="4.72206">
        <ele>555.09899902344</ele>
        <time>2010-11-06T15:14:15Z</time>
      </trkpt>
      <trkpt lat="44.99489" lon="4.72212">
        <ele>554.61297607422</ele>
        <time>2010-11-06T15:14:17Z</time>
      </trkpt>
      <trkpt lat="44.99567" lon="4.72218">
        <ele>551.82098388672</ele>
        <time>2010-11-06T15:14:24Z</time>
      </trkpt>
      <trkpt lat="44.99578" lon="4.7222">
        <ele>551.2080078125</ele>
        <time>2010-11-06T15:14:25Z</time>
      </trkpt>
      <trkpt lat="44.99603" lon="4.72248">
        <ele>549.48400878906</ele>
        <time>2010-11-06T15:14:28Z</time>
      </trkpt>
      <trkpt lat="44.99607" lon="4.72262">
        <ele>549.28802490234</ele>
        <time>2010-11-06T15:14:29Z</time>
      </trkpt>
      <trkpt lat="44.99614" lon="4.72292">
        <ele>548.59197998047</ele>
        <time>2010-11-06T15:14:31Z</time>
      </trkpt>
      <trkpt lat="44.99612" lon="4.72338">
        <ele>547.41400146484</ele>
        <time>2010-11-06T15:14:34Z</time>
      </trkpt>
      <trkpt lat="44.99601" lon="4.72366">
        <ele>546.73297119141</ele>
        <time>2010-11-06T15:14:36Z</time>
      </trkpt>
      <trkpt lat="44.99587" lon="4.72392">
        <ele>546.13598632812</ele>
        <time>2010-11-06T15:14:38Z</time>
      </trkpt>
      <trkpt lat="44.99577" lon="4.72437">
        <ele>545.29901123047</ele>
        <time>2010-11-06T15:14:41Z</time>
      </trkpt>
      <trkpt lat="44.99578" lon="4.72453">
        <ele>544.74200439453</ele>
        <time>2010-11-06T15:14:42Z</time>
      </trkpt>
      <trkpt lat="44.9958" lon="4.72485">
        <ele>543.86901855469</ele>
        <time>2010-11-06T15:14:44Z</time>
      </trkpt>
      <trkpt lat="44.99568" lon="4.72528">
        <ele>542.22998046875</ele>
        <time>2010-11-06T15:14:47Z</time>
      </trkpt>
      <trkpt lat="44.99558" lon="4.72531">
        <ele>542.06500244141</ele>
        <time>2010-11-06T15:14:48Z</time>
      </trkpt>
      <trkpt lat="44.99547" lon="4.72533">
        <ele>541.96502685547</ele>
        <time>2010-11-06T15:14:49Z</time>
      </trkpt>
      <trkpt lat="44.99524" lon="4.72536">
        <ele>541.50701904297</ele>
        <time>2010-11-06T15:14:51Z</time>
      </trkpt>
      <trkpt lat="44.99471" lon="4.72566">
        <ele>539.26702880859</ele>
        <time>2010-11-06T15:14:56Z</time>
      </trkpt>
      <trkpt lat="44.99421" lon="4.72604">
        <ele>536.87902832031</ele>
        <time>2010-11-06T15:15:01Z</time>
      </trkpt>
      <trkpt lat="44.99393" lon="4.72636">
        <ele>535.09899902344</ele>
        <time>2010-11-06T15:15:04Z</time>
      </trkpt>
      <trkpt lat="44.99376" lon="4.72656">
        <ele>534.10101318359</ele>
        <time>2010-11-06T15:15:06Z</time>
      </trkpt>
      <trkpt lat="44.99366" lon="4.72664">
        <ele>533.88500976562</ele>
        <time>2010-11-06T15:15:07Z</time>
      </trkpt>
      <trkpt lat="44.99344" lon="4.72696">
        <ele>533.34197998047</ele>
        <time>2010-11-06T15:15:10Z</time>
      </trkpt>
      <trkpt lat="44.99346" lon="4.72728">
        <ele>532.50598144531</ele>
        <time>2010-11-06T15:15:12Z</time>
      </trkpt>
      <trkpt lat="44.99361" lon="4.72752">
        <ele>531.46099853516</ele>
        <time>2010-11-06T15:15:14Z</time>
      </trkpt>
      <trkpt lat="44.99377" lon="4.72774">
        <ele>530.41101074219</ele>
        <time>2010-11-06T15:15:16Z</time>
      </trkpt>
      <trkpt lat="44.99405" lon="4.728">
        <ele>528.60699462891</ele>
        <time>2010-11-06T15:15:19Z</time>
      </trkpt>
      <trkpt lat="44.99422" lon="4.72837">
        <ele>527.28698730469</ele>
        <time>2010-11-06T15:15:22Z</time>
      </trkpt>
      <trkpt lat="44.9941" lon="4.72861">
        <ele>526.39801025391</ele>
        <time>2010-11-06T15:15:24Z</time>
      </trkpt>
      <trkpt lat="44.9939" lon="4.7287">
        <ele>525.7919921875</ele>
        <time>2010-11-06T15:15:26Z</time>
      </trkpt>
      <trkpt lat="44.99316" lon="4.72884">
        <ele>523.21002197266</ele>
        <time>2010-11-06T15:15:33Z</time>
      </trkpt>
      <trkpt lat="44.99298" lon="4.72909">
        <ele>522.77801513672</ele>
        <time>2010-11-06T15:15:36Z</time>
      </trkpt>
      <trkpt lat="44.993" lon="4.72948">
        <ele>521.75500488281</ele>
        <time>2010-11-06T15:15:39Z</time>
      </trkpt>
      <trkpt lat="44.99314" lon="4.72982">
        <ele>520.8330078125</ele>
        <time>2010-11-06T15:15:42Z</time>
      </trkpt>
      <trkpt lat="44.99339" lon="4.73002">
        <ele>519.83801269531</ele>
        <time>2010-11-06T15:15:45Z</time>
      </trkpt>
      <trkpt lat="44.99359" lon="4.73033">
        <ele>518.62701416016</ele>
        <time>2010-11-06T15:15:48Z</time>
      </trkpt>
      <trkpt lat="44.99364" lon="4.73076">
        <ele>517.666015625</ele>
        <time>2010-11-06T15:15:51Z</time>
      </trkpt>
      <trkpt lat="44.99358" lon="4.73118">
        <ele>516.17999267578</ele>
        <time>2010-11-06T15:15:54Z</time>
      </trkpt>
      <trkpt lat="44.9934" lon="4.73132">
        <ele>514.93701171875</ele>
        <time>2010-11-06T15:15:56Z</time>
      </trkpt>
      <trkpt lat="44.9933" lon="4.73137">
        <ele>514.68103027344</ele>
        <time>2010-11-06T15:15:57Z</time>
      </trkpt>
      <trkpt lat="44.99289" lon="4.73152">
        <ele>513.17999267578</ele>
        <time>2010-11-06T15:16:01Z</time>
      </trkpt>
      <trkpt lat="44.99251" lon="4.7318">
        <ele>511.38500976562</ele>
        <time>2010-11-06T15:16:05Z</time>
      </trkpt>
      <trkpt lat="44.99244" lon="4.7319">
        <ele>511.10800170898</ele>
        <time>2010-11-06T15:16:06Z</time>
      </trkpt>
      <trkpt lat="44.9921" lon="4.7322">
        <ele>509.87298583984</ele>
        <time>2010-11-06T15:16:10Z</time>
      </trkpt>
      <trkpt lat="44.99179" lon="4.73219">
        <ele>508.70098876953</ele>
        <time>2010-11-06T15:16:13Z</time>
      </trkpt>
      <trkpt lat="44.99143" lon="4.73243">
        <ele>507.59899902344</ele>
        <time>2010-11-06T15:16:17Z</time>
      </trkpt>
      <trkpt lat="44.9912" lon="4.73275">
        <ele>505.41198730469</ele>
        <time>2010-11-06T15:16:20Z</time>
      </trkpt>
      <trkpt lat="44.99084" lon="4.73309">
        <ele>503.14801025391</ele>
        <time>2010-11-06T15:16:24Z</time>
      </trkpt>
      <trkpt lat="44.99074" lon="4.73316">
        <ele>502.92098999023</ele>
        <time>2010-11-06T15:16:25Z</time>
      </trkpt>
      <trkpt lat="44.99025" lon="4.73351">
        <ele>501.10400390625</ele>
        <time>2010-11-06T15:16:30Z</time>
      </trkpt>
      <trkpt lat="44.99006" lon="4.73366">
        <ele>499.70300292969</ele>
        <time>2010-11-06T15:16:32Z</time>
      </trkpt>
      <trkpt lat="44.98991" lon="4.73404">
        <ele>498.35400390625</ele>
        <time>2010-11-06T15:16:35Z</time>
      </trkpt>
      <trkpt lat="44.98989" lon="4.73448">
        <ele>496.89999389648</ele>
        <time>2010-11-06T15:16:38Z</time>
      </trkpt>
      <trkpt lat="44.98984" lon="4.7346">
        <ele>496.42300415039</ele>
        <time>2010-11-06T15:16:39Z</time>
      </trkpt>
      <trkpt lat="44.9896" lon="4.73485">
        <ele>495.59100341797</ele>
        <time>2010-11-06T15:16:42Z</time>
      </trkpt>
      <trkpt lat="44.98951" lon="4.73508">
        <ele>494.96899414062</ele>
        <time>2010-11-06T15:16:44Z</time>
      </trkpt>
      <trkpt lat="44.9895" lon="4.73535">
        <ele>494.1789855957</ele>
        <time>2010-11-06T15:16:46Z</time>
      </trkpt>
      <trkpt lat="44.98943" lon="4.73573">
        <ele>493.44299316406</ele>
        <time>2010-11-06T15:16:49Z</time>
      </trkpt>
      <trkpt lat="44.98921" lon="4.73596">
        <ele>492.55999755859</ele>
        <time>2010-11-06T15:16:52Z</time>
      </trkpt>
      <trkpt lat="44.98893" lon="4.736">
        <ele>491.4880065918</ele>
        <time>2010-11-06T15:16:55Z</time>
      </trkpt>
      <trkpt lat="44.98877" lon="4.73612">
        <ele>490.76901245117</ele>
        <time>2010-11-06T15:16:57Z</time>
      </trkpt>
      <trkpt lat="44.9887" lon="4.73622">
        <ele>490.66400146484</ele>
        <time>2010-11-06T15:16:58Z</time>
      </trkpt>
      <trkpt lat="44.98843" lon="4.73654">
        <ele>488.99301147461</ele>
        <time>2010-11-06T15:17:02Z</time>
      </trkpt>
      <trkpt lat="44.98833" lon="4.73655">
        <ele>488.78601074219</ele>
        <time>2010-11-06T15:17:03Z</time>
      </trkpt>
      <trkpt lat="44.98814" lon="4.73678">
        <ele>487.99200439453</ele>
        <time>2010-11-06T15:17:06Z</time>
      </trkpt>
      <trkpt lat="44.98814" lon="4.73703">
        <ele>487.34100341797</ele>
        <time>2010-11-06T15:17:08Z</time>
      </trkpt>
      <trkpt lat="44.98817" lon="4.7373">
        <ele>486.07998657227</ele>
        <time>2010-11-06T15:17:10Z</time>
      </trkpt>
      <trkpt lat="44.98835" lon="4.73775">
        <ele>483.76501464844</ele>
        <time>2010-11-06T15:17:14Z</time>
      </trkpt>
      <trkpt lat="44.9886" lon="4.73796">
        <ele>482.63900756836</ele>
        <time>2010-11-06T15:17:17Z</time>
      </trkpt>
      <trkpt lat="44.98923" lon="4.73829">
        <ele>479.63500976562</ele>
        <time>2010-11-06T15:17:24Z</time>
      </trkpt>
      <trkpt lat="44.9895" lon="4.73867">
        <ele>478.12600708008</ele>
        <time>2010-11-06T15:17:28Z</time>
      </trkpt>
      <trkpt lat="44.9895" lon="4.73909">
        <ele>476.56298828125</ele>
        <time>2010-11-06T15:17:31Z</time>
      </trkpt>
      <trkpt lat="44.9894" lon="4.73934">
        <ele>475.5419921875</ele>
        <time>2010-11-06T15:17:33Z</time>
      </trkpt>
      <trkpt lat="44.98932" lon="4.73943">
        <ele>474.99099731445</ele>
        <time>2010-11-06T15:17:34Z</time>
      </trkpt>
      <trkpt lat="44.98895" lon="4.73973">
        <ele>472.9580078125</ele>
        <time>2010-11-06T15:17:38Z</time>
      </trkpt>
      <trkpt lat="44.98879" lon="4.73992">
        <ele>472.26998901367</ele>
        <time>2010-11-06T15:17:40Z</time>
      </trkpt>
      <trkpt lat="44.98863" lon="4.7403">
        <ele>470.52200317383</ele>
        <time>2010-11-06T15:17:43Z</time>
      </trkpt>
      <trkpt lat="44.98836" lon="4.74074">
        <ele>468.27499389648</ele>
        <time>2010-11-06T15:17:47Z</time>
      </trkpt>
      <trkpt lat="44.98826" lon="4.74078">
        <ele>467.9460144043</ele>
        <time>2010-11-06T15:17:48Z</time>
      </trkpt>
      <trkpt lat="44.98782" lon="4.74114">
        <ele>466.9880065918</ele>
        <time>2010-11-06T15:17:53Z</time>
      </trkpt>
      <trkpt lat="44.98758" lon="4.74135">
        <ele>466.92498779297</ele>
        <time>2010-11-06T15:17:56Z</time>
      </trkpt>
      <trkpt lat="44.98738" lon="4.74174">
        <ele>466.64099121094</ele>
        <time>2010-11-06T15:18:00Z</time>
      </trkpt>
      <trkpt lat="44.98742" lon="4.74198">
        <ele>465.77899169922</ele>
        <time>2010-11-06T15:18:02Z</time>
      </trkpt>
      <trkpt lat="44.98764" lon="4.74222">
        <ele>463.99798583984</ele>
        <time>2010-11-06T15:18:05Z</time>
      </trkpt>
      <trkpt lat="44.98815" lon="4.7427">
        <ele>460.01098632812</ele>
        <time>2010-11-06T15:18:11Z</time>
      </trkpt>
      <trkpt lat="44.98823" lon="4.74281">
        <ele>459.13598632812</ele>
        <time>2010-11-06T15:18:12Z</time>
      </trkpt>
      <trkpt lat="44.98859" lon="4.74315">
        <ele>457.16900634766</ele>
        <time>2010-11-06T15:18:16Z</time>
      </trkpt>
      <trkpt lat="44.98896" lon="4.74341">
        <ele>455.9460144043</ele>
        <time>2010-11-06T15:18:20Z</time>
      </trkpt>
      <trkpt lat="44.9895" lon="4.74359">
        <ele>451.3330078125</ele>
        <time>2010-11-06T15:18:25Z</time>
      </trkpt>
      <trkpt lat="44.98984" lon="4.74385">
        <ele>447.98498535156</ele>
        <time>2010-11-06T15:18:28Z</time>
      </trkpt>
      <trkpt lat="44.98996" lon="4.74415">
        <ele>445.66000366211</ele>
        <time>2010-11-06T15:18:30Z</time>
      </trkpt>
      <trkpt lat="44.99027" lon="4.74461">
        <ele>443.76599121094</ele>
        <time>2010-11-06T15:18:35Z</time>
      </trkpt>
      <trkpt lat="44.99044" lon="4.74473">
        <ele>443.29299926758</ele>
        <time>2010-11-06T15:18:37Z</time>
      </trkpt>
      <trkpt lat="44.99084" lon="4.74514">
        <ele>440.46499633789</ele>
        <time>2010-11-06T15:18:42Z</time>
      </trkpt>
      <trkpt lat="44.99096" lon="4.74533">
        <ele>439.49200439453</ele>
        <time>2010-11-06T15:18:44Z</time>
      </trkpt>
      <trkpt lat="44.99095" lon="4.74559">
        <ele>437.4700012207</ele>
        <time>2010-11-06T15:18:46Z</time>
      </trkpt>
      <trkpt lat="44.99091" lon="4.74573">
        <ele>437.4700012207</ele>
        <time>2010-11-06T15:18:47Z</time>
      </trkpt>
      <trkpt lat="44.99084" lon="4.74584">
        <ele>437.4700012207</ele>
        <time>2010-11-06T15:18:48Z</time>
      </trkpt>
      <trkpt lat="44.99041" lon="4.74677">
        <ele>428.64401245117</ele>
        <time>2010-11-06T15:18:55Z</time>
      </trkpt>
      <trkpt lat="44.9903" lon="4.74704">
        <ele>427.84399414062</ele>
        <time>2010-11-06T15:18:57Z</time>
      </trkpt>
      <trkpt lat="44.9902" lon="4.74755">
        <ele>426.96200561523</ele>
        <time>2010-11-06T15:19:01Z</time>
      </trkpt>
      <trkpt lat="44.99007" lon="4.74788">
        <ele>425.66198730469</ele>
        <time>2010-11-06T15:19:04Z</time>
      </trkpt>
      <trkpt lat="44.98992" lon="4.74819">
        <ele>424.96398925781</ele>
        <time>2010-11-06T15:19:07Z</time>
      </trkpt>
      <trkpt lat="44.98966" lon="4.74854">
        <ele>423.36898803711</ele>
        <time>2010-11-06T15:19:11Z</time>
      </trkpt>
      <trkpt lat="44.9894" lon="4.74861">
        <ele>421.87600708008</ele>
        <time>2010-11-06T15:19:14Z</time>
      </trkpt>
      <trkpt lat="44.98932" lon="4.74858">
        <ele>421.50601196289</ele>
        <time>2010-11-06T15:19:15Z</time>
      </trkpt>
      <trkpt lat="44.98909" lon="4.74842">
        <ele>421.09399414062</ele>
        <time>2010-11-06T15:19:18Z</time>
      </trkpt>
      <trkpt lat="44.98878" lon="4.74802">
        <ele>419.49398803711</ele>
        <time>2010-11-06T15:19:23Z</time>
      </trkpt>
      <trkpt lat="44.98868" lon="4.74785">
        <ele>418.83599853516</ele>
        <time>2010-11-06T15:19:26Z</time>
      </trkpt>
      <trkpt lat="44.98842" lon="4.74769">
        <ele>417.57699584961</ele>
        <time>2010-11-06T15:19:31Z</time>
      </trkpt>
      <trkpt lat="44.98825" lon="4.74763">
        <ele>417.26699829102</ele>
        <time>2010-11-06T15:19:34Z</time>
      </trkpt>
      <trkpt lat="44.98785" lon="4.74756">
        <ele>416.49499511719</ele>
        <time>2010-11-06T15:19:41Z</time>
      </trkpt>
      <trkpt lat="44.98773" lon="4.74757">
        <ele>415.97698974609</ele>
        <time>2010-11-06T15:19:43Z</time>
      </trkpt>
      <trkpt lat="44.98723" lon="4.74773">
        <ele>414.01699829102</ele>
        <time>2010-11-06T15:19:51Z</time>
      </trkpt>
      <trkpt lat="44.98696" lon="4.74784">
        <ele>413.11700439453</ele>
        <time>2010-11-06T15:19:55Z</time>
      </trkpt>
      <trkpt lat="44.98668" lon="4.74786">
        <ele>411.53399658203</ele>
        <time>2010-11-06T15:19:59Z</time>
      </trkpt>
      <trkpt lat="44.98637" lon="4.74779">
        <ele>408.88598632812</ele>
        <time>2010-11-06T15:20:03Z</time>
      </trkpt>
      <trkpt lat="44.98599" lon="4.74754">
        <ele>405.62399291992</ele>
        <time>2010-11-06T15:20:08Z</time>
      </trkpt>
      <trkpt lat="44.98577" lon="4.74731">
        <ele>403.47299194336</ele>
        <time>2010-11-06T15:20:11Z</time>
      </trkpt>
      <trkpt lat="44.98565" lon="4.74709">
        <ele>402.4289855957</ele>
        <time>2010-11-06T15:20:13Z</time>
      </trkpt>
      <trkpt lat="44.98559" lon="4.74698">
        <ele>401.63400268555</ele>
        <time>2010-11-06T15:20:14Z</time>
      </trkpt>
      <trkpt lat="44.98532" lon="4.74677">
        <ele>399.13900756836</ele>
        <time>2010-11-06T15:20:17Z</time>
      </trkpt>
      <trkpt lat="44.98478" lon="4.74653">
        <ele>394.18099975586</ele>
        <time>2010-11-06T15:20:22Z</time>
      </trkpt>
      <trkpt lat="44.98447" lon="4.74629">
        <ele>392.11499023438</ele>
        <time>2010-11-06T15:20:25Z</time>
      </trkpt>
      <trkpt lat="44.98422" lon="4.74596">
        <ele>389.93499755859</ele>
        <time>2010-11-06T15:20:28Z</time>
      </trkpt>
      <trkpt lat="44.98417" lon="4.74588">
        <ele>389.91101074219</ele>
        <time>2010-11-06T15:20:29Z</time>
      </trkpt>
      <trkpt lat="44.98406" lon="4.74581">
        <ele>391.11999511719</ele>
        <time>2010-11-06T15:20:32Z</time>
      </trkpt>
      <trkpt lat="44.98404" lon="4.74587">
        <ele>391.43701171875</ele>
        <time>2010-11-06T15:20:34Z</time>
      </trkpt>
      <trkpt lat="44.98407" lon="4.74606">
        <ele>391.38101196289</ele>
        <time>2010-11-06T15:20:41Z</time>
      </trkpt>
      <trkpt lat="44.98412" lon="4.74615">
        <ele>391.27899169922</ele>
        <time>2010-11-06T15:20:47Z</time>
      </trkpt>
      <trkpt lat="44.98423" lon="4.74623">
        <ele>390.84298706055</ele>
        <time>2010-11-06T15:20:53Z</time>
      </trkpt>
      <trkpt lat="44.98425" lon="4.74624">
        <ele>390.68399047852</ele>
        <time>2010-11-06T15:20:54Z</time>
      </trkpt>
      <trkpt lat="44.98441" lon="4.74638">
        <ele>389.96600341797</ele>
        <time>2010-11-06T15:21:00Z</time>
      </trkpt>
      <trkpt lat="44.98465" lon="4.7467">
        <ele>389.1789855957</ele>
        <time>2010-11-06T15:21:08Z</time>
      </trkpt>
      <trkpt lat="44.98492" lon="4.74699">
        <ele>388.6969909668</ele>
        <time>2010-11-06T15:21:15Z</time>
      </trkpt>
      <trkpt lat="44.98521" lon="4.74733">
        <ele>387.09600830078</ele>
        <time>2010-11-06T15:21:21Z</time>
      </trkpt>
      <trkpt lat="44.98526" lon="4.74739">
        <ele>386.87701416016</ele>
        <time>2010-11-06T15:21:22Z</time>
      </trkpt>
      <trkpt lat="44.9854" lon="4.74762">
        <ele>386.5710144043</ele>
        <time>2010-11-06T15:21:25Z</time>
      </trkpt>
      <trkpt lat="44.98551" lon="4.74809">
        <ele>385.8630065918</ele>
        <time>2010-11-06T15:21:30Z</time>
      </trkpt>
      <trkpt lat="44.98536" lon="4.74855">
        <ele>384.90701293945</ele>
        <time>2010-11-06T15:21:35Z</time>
      </trkpt>
      <trkpt lat="44.98529" lon="4.74859">
        <ele>384.62399291992</ele>
        <time>2010-11-06T15:21:36Z</time>
      </trkpt>
      <trkpt lat="44.98511" lon="4.74873">
        <ele>384.45599365234</ele>
        <time>2010-11-06T15:21:39Z</time>
      </trkpt>
      <trkpt lat="44.98502" lon="4.74894">
        <ele>385.01800537109</ele>
        <time>2010-11-06T15:21:42Z</time>
      </trkpt>
      <trkpt lat="44.98504" lon="4.74909">
        <ele>385.5299987793</ele>
        <time>2010-11-06T15:21:44Z</time>
      </trkpt>
      <trkpt lat="44.98523" lon="4.74958">
        <ele>385.73498535156</ele>
        <time>2010-11-06T15:21:51Z</time>
      </trkpt>
      <trkpt lat="44.98533" lon="4.75006">
        <ele>385.72399902344</ele>
        <time>2010-11-06T15:21:57Z</time>
      </trkpt>
      <trkpt lat="44.98541" lon="4.7506">
        <ele>385.95700073242</ele>
        <time>2010-11-06T15:22:03Z</time>
      </trkpt>
      <trkpt lat="44.98546" lon="4.75102">
        <ele>386.49499511719</ele>
        <time>2010-11-06T15:22:08Z</time>
      </trkpt>
      <trkpt lat="44.98548" lon="4.75131">
        <ele>386.61099243164</ele>
        <time>2010-11-06T15:22:11Z</time>
      </trkpt>
      <trkpt lat="44.98552" lon="4.75175">
        <ele>387.17700195312</ele>
        <time>2010-11-06T15:22:16Z</time>
      </trkpt>
      <trkpt lat="44.98553" lon="4.75184">
        <ele>387.37701416016</ele>
        <time>2010-11-06T15:22:17Z</time>
      </trkpt>
      <trkpt lat="44.98558" lon="4.75211">
        <ele>387.62200927734</ele>
        <time>2010-11-06T15:22:20Z</time>
      </trkpt>
      <trkpt lat="44.98557" lon="4.75249">
        <ele>387.55599975586</ele>
        <time>2010-11-06T15:22:24Z</time>
      </trkpt>
      <trkpt lat="44.9854" lon="4.7528">
        <ele>387.72100830078</ele>
        <time>2010-11-06T15:22:28Z</time>
      </trkpt>
      <trkpt lat="44.98484" lon="4.75343">
        <ele>388.46099853516</ele>
        <time>2010-11-06T15:22:38Z</time>
      </trkpt>
      <trkpt lat="44.98458" lon="4.75345">
        <ele>388.64001464844</ele>
        <time>2010-11-06T15:22:42Z</time>
      </trkpt>
      <trkpt lat="44.98429" lon="4.75323">
        <ele>389.14700317383</ele>
        <time>2010-11-06T15:22:47Z</time>
      </trkpt>
      <trkpt lat="44.98405" lon="4.75285">
        <ele>389.64001464844</ele>
        <time>2010-11-06T15:22:53Z</time>
      </trkpt>
      <trkpt lat="44.98402" lon="4.75279">
        <ele>389.71899414062</ele>
        <time>2010-11-06T15:22:54Z</time>
      </trkpt>
      <trkpt lat="44.9838" lon="4.75255">
        <ele>390.37600708008</ele>
        <time>2010-11-06T15:22:59Z</time>
      </trkpt>
      <trkpt lat="44.98366" lon="4.75257">
        <ele>390.78100585938</ele>
        <time>2010-11-06T15:23:02Z</time>
      </trkpt>
      <trkpt lat="44.98355" lon="4.75276">
        <ele>390.95401000977</ele>
        <time>2010-11-06T15:23:06Z</time>
      </trkpt>
      <trkpt lat="44.98357" lon="4.75298">
        <ele>391.06399536133</ele>
        <time>2010-11-06T15:23:09Z</time>
      </trkpt>
      <trkpt lat="44.9836" lon="4.75305">
        <ele>391.09201049805</ele>
        <time>2010-11-06T15:23:10Z</time>
      </trkpt>
      <trkpt lat="44.98371" lon="4.75325">
        <ele>391.07699584961</ele>
        <time>2010-11-06T15:23:13Z</time>
      </trkpt>
      <trkpt lat="44.98383" lon="4.75358">
        <ele>391.35101318359</ele>
        <time>2010-11-06T15:23:17Z</time>
      </trkpt>
      <trkpt lat="44.98388" lon="4.75394">
        <ele>391.47601318359</ele>
        <time>2010-11-06T15:23:21Z</time>
      </trkpt>
      <trkpt lat="44.98384" lon="4.7544">
        <ele>391.18600463867</ele>
        <time>2010-11-06T15:23:26Z</time>
      </trkpt>
      <trkpt lat="44.9838" lon="4.75467">
        <ele>391.48999023438</ele>
        <time>2010-11-06T15:23:29Z</time>
      </trkpt>
      <trkpt lat="44.98367" lon="4.75501">
        <ele>391.47900390625</ele>
        <time>2010-11-06T15:23:33Z</time>
      </trkpt>
      <trkpt lat="44.9836" lon="4.75537">
        <ele>391.80999755859</ele>
        <time>2010-11-06T15:23:37Z</time>
      </trkpt>
      <trkpt lat="44.98359" lon="4.75564">
        <ele>392.01000976562</ele>
        <time>2010-11-06T15:23:40Z</time>
      </trkpt>
      <trkpt lat="44.98354" lon="4.75589">
        <ele>392.39898681641</ele>
        <time>2010-11-06T15:23:43Z</time>
      </trkpt>
      <trkpt lat="44.98345" lon="4.75614">
        <ele>392.70599365234</ele>
        <time>2010-11-06T15:23:46Z</time>
      </trkpt>
      <trkpt lat="44.98332" lon="4.75634">
        <ele>393.01098632812</ele>
        <time>2010-11-06T15:23:49Z</time>
      </trkpt>
      <trkpt lat="44.98327" lon="4.75668">
        <ele>393.17498779297</ele>
        <time>2010-11-06T15:23:53Z</time>
      </trkpt>
      <trkpt lat="44.98338" lon="4.75687">
        <ele>393.83700561523</ele>
        <time>2010-11-06T15:23:56Z</time>
      </trkpt>
      <trkpt lat="44.98351" lon="4.75707">
        <ele>393.7619934082</ele>
        <time>2010-11-06T15:23:59Z</time>
      </trkpt>
      <trkpt lat="44.98362" lon="4.7573">
        <ele>394.0530090332</ele>
        <time>2010-11-06T15:24:02Z</time>
      </trkpt>
      <trkpt lat="44.98378" lon="4.7576">
        <ele>394.16799926758</ele>
        <time>2010-11-06T15:24:06Z</time>
      </trkpt>
      <trkpt lat="44.98398" lon="4.75778">
        <ele>394.36700439453</ele>
        <time>2010-11-06T15:24:10Z</time>
      </trkpt>
      <trkpt lat="44.98442" lon="4.75808">
        <ele>394.63299560547</ele>
        <time>2010-11-06T15:24:17Z</time>
      </trkpt>
      <trkpt lat="44.98479" lon="4.75834">
        <ele>395.18399047852</ele>
        <time>2010-11-06T15:24:23Z</time>
      </trkpt>
      <trkpt lat="44.98508" lon="4.75859">
        <ele>395.42098999023</ele>
        <time>2010-11-06T15:24:28Z</time>
      </trkpt>
      <trkpt lat="44.9856" lon="4.7589">
        <ele>395.81399536133</ele>
        <time>2010-11-06T15:24:36Z</time>
      </trkpt>
      <trkpt lat="44.98572" lon="4.75899">
        <ele>395.72500610352</ele>
        <time>2010-11-06T15:24:38Z</time>
      </trkpt>
      <trkpt lat="44.98587" lon="4.75931">
        <ele>396.20599365234</ele>
        <time>2010-11-06T15:24:42Z</time>
      </trkpt>
      <trkpt lat="44.98584" lon="4.75959">
        <ele>396.33499145508</ele>
        <time>2010-11-06T15:24:45Z</time>
      </trkpt>
      <trkpt lat="44.98584" lon="4.76005">
        <ele>396.76000976562</ele>
        <time>2010-11-06T15:24:50Z</time>
      </trkpt>
      <trkpt lat="44.98601" lon="4.76016">
        <ele>397.04699707031</ele>
        <time>2010-11-06T15:24:53Z</time>
      </trkpt>
      <trkpt lat="44.9862" lon="4.76006">
        <ele>397.5</ele>
        <time>2010-11-06T15:24:56Z</time>
      </trkpt>
      <trkpt lat="44.98624" lon="4.75999">
        <ele>397.55099487305</ele>
        <time>2010-11-06T15:24:57Z</time>
      </trkpt>
      <trkpt lat="44.98634" lon="4.75985">
        <ele>397.81600952148</ele>
        <time>2010-11-06T15:24:59Z</time>
      </trkpt>
      <trkpt lat="44.9867" lon="4.75957">
        <ele>398.27801513672</ele>
        <time>2010-11-06T15:25:05Z</time>
      </trkpt>
      <trkpt lat="44.98685" lon="4.75937">
        <ele>398.61499023438</ele>
        <time>2010-11-06T15:25:08Z</time>
      </trkpt>
      <trkpt lat="44.98698" lon="4.75915">
        <ele>398.80499267578</ele>
        <time>2010-11-06T15:25:11Z</time>
      </trkpt>
      <trkpt lat="44.98721" lon="4.75897">
        <ele>399.03900146484</ele>
        <time>2010-11-06T15:25:15Z</time>
      </trkpt>
      <trkpt lat="44.98729" lon="4.75897">
        <ele>399.10101318359</ele>
        <time>2010-11-06T15:25:16Z</time>
      </trkpt>
      <trkpt lat="44.98791" lon="4.75899">
        <ele>399.50698852539</ele>
        <time>2010-11-06T15:25:25Z</time>
      </trkpt>
      <trkpt lat="44.98798" lon="4.75901">
        <ele>399.61099243164</ele>
        <time>2010-11-06T15:25:26Z</time>
      </trkpt>
      <trkpt lat="44.98811" lon="4.75907">
        <ele>399.67599487305</ele>
        <time>2010-11-06T15:25:28Z</time>
      </trkpt>
      <trkpt lat="44.98831" lon="4.75933">
        <ele>399.81500244141</ele>
        <time>2010-11-06T15:25:32Z</time>
      </trkpt>
      <trkpt lat="44.98846" lon="4.75965">
        <ele>400.53601074219</ele>
        <time>2010-11-06T15:25:36Z</time>
      </trkpt>
      <trkpt lat="44.98869" lon="4.75983">
        <ele>401.19900512695</ele>
        <time>2010-11-06T15:25:40Z</time>
      </trkpt>
      <trkpt lat="44.98887" lon="4.75973">
        <ele>401.86499023438</ele>
        <time>2010-11-06T15:25:43Z</time>
      </trkpt>
      <trkpt lat="44.98918" lon="4.75952">
        <ele>401.60400390625</ele>
        <time>2010-11-06T15:25:48Z</time>
      </trkpt>
      <trkpt lat="44.98945" lon="4.75962">
        <ele>401.70700073242</ele>
        <time>2010-11-06T15:25:52Z</time>
      </trkpt>
      <trkpt lat="44.98957" lon="4.75972">
        <ele>401.69299316406</ele>
        <time>2010-11-06T15:25:54Z</time>
      </trkpt>
      <trkpt lat="44.98986" lon="4.76003">
        <ele>401.99200439453</ele>
        <time>2010-11-06T15:25:59Z</time>
      </trkpt>
      <trkpt lat="44.99012" lon="4.76016">
        <ele>401.84399414062</ele>
        <time>2010-11-06T15:26:03Z</time>
      </trkpt>
      <trkpt lat="44.99033" lon="4.7601">
        <ele>402.34799194336</ele>
        <time>2010-11-06T15:26:06Z</time>
      </trkpt>
      <trkpt lat="44.99046" lon="4.76002">
        <ele>402.85198974609</ele>
        <time>2010-11-06T15:26:08Z</time>
      </trkpt>
      <trkpt lat="44.99057" lon="4.75993">
        <ele>403.21600341797</ele>
        <time>2010-11-06T15:26:10Z</time>
      </trkpt>
      <trkpt lat="44.99084" lon="4.75985">
        <ele>403.67401123047</ele>
        <time>2010-11-06T15:26:14Z</time>
      </trkpt>
      <trkpt lat="44.9914" lon="4.75986">
        <ele>404.49700927734</ele>
        <time>2010-11-06T15:26:22Z</time>
      </trkpt>
      <trkpt lat="44.99196" lon="4.75979">
        <ele>405.23498535156</ele>
        <time>2010-11-06T15:26:30Z</time>
      </trkpt>
      <trkpt lat="44.9925" lon="4.75979">
        <ele>406.03100585938</ele>
        <time>2010-11-06T15:26:38Z</time>
      </trkpt>
      <trkpt lat="44.99306" lon="4.7599">
        <ele>406.96301269531</ele>
        <time>2010-11-06T15:26:46Z</time>
      </trkpt>
      <trkpt lat="44.99351" lon="4.75997">
        <ele>407.02398681641</ele>
        <time>2010-11-06T15:26:52Z</time>
      </trkpt>
      <trkpt lat="44.99387" lon="4.75983">
        <ele>407.94000244141</ele>
        <time>2010-11-06T15:26:57Z</time>
      </trkpt>
      <trkpt lat="44.99395" lon="4.75979">
        <ele>408.0710144043</ele>
        <time>2010-11-06T15:26:58Z</time>
      </trkpt>
      <trkpt lat="44.99433" lon="4.75972">
        <ele>408.60101318359</ele>
        <time>2010-11-06T15:27:03Z</time>
      </trkpt>
      <trkpt lat="44.99486" lon="4.75971">
        <ele>409.41400146484</ele>
        <time>2010-11-06T15:27:10Z</time>
      </trkpt>
      <trkpt lat="44.99536" lon="4.75969">
        <ele>410.11401367188</ele>
        <time>2010-11-06T15:27:16Z</time>
      </trkpt>
      <trkpt lat="44.99599" lon="4.75968">
        <ele>411.20599365234</ele>
        <time>2010-11-06T15:27:24Z</time>
      </trkpt>
      <trkpt lat="44.99645" lon="4.75973">
        <ele>412.1130065918</ele>
        <time>2010-11-06T15:27:30Z</time>
      </trkpt>
      <trkpt lat="44.99694" lon="4.75997">
        <ele>413.14599609375</ele>
        <time>2010-11-06T15:27:37Z</time>
      </trkpt>
      <trkpt lat="44.99715" lon="4.76029">
        <ele>412.53601074219</ele>
        <time>2010-11-06T15:27:41Z</time>
      </trkpt>
      <trkpt lat="44.99718" lon="4.76068">
        <ele>410.95498657227</ele>
        <time>2010-11-06T15:27:44Z</time>
      </trkpt>
      <trkpt lat="44.99715" lon="4.76082">
        <ele>410.69799804688</ele>
        <time>2010-11-06T15:27:45Z</time>
      </trkpt>
      <trkpt lat="44.99706" lon="4.76135">
        <ele>408.76400756836</ele>
        <time>2010-11-06T15:27:49Z</time>
      </trkpt>
      <trkpt lat="44.99725" lon="4.76143">
        <ele>408.18301391602</ele>
        <time>2010-11-06T15:27:51Z</time>
      </trkpt>
      <trkpt lat="44.99756" lon="4.76153">
        <ele>406.99700927734</ele>
        <time>2010-11-06T15:27:54Z</time>
      </trkpt>
      <trkpt lat="44.9977" lon="4.76175">
        <ele>405.78100585938</ele>
        <time>2010-11-06T15:27:56Z</time>
      </trkpt>
      <trkpt lat="44.99793" lon="4.76201">
        <ele>404.57699584961</ele>
        <time>2010-11-06T15:27:59Z</time>
      </trkpt>
      <trkpt lat="44.99824" lon="4.76199">
        <ele>403.44198608398</ele>
        <time>2010-11-06T15:28:02Z</time>
      </trkpt>
      <trkpt lat="44.99851" lon="4.76178">
        <ele>402.77899169922</ele>
        <time>2010-11-06T15:28:05Z</time>
      </trkpt>
      <trkpt lat="44.99881" lon="4.76167">
        <ele>401.57901000977</ele>
        <time>2010-11-06T15:28:08Z</time>
      </trkpt>
      <trkpt lat="44.99912" lon="4.7617">
        <ele>400.01699829102</ele>
        <time>2010-11-06T15:28:11Z</time>
      </trkpt>
      <trkpt lat="44.99925" lon="4.76197">
        <ele>399.1789855957</ele>
        <time>2010-11-06T15:28:13Z</time>
      </trkpt>
      <trkpt lat="44.99919" lon="4.76225">
        <ele>398.55801391602</ele>
        <time>2010-11-06T15:28:15Z</time>
      </trkpt>
      <trkpt lat="44.99925" lon="4.76251">
        <ele>397.73999023438</ele>
        <time>2010-11-06T15:28:17Z</time>
      </trkpt>
      <trkpt lat="44.99943" lon="4.76261">
        <ele>396.70199584961</ele>
        <time>2010-11-06T15:28:19Z</time>
      </trkpt>
      <trkpt lat="44.99953" lon="4.76266">
        <ele>396.48300170898</ele>
        <time>2010-11-06T15:28:20Z</time>
      </trkpt>
      <trkpt lat="44.9998" lon="4.76293">
        <ele>394.9169921875</ele>
        <time>2010-11-06T15:28:23Z</time>
      </trkpt>
      <trkpt lat="44.99998" lon="4.76332">
        <ele>393.3450012207</ele>
        <time>2010-11-06T15:28:26Z</time>
      </trkpt>
      <trkpt lat="45.00006" lon="4.76378">
        <ele>391.98498535156</ele>
        <time>2010-11-06T15:28:29Z</time>
      </trkpt>
      <trkpt lat="45.00009" lon="4.76409">
        <ele>391.42498779297</ele>
        <time>2010-11-06T15:28:31Z</time>
      </trkpt>
      <trkpt lat="45.00007" lon="4.76469">
        <ele>389.4289855957</ele>
        <time>2010-11-06T15:28:35Z</time>
      </trkpt>
      <trkpt lat="45.00004" lon="4.76484">
        <ele>389.11898803711</ele>
        <time>2010-11-06T15:28:36Z</time>
      </trkpt>
      <trkpt lat="44.99984" lon="4.76573">
        <ele>386.45098876953</ele>
        <time>2010-11-06T15:28:42Z</time>
      </trkpt>
      <trkpt lat="44.9998" lon="4.76588">
        <ele>385.94900512695</ele>
        <time>2010-11-06T15:28:43Z</time>
      </trkpt>
      <trkpt lat="44.99967" lon="4.76662">
        <ele>384.6669921875</ele>
        <time>2010-11-06T15:28:48Z</time>
      </trkpt>
      <trkpt lat="44.99947" lon="4.76691">
        <ele>384.05801391602</ele>
        <time>2010-11-06T15:28:51Z</time>
      </trkpt>
      <trkpt lat="44.99948" lon="4.76717">
        <ele>383.64898681641</ele>
        <time>2010-11-06T15:28:53Z</time>
      </trkpt>
      <trkpt lat="44.9996" lon="4.76733">
        <ele>383.23098754883</ele>
        <time>2010-11-06T15:28:55Z</time>
      </trkpt>
      <trkpt lat="44.99979" lon="4.76766">
        <ele>381.3030090332</ele>
        <time>2010-11-06T15:28:58Z</time>
      </trkpt>
      <trkpt lat="44.99981" lon="4.76782">
        <ele>380.98098754883</ele>
        <time>2010-11-06T15:28:59Z</time>
      </trkpt>
      <trkpt lat="44.99992" lon="4.76838">
        <ele>379.4700012207</ele>
        <time>2010-11-06T15:29:03Z</time>
      </trkpt>
      <trkpt lat="45.00008" lon="4.76858">
        <ele>378.76901245117</ele>
        <time>2010-11-06T15:29:05Z</time>
      </trkpt>
      <trkpt lat="45.00042" lon="4.76874">
        <ele>378.80899047852</ele>
        <time>2010-11-06T15:29:09Z</time>
      </trkpt>
      <trkpt lat="45.00054" lon="4.76858">
        <ele>379.93798828125</ele>
        <time>2010-11-06T15:29:11Z</time>
      </trkpt>
      <trkpt lat="45.00058" lon="4.76849">
        <ele>380.57299804688</ele>
        <time>2010-11-06T15:29:12Z</time>
      </trkpt>
      <trkpt lat="45.00069" lon="4.76824">
        <ele>382.13900756836</ele>
        <time>2010-11-06T15:29:15Z</time>
      </trkpt>
      <trkpt lat="45.00096" lon="4.76779">
        <ele>383.85101318359</ele>
        <time>2010-11-06T15:29:21Z</time>
      </trkpt>
      <trkpt lat="45.001" lon="4.76771">
        <ele>384.0299987793</ele>
        <time>2010-11-06T15:29:22Z</time>
      </trkpt>
      <trkpt lat="45.00109" lon="4.76724">
        <ele>385.84100341797</ele>
        <time>2010-11-06T15:29:27Z</time>
      </trkpt>
      <trkpt lat="45.00106" lon="4.76705">
        <ele>386.38000488281</ele>
        <time>2010-11-06T15:29:29Z</time>
      </trkpt>
      <trkpt lat="45.001" lon="4.76636">
        <ele>388.67199707031</ele>
        <time>2010-11-06T15:29:36Z</time>
      </trkpt>
      <trkpt lat="45.00113" lon="4.76607">
        <ele>389.74600219727</ele>
        <time>2010-11-06T15:29:40Z</time>
      </trkpt>
      <trkpt lat="45.0013" lon="4.76604">
        <ele>390.80599975586</ele>
        <time>2010-11-06T15:29:43Z</time>
      </trkpt>
      <trkpt lat="45.00152" lon="4.76621">
        <ele>392.41000366211</ele>
        <time>2010-11-06T15:29:47Z</time>
      </trkpt>
      <trkpt lat="45.00166" lon="4.76639">
        <ele>393.76699829102</ele>
        <time>2010-11-06T15:29:50Z</time>
      </trkpt>
      <trkpt lat="45.00189" lon="4.76648">
        <ele>395.00201416016</ele>
        <time>2010-11-06T15:29:54Z</time>
      </trkpt>
      <trkpt lat="45.00197" lon="4.76634">
        <ele>395.55499267578</ele>
        <time>2010-11-06T15:29:56Z</time>
      </trkpt>
      <trkpt lat="45.00197" lon="4.76608">
        <ele>396.61199951172</ele>
        <time>2010-11-06T15:29:59Z</time>
      </trkpt>
      <trkpt lat="45.00195" lon="4.76599">
        <ele>396.93798828125</ele>
        <time>2010-11-06T15:30:00Z</time>
      </trkpt>
      <trkpt lat="45.00184" lon="4.76568">
        <ele>398.66500854492</ele>
        <time>2010-11-06T15:30:04Z</time>
      </trkpt>
      <trkpt lat="45.00182" lon="4.7656">
        <ele>398.99899291992</ele>
        <time>2010-11-06T15:30:05Z</time>
      </trkpt>
      <trkpt lat="45.00182" lon="4.76528">
        <ele>400.18099975586</ele>
        <time>2010-11-06T15:30:09Z</time>
      </trkpt>
      <trkpt lat="45.00195" lon="4.76517">
        <ele>401.67098999023</ele>
        <time>2010-11-06T15:30:12Z</time>
      </trkpt>
      <trkpt lat="45.00209" lon="4.76498">
        <ele>402.54699707031</ele>
        <time>2010-11-06T15:30:16Z</time>
      </trkpt>
      <trkpt lat="45.00207" lon="4.76478">
        <ele>403.53201293945</ele>
        <time>2010-11-06T15:30:19Z</time>
      </trkpt>
      <trkpt lat="45.00198" lon="4.76461">
        <ele>404.74301147461</ele>
        <time>2010-11-06T15:30:22Z</time>
      </trkpt>
      <trkpt lat="45.00183" lon="4.76432">
        <ele>405.94100952148</ele>
        <time>2010-11-06T15:30:28Z</time>
      </trkpt>
      <trkpt lat="45.0018" lon="4.76403">
        <ele>406.8210144043</ele>
        <time>2010-11-06T15:30:33Z</time>
      </trkpt>
      <trkpt lat="45.00184" lon="4.76356">
        <ele>408.64401245117</ele>
        <time>2010-11-06T15:30:41Z</time>
      </trkpt>
      <trkpt lat="45.00191" lon="4.76327">
        <ele>409.59201049805</ele>
        <time>2010-11-06T15:30:46Z</time>
      </trkpt>
      <trkpt lat="45.00198" lon="4.76318">
        <ele>410.10900878906</ele>
        <time>2010-11-06T15:30:48Z</time>
      </trkpt>
      <trkpt lat="45.00221" lon="4.76303">
        <ele>411.88800048828</ele>
        <time>2010-11-06T15:30:54Z</time>
      </trkpt>
      <trkpt lat="45.0025" lon="4.7629">
        <ele>413.21301269531</ele>
        <time>2010-11-06T15:31:01Z</time>
      </trkpt>
      <trkpt lat="45.00282" lon="4.76276">
        <ele>414.87298583984</ele>
        <time>2010-11-06T15:31:08Z</time>
      </trkpt>
      <trkpt lat="45.00302" lon="4.76273">
        <ele>415.89401245117</ele>
        <time>2010-11-06T15:31:12Z</time>
      </trkpt>
      <trkpt lat="45.00335" lon="4.76271">
        <ele>417.51501464844</ele>
        <time>2010-11-06T15:31:19Z</time>
      </trkpt>
      <trkpt lat="45.00368" lon="4.76271">
        <ele>419.02899169922</ele>
        <time>2010-11-06T15:31:26Z</time>
      </trkpt>
      <trkpt lat="45.004" lon="4.7628">
        <ele>420.49301147461</ele>
        <time>2010-11-06T15:31:33Z</time>
      </trkpt>
      <trkpt lat="45.00425" lon="4.76296">
        <ele>421.87600708008</ele>
        <time>2010-11-06T15:31:39Z</time>
      </trkpt>
      <trkpt lat="45.00444" lon="4.76327">
        <ele>423.24798583984</ele>
        <time>2010-11-06T15:31:45Z</time>
      </trkpt>
      <trkpt lat="45.00463" lon="4.76382">
        <ele>424.78399658203</ele>
        <time>2010-11-06T15:31:53Z</time>
      </trkpt>
      <trkpt lat="45.00483" lon="4.76441">
        <ele>426.51599121094</ele>
        <time>2010-11-06T15:32:01Z</time>
      </trkpt>
      <trkpt lat="45.00507" lon="4.76479">
        <ele>427.66000366211</ele>
        <time>2010-11-06T15:32:07Z</time>
      </trkpt>
      <trkpt lat="45.0054" lon="4.76518">
        <ele>429.24798583984</ele>
        <time>2010-11-06T15:32:14Z</time>
      </trkpt>
      <trkpt lat="45.0058" lon="4.76569">
        <ele>431.17401123047</ele>
        <time>2010-11-06T15:32:23Z</time>
      </trkpt>
      <trkpt lat="45.00608" lon="4.76601">
        <ele>432.76098632812</ele>
        <time>2010-11-06T15:32:29Z</time>
      </trkpt>
      <trkpt lat="45.00641" lon="4.76648">
        <ele>434.51300048828</ele>
        <time>2010-11-06T15:32:37Z</time>
      </trkpt>
      <trkpt lat="45.00672" lon="4.76696">
        <ele>436.36999511719</ele>
        <time>2010-11-06T15:32:45Z</time>
      </trkpt>
      <trkpt lat="45.00691" lon="4.76747">
        <ele>437.66900634766</ele>
        <time>2010-11-06T15:32:52Z</time>
      </trkpt>
      <trkpt lat="45.0071" lon="4.76788">
        <ele>439.04598999023</ele>
        <time>2010-11-06T15:32:58Z</time>
      </trkpt>
      <trkpt lat="45.00746" lon="4.7684">
        <ele>440.94900512695</ele>
        <time>2010-11-06T15:33:07Z</time>
      </trkpt>
      <trkpt lat="45.00763" lon="4.76873">
        <ele>441.8450012207</ele>
        <time>2010-11-06T15:33:12Z</time>
      </trkpt>
      <trkpt lat="45.00771" lon="4.76926">
        <ele>443.48300170898</ele>
        <time>2010-11-06T15:33:19Z</time>
      </trkpt>
      <trkpt lat="45.00766" lon="4.76966">
        <ele>444.17098999023</ele>
        <time>2010-11-06T15:33:24Z</time>
      </trkpt>
      <trkpt lat="45.0075" lon="4.77028">
        <ele>446.46099853516</ele>
        <time>2010-11-06T15:33:32Z</time>
      </trkpt>
      <trkpt lat="45.00732" lon="4.7709">
        <ele>448.21701049805</ele>
        <time>2010-11-06T15:33:40Z</time>
      </trkpt>
      <trkpt lat="45.00715" lon="4.77153">
        <ele>450.28698730469</ele>
        <time>2010-11-06T15:33:49Z</time>
      </trkpt>
      <trkpt lat="45.00702" lon="4.77205">
        <ele>452.15100097656</ele>
        <time>2010-11-06T15:33:57Z</time>
      </trkpt>
      <trkpt lat="45.00701" lon="4.77212">
        <ele>452.38400268555</ele>
        <time>2010-11-06T15:33:58Z</time>
      </trkpt>
      <trkpt lat="45.00701" lon="4.77245">
        <ele>453.14700317383</ele>
        <time>2010-11-06T15:34:03Z</time>
      </trkpt>
      <trkpt lat="45.00708" lon="4.77295">
        <ele>454.04000854492</ele>
        <time>2010-11-06T15:34:10Z</time>
      </trkpt>
      <trkpt lat="45.00724" lon="4.77372">
        <ele>454.80499267578</ele>
        <time>2010-11-06T15:34:20Z</time>
      </trkpt>
      <trkpt lat="45.00743" lon="4.77426">
        <ele>455.38101196289</ele>
        <time>2010-11-06T15:34:27Z</time>
      </trkpt>
      <trkpt lat="45.00767" lon="4.77471">
        <ele>455.87399291992</ele>
        <time>2010-11-06T15:34:33Z</time>
      </trkpt>
      <trkpt lat="45.00792" lon="4.7751">
        <ele>457.41900634766</ele>
        <time>2010-11-06T15:34:39Z</time>
      </trkpt>
      <trkpt lat="45.00825" lon="4.77552">
        <ele>459.03399658203</ele>
        <time>2010-11-06T15:34:46Z</time>
      </trkpt>
      <trkpt lat="45.00867" lon="4.77603">
        <ele>461.8210144043</ele>
        <time>2010-11-06T15:34:55Z</time>
      </trkpt>
      <trkpt lat="45.00899" lon="4.77644">
        <ele>464.06600952148</ele>
        <time>2010-11-06T15:35:03Z</time>
      </trkpt>
      <trkpt lat="45.00927" lon="4.77684">
        <ele>465.69799804688</ele>
        <time>2010-11-06T15:35:11Z</time>
      </trkpt>
      <trkpt lat="45.00934" lon="4.77708">
        <ele>466.82699584961</ele>
        <time>2010-11-06T15:35:15Z</time>
      </trkpt>
      <trkpt lat="45.00937" lon="4.77768">
        <ele>468.71200561523</ele>
        <time>2010-11-06T15:35:24Z</time>
      </trkpt>
      <trkpt lat="45.00938" lon="4.77822">
        <ele>469.48199462891</ele>
        <time>2010-11-06T15:35:31Z</time>
      </trkpt>
      <trkpt lat="45.00941" lon="4.77895">
        <ele>471.60501098633</ele>
        <time>2010-11-06T15:35:40Z</time>
      </trkpt>
      <trkpt lat="45.00942" lon="4.7795">
        <ele>473.64999389648</ele>
        <time>2010-11-06T15:35:47Z</time>
      </trkpt>
      <trkpt lat="45.00943" lon="4.77989">
        <ele>474.82901000977</ele>
        <time>2010-11-06T15:35:53Z</time>
      </trkpt>
      <trkpt lat="45.00946" lon="4.78032">
        <ele>476.22500610352</ele>
        <time>2010-11-06T15:36:00Z</time>
      </trkpt>
      <trkpt lat="45.00945" lon="4.78084">
        <ele>477.3219909668</ele>
        <time>2010-11-06T15:36:08Z</time>
      </trkpt>
      <trkpt lat="45.00946" lon="4.7812">
        <ele>478.38400268555</ele>
        <time>2010-11-06T15:36:14Z</time>
      </trkpt>
      <trkpt lat="45.00954" lon="4.78144">
        <ele>478.53298950195</ele>
        <time>2010-11-06T15:36:18Z</time>
      </trkpt>
      <trkpt lat="45.00973" lon="4.78151">
        <ele>478.99798583984</ele>
        <time>2010-11-06T15:36:22Z</time>
      </trkpt>
      <trkpt lat="45.00999" lon="4.78152">
        <ele>479.12899780273</ele>
        <time>2010-11-06T15:36:27Z</time>
      </trkpt>
      <trkpt lat="45.01015" lon="4.78157">
        <ele>478.8330078125</ele>
        <time>2010-11-06T15:36:30Z</time>
      </trkpt>
      <trkpt lat="45.01039" lon="4.7817">
        <ele>479.00201416016</ele>
        <time>2010-11-06T15:36:35Z</time>
      </trkpt>
      <trkpt lat="45.01046" lon="4.78172">
        <ele>479.61199951172</ele>
        <time>2010-11-06T15:36:38Z</time>
      </trkpt>
      <trkpt lat="45.01047" lon="4.78171">
        <ele>479.72500610352</ele>
        <time>2010-11-06T15:36:40Z</time>
      </trkpt>
      <trkpt lat="45.01048" lon="4.78178">
        <ele>479.42098999023</ele>
        <time>2010-11-06T15:40:57Z</time>
      </trkpt>
      <trkpt lat="45.0106" lon="4.7819">
        <ele>479.20700073242</ele>
        <time>2010-11-06T15:41:02Z</time>
      </trkpt>
      <trkpt lat="45.01082" lon="4.78211">
        <ele>478.68399047852</ele>
        <time>2010-11-06T15:41:09Z</time>
      </trkpt>
      <trkpt lat="45.01112" lon="4.7824">
        <ele>477.74700927734</ele>
        <time>2010-11-06T15:41:17Z</time>
      </trkpt>
      <trkpt lat="45.01125" lon="4.7825">
        <ele>477.50799560547</ele>
        <time>2010-11-06T15:41:20Z</time>
      </trkpt>
      <trkpt lat="45.01168" lon="4.78291">
        <ele>476.40899658203</ele>
        <time>2010-11-06T15:41:30Z</time>
      </trkpt>
      <trkpt lat="45.01202" lon="4.78322">
        <ele>475.50698852539</ele>
        <time>2010-11-06T15:41:37Z</time>
      </trkpt>
      <trkpt lat="45.01242" lon="4.7836">
        <ele>474.33401489258</ele>
        <time>2010-11-06T15:41:45Z</time>
      </trkpt>
      <trkpt lat="45.0127" lon="4.78386">
        <ele>473.09899902344</ele>
        <time>2010-11-06T15:41:50Z</time>
      </trkpt>
      <trkpt lat="45.01288" lon="4.78399">
        <ele>472.76699829102</ele>
        <time>2010-11-06T15:41:53Z</time>
      </trkpt>
      <trkpt lat="45.01307" lon="4.78407">
        <ele>472.6130065918</ele>
        <time>2010-11-06T15:41:56Z</time>
      </trkpt>
      <trkpt lat="45.01342" lon="4.78402">
        <ele>471.75500488281</ele>
        <time>2010-11-06T15:42:01Z</time>
      </trkpt>
      <trkpt lat="45.01349" lon="4.78398">
        <ele>471.51098632812</ele>
        <time>2010-11-06T15:42:02Z</time>
      </trkpt>
      <trkpt lat="45.01423" lon="4.7835">
        <ele>468.98098754883</ele>
        <time>2010-11-06T15:42:12Z</time>
      </trkpt>
      <trkpt lat="45.01467" lon="4.78316">
        <ele>467.96499633789</ele>
        <time>2010-11-06T15:42:18Z</time>
      </trkpt>
      <trkpt lat="45.01518" lon="4.78279">
        <ele>466.91900634766</ele>
        <time>2010-11-06T15:42:25Z</time>
      </trkpt>
      <trkpt lat="45.01596" lon="4.78233">
        <ele>465.14801025391</ele>
        <time>2010-11-06T15:42:35Z</time>
      </trkpt>
      <trkpt lat="45.01644" lon="4.78202">
        <ele>463.70001220703</ele>
        <time>2010-11-06T15:42:41Z</time>
      </trkpt>
      <trkpt lat="45.01666" lon="4.78168">
        <ele>463.10699462891</ele>
        <time>2010-11-06T15:42:45Z</time>
      </trkpt>
      <trkpt lat="45.01673" lon="4.78133">
        <ele>462.95498657227</ele>
        <time>2010-11-06T15:42:48Z</time>
      </trkpt>
      <trkpt lat="45.01677" lon="4.78024">
        <ele>460.95401000977</ele>
        <time>2010-11-06T15:42:57Z</time>
      </trkpt>
      <trkpt lat="45.01678" lon="4.78012">
        <ele>460.73199462891</ele>
        <time>2010-11-06T15:42:58Z</time>
      </trkpt>
      <trkpt lat="45.0169" lon="4.77969">
        <ele>459.71200561523</ele>
        <time>2010-11-06T15:43:02Z</time>
      </trkpt>
      <trkpt lat="45.01695" lon="4.77961">
        <ele>459.57299804688</ele>
        <time>2010-11-06T15:43:03Z</time>
      </trkpt>
      <trkpt lat="45.01704" lon="4.77948">
        <ele>459.40399169922</ele>
        <time>2010-11-06T15:43:05Z</time>
      </trkpt>
      <trkpt lat="45.01718" lon="4.77901">
        <ele>458.07598876953</ele>
        <time>2010-11-06T15:43:10Z</time>
      </trkpt>
      <trkpt lat="45.01724" lon="4.7788">
        <ele>458.07598876953</ele>
        <time>2010-11-06T15:43:12Z</time>
      </trkpt>
      <trkpt lat="45.0174" lon="4.77857">
        <ele>456.95401000977</ele>
        <time>2010-11-06T15:43:15Z</time>
      </trkpt>
      <trkpt lat="45.01755" lon="4.77853">
        <ele>456.43499755859</ele>
        <time>2010-11-06T15:43:17Z</time>
      </trkpt>
      <trkpt lat="45.01778" lon="4.77855">
        <ele>455.18701171875</ele>
        <time>2010-11-06T15:43:20Z</time>
      </trkpt>
      <trkpt lat="45.01825" lon="4.77855">
        <ele>454.52700805664</ele>
        <time>2010-11-06T15:43:26Z</time>
      </trkpt>
      <trkpt lat="45.01882" lon="4.7786">
        <ele>454.29299926758</ele>
        <time>2010-11-06T15:43:33Z</time>
      </trkpt>
      <trkpt lat="45.0192" lon="4.77879">
        <ele>453.58898925781</ele>
        <time>2010-11-06T15:43:38Z</time>
      </trkpt>
      <trkpt lat="45.01956" lon="4.7789">
        <ele>450.50500488281</ele>
        <time>2010-11-06T15:43:42Z</time>
      </trkpt>
      <trkpt lat="45.02016" lon="4.77904">
        <ele>448.96200561523</ele>
        <time>2010-11-06T15:43:48Z</time>
      </trkpt>
      <trkpt lat="45.02048" lon="4.77911">
        <ele>445.65701293945</ele>
        <time>2010-11-06T15:43:51Z</time>
      </trkpt>
      <trkpt lat="45.02076" lon="4.77903">
        <ele>443.01998901367</ele>
        <time>2010-11-06T15:43:54Z</time>
      </trkpt>
      <trkpt lat="45.02079" lon="4.7789">
        <ele>443.01699829102</ele>
        <time>2010-11-06T15:43:55Z</time>
      </trkpt>
      <trkpt lat="45.02082" lon="4.77849">
        <ele>440.19500732422</ele>
        <time>2010-11-06T15:43:58Z</time>
      </trkpt>
      <trkpt lat="45.0209" lon="4.77811">
        <ele>438.42300415039</ele>
        <time>2010-11-06T15:44:01Z</time>
      </trkpt>
      <trkpt lat="45.0209" lon="4.77788">
        <ele>437.84399414062</ele>
        <time>2010-11-06T15:44:03Z</time>
      </trkpt>
      <trkpt lat="45.02103" lon="4.77747">
        <ele>434.47799682617</ele>
        <time>2010-11-06T15:44:07Z</time>
      </trkpt>
      <trkpt lat="45.02119" lon="4.77736">
        <ele>433.53900146484</ele>
        <time>2010-11-06T15:44:09Z</time>
      </trkpt>
      <trkpt lat="45.02164" lon="4.77711">
        <ele>434.25900268555</ele>
        <time>2010-11-06T15:44:15Z</time>
      </trkpt>
      <trkpt lat="45.02171" lon="4.77709">
        <ele>434.31799316406</ele>
        <time>2010-11-06T15:44:16Z</time>
      </trkpt>
      <trkpt lat="45.02197" lon="4.77709">
        <ele>435.82699584961</ele>
        <time>2010-11-06T15:44:20Z</time>
      </trkpt>
      <trkpt lat="45.02208" lon="4.77712">
        <ele>436.75399780273</ele>
        <time>2010-11-06T15:44:22Z</time>
      </trkpt>
      <trkpt lat="45.02232" lon="4.77727">
        <ele>437.68798828125</ele>
        <time>2010-11-06T15:44:27Z</time>
      </trkpt>
      <trkpt lat="45.02252" lon="4.77744">
        <ele>439.06201171875</ele>
        <time>2010-11-06T15:44:32Z</time>
      </trkpt>
      <trkpt lat="45.02259" lon="4.77752">
        <ele>440.52801513672</ele>
        <time>2010-11-06T15:44:34Z</time>
      </trkpt>
      <trkpt lat="45.0227" lon="4.77764">
        <ele>442.23498535156</ele>
        <time>2010-11-06T15:44:37Z</time>
      </trkpt>
      <trkpt lat="45.02301" lon="4.77802">
        <ele>444.23498535156</ele>
        <time>2010-11-06T15:44:45Z</time>
      </trkpt>
      <trkpt lat="45.02325" lon="4.77825">
        <ele>446.43399047852</ele>
        <time>2010-11-06T15:44:51Z</time>
      </trkpt>
      <trkpt lat="45.02355" lon="4.77848">
        <ele>447.62799072266</ele>
        <time>2010-11-06T15:44:57Z</time>
      </trkpt>
      <trkpt lat="45.02401" lon="4.77878">
        <ele>450.18499755859</ele>
        <time>2010-11-06T15:45:06Z</time>
      </trkpt>
      <trkpt lat="45.02451" lon="4.7791">
        <ele>452.05599975586</ele>
        <time>2010-11-06T15:45:16Z</time>
      </trkpt>
      <trkpt lat="45.02491" lon="4.77929">
        <ele>453.38198852539</ele>
        <time>2010-11-06T15:45:24Z</time>
      </trkpt>
      <trkpt lat="45.02533" lon="4.77937">
        <ele>455.53201293945</ele>
        <time>2010-11-06T15:45:32Z</time>
      </trkpt>
      <trkpt lat="45.02569" lon="4.7794">
        <ele>456.73999023438</ele>
        <time>2010-11-06T15:45:39Z</time>
      </trkpt>
      <trkpt lat="45.02609" lon="4.77937">
        <ele>457.57400512695</ele>
        <time>2010-11-06T15:45:47Z</time>
      </trkpt>
      <trkpt lat="45.02644" lon="4.7793">
        <ele>456.96099853516</ele>
        <time>2010-11-06T15:45:53Z</time>
      </trkpt>
      <trkpt lat="45.02674" lon="4.77936">
        <ele>456.59698486328</ele>
        <time>2010-11-06T15:45:58Z</time>
      </trkpt>
      <trkpt lat="45.02714" lon="4.77967">
        <ele>456.09201049805</ele>
        <time>2010-11-06T15:46:05Z</time>
      </trkpt>
      <trkpt lat="45.0273" lon="4.77985">
        <ele>455.94400024414</ele>
        <time>2010-11-06T15:46:08Z</time>
      </trkpt>
      <trkpt lat="45.02748" lon="4.78015">
        <ele>455.89999389648</ele>
        <time>2010-11-06T15:46:12Z</time>
      </trkpt>
      <trkpt lat="45.02774" lon="4.78032">
        <ele>455.65399169922</ele>
        <time>2010-11-06T15:46:16Z</time>
      </trkpt>
      <trkpt lat="45.02781" lon="4.78032">
        <ele>455.65399169922</ele>
        <time>2010-11-06T15:46:17Z</time>
      </trkpt>
      <trkpt lat="45.02823" lon="4.78035">
        <ele>455.59399414062</ele>
        <time>2010-11-06T15:46:23Z</time>
      </trkpt>
      <trkpt lat="45.02861" lon="4.7806">
        <ele>455.85400390625</ele>
        <time>2010-11-06T15:46:29Z</time>
      </trkpt>
      <trkpt lat="45.0288" lon="4.78075">
        <ele>455.72198486328</ele>
        <time>2010-11-06T15:46:32Z</time>
      </trkpt>
      <trkpt lat="45.02901" lon="4.78104">
        <ele>455.64700317383</ele>
        <time>2010-11-06T15:46:36Z</time>
      </trkpt>
      <trkpt lat="45.02919" lon="4.78137">
        <ele>455.09298706055</ele>
        <time>2010-11-06T15:46:40Z</time>
      </trkpt>
      <trkpt lat="45.02927" lon="4.78176">
        <ele>454.81298828125</ele>
        <time>2010-11-06T15:46:44Z</time>
      </trkpt>
      <trkpt lat="45.02919" lon="4.78195">
        <ele>454.28500366211</ele>
        <time>2010-11-06T15:46:46Z</time>
      </trkpt>
      <trkpt lat="45.02909" lon="4.78211">
        <ele>454.59698486328</ele>
        <time>2010-11-06T15:46:48Z</time>
      </trkpt>
      <trkpt lat="45.02896" lon="4.78259">
        <ele>455.43399047852</ele>
        <time>2010-11-06T15:46:53Z</time>
      </trkpt>
      <trkpt lat="45.02893" lon="4.78278">
        <ele>456.18200683594</ele>
        <time>2010-11-06T15:46:55Z</time>
      </trkpt>
      <trkpt lat="45.02881" lon="4.78308">
        <ele>457.31201171875</ele>
        <time>2010-11-06T15:46:59Z</time>
      </trkpt>
      <trkpt lat="45.02876" lon="4.78311">
        <ele>458.01000976562</ele>
        <time>2010-11-06T15:47:00Z</time>
      </trkpt>
      <trkpt lat="45.02861" lon="4.78322">
        <ele>459.39099121094</ele>
        <time>2010-11-06T15:47:03Z</time>
      </trkpt>
      <trkpt lat="45.02855" lon="4.78344">
        <ele>460.44198608398</ele>
        <time>2010-11-06T15:47:06Z</time>
      </trkpt>
      <trkpt lat="45.0286" lon="4.78368">
        <ele>461.0830078125</ele>
        <time>2010-11-06T15:47:09Z</time>
      </trkpt>
      <trkpt lat="45.02879" lon="4.78392">
        <ele>461.72500610352</ele>
        <time>2010-11-06T15:47:13Z</time>
      </trkpt>
      <trkpt lat="45.02925" lon="4.78422">
        <ele>464.43600463867</ele>
        <time>2010-11-06T15:47:21Z</time>
      </trkpt>
      <trkpt lat="45.02969" lon="4.78447">
        <ele>467.37701416016</ele>
        <time>2010-11-06T15:47:29Z</time>
      </trkpt>
      <trkpt lat="45.03006" lon="4.78474">
        <ele>469.65399169922</ele>
        <time>2010-11-06T15:47:37Z</time>
      </trkpt>
      <trkpt lat="45.03039" lon="4.78499">
        <ele>471.31298828125</ele>
        <time>2010-11-06T15:47:44Z</time>
      </trkpt>
      <trkpt lat="45.03065" lon="4.78522">
        <ele>472.28601074219</ele>
        <time>2010-11-06T15:47:50Z</time>
      </trkpt>
      <trkpt lat="45.03079" lon="4.78554">
        <ele>471.89801025391</ele>
        <time>2010-11-06T15:47:55Z</time>
      </trkpt>
      <trkpt lat="45.0308" lon="4.78569">
        <ele>472.25601196289</ele>
        <time>2010-11-06T15:47:57Z</time>
      </trkpt>
      <trkpt lat="45.03082" lon="4.78623">
        <ele>472.50399780273</ele>
        <time>2010-11-06T15:48:04Z</time>
      </trkpt>
      <trkpt lat="45.03086" lon="4.7868">
        <ele>470.91101074219</ele>
        <time>2010-11-06T15:48:10Z</time>
      </trkpt>
      <trkpt lat="45.03086" lon="4.7872">
        <ele>470.33099365234</ele>
        <time>2010-11-06T15:48:14Z</time>
      </trkpt>
      <trkpt lat="45.0308" lon="4.78758">
        <ele>470.5710144043</ele>
        <time>2010-11-06T15:48:18Z</time>
      </trkpt>
      <trkpt lat="45.0308" lon="4.78814">
        <ele>471.90301513672</ele>
        <time>2010-11-06T15:48:24Z</time>
      </trkpt>
      <trkpt lat="45.03083" lon="4.78868">
        <ele>471.90301513672</ele>
        <time>2010-11-06T15:48:30Z</time>
      </trkpt>
      <trkpt lat="45.03097" lon="4.78902">
        <ele>473.47299194336</ele>
        <time>2010-11-06T15:48:34Z</time>
      </trkpt>
      <trkpt lat="45.03112" lon="4.78911">
        <ele>474.87701416016</ele>
        <time>2010-11-06T15:48:36Z</time>
      </trkpt>
      <trkpt lat="45.03172" lon="4.78933">
        <ele>476.97900390625</ele>
        <time>2010-11-06T15:48:43Z</time>
      </trkpt>
      <trkpt lat="45.03216" lon="4.78948">
        <ele>477.58499145508</ele>
        <time>2010-11-06T15:48:49Z</time>
      </trkpt>
      <trkpt lat="45.03262" lon="4.78955">
        <ele>475.64099121094</ele>
        <time>2010-11-06T15:48:55Z</time>
      </trkpt>
      <trkpt lat="45.03312" lon="4.78958">
        <ele>473.36801147461</ele>
        <time>2010-11-06T15:49:01Z</time>
      </trkpt>
      <trkpt lat="45.03378" lon="4.78957">
        <ele>469.13198852539</ele>
        <time>2010-11-06T15:49:08Z</time>
      </trkpt>
      <trkpt lat="45.03431" lon="4.78961">
        <ele>464.84799194336</ele>
        <time>2010-11-06T15:49:13Z</time>
      </trkpt>
      <trkpt lat="45.03509" lon="4.78969">
        <ele>460.4280090332</ele>
        <time>2010-11-06T15:49:20Z</time>
      </trkpt>
      <trkpt lat="45.03549" lon="4.78953">
        <ele>459.28201293945</ele>
        <time>2010-11-06T15:49:24Z</time>
      </trkpt>
      <trkpt lat="45.03603" lon="4.78918">
        <ele>458.19400024414</ele>
        <time>2010-11-06T15:49:30Z</time>
      </trkpt>
      <trkpt lat="45.03647" lon="4.7889">
        <ele>459.31600952148</ele>
        <time>2010-11-06T15:49:36Z</time>
      </trkpt>
      <trkpt lat="45.03706" lon="4.78856">
        <ele>460.73199462891</ele>
        <time>2010-11-06T15:49:45Z</time>
      </trkpt>
      <trkpt lat="45.03731" lon="4.7884">
        <ele>463.0419921875</ele>
        <time>2010-11-06T15:49:50Z</time>
      </trkpt>
      <trkpt lat="45.03766" lon="4.78811">
        <ele>464.83898925781</ele>
        <time>2010-11-06T15:49:57Z</time>
      </trkpt>
      <trkpt lat="45.03795" lon="4.78777">
        <ele>464.02099609375</ele>
        <time>2010-11-06T15:50:03Z</time>
      </trkpt>
      <trkpt lat="45.038" lon="4.78771">
        <ele>463.77801513672</ele>
        <time>2010-11-06T15:50:04Z</time>
      </trkpt>
      <trkpt lat="45.03828" lon="4.78755">
        <ele>463.61099243164</ele>
        <time>2010-11-06T15:50:09Z</time>
      </trkpt>
      <trkpt lat="45.03846" lon="4.78756">
        <ele>463.79299926758</ele>
        <time>2010-11-06T15:50:12Z</time>
      </trkpt>
      <trkpt lat="45.03888" lon="4.78768">
        <ele>462.14999389648</ele>
        <time>2010-11-06T15:50:18Z</time>
      </trkpt>
      <trkpt lat="45.03918" lon="4.78794">
        <ele>462.04699707031</ele>
        <time>2010-11-06T15:50:23Z</time>
      </trkpt>
      <trkpt lat="45.03963" lon="4.78856">
        <ele>459.55499267578</ele>
        <time>2010-11-06T15:50:31Z</time>
      </trkpt>
      <trkpt lat="45.04" lon="4.78905">
        <ele>458.12100219727</ele>
        <time>2010-11-06T15:50:37Z</time>
      </trkpt>
      <trkpt lat="45.04032" lon="4.7895">
        <ele>455.40701293945</ele>
        <time>2010-11-06T15:50:42Z</time>
      </trkpt>
      <trkpt lat="45.04075" lon="4.78994">
        <ele>450.67498779297</ele>
        <time>2010-11-06T15:50:47Z</time>
      </trkpt>
      <trkpt lat="45.04096" lon="4.79009">
        <ele>447.87100219727</ele>
        <time>2010-11-06T15:50:49Z</time>
      </trkpt>
      <trkpt lat="45.04132" lon="4.79054">
        <ele>443.80599975586</ele>
        <time>2010-11-06T15:50:53Z</time>
      </trkpt>
      <trkpt lat="45.04178" lon="4.79112">
        <ele>440.20401000977</ele>
        <time>2010-11-06T15:50:58Z</time>
      </trkpt>
      <trkpt lat="45.04211" lon="4.79126">
        <ele>439.56600952148</ele>
        <time>2010-11-06T15:51:01Z</time>
      </trkpt>
      <trkpt lat="45.04234" lon="4.79131">
        <ele>438.16400146484</ele>
        <time>2010-11-06T15:51:03Z</time>
      </trkpt>
      <trkpt lat="45.04264" lon="4.79158">
        <ele>434.62100219727</ele>
        <time>2010-11-06T15:51:06Z</time>
      </trkpt>
      <trkpt lat="45.0427" lon="4.79174">
        <ele>433.0419921875</ele>
        <time>2010-11-06T15:51:07Z</time>
      </trkpt>
      <trkpt lat="45.04307" lon="4.79243">
        <ele>430.77499389648</ele>
        <time>2010-11-06T15:51:12Z</time>
      </trkpt>
      <trkpt lat="45.04341" lon="4.79253">
        <ele>430.09201049805</ele>
        <time>2010-11-06T15:51:15Z</time>
      </trkpt>
      <trkpt lat="45.04416" lon="4.79261">
        <ele>428.16101074219</ele>
        <time>2010-11-06T15:51:22Z</time>
      </trkpt>
      <trkpt lat="45.04456" lon="4.79262">
        <ele>426.90899658203</ele>
        <time>2010-11-06T15:51:26Z</time>
      </trkpt>
      <trkpt lat="45.04465" lon="4.79261">
        <ele>426.66799926758</ele>
        <time>2010-11-06T15:51:27Z</time>
      </trkpt>
      <trkpt lat="45.04542" lon="4.79252">
        <ele>426.48300170898</ele>
        <time>2010-11-06T15:51:35Z</time>
      </trkpt>
      <trkpt lat="45.04581" lon="4.7925">
        <ele>426.24899291992</ele>
        <time>2010-11-06T15:51:39Z</time>
      </trkpt>
      <trkpt lat="45.04591" lon="4.79249">
        <ele>426.10998535156</ele>
        <time>2010-11-06T15:51:40Z</time>
      </trkpt>
      <trkpt lat="45.0462" lon="4.79251">
        <ele>426</ele>
        <time>2010-11-06T15:51:43Z</time>
      </trkpt>
      <trkpt lat="45.04666" lon="4.7927">
        <ele>426.42700195312</ele>
        <time>2010-11-06T15:51:48Z</time>
      </trkpt>
      <trkpt lat="45.04721" lon="4.79302">
        <ele>423.90200805664</ele>
        <time>2010-11-06T15:51:54Z</time>
      </trkpt>
      <trkpt lat="45.04731" lon="4.79307">
        <ele>423.19900512695</ele>
        <time>2010-11-06T15:51:55Z</time>
      </trkpt>
      <trkpt lat="45.04772" lon="4.79309">
        <ele>421.12899780273</ele>
        <time>2010-11-06T15:51:59Z</time>
      </trkpt>
      <trkpt lat="45.04826" lon="4.79306">
        <ele>417.53799438477</ele>
        <time>2010-11-06T15:52:04Z</time>
      </trkpt>
      <trkpt lat="45.04853" lon="4.79332">
        <ele>415.79299926758</ele>
        <time>2010-11-06T15:52:07Z</time>
      </trkpt>
      <trkpt lat="45.04883" lon="4.79379">
        <ele>412.88900756836</ele>
        <time>2010-11-06T15:52:11Z</time>
      </trkpt>
      <trkpt lat="45.04932" lon="4.79425">
        <ele>409.27099609375</ele>
        <time>2010-11-06T15:52:16Z</time>
      </trkpt>
      <trkpt lat="45.04948" lon="4.79462">
        <ele>407.84899902344</ele>
        <time>2010-11-06T15:52:19Z</time>
      </trkpt>
      <trkpt lat="45.04939" lon="4.7949">
        <ele>406.90301513672</ele>
        <time>2010-11-06T15:52:21Z</time>
      </trkpt>
      <trkpt lat="45.04933" lon="4.79517">
        <ele>405.03601074219</ele>
        <time>2010-11-06T15:52:23Z</time>
      </trkpt>
      <trkpt lat="45.04945" lon="4.7954">
        <ele>404.35598754883</ele>
        <time>2010-11-06T15:52:25Z</time>
      </trkpt>
      <trkpt lat="45.0497" lon="4.79595">
        <ele>404.08099365234</ele>
        <time>2010-11-06T15:52:30Z</time>
      </trkpt>
      <trkpt lat="45.04984" lon="4.79614">
        <ele>402.67300415039</ele>
        <time>2010-11-06T15:52:32Z</time>
      </trkpt>
      <trkpt lat="45.05003" lon="4.79622">
        <ele>402.03298950195</ele>
        <time>2010-11-06T15:52:34Z</time>
      </trkpt>
      <trkpt lat="45.05043" lon="4.79631">
        <ele>400.46701049805</ele>
        <time>2010-11-06T15:52:38Z</time>
      </trkpt>
      <trkpt lat="45.05058" lon="4.79657">
        <ele>399.33700561523</ele>
        <time>2010-11-06T15:52:41Z</time>
      </trkpt>
      <trkpt lat="45.05049" lon="4.79676">
        <ele>398.85299682617</ele>
        <time>2010-11-06T15:52:43Z</time>
      </trkpt>
      <trkpt lat="45.05025" lon="4.79727">
        <ele>396.95599365234</ele>
        <time>2010-11-06T15:52:48Z</time>
      </trkpt>
      <trkpt lat="45.05033" lon="4.79751">
        <ele>396.14599609375</ele>
        <time>2010-11-06T15:52:50Z</time>
      </trkpt>
      <trkpt lat="45.05041" lon="4.7976">
        <ele>395.87200927734</ele>
        <time>2010-11-06T15:52:51Z</time>
      </trkpt>
      <trkpt lat="45.05052" lon="4.79807">
        <ele>394.30599975586</ele>
        <time>2010-11-06T15:52:55Z</time>
      </trkpt>
      <trkpt lat="45.05037" lon="4.79824">
        <ele>393.33099365234</ele>
        <time>2010-11-06T15:52:57Z</time>
      </trkpt>
      <trkpt lat="45.04973" lon="4.79868">
        <ele>389.3630065918</ele>
        <time>2010-11-06T15:53:04Z</time>
      </trkpt>
      <trkpt lat="45.04959" lon="4.79886">
        <ele>388.67599487305</ele>
        <time>2010-11-06T15:53:06Z</time>
      </trkpt>
      <trkpt lat="45.04963" lon="4.79912">
        <ele>388.43399047852</ele>
        <time>2010-11-06T15:53:08Z</time>
      </trkpt>
      <trkpt lat="45.04976" lon="4.79926">
        <ele>388.32901000977</ele>
        <time>2010-11-06T15:53:10Z</time>
      </trkpt>
      <trkpt lat="45.04984" lon="4.7993">
        <ele>388.19500732422</ele>
        <time>2010-11-06T15:53:11Z</time>
      </trkpt>
      <trkpt lat="45.05019" lon="4.79953">
        <ele>386.11599731445</ele>
        <time>2010-11-06T15:53:15Z</time>
      </trkpt>
      <trkpt lat="45.0506" lon="4.79965">
        <ele>383.28399658203</ele>
        <time>2010-11-06T15:53:19Z</time>
      </trkpt>
      <trkpt lat="45.05082" lon="4.79965">
        <ele>382.05899047852</ele>
        <time>2010-11-06T15:53:21Z</time>
      </trkpt>
      <trkpt lat="45.05112" lon="4.79978">
        <ele>380.68899536133</ele>
        <time>2010-11-06T15:53:24Z</time>
      </trkpt>
      <trkpt lat="45.05121" lon="4.80006">
        <ele>379.69400024414</ele>
        <time>2010-11-06T15:53:26Z</time>
      </trkpt>
      <trkpt lat="45.05119" lon="4.80019">
        <ele>379.03399658203</ele>
        <time>2010-11-06T15:53:27Z</time>
      </trkpt>
      <trkpt lat="45.05137" lon="4.80056">
        <ele>376.79501342773</ele>
        <time>2010-11-06T15:53:31Z</time>
      </trkpt>
      <trkpt lat="45.05146" lon="4.80056">
        <ele>376.24600219727</ele>
        <time>2010-11-06T15:53:32Z</time>
      </trkpt>
      <trkpt lat="45.05191" lon="4.80065">
        <ele>373.69900512695</ele>
        <time>2010-11-06T15:53:36Z</time>
      </trkpt>
      <trkpt lat="45.05225" lon="4.80072">
        <ele>371.75399780273</ele>
        <time>2010-11-06T15:53:39Z</time>
      </trkpt>
      <trkpt lat="45.05254" lon="4.801">
        <ele>369.71398925781</ele>
        <time>2010-11-06T15:53:42Z</time>
      </trkpt>
      <trkpt lat="45.05266" lon="4.80132">
        <ele>368.54400634766</ele>
        <time>2010-11-06T15:53:44Z</time>
      </trkpt>
      <trkpt lat="45.05258" lon="4.80162">
        <ele>367.2619934082</ele>
        <time>2010-11-06T15:53:46Z</time>
      </trkpt>
      <trkpt lat="45.0525" lon="4.80173">
        <ele>366.94500732422</ele>
        <time>2010-11-06T15:53:47Z</time>
      </trkpt>
      <trkpt lat="45.05236" lon="4.80226">
        <ele>365.5539855957</ele>
        <time>2010-11-06T15:53:51Z</time>
      </trkpt>
      <trkpt lat="45.05256" lon="4.80242">
        <ele>364.13800048828</ele>
        <time>2010-11-06T15:53:53Z</time>
      </trkpt>
      <trkpt lat="45.05267" lon="4.80245">
        <ele>363.82400512695</ele>
        <time>2010-11-06T15:53:54Z</time>
      </trkpt>
      <trkpt lat="45.05299" lon="4.80251">
        <ele>362.49700927734</ele>
        <time>2010-11-06T15:53:57Z</time>
      </trkpt>
      <trkpt lat="45.05323" lon="4.80282">
        <ele>360.20300292969</ele>
        <time>2010-11-06T15:54:00Z</time>
      </trkpt>
      <trkpt lat="45.05319" lon="4.80313">
        <ele>358.72198486328</ele>
        <time>2010-11-06T15:54:02Z</time>
      </trkpt>
      <trkpt lat="45.05305" lon="4.80338">
        <ele>357.66101074219</ele>
        <time>2010-11-06T15:54:04Z</time>
      </trkpt>
      <trkpt lat="45.05273" lon="4.80361">
        <ele>356.15701293945</ele>
        <time>2010-11-06T15:54:07Z</time>
      </trkpt>
      <trkpt lat="45.05203" lon="4.8039">
        <ele>351.74301147461</ele>
        <time>2010-11-06T15:54:13Z</time>
      </trkpt>
      <trkpt lat="45.0517" lon="4.80412">
        <ele>350.36099243164</ele>
        <time>2010-11-06T15:54:16Z</time>
      </trkpt>
      <trkpt lat="45.05144" lon="4.80446">
        <ele>347.65701293945</ele>
        <time>2010-11-06T15:54:19Z</time>
      </trkpt>
      <trkpt lat="45.05134" lon="4.80497">
        <ele>345.11999511719</ele>
        <time>2010-11-06T15:54:22Z</time>
      </trkpt>
      <trkpt lat="45.05133" lon="4.80514">
        <ele>344.97698974609</ele>
        <time>2010-11-06T15:54:23Z</time>
      </trkpt>
      <trkpt lat="45.05142" lon="4.80561">
        <ele>345.69400024414</ele>
        <time>2010-11-06T15:54:26Z</time>
      </trkpt>
      <trkpt lat="45.05152" lon="4.80587">
        <ele>346.49798583984</ele>
        <time>2010-11-06T15:54:28Z</time>
      </trkpt>
      <trkpt lat="45.05181" lon="4.80627">
        <ele>346.52801513672</ele>
        <time>2010-11-06T15:54:32Z</time>
      </trkpt>
      <trkpt lat="45.05189" lon="4.80635">
        <ele>346.71301269531</ele>
        <time>2010-11-06T15:54:33Z</time>
      </trkpt>
      <trkpt lat="45.05207" lon="4.80648">
        <ele>346.89999389648</ele>
        <time>2010-11-06T15:54:35Z</time>
      </trkpt>
      <trkpt lat="45.05235" lon="4.80681">
        <ele>347.51599121094</ele>
        <time>2010-11-06T15:54:39Z</time>
      </trkpt>
      <trkpt lat="45.05253" lon="4.80712">
        <ele>346.39199829102</ele>
        <time>2010-11-06T15:54:42Z</time>
      </trkpt>
      <trkpt lat="45.05272" lon="4.80777">
        <ele>344.23599243164</ele>
        <time>2010-11-06T15:54:47Z</time>
      </trkpt>
      <trkpt lat="45.05293" lon="4.80869">
        <ele>343.27600097656</ele>
        <time>2010-11-06T15:54:54Z</time>
      </trkpt>
      <trkpt lat="45.05308" lon="4.80908">
        <ele>345.12100219727</ele>
        <time>2010-11-06T15:54:58Z</time>
      </trkpt>
      <trkpt lat="45.05317" lon="4.80931">
        <ele>346.52700805664</ele>
        <time>2010-11-06T15:55:01Z</time>
      </trkpt>
      <trkpt lat="45.05321" lon="4.80939">
        <ele>346.54299926758</ele>
        <time>2010-11-06T15:55:02Z</time>
      </trkpt>
      <trkpt lat="45.05329" lon="4.80969">
        <ele>348.07998657227</ele>
        <time>2010-11-06T15:55:06Z</time>
      </trkpt>
      <trkpt lat="45.05331" lon="4.80991">
        <ele>349.58401489258</ele>
        <time>2010-11-06T15:55:09Z</time>
      </trkpt>
      <trkpt lat="45.05325" lon="4.81021">
        <ele>350.75500488281</ele>
        <time>2010-11-06T15:55:13Z</time>
      </trkpt>
      <trkpt lat="45.05319" lon="4.81036">
        <ele>351.54098510742</ele>
        <time>2010-11-06T15:55:15Z</time>
      </trkpt>
      <trkpt lat="45.05313" lon="4.81074">
        <ele>353.77301025391</ele>
        <time>2010-11-06T15:55:20Z</time>
      </trkpt>
      <trkpt lat="45.05315" lon="4.81098">
        <ele>354.94400024414</ele>
        <time>2010-11-06T15:55:23Z</time>
      </trkpt>
      <trkpt lat="45.05315" lon="4.81122">
        <ele>355.75201416016</ele>
        <time>2010-11-06T15:55:26Z</time>
      </trkpt>
      <trkpt lat="45.05323" lon="4.8114">
        <ele>356.85998535156</ele>
        <time>2010-11-06T15:55:29Z</time>
      </trkpt>
      <trkpt lat="45.05332" lon="4.81132">
        <ele>357.70401000977</ele>
        <time>2010-11-06T15:55:31Z</time>
      </trkpt>
      <trkpt lat="45.05334" lon="4.81125">
        <ele>358.42498779297</ele>
        <time>2010-11-06T15:55:32Z</time>
      </trkpt>
      <trkpt lat="45.05349" lon="4.81088">
        <ele>360.41799926758</ele>
        <time>2010-11-06T15:55:38Z</time>
      </trkpt>
      <trkpt lat="45.05372" lon="4.81065">
        <ele>361.79000854492</ele>
        <time>2010-11-06T15:55:44Z</time>
      </trkpt>
      <trkpt lat="45.05376" lon="4.81064">
        <ele>361.95700073242</ele>
        <time>2010-11-06T15:55:45Z</time>
      </trkpt>
      <trkpt lat="45.05424" lon="4.81056">
        <ele>365.06698608398</ele>
        <time>2010-11-06T15:55:56Z</time>
      </trkpt>
      <trkpt lat="45.05454" lon="4.81053">
        <ele>366.81698608398</ele>
        <time>2010-11-06T15:56:03Z</time>
      </trkpt>
      <trkpt lat="45.0548" lon="4.81054">
        <ele>369.00900268555</ele>
        <time>2010-11-06T15:56:09Z</time>
      </trkpt>
      <trkpt lat="45.05516" lon="4.81064">
        <ele>370.90701293945</ele>
        <time>2010-11-06T15:56:17Z</time>
      </trkpt>
      <trkpt lat="45.05545" lon="4.81078">
        <ele>372.19500732422</ele>
        <time>2010-11-06T15:56:23Z</time>
      </trkpt>
      <trkpt lat="45.05572" lon="4.81094">
        <ele>373.69100952148</ele>
        <time>2010-11-06T15:56:29Z</time>
      </trkpt>
      <trkpt lat="45.05576" lon="4.81096">
        <ele>373.63000488281</ele>
        <time>2010-11-06T15:56:30Z</time>
      </trkpt>
      <trkpt lat="45.05589" lon="4.81106">
        <ele>373.59799194336</ele>
        <time>2010-11-06T15:56:33Z</time>
      </trkpt>
      <trkpt lat="45.0563" lon="4.81133">
        <ele>372.35000610352</ele>
        <time>2010-11-06T15:56:42Z</time>
      </trkpt>
      <trkpt lat="45.0564" lon="4.81141">
        <ele>371.52398681641</ele>
        <time>2010-11-06T15:56:44Z</time>
      </trkpt>
      <trkpt lat="45.05656" lon="4.81159">
        <ele>370.39801025391</ele>
        <time>2010-11-06T15:56:47Z</time>
      </trkpt>
      <trkpt lat="45.05683" lon="4.81204">
        <ele>366.8630065918</ele>
        <time>2010-11-06T15:56:52Z</time>
      </trkpt>
      <trkpt lat="45.05702" lon="4.81232">
        <ele>365.39599609375</ele>
        <time>2010-11-06T15:56:55Z</time>
      </trkpt>
      <trkpt lat="45.05714" lon="4.8125">
        <ele>364.67999267578</ele>
        <time>2010-11-06T15:56:57Z</time>
      </trkpt>
      <trkpt lat="45.05719" lon="4.8126">
        <ele>364.67001342773</ele>
        <time>2010-11-06T15:56:58Z</time>
      </trkpt>
      <trkpt lat="45.05733" lon="4.813">
        <ele>364.63800048828</ele>
        <time>2010-11-06T15:57:02Z</time>
      </trkpt>
      <trkpt lat="45.0575" lon="4.81338">
        <ele>363.53399658203</ele>
        <time>2010-11-06T15:57:06Z</time>
      </trkpt>
      <trkpt lat="45.05772" lon="4.81384">
        <ele>359.17001342773</ele>
        <time>2010-11-06T15:57:10Z</time>
      </trkpt>
      <trkpt lat="45.05778" lon="4.81396">
        <ele>358.91500854492</ele>
        <time>2010-11-06T15:57:11Z</time>
      </trkpt>
      <trkpt lat="45.05806" lon="4.81428">
        <ele>358.94900512695</ele>
        <time>2010-11-06T15:57:15Z</time>
      </trkpt>
      <trkpt lat="45.05829" lon="4.81436">
        <ele>360.01998901367</ele>
        <time>2010-11-06T15:57:18Z</time>
      </trkpt>
      <trkpt lat="45.05844" lon="4.81438">
        <ele>360.85198974609</ele>
        <time>2010-11-06T15:57:20Z</time>
      </trkpt>
      <trkpt lat="45.05869" lon="4.8146">
        <ele>362.49301147461</ele>
        <time>2010-11-06T15:57:24Z</time>
      </trkpt>
      <trkpt lat="45.05907" lon="4.81521">
        <ele>365.23999023438</ele>
        <time>2010-11-06T15:57:31Z</time>
      </trkpt>
      <trkpt lat="45.05928" lon="4.81564">
        <ele>365.89001464844</ele>
        <time>2010-11-06T15:57:36Z</time>
      </trkpt>
      <trkpt lat="45.05951" lon="4.81597">
        <ele>364.32998657227</ele>
        <time>2010-11-06T15:57:40Z</time>
      </trkpt>
      <trkpt lat="45.05968" lon="4.81636">
        <ele>364.0119934082</ele>
        <time>2010-11-06T15:57:44Z</time>
      </trkpt>
      <trkpt lat="45.05989" lon="4.81697">
        <ele>364.29000854492</ele>
        <time>2010-11-06T15:57:50Z</time>
      </trkpt>
      <trkpt lat="45.06012" lon="4.81755">
        <ele>364.93899536133</ele>
        <time>2010-11-06T15:57:56Z</time>
      </trkpt>
      <trkpt lat="45.06015" lon="4.81797">
        <ele>364.46200561523</ele>
        <time>2010-11-06T15:58:00Z</time>
      </trkpt>
      <trkpt lat="45.06013" lon="4.81807">
        <ele>364.56799316406</ele>
        <time>2010-11-06T15:58:01Z</time>
      </trkpt>
      <trkpt lat="45.06002" lon="4.81863">
        <ele>365.47500610352</ele>
        <time>2010-11-06T15:58:08Z</time>
      </trkpt>
      <trkpt lat="45.05999" lon="4.81914">
        <ele>363.53900146484</ele>
        <time>2010-11-06T15:58:14Z</time>
      </trkpt>
      <trkpt lat="45.05997" lon="4.81982">
        <ele>360.59201049805</ele>
        <time>2010-11-06T15:58:20Z</time>
      </trkpt>
      <trkpt lat="45.05997" lon="4.82032">
        <ele>359.70498657227</ele>
        <time>2010-11-06T15:58:24Z</time>
      </trkpt>
      <trkpt lat="45.05997" lon="4.82046">
        <ele>359.51998901367</ele>
        <time>2010-11-06T15:58:25Z</time>
      </trkpt>
      <trkpt lat="45.05985" lon="4.82081">
        <ele>358.18899536133</ele>
        <time>2010-11-06T15:58:28Z</time>
      </trkpt>
      <trkpt lat="45.05968" lon="4.82097">
        <ele>357.12701416016</ele>
        <time>2010-11-06T15:58:30Z</time>
      </trkpt>
      <trkpt lat="45.05899" lon="4.82148">
        <ele>354.26000976562</ele>
        <time>2010-11-06T15:58:37Z</time>
      </trkpt>
      <trkpt lat="45.05865" lon="4.82173">
        <ele>349.57501220703</ele>
        <time>2010-11-06T15:58:40Z</time>
      </trkpt>
      <trkpt lat="45.05814" lon="4.82191">
        <ele>344.24301147461</ele>
        <time>2010-11-06T15:58:44Z</time>
      </trkpt>
      <trkpt lat="45.058" lon="4.82193">
        <ele>342.77600097656</ele>
        <time>2010-11-06T15:58:45Z</time>
      </trkpt>
      <trkpt lat="45.05747" lon="4.82219">
        <ele>337.64401245117</ele>
        <time>2010-11-06T15:58:49Z</time>
      </trkpt>
      <trkpt lat="45.05741" lon="4.8225">
        <ele>336.86999511719</ele>
        <time>2010-11-06T15:58:51Z</time>
      </trkpt>
      <trkpt lat="45.05753" lon="4.82276">
        <ele>335.72698974609</ele>
        <time>2010-11-06T15:58:53Z</time>
      </trkpt>
      <trkpt lat="45.05773" lon="4.82316">
        <ele>332.03500366211</ele>
        <time>2010-11-06T15:58:56Z</time>
      </trkpt>
      <trkpt lat="45.05766" lon="4.82357">
        <ele>328.36099243164</ele>
        <time>2010-11-06T15:58:59Z</time>
      </trkpt>
      <trkpt lat="45.05742" lon="4.82362">
        <ele>326.50799560547</ele>
        <time>2010-11-06T15:59:01Z</time>
      </trkpt>
      <trkpt lat="45.05719" lon="4.82372">
        <ele>323.62600708008</ele>
        <time>2010-11-06T15:59:03Z</time>
      </trkpt>
      <trkpt lat="45.05686" lon="4.82398">
        <ele>319.45700073242</ele>
        <time>2010-11-06T15:59:06Z</time>
      </trkpt>
      <trkpt lat="45.05659" lon="4.82397">
        <ele>316.64099121094</ele>
        <time>2010-11-06T15:59:08Z</time>
      </trkpt>
      <trkpt lat="45.05643" lon="4.82418">
        <ele>315.39700317383</ele>
        <time>2010-11-06T15:59:10Z</time>
      </trkpt>
      <trkpt lat="45.05628" lon="4.82444">
        <ele>313.52700805664</ele>
        <time>2010-11-06T15:59:12Z</time>
      </trkpt>
      <trkpt lat="45.05577" lon="4.82487">
        <ele>307.03601074219</ele>
        <time>2010-11-06T15:59:17Z</time>
      </trkpt>
      <trkpt lat="45.05552" lon="4.82481">
        <ele>305.22299194336</ele>
        <time>2010-11-06T15:59:19Z</time>
      </trkpt>
      <trkpt lat="45.05539" lon="4.82483">
        <ele>304.33499145508</ele>
        <time>2010-11-06T15:59:20Z</time>
      </trkpt>
      <trkpt lat="45.05514" lon="4.82487">
        <ele>302.53698730469</ele>
        <time>2010-11-06T15:59:22Z</time>
      </trkpt>
      <trkpt lat="45.05493" lon="4.82511">
        <ele>300.46301269531</ele>
        <time>2010-11-06T15:59:25Z</time>
      </trkpt>
      <trkpt lat="45.05497" lon="4.82538">
        <ele>298.3330078125</ele>
        <time>2010-11-06T15:59:27Z</time>
      </trkpt>
      <trkpt lat="45.05512" lon="4.82561">
        <ele>296.99301147461</ele>
        <time>2010-11-06T15:59:29Z</time>
      </trkpt>
      <trkpt lat="45.05523" lon="4.8257">
        <ele>295.75698852539</ele>
        <time>2010-11-06T15:59:30Z</time>
      </trkpt>
      <trkpt lat="45.05566" lon="4.82611">
        <ele>289.93499755859</ele>
        <time>2010-11-06T15:59:34Z</time>
      </trkpt>
      <trkpt lat="45.05601" lon="4.82606">
        <ele>287.65301513672</ele>
        <time>2010-11-06T15:59:37Z</time>
      </trkpt>
      <trkpt lat="45.05613" lon="4.826">
        <ele>286.73400878906</ele>
        <time>2010-11-06T15:59:38Z</time>
      </trkpt>
      <trkpt lat="45.05674" lon="4.82609">
        <ele>282.20599365234</ele>
        <time>2010-11-06T15:59:43Z</time>
      </trkpt>
      <trkpt lat="45.05692" lon="4.82632">
        <ele>280.20901489258</ele>
        <time>2010-11-06T15:59:45Z</time>
      </trkpt>
      <trkpt lat="45.05696" lon="4.82666">
        <ele>278.1369934082</ele>
        <time>2010-11-06T15:59:47Z</time>
      </trkpt>
      <trkpt lat="45.05708" lon="4.82695">
        <ele>275.70098876953</ele>
        <time>2010-11-06T15:59:49Z</time>
      </trkpt>
      <trkpt lat="45.05733" lon="4.82728">
        <ele>273.09600830078</ele>
        <time>2010-11-06T15:59:52Z</time>
      </trkpt>
      <trkpt lat="45.05749" lon="4.82739">
        <ele>271.49499511719</ele>
        <time>2010-11-06T15:59:54Z</time>
      </trkpt>
      <trkpt lat="45.05759" lon="4.82734">
        <ele>270.79501342773</ele>
        <time>2010-11-06T15:59:55Z</time>
      </trkpt>
      <trkpt lat="45.058" lon="4.8273">
        <ele>267.09698486328</ele>
        <time>2010-11-06T15:59:59Z</time>
      </trkpt>
      <trkpt lat="45.05827" lon="4.82713">
        <ele>264.34899902344</ele>
        <time>2010-11-06T16:00:02Z</time>
      </trkpt>
      <trkpt lat="45.05855" lon="4.82702">
        <ele>262.44900512695</ele>
        <time>2010-11-06T16:00:05Z</time>
      </trkpt>
      <trkpt lat="45.0587" lon="4.82725">
        <ele>260.3330078125</ele>
        <time>2010-11-06T16:00:07Z</time>
      </trkpt>
      <trkpt lat="45.05898" lon="4.82756">
        <ele>257.0119934082</ele>
        <time>2010-11-06T16:00:10Z</time>
      </trkpt>
      <trkpt lat="45.05922" lon="4.82747">
        <ele>254.54699707031</ele>
        <time>2010-11-06T16:00:12Z</time>
      </trkpt>
      <trkpt lat="45.05947" lon="4.82751">
        <ele>252.32699584961</ele>
        <time>2010-11-06T16:00:14Z</time>
      </trkpt>
      <trkpt lat="45.05974" lon="4.82749">
        <ele>249.34199523926</ele>
        <time>2010-11-06T16:00:16Z</time>
      </trkpt>
      <trkpt lat="45.05986" lon="4.82741">
        <ele>247.96099853516</ele>
        <time>2010-11-06T16:00:17Z</time>
      </trkpt>
      <trkpt lat="45.06015" lon="4.82742">
        <ele>246.71099853516</ele>
        <time>2010-11-06T16:00:21Z</time>
      </trkpt>
      <trkpt lat="45.06011" lon="4.82771">
        <ele>245.36500549316</ele>
        <time>2010-11-06T16:00:23Z</time>
      </trkpt>
      <trkpt lat="45.05991" lon="4.82812">
        <ele>241.58200073242</ele>
        <time>2010-11-06T16:00:26Z</time>
      </trkpt>
      <trkpt lat="45.05968" lon="4.8286">
        <ele>237.43400573731</ele>
        <time>2010-11-06T16:00:29Z</time>
      </trkpt>
      <trkpt lat="45.05956" lon="4.82872">
        <ele>235.74800109863</ele>
        <time>2010-11-06T16:00:30Z</time>
      </trkpt>
      <trkpt lat="45.0593" lon="4.82893">
        <ele>232.95199584961</ele>
        <time>2010-11-06T16:00:32Z</time>
      </trkpt>
      <trkpt lat="45.0588" lon="4.82946">
        <ele>227.90800476074</ele>
        <time>2010-11-06T16:00:36Z</time>
      </trkpt>
      <trkpt lat="45.05839" lon="4.82969">
        <ele>225.16499328613</ele>
        <time>2010-11-06T16:00:39Z</time>
      </trkpt>
      <trkpt lat="45.05821" lon="4.82986">
        <ele>224.25900268555</ele>
        <time>2010-11-06T16:00:41Z</time>
      </trkpt>
      <trkpt lat="45.05825" lon="4.83011">
        <ele>223.72500610352</ele>
        <time>2010-11-06T16:00:43Z</time>
      </trkpt>
      <trkpt lat="45.05841" lon="4.8303">
        <ele>221.64500427246</ele>
        <time>2010-11-06T16:00:45Z</time>
      </trkpt>
      <trkpt lat="45.05848" lon="4.83043">
        <ele>220.14500427246</ele>
        <time>2010-11-06T16:00:46Z</time>
      </trkpt>
      <trkpt lat="45.05887" lon="4.83078">
        <ele>215.56500244141</ele>
        <time>2010-11-06T16:00:50Z</time>
      </trkpt>
      <trkpt lat="45.05923" lon="4.83095">
        <ele>211.87199401856</ele>
        <time>2010-11-06T16:00:53Z</time>
      </trkpt>
      <trkpt lat="45.05951" lon="4.83093">
        <ele>209.03999328613</ele>
        <time>2010-11-06T16:00:55Z</time>
      </trkpt>
      <trkpt lat="45.05979" lon="4.831">
        <ele>206.6549987793</ele>
        <time>2010-11-06T16:00:57Z</time>
      </trkpt>
      <trkpt lat="45.06006" lon="4.83098">
        <ele>204.07000732422</ele>
        <time>2010-11-06T16:00:59Z</time>
      </trkpt>
      <trkpt lat="45.0603" lon="4.83096">
        <ele>203.12699890137</ele>
        <time>2010-11-06T16:01:01Z</time>
      </trkpt>
      <trkpt lat="45.06042" lon="4.83121">
        <ele>201.7140045166</ele>
        <time>2010-11-06T16:01:03Z</time>
      </trkpt>
      <trkpt lat="45.06057" lon="4.83144">
        <ele>200.31900024414</ele>
        <time>2010-11-06T16:01:05Z</time>
      </trkpt>
      <trkpt lat="45.06082" lon="4.83149">
        <ele>197.52900695801</ele>
        <time>2010-11-06T16:01:07Z</time>
      </trkpt>
      <trkpt lat="45.06106" lon="4.83162">
        <ele>194.95899963379</ele>
        <time>2010-11-06T16:01:09Z</time>
      </trkpt>
      <trkpt lat="45.06156" lon="4.83179">
        <ele>189.30499267578</ele>
        <time>2010-11-06T16:01:13Z</time>
      </trkpt>
      <trkpt lat="45.06168" lon="4.83173">
        <ele>188.34399414062</ele>
        <time>2010-11-06T16:01:14Z</time>
      </trkpt>
      <trkpt lat="45.06203" lon="4.83191">
        <ele>185.71200561523</ele>
        <time>2010-11-06T16:01:17Z</time>
      </trkpt>
      <trkpt lat="45.0623" lon="4.83199">
        <ele>183.41600036621</ele>
        <time>2010-11-06T16:01:19Z</time>
      </trkpt>
      <trkpt lat="45.06273" lon="4.83198">
        <ele>177.84199523926</ele>
        <time>2010-11-06T16:01:22Z</time>
      </trkpt>
      <trkpt lat="45.06361" lon="4.83181">
        <ele>170.2559967041</ele>
        <time>2010-11-06T16:01:28Z</time>
      </trkpt>
      <trkpt lat="45.06451" lon="4.8317">
        <ele>163.50100708008</ele>
        <time>2010-11-06T16:01:34Z</time>
      </trkpt>
      <trkpt lat="45.0651" lon="4.83151">
        <ele>157.56799316406</ele>
        <time>2010-11-06T16:01:38Z</time>
      </trkpt>
      <trkpt lat="45.06556" lon="4.8314">
        <ele>154.55900573731</ele>
        <time>2010-11-06T16:01:41Z</time>
      </trkpt>
      <trkpt lat="45.06599" lon="4.83132">
        <ele>150.79800415039</ele>
        <time>2010-11-06T16:01:44Z</time>
      </trkpt>
      <trkpt lat="45.06609" lon="4.8313">
        <ele>150.63800048828</ele>
        <time>2010-11-06T16:01:45Z</time>
      </trkpt>
      <trkpt lat="45.06615" lon="4.83146">
        <ele>150.62300109863</ele>
        <time>2010-11-06T16:01:48Z</time>
      </trkpt>
      <trkpt lat="45.06604" lon="4.83162">
        <ele>149.33799743652</ele>
        <time>2010-11-06T16:01:50Z</time>
      </trkpt>
      <trkpt lat="45.06564" lon="4.83199">
        <ele>145.27600097656</ele>
        <time>2010-11-06T16:01:55Z</time>
      </trkpt>
      <trkpt lat="45.06546" lon="4.83215">
        <ele>144.21099853516</ele>
        <time>2010-11-06T16:01:57Z</time>
      </trkpt>
      <trkpt lat="45.06527" lon="4.83247">
        <ele>144.21099853516</ele>
        <time>2010-11-06T16:02:00Z</time>
      </trkpt>
      <trkpt lat="45.06525" lon="4.83261">
        <ele>144.21099853516</ele>
        <time>2010-11-06T16:02:01Z</time>
      </trkpt>
      <trkpt lat="45.06519" lon="4.83338">
        <ele>141.94099426269</ele>
        <time>2010-11-06T16:02:06Z</time>
      </trkpt>
      <trkpt lat="45.0652" lon="4.83375">
        <ele>140.33200073242</ele>
        <time>2010-11-06T16:02:09Z</time>
      </trkpt>
      <trkpt lat="45.06522" lon="4.83383">
        <ele>138.98599243164</ele>
        <time>2010-11-06T16:02:10Z</time>
      </trkpt>
      <trkpt lat="45.06519" lon="4.8341">
        <ele>135.98300170898</ele>
        <time>2010-11-06T16:02:13Z</time>
      </trkpt>
      <trkpt lat="45.06524" lon="4.83425">
        <ele>135.98300170898</ele>
        <time>2010-11-06T16:02:15Z</time>
      </trkpt>
      <trkpt lat="45.06538" lon="4.83451">
        <ele>134.97399902344</ele>
        <time>2010-11-06T16:02:21Z</time>
      </trkpt>
      <trkpt lat="45.06542" lon="4.83458">
        <ele>134.46699523926</ele>
        <time>2010-11-06T16:02:26Z</time>
      </trkpt>
      <trkpt lat="45.06544" lon="4.83469">
        <ele>132.72300720215</ele>
        <time>2010-11-06T16:02:32Z</time>
      </trkpt>
      <trkpt lat="45.06541" lon="4.83473">
        <ele>132.10800170898</ele>
        <time>2010-11-06T16:03:10Z</time>
      </trkpt>
      <trkpt lat="45.06541" lon="4.83475">
        <ele>132.05599975586</ele>
        <time>2010-11-06T16:03:11Z</time>
      </trkpt>
      <trkpt lat="45.06537" lon="4.83484">
        <ele>131.85000610352</ele>
        <time>2010-11-06T16:03:17Z</time>
      </trkpt>
      <trkpt lat="45.06529" lon="4.83491">
        <ele>131.48300170898</ele>
        <time>2010-11-06T16:03:20Z</time>
      </trkpt>
      <trkpt lat="45.06512" lon="4.83508">
        <ele>131.47500610352</ele>
        <time>2010-11-06T16:03:24Z</time>
      </trkpt>
      <trkpt lat="45.06496" lon="4.83525">
        <ele>131.27299499512</ele>
        <time>2010-11-06T16:03:27Z</time>
      </trkpt>
      <trkpt lat="45.0648" lon="4.83539">
        <ele>131.05799865723</ele>
        <time>2010-11-06T16:03:30Z</time>
      </trkpt>
      <trkpt lat="45.06461" lon="4.83561">
        <ele>130.57400512695</ele>
        <time>2010-11-06T16:03:34Z</time>
      </trkpt>
      <trkpt lat="45.06449" lon="4.83587">
        <ele>130.2440032959</ele>
        <time>2010-11-06T16:03:38Z</time>
      </trkpt>
      <trkpt lat="45.06451" lon="4.83602">
        <ele>130.13800048828</ele>
        <time>2010-11-06T16:03:40Z</time>
      </trkpt>
      <trkpt lat="45.06458" lon="4.83639">
        <ele>130.09599304199</ele>
        <time>2010-11-06T16:03:45Z</time>
      </trkpt>
      <trkpt lat="45.06459" lon="4.83662">
        <ele>130.00500488281</ele>
        <time>2010-11-06T16:03:48Z</time>
      </trkpt>
      <trkpt lat="45.06453" lon="4.83727">
        <ele>129.87899780273</ele>
        <time>2010-11-06T16:03:56Z</time>
      </trkpt>
      <trkpt lat="45.06444" lon="4.838">
        <ele>129.07099914551</ele>
        <time>2010-11-06T16:04:04Z</time>
      </trkpt>
      <trkpt lat="45.06437" lon="4.83875">
        <ele>128.68800354004</ele>
        <time>2010-11-06T16:04:12Z</time>
      </trkpt>
      <trkpt lat="45.06434" lon="4.83941">
        <ele>128.70500183106</ele>
        <time>2010-11-06T16:04:19Z</time>
      </trkpt>
      <trkpt lat="45.06433" lon="4.84003">
        <ele>128.58700561523</ele>
        <time>2010-11-06T16:04:26Z</time>
      </trkpt>
      <trkpt lat="45.06433" lon="4.84063">
        <ele>128.88200378418</ele>
        <time>2010-11-06T16:04:34Z</time>
      </trkpt>
      <trkpt lat="45.06433" lon="4.8408">
        <ele>129.08599853516</ele>
        <time>2010-11-06T16:04:38Z</time>
      </trkpt>
      <trkpt lat="45.06437" lon="4.84089">
        <ele>129.08700561523</ele>
        <time>2010-11-06T16:04:41Z</time>
      </trkpt>
      <trkpt lat="45.06449" lon="4.84091">
        <ele>129.14399719238</ele>
        <time>2010-11-06T16:04:45Z</time>
      </trkpt>
      <trkpt lat="45.06452" lon="4.84088">
        <ele>129.11399841309</ele>
        <time>2010-11-06T16:04:46Z</time>
      </trkpt>
      <trkpt lat="45.0649" lon="4.84055">
        <ele>129.98100280762</ele>
        <time>2010-11-06T16:04:55Z</time>
      </trkpt>
      <trkpt lat="45.06513" lon="4.84034">
        <ele>130.57600402832</ele>
        <time>2010-11-06T16:05:00Z</time>
      </trkpt>
      <trkpt lat="45.06517" lon="4.84031">
        <ele>130.73899841309</ele>
        <time>2010-11-06T16:05:01Z</time>
      </trkpt>
      <trkpt lat="45.06526" lon="4.84026">
        <ele>131.04800415039</ele>
        <time>2010-11-06T16:05:03Z</time>
      </trkpt>
      <trkpt lat="45.06539" lon="4.84023">
        <ele>131.82600402832</ele>
        <time>2010-11-06T16:05:06Z</time>
      </trkpt>
      <trkpt lat="45.06567" lon="4.84018">
        <ele>132.66900634766</ele>
        <time>2010-11-06T16:05:11Z</time>
      </trkpt>
      <trkpt lat="45.0658" lon="4.84024">
        <ele>133.02600097656</ele>
        <time>2010-11-06T16:05:13Z</time>
      </trkpt>
      <trkpt lat="45.06609" lon="4.84042">
        <ele>133.05700683594</ele>
        <time>2010-11-06T16:05:18Z</time>
      </trkpt>
      <trkpt lat="45.0662" lon="4.84049">
        <ele>133.05700683594</ele>
        <time>2010-11-06T16:05:20Z</time>
      </trkpt>
      <trkpt lat="45.06673" lon="4.84082">
        <ele>135.21000671387</ele>
        <time>2010-11-06T16:05:29Z</time>
      </trkpt>
      <trkpt lat="45.06726" lon="4.84115">
        <ele>135.24000549316</ele>
        <time>2010-11-06T16:05:38Z</time>
      </trkpt>
      <trkpt lat="45.06768" lon="4.8414">
        <ele>134.37800598144</ele>
        <time>2010-11-06T16:05:44Z</time>
      </trkpt>
      <trkpt lat="45.06789" lon="4.84153">
        <ele>132.7559967041</ele>
        <time>2010-11-06T16:05:47Z</time>
      </trkpt>
      <trkpt lat="45.06865" lon="4.84199">
        <ele>129.4700012207</ele>
        <time>2010-11-06T16:05:57Z</time>
      </trkpt>
      <trkpt lat="45.06872" lon="4.84204">
        <ele>129.21499633789</ele>
        <time>2010-11-06T16:05:58Z</time>
      </trkpt>
      <trkpt lat="45.06879" lon="4.8421">
        <ele>129.18499755859</ele>
        <time>2010-11-06T16:05:59Z</time>
      </trkpt>
      <trkpt lat="45.06897" lon="4.84235">
        <ele>128.70599365234</ele>
        <time>2010-11-06T16:06:02Z</time>
      </trkpt>
      <trkpt lat="45.06897" lon="4.84258">
        <ele>128.27299499512</ele>
        <time>2010-11-06T16:06:04Z</time>
      </trkpt>
      <trkpt lat="45.06894" lon="4.84269">
        <ele>128.27299499512</ele>
        <time>2010-11-06T16:06:05Z</time>
      </trkpt>
      <trkpt lat="45.06879" lon="4.84331">
        <ele>128.21899414062</ele>
        <time>2010-11-06T16:06:11Z</time>
      </trkpt>
      <trkpt lat="45.06886" lon="4.84352">
        <ele>128.37600708008</ele>
        <time>2010-11-06T16:06:14Z</time>
      </trkpt>
      <trkpt lat="45.06897" lon="4.84353">
        <ele>128.40800476074</ele>
        <time>2010-11-06T16:06:16Z</time>
      </trkpt>
      <trkpt lat="45.06913" lon="4.84352">
        <ele>128.42100524902</ele>
        <time>2010-11-06T16:06:19Z</time>
      </trkpt>
      <trkpt lat="45.06934" lon="4.84348">
        <ele>128.68699645996</ele>
        <time>2010-11-06T16:06:23Z</time>
      </trkpt>
      <trkpt lat="45.06953" lon="4.84348">
        <ele>128.92599487305</ele>
        <time>2010-11-06T16:06:27Z</time>
      </trkpt>
      <trkpt lat="45.06988" lon="4.84345">
        <ele>129.17100524902</ele>
        <time>2010-11-06T16:06:35Z</time>
      </trkpt>
      <trkpt lat="45.07021" lon="4.84344">
        <ele>129.17799377441</ele>
        <time>2010-11-06T16:06:43Z</time>
      </trkpt>
      <trkpt lat="45.07033" lon="4.84346">
        <ele>129.22799682617</ele>
        <time>2010-11-06T16:06:47Z</time>
      </trkpt>
      <trkpt lat="45.07052" lon="4.84338">
        <ele>128.76899719238</ele>
        <time>2010-11-06T16:06:51Z</time>
      </trkpt>
      <trkpt lat="45.07085" lon="4.84334">
        <ele>128.89500427246</ele>
        <time>2010-11-06T16:06:57Z</time>
      </trkpt>
      <trkpt lat="45.07126" lon="4.84332">
        <ele>128.34599304199</ele>
        <time>2010-11-06T16:07:04Z</time>
      </trkpt>
      <trkpt lat="45.07172" lon="4.84324">
        <ele>128.08700561523</ele>
        <time>2010-11-06T16:07:11Z</time>
      </trkpt>
      <trkpt lat="45.07178" lon="4.84331">
        <ele>128.05999755859</ele>
        <time>2010-11-06T16:07:12Z</time>
      </trkpt>
      <trkpt lat="45.07212" lon="4.84332">
        <ele>127.59200286865</ele>
        <time>2010-11-06T16:07:17Z</time>
      </trkpt>
      <trkpt lat="45.07272" lon="4.8433">
        <ele>128.04499816894</ele>
        <time>2010-11-06T16:07:26Z</time>
      </trkpt>
      <trkpt lat="45.07298" lon="4.84331">
        <ele>128.06500244141</ele>
        <time>2010-11-06T16:07:30Z</time>
      </trkpt>
      <trkpt lat="45.07313" lon="4.8435">
        <ele>128.04299926758</ele>
        <time>2010-11-06T16:07:33Z</time>
      </trkpt>
      <trkpt lat="45.07311" lon="4.8437">
        <ele>128.69099426269</ele>
        <time>2010-11-06T16:07:35Z</time>
      </trkpt>
      <trkpt lat="45.07309" lon="4.84388">
        <ele>128.89199829102</ele>
        <time>2010-11-06T16:07:37Z</time>
      </trkpt>
      <trkpt lat="45.073" lon="4.8447">
        <ele>130.13000488281</ele>
        <time>2010-11-06T16:07:46Z</time>
      </trkpt>
      <trkpt lat="45.07295" lon="4.84537">
        <ele>131.79299926758</ele>
        <time>2010-11-06T16:07:54Z</time>
      </trkpt>
      <trkpt lat="45.07289" lon="4.84606">
        <ele>134.00999450684</ele>
        <time>2010-11-06T16:08:03Z</time>
      </trkpt>
      <trkpt lat="45.07287" lon="4.84644">
        <ele>134.92199707031</ele>
        <time>2010-11-06T16:08:08Z</time>
      </trkpt>
      <trkpt lat="45.07294" lon="4.8467">
        <ele>135.75799560547</ele>
        <time>2010-11-06T16:08:12Z</time>
      </trkpt>
      <trkpt lat="45.07303" lon="4.84674">
        <ele>136.35000610352</ele>
        <time>2010-11-06T16:08:14Z</time>
      </trkpt>
      <trkpt lat="45.07353" lon="4.84678">
        <ele>138.70899963379</ele>
        <time>2010-11-06T16:08:23Z</time>
      </trkpt>
      <trkpt lat="45.07402" lon="4.84686">
        <ele>140.59700012207</ele>
        <time>2010-11-06T16:08:32Z</time>
      </trkpt>
      <trkpt lat="45.07438" lon="4.8467">
        <ele>142.31199645996</ele>
        <time>2010-11-06T16:08:39Z</time>
      </trkpt>
      <trkpt lat="45.07457" lon="4.84674">
        <ele>143.2140045166</ele>
        <time>2010-11-06T16:08:43Z</time>
      </trkpt>
      <trkpt lat="45.07464" lon="4.84692">
        <ele>144.21600341797</ele>
        <time>2010-11-06T16:08:46Z</time>
      </trkpt>
      <trkpt lat="45.07476" lon="4.8475">
        <ele>146.41700744629</ele>
        <time>2010-11-06T16:08:55Z</time>
      </trkpt>
      <trkpt lat="45.0748" lon="4.84801">
        <ele>148.58299255371</ele>
        <time>2010-11-06T16:09:03Z</time>
      </trkpt>
      <trkpt lat="45.07489" lon="4.84843">
        <ele>150.66200256348</ele>
        <time>2010-11-06T16:09:10Z</time>
      </trkpt>
      <trkpt lat="45.0749" lon="4.84849">
        <ele>150.89900207519</ele>
        <time>2010-11-06T16:09:11Z</time>
      </trkpt>
      <trkpt lat="45.07499" lon="4.8487">
        <ele>152.16700744629</ele>
        <time>2010-11-06T16:09:15Z</time>
      </trkpt>
      <trkpt lat="45.07512" lon="4.84895">
        <ele>153.03500366211</ele>
        <time>2010-11-06T16:09:20Z</time>
      </trkpt>
      <trkpt lat="45.0752" lon="4.84924">
        <ele>154.34199523926</ele>
        <time>2010-11-06T16:09:25Z</time>
      </trkpt>
      <trkpt lat="45.07526" lon="4.84954">
        <ele>155.93400573731</ele>
        <time>2010-11-06T16:09:30Z</time>
      </trkpt>
      <trkpt lat="45.07547" lon="4.84998">
        <ele>158.30099487305</ele>
        <time>2010-11-06T16:09:39Z</time>
      </trkpt>
      <trkpt lat="45.07571" lon="4.85043">
        <ele>160.97399902344</ele>
        <time>2010-11-06T16:09:49Z</time>
      </trkpt>
      <trkpt lat="45.07582" lon="4.85083">
        <ele>162.36599731445</ele>
        <time>2010-11-06T16:09:57Z</time>
      </trkpt>
      <trkpt lat="45.07595" lon="4.85123">
        <ele>163.92700195312</ele>
        <time>2010-11-06T16:10:05Z</time>
      </trkpt>
      <trkpt lat="45.07616" lon="4.85151">
        <ele>165.63600158691</ele>
        <time>2010-11-06T16:10:12Z</time>
      </trkpt>
      <trkpt lat="45.07619" lon="4.85155">
        <ele>165.90699768066</ele>
        <time>2010-11-06T16:10:13Z</time>
      </trkpt>
      <trkpt lat="45.07624" lon="4.85183">
        <ele>167.43699645996</ele>
        <time>2010-11-06T16:10:18Z</time>
      </trkpt>
      <trkpt lat="45.07623" lon="4.85189">
        <ele>167.83099365234</ele>
        <time>2010-11-06T16:10:19Z</time>
      </trkpt>
      <trkpt lat="45.07609" lon="4.85224">
        <ele>169.47200012207</ele>
        <time>2010-11-06T16:10:25Z</time>
      </trkpt>
      <trkpt lat="45.07607" lon="4.8526">
        <ele>170.56500244141</ele>
        <time>2010-11-06T16:10:30Z</time>
      </trkpt>
      <trkpt lat="45.07618" lon="4.85286">
        <ele>170.9700012207</ele>
        <time>2010-11-06T16:10:34Z</time>
      </trkpt>
      <trkpt lat="45.07632" lon="4.85296">
        <ele>172.27799987793</ele>
        <time>2010-11-06T16:10:37Z</time>
      </trkpt>
      <trkpt lat="45.07666" lon="4.85304">
        <ele>174.42799377441</ele>
        <time>2010-11-06T16:10:44Z</time>
      </trkpt>
      <trkpt lat="45.07681" lon="4.85303">
        <ele>175.79800415039</ele>
        <time>2010-11-06T16:10:47Z</time>
      </trkpt>
      <trkpt lat="45.0769" lon="4.85301">
        <ele>176.46600341797</ele>
        <time>2010-11-06T16:10:49Z</time>
      </trkpt>
      <trkpt lat="45.07721" lon="4.85303">
        <ele>178.95399475098</ele>
        <time>2010-11-06T16:10:56Z</time>
      </trkpt>
      <trkpt lat="45.0775" lon="4.85297">
        <ele>180.75900268555</ele>
        <time>2010-11-06T16:11:03Z</time>
      </trkpt>
      <trkpt lat="45.07779" lon="4.85284">
        <ele>183.17300415039</ele>
        <time>2010-11-06T16:11:10Z</time>
      </trkpt>
      <trkpt lat="45.07815" lon="4.85275">
        <ele>184.95799255371</ele>
        <time>2010-11-06T16:11:18Z</time>
      </trkpt>
      <trkpt lat="45.07856" lon="4.85263">
        <ele>187.31100463867</ele>
        <time>2010-11-06T16:11:27Z</time>
      </trkpt>
      <trkpt lat="45.07892" lon="4.8526">
        <ele>188.72799682617</ele>
        <time>2010-11-06T16:11:34Z</time>
      </trkpt>
      <trkpt lat="45.07929" lon="4.85263">
        <ele>190.05400085449</ele>
        <time>2010-11-06T16:11:41Z</time>
      </trkpt>
      <trkpt lat="45.07965" lon="4.85267">
        <ele>192.17900085449</ele>
        <time>2010-11-06T16:11:49Z</time>
      </trkpt>
      <trkpt lat="45.07994" lon="4.85268">
        <ele>194.32499694824</ele>
        <time>2010-11-06T16:11:56Z</time>
      </trkpt>
      <trkpt lat="45.08026" lon="4.85272">
        <ele>196.48599243164</ele>
        <time>2010-11-06T16:12:04Z</time>
      </trkpt>
      <trkpt lat="45.08052" lon="4.85281">
        <ele>197.97500610352</ele>
        <time>2010-11-06T16:12:11Z</time>
      </trkpt>
      <trkpt lat="45.08057" lon="4.85289">
        <ele>198.13200378418</ele>
        <time>2010-11-06T16:12:13Z</time>
      </trkpt>
      <trkpt lat="45.08063" lon="4.85311">
        <ele>198.47200012207</ele>
        <time>2010-11-06T16:12:17Z</time>
      </trkpt>
      <trkpt lat="45.08064" lon="4.85355">
        <ele>198.69900512695</ele>
        <time>2010-11-06T16:12:24Z</time>
      </trkpt>
      <trkpt lat="45.08065" lon="4.85415">
        <ele>198.70500183106</ele>
        <time>2010-11-06T16:12:33Z</time>
      </trkpt>
      <trkpt lat="45.08067" lon="4.85471">
        <ele>199.17900085449</ele>
        <time>2010-11-06T16:12:41Z</time>
      </trkpt>
      <trkpt lat="45.08064" lon="4.8553">
        <ele>199.25</ele>
        <time>2010-11-06T16:12:49Z</time>
      </trkpt>
      <trkpt lat="45.08061" lon="4.85585">
        <ele>198.58399963379</ele>
        <time>2010-11-06T16:12:57Z</time>
      </trkpt>
      <trkpt lat="45.0806" lon="4.85627">
        <ele>198.09300231934</ele>
        <time>2010-11-06T16:13:03Z</time>
      </trkpt>
      <trkpt lat="45.08073" lon="4.85647">
        <ele>197.92399597168</ele>
        <time>2010-11-06T16:13:07Z</time>
      </trkpt>
      <trkpt lat="45.08081" lon="4.85651">
        <ele>198.07400512695</ele>
        <time>2010-11-06T16:13:09Z</time>
      </trkpt>
      <trkpt lat="45.08112" lon="4.85663">
        <ele>198.31199645996</ele>
        <time>2010-11-06T16:13:17Z</time>
      </trkpt>
      <trkpt lat="45.08128" lon="4.8567">
        <ele>198.29299926758</ele>
        <time>2010-11-06T16:13:22Z</time>
      </trkpt>
      <trkpt lat="45.08142" lon="4.85676">
        <ele>198.43499755859</ele>
        <time>2010-11-06T16:13:27Z</time>
      </trkpt>
      <trkpt lat="45.08159" lon="4.85683">
        <ele>198.45599365234</ele>
        <time>2010-11-06T16:13:34Z</time>
      </trkpt>
      <trkpt lat="45.0817" lon="4.8569">
        <ele>198.3390045166</ele>
        <time>2010-11-06T16:13:39Z</time>
      </trkpt>
      <trkpt lat="45.08188" lon="4.85698">
        <ele>197.76800537109</ele>
        <time>2010-11-06T16:13:44Z</time>
      </trkpt>
      <trkpt lat="45.08213" lon="4.85711">
        <ele>196.71499633789</ele>
        <time>2010-11-06T16:13:49Z</time>
      </trkpt>
      <trkpt lat="45.08259" lon="4.85731">
        <ele>195.13000488281</ele>
        <time>2010-11-06T16:13:56Z</time>
      </trkpt>
      <trkpt lat="45.08296" lon="4.85741">
        <ele>193.83500671387</ele>
        <time>2010-11-06T16:14:01Z</time>
      </trkpt>
      <trkpt lat="45.08326" lon="4.85751">
        <ele>192.69900512695</ele>
        <time>2010-11-06T16:14:05Z</time>
      </trkpt>
      <trkpt lat="45.08386" lon="4.85789">
        <ele>191.97700500488</ele>
        <time>2010-11-06T16:14:14Z</time>
      </trkpt>
      <trkpt lat="45.08436" lon="4.85815">
        <ele>192.63999938965</ele>
        <time>2010-11-06T16:14:22Z</time>
      </trkpt>
      <trkpt lat="45.08503" lon="4.85849">
        <ele>193.05700683594</ele>
        <time>2010-11-06T16:14:33Z</time>
      </trkpt>
      <trkpt lat="45.08552" lon="4.85872">
        <ele>193.83099365234</ele>
        <time>2010-11-06T16:14:41Z</time>
      </trkpt>
      <trkpt lat="45.08597" lon="4.85892">
        <ele>195.42799377441</ele>
        <time>2010-11-06T16:14:49Z</time>
      </trkpt>
      <trkpt lat="45.08639" lon="4.85907">
        <ele>197.04899597168</ele>
        <time>2010-11-06T16:14:57Z</time>
      </trkpt>
      <trkpt lat="45.08678" lon="4.85927">
        <ele>199.52400207519</ele>
        <time>2010-11-06T16:15:05Z</time>
      </trkpt>
      <trkpt lat="45.08714" lon="4.85945">
        <ele>201.65100097656</ele>
        <time>2010-11-06T16:15:12Z</time>
      </trkpt>
      <trkpt lat="45.08729" lon="4.85954">
        <ele>202.41900634766</ele>
        <time>2010-11-06T16:15:15Z</time>
      </trkpt>
      <trkpt lat="45.08773" lon="4.8598">
        <ele>205.24699401856</ele>
        <time>2010-11-06T16:15:24Z</time>
      </trkpt>
      <trkpt lat="45.08804" lon="4.85998">
        <ele>207.12100219727</ele>
        <time>2010-11-06T16:15:31Z</time>
      </trkpt>
      <trkpt lat="45.08813" lon="4.86003">
        <ele>207.47599792481</ele>
        <time>2010-11-06T16:15:33Z</time>
      </trkpt>
      <trkpt lat="45.08844" lon="4.86014">
        <ele>208.25399780273</ele>
        <time>2010-11-06T16:15:40Z</time>
      </trkpt>
      <trkpt lat="45.08892" lon="4.86023">
        <ele>209.04600524902</ele>
        <time>2010-11-06T16:15:50Z</time>
      </trkpt>
      <trkpt lat="45.08944" lon="4.86031">
        <ele>209.53999328613</ele>
        <time>2010-11-06T16:16:00Z</time>
      </trkpt>
      <trkpt lat="45.08991" lon="4.86038">
        <ele>210.67700195312</ele>
        <time>2010-11-06T16:16:09Z</time>
      </trkpt>
      <trkpt lat="45.09045" lon="4.86048">
        <ele>211.99000549316</ele>
        <time>2010-11-06T16:16:19Z</time>
      </trkpt>
      <trkpt lat="45.09104" lon="4.8606">
        <ele>212.23500061035</ele>
        <time>2010-11-06T16:16:29Z</time>
      </trkpt>
      <trkpt lat="45.09162" lon="4.86067">
        <ele>212.91700744629</ele>
        <time>2010-11-06T16:16:39Z</time>
      </trkpt>
      <trkpt lat="45.09219" lon="4.8607">
        <ele>213.85699462891</ele>
        <time>2010-11-06T16:16:49Z</time>
      </trkpt>
      <trkpt lat="45.09277" lon="4.86076">
        <ele>214.58500671387</ele>
        <time>2010-11-06T16:16:59Z</time>
      </trkpt>
      <trkpt lat="45.09292" lon="4.86085">
        <ele>214.62899780273</ele>
        <time>2010-11-06T16:17:02Z</time>
      </trkpt>
      <trkpt lat="45.0934" lon="4.86117">
        <ele>215.625</ele>
        <time>2010-11-06T16:17:12Z</time>
      </trkpt>
      <trkpt lat="45.09365" lon="4.86135">
        <ele>216.08799743652</ele>
        <time>2010-11-06T16:17:18Z</time>
      </trkpt>
      <trkpt lat="45.09388" lon="4.8615">
        <ele>216.83999633789</ele>
        <time>2010-11-06T16:17:24Z</time>
      </trkpt>
      <trkpt lat="45.09415" lon="4.86164">
        <ele>217.14599609375</ele>
        <time>2010-11-06T16:17:31Z</time>
      </trkpt>
      <trkpt lat="45.0945" lon="4.86185">
        <ele>216.58700561523</ele>
        <time>2010-11-06T16:17:38Z</time>
      </trkpt>
      <trkpt lat="45.0948" lon="4.86216">
        <ele>215.32299804688</ele>
        <time>2010-11-06T16:17:44Z</time>
      </trkpt>
      <trkpt lat="45.09499" lon="4.86241">
        <ele>214.43600463867</ele>
        <time>2010-11-06T16:17:48Z</time>
      </trkpt>
      <trkpt lat="45.09535" lon="4.86279">
        <ele>214.13600158691</ele>
        <time>2010-11-06T16:17:55Z</time>
      </trkpt>
      <trkpt lat="45.09552" lon="4.86293">
        <ele>212.82099914551</ele>
        <time>2010-11-06T16:17:58Z</time>
      </trkpt>
      <trkpt lat="45.09594" lon="4.86326">
        <ele>211.48399353027</ele>
        <time>2010-11-06T16:18:05Z</time>
      </trkpt>
      <trkpt lat="45.09632" lon="4.86361">
        <ele>210.62600708008</ele>
        <time>2010-11-06T16:18:12Z</time>
      </trkpt>
      <trkpt lat="45.09642" lon="4.86372">
        <ele>210.06799316406</ele>
        <time>2010-11-06T16:18:14Z</time>
      </trkpt>
      <trkpt lat="45.09662" lon="4.86381">
        <ele>210.6609954834</ele>
        <time>2010-11-06T16:18:18Z</time>
      </trkpt>
      <trkpt lat="45.09686" lon="4.8637">
        <ele>211.13600158691</ele>
        <time>2010-11-06T16:18:23Z</time>
      </trkpt>
      <trkpt lat="45.09693" lon="4.86364">
        <ele>211.24200439453</ele>
        <time>2010-11-06T16:18:25Z</time>
      </trkpt>
      <trkpt lat="45.09701" lon="4.86359">
        <ele>211.15899658203</ele>
        <time>2010-11-06T16:18:27Z</time>
      </trkpt>
      <trkpt lat="45.09717" lon="4.86354">
        <ele>211.59300231934</ele>
        <time>2010-11-06T16:18:32Z</time>
      </trkpt>
      <trkpt lat="45.0972" lon="4.86367">
        <ele>211.75199890137</ele>
        <time>2010-11-06T16:18:35Z</time>
      </trkpt>
      <trkpt lat="45.0972" lon="4.86373">
        <ele>211.84399414062</ele>
        <time>2010-11-06T16:18:36Z</time>
      </trkpt>
      <trkpt lat="45.09721" lon="4.86393">
        <ele>212.22300720215</ele>
        <time>2010-11-06T16:18:39Z</time>
      </trkpt>
      <trkpt lat="45.09718" lon="4.86412">
        <ele>213.57499694824</ele>
        <time>2010-11-06T16:18:42Z</time>
      </trkpt>
      <trkpt lat="45.09713" lon="4.86442">
        <ele>214.57299804688</ele>
        <time>2010-11-06T16:18:47Z</time>
      </trkpt>
      <trkpt lat="45.09712" lon="4.86454">
        <ele>214.91700744629</ele>
        <time>2010-11-06T16:18:49Z</time>
      </trkpt>
      <trkpt lat="45.09707" lon="4.86479">
        <ele>215.96899414062</ele>
        <time>2010-11-06T16:18:53Z</time>
      </trkpt>
      <trkpt lat="45.09703" lon="4.86503">
        <ele>217.06199645996</ele>
        <time>2010-11-06T16:18:57Z</time>
      </trkpt>
      <trkpt lat="45.09708" lon="4.86532">
        <ele>218.5299987793</ele>
        <time>2010-11-06T16:19:02Z</time>
      </trkpt>
      <trkpt lat="45.09719" lon="4.86543">
        <ele>219.06799316406</ele>
        <time>2010-11-06T16:19:05Z</time>
      </trkpt>
      <trkpt lat="45.09745" lon="4.86556">
        <ele>220.3869934082</ele>
        <time>2010-11-06T16:19:11Z</time>
      </trkpt>
      <trkpt lat="45.09776" lon="4.86583">
        <ele>222.1309967041</ele>
        <time>2010-11-06T16:19:19Z</time>
      </trkpt>
      <trkpt lat="45.09822" lon="4.86629">
        <ele>225.03399658203</ele>
        <time>2010-11-06T16:19:30Z</time>
      </trkpt>
      <trkpt lat="45.09861" lon="4.86666">
        <ele>227.97700500488</ele>
        <time>2010-11-06T16:19:39Z</time>
      </trkpt>
      <trkpt lat="45.09904" lon="4.86701">
        <ele>231.09300231934</ele>
        <time>2010-11-06T16:19:49Z</time>
      </trkpt>
      <trkpt lat="45.09912" lon="4.86708">
        <ele>231.87800598144</ele>
        <time>2010-11-06T16:19:51Z</time>
      </trkpt>
      <trkpt lat="45.09935" lon="4.86733">
        <ele>233.68699645996</ele>
        <time>2010-11-06T16:19:57Z</time>
      </trkpt>
      <trkpt lat="45.09962" lon="4.86772">
        <ele>236.14700317383</ele>
        <time>2010-11-06T16:20:06Z</time>
      </trkpt>
      <trkpt lat="45.09991" lon="4.86812">
        <ele>238.66200256348</ele>
        <time>2010-11-06T16:20:15Z</time>
      </trkpt>
      <trkpt lat="45.09998" lon="4.86821">
        <ele>239.31900024414</ele>
        <time>2010-11-06T16:20:17Z</time>
      </trkpt>
      <trkpt lat="45.10024" lon="4.86855">
        <ele>241.74600219727</ele>
        <time>2010-11-06T16:20:25Z</time>
      </trkpt>
      <trkpt lat="45.10042" lon="4.86873">
        <ele>242.64799499512</ele>
        <time>2010-11-06T16:20:30Z</time>
      </trkpt>
      <trkpt lat="45.10073" lon="4.86901">
        <ele>242.39599609375</ele>
        <time>2010-11-06T16:20:38Z</time>
      </trkpt>
      <trkpt lat="45.10104" lon="4.86926">
        <ele>240.68099975586</ele>
        <time>2010-11-06T16:20:44Z</time>
      </trkpt>
      <trkpt lat="45.10137" lon="4.86954">
        <ele>237.35899353027</ele>
        <time>2010-11-06T16:20:49Z</time>
      </trkpt>
      <trkpt lat="45.10185" lon="4.86996">
        <ele>232.67399597168</ele>
        <time>2010-11-06T16:20:55Z</time>
      </trkpt>
      <trkpt lat="45.10229" lon="4.87034">
        <ele>228.8809967041</ele>
        <time>2010-11-06T16:21:00Z</time>
      </trkpt>
      <trkpt lat="45.10267" lon="4.87067">
        <ele>225.49000549316</ele>
        <time>2010-11-06T16:21:04Z</time>
      </trkpt>
      <trkpt lat="45.1029" lon="4.87103">
        <ele>223.16299438477</ele>
        <time>2010-11-06T16:21:07Z</time>
      </trkpt>
      <trkpt lat="45.10295" lon="4.87148">
        <ele>222.63999938965</ele>
        <time>2010-11-06T16:21:10Z</time>
      </trkpt>
      <trkpt lat="45.10289" lon="4.87185">
        <ele>224.32099914551</ele>
        <time>2010-11-06T16:21:13Z</time>
      </trkpt>
      <trkpt lat="45.10282" lon="4.87205">
        <ele>226.02400207519</ele>
        <time>2010-11-06T16:21:15Z</time>
      </trkpt>
      <trkpt lat="45.10279" lon="4.87214">
        <ele>226.2799987793</ele>
        <time>2010-11-06T16:21:16Z</time>
      </trkpt>
      <trkpt lat="45.10263" lon="4.87261">
        <ele>229.8690032959</ele>
        <time>2010-11-06T16:21:22Z</time>
      </trkpt>
      <trkpt lat="45.1026" lon="4.87269">
        <ele>230.31300354004</ele>
        <time>2010-11-06T16:21:23Z</time>
      </trkpt>
      <trkpt lat="45.10253" lon="4.87303">
        <ele>232.125</ele>
        <time>2010-11-06T16:21:28Z</time>
      </trkpt>
      <trkpt lat="45.1025" lon="4.87331">
        <ele>232.15400695801</ele>
        <time>2010-11-06T16:21:32Z</time>
      </trkpt>
      <trkpt lat="45.10249" lon="4.87376">
        <ele>229.63299560547</ele>
        <time>2010-11-06T16:21:37Z</time>
      </trkpt>
      <trkpt lat="45.1025" lon="4.87388">
        <ele>228.58099365234</ele>
        <time>2010-11-06T16:21:38Z</time>
      </trkpt>
      <trkpt lat="45.10266" lon="4.87436">
        <ele>223.92599487305</ele>
        <time>2010-11-06T16:21:42Z</time>
      </trkpt>
      <trkpt lat="45.10294" lon="4.87486">
        <ele>218.94200134277</ele>
        <time>2010-11-06T16:21:46Z</time>
      </trkpt>
      <trkpt lat="45.10322" lon="4.87545">
        <ele>213.97099304199</ele>
        <time>2010-11-06T16:21:50Z</time>
      </trkpt>
      <trkpt lat="45.10355" lon="4.87629">
        <ele>207.36700439453</ele>
        <time>2010-11-06T16:21:55Z</time>
      </trkpt>
      <trkpt lat="45.1038" lon="4.87699">
        <ele>202.33500671387</ele>
        <time>2010-11-06T16:21:59Z</time>
      </trkpt>
      <trkpt lat="45.10418" lon="4.87803">
        <ele>197.05000305176</ele>
        <time>2010-11-06T16:22:05Z</time>
      </trkpt>
      <trkpt lat="45.10433" lon="4.87875">
        <ele>194.10099792481</ele>
        <time>2010-11-06T16:22:09Z</time>
      </trkpt>
      <trkpt lat="45.1044" lon="4.87929">
        <ele>192.6369934082</ele>
        <time>2010-11-06T16:22:12Z</time>
      </trkpt>
      <trkpt lat="45.10445" lon="4.8798">
        <ele>192.10699462891</ele>
        <time>2010-11-06T16:22:15Z</time>
      </trkpt>
      <trkpt lat="45.1044" lon="4.88041">
        <ele>192.37300109863</ele>
        <time>2010-11-06T16:22:19Z</time>
      </trkpt>
      <trkpt lat="45.10437" lon="4.88054">
        <ele>192.42100524902</ele>
        <time>2010-11-06T16:22:20Z</time>
      </trkpt>
      <trkpt lat="45.10405" lon="4.88134">
        <ele>192.46000671387</ele>
        <time>2010-11-06T16:22:27Z</time>
      </trkpt>
      <trkpt lat="45.1037" lon="4.88205">
        <ele>190.44700622559</ele>
        <time>2010-11-06T16:22:34Z</time>
      </trkpt>
      <trkpt lat="45.10336" lon="4.88253">
        <ele>186.83799743652</ele>
        <time>2010-11-06T16:22:39Z</time>
      </trkpt>
      <trkpt lat="45.10294" lon="4.883">
        <ele>183.84899902344</ele>
        <time>2010-11-06T16:22:44Z</time>
      </trkpt>
      <trkpt lat="45.1026" lon="4.88345">
        <ele>182.60000610352</ele>
        <time>2010-11-06T16:22:49Z</time>
      </trkpt>
      <trkpt lat="45.10256" lon="4.88351">
        <ele>183.73300170898</ele>
        <time>2010-11-06T16:22:51Z</time>
      </trkpt>
      <trkpt lat="45.10256" lon="4.88352">
        <ele>183.875</ele>
        <time>2010-11-06T16:22:53Z</time>
      </trkpt>
      <trkpt lat="45.10259" lon="4.88366">
        <ele>183.36999511719</ele>
        <time>2010-11-06T16:23:07Z</time>
      </trkpt>
      <trkpt lat="45.1028" lon="4.88388">
        <ele>183.22599792481</ele>
        <time>2010-11-06T16:23:14Z</time>
      </trkpt>
      <trkpt lat="45.10305" lon="4.88416">
        <ele>183.29400634766</ele>
        <time>2010-11-06T16:23:21Z</time>
      </trkpt>
      <trkpt lat="45.10332" lon="4.88447">
        <ele>183.82299804688</ele>
        <time>2010-11-06T16:23:28Z</time>
      </trkpt>
      <trkpt lat="45.10373" lon="4.88499">
        <ele>183.93299865723</ele>
        <time>2010-11-06T16:23:38Z</time>
      </trkpt>
      <trkpt lat="45.10397" lon="4.88551">
        <ele>184.81500244141</ele>
        <time>2010-11-06T16:23:46Z</time>
      </trkpt>
      <trkpt lat="45.10425" lon="4.8862">
        <ele>185.50900268555</ele>
        <time>2010-11-06T16:23:56Z</time>
      </trkpt>
      <trkpt lat="45.10454" lon="4.88692">
        <ele>186.03999328613</ele>
        <time>2010-11-06T16:24:06Z</time>
      </trkpt>
      <trkpt lat="45.10492" lon="4.88788">
        <ele>186.23899841309</ele>
        <time>2010-11-06T16:24:18Z</time>
      </trkpt>
      <trkpt lat="45.10516" lon="4.88844">
        <ele>186.53199768066</ele>
        <time>2010-11-06T16:24:25Z</time>
      </trkpt>
      <trkpt lat="45.10541" lon="4.88899">
        <ele>186.99899291992</ele>
        <time>2010-11-06T16:24:33Z</time>
      </trkpt>
      <trkpt lat="45.10575" lon="4.88959">
        <ele>187.86199951172</ele>
        <time>2010-11-06T16:24:43Z</time>
      </trkpt>
      <trkpt lat="45.1061" lon="4.89008">
        <ele>188.62199401856</ele>
        <time>2010-11-06T16:24:52Z</time>
      </trkpt>
      <trkpt lat="45.10652" lon="4.89054">
        <ele>188.31300354004</ele>
        <time>2010-11-06T16:25:01Z</time>
      </trkpt>
      <trkpt lat="45.10681" lon="4.89084">
        <ele>188.07800292969</ele>
        <time>2010-11-06T16:25:07Z</time>
      </trkpt>
      <trkpt lat="45.10735" lon="4.89137">
        <ele>188.34100341797</ele>
        <time>2010-11-06T16:25:17Z</time>
      </trkpt>
      <trkpt lat="45.10785" lon="4.89189">
        <ele>189.18099975586</ele>
        <time>2010-11-06T16:25:26Z</time>
      </trkpt>
      <trkpt lat="45.10815" lon="4.89229">
        <ele>190.19099426269</ele>
        <time>2010-11-06T16:25:32Z</time>
      </trkpt>
      <trkpt lat="45.10868" lon="4.89302">
        <ele>190.96699523926</ele>
        <time>2010-11-06T16:25:43Z</time>
      </trkpt>
      <trkpt lat="45.10914" lon="4.89363">
        <ele>192.27499389648</ele>
        <time>2010-11-06T16:25:53Z</time>
      </trkpt>
      <trkpt lat="45.10918" lon="4.89369">
        <ele>192.26499938965</ele>
        <time>2010-11-06T16:25:54Z</time>
      </trkpt>
      <trkpt lat="45.10931" lon="4.89383">
        <ele>192.62899780273</ele>
        <time>2010-11-06T16:25:57Z</time>
      </trkpt>
      <trkpt lat="45.10952" lon="4.89399">
        <ele>193.90800476074</ele>
        <time>2010-11-06T16:26:01Z</time>
      </trkpt>
      <trkpt lat="45.10979" lon="4.89434">
        <ele>194.62899780273</ele>
        <time>2010-11-06T16:26:07Z</time>
      </trkpt>
      <trkpt lat="45.11008" lon="4.89466">
        <ele>195.1609954834</ele>
        <time>2010-11-06T16:26:13Z</time>
      </trkpt>
      <trkpt lat="45.11017" lon="4.89478">
        <ele>195.45300292969</ele>
        <time>2010-11-06T16:26:15Z</time>
      </trkpt>
      <trkpt lat="45.11033" lon="4.89516">
        <ele>195.83299255371</ele>
        <time>2010-11-06T16:26:20Z</time>
      </trkpt>
      <trkpt lat="45.11035" lon="4.89552">
        <ele>195.96000671387</ele>
        <time>2010-11-06T16:26:24Z</time>
      </trkpt>
      <trkpt lat="45.11031" lon="4.8957">
        <ele>195.89700317383</ele>
        <time>2010-11-06T16:26:26Z</time>
      </trkpt>
      <trkpt lat="45.11023" lon="4.89595">
        <ele>195.88999938965</ele>
        <time>2010-11-06T16:26:29Z</time>
      </trkpt>
      <trkpt lat="45.11016" lon="4.89625">
        <ele>196.41400146484</ele>
        <time>2010-11-06T16:26:33Z</time>
      </trkpt>
      <trkpt lat="45.11024" lon="4.89656">
        <ele>197.34300231934</ele>
        <time>2010-11-06T16:26:37Z</time>
      </trkpt>
      <trkpt lat="45.11042" lon="4.89693">
        <ele>197.70500183106</ele>
        <time>2010-11-06T16:26:42Z</time>
      </trkpt>
      <trkpt lat="45.11075" lon="4.89747">
        <ele>197.86700439453</ele>
        <time>2010-11-06T16:26:50Z</time>
      </trkpt>
      <trkpt lat="45.11084" lon="4.8976">
        <ele>197.85899353027</ele>
        <time>2010-11-06T16:26:52Z</time>
      </trkpt>
      <trkpt lat="45.11113" lon="4.8978">
        <ele>198.29600524902</ele>
        <time>2010-11-06T16:26:57Z</time>
      </trkpt>
      <trkpt lat="45.11145" lon="4.89796">
        <ele>197.97799682617</ele>
        <time>2010-11-06T16:27:02Z</time>
      </trkpt>
      <trkpt lat="45.11183" lon="4.89823">
        <ele>197.42900085449</ele>
        <time>2010-11-06T16:27:08Z</time>
      </trkpt>
      <trkpt lat="45.11206" lon="4.89857">
        <ele>197.61999511719</ele>
        <time>2010-11-06T16:27:13Z</time>
      </trkpt>
      <trkpt lat="45.11209" lon="4.89865">
        <ele>197.81799316406</ele>
        <time>2010-11-06T16:27:14Z</time>
      </trkpt>
      <trkpt lat="45.11224" lon="4.8992">
        <ele>198.65400695801</ele>
        <time>2010-11-06T16:27:21Z</time>
      </trkpt>
      <trkpt lat="45.1123" lon="4.89951">
        <ele>199.13200378418</ele>
        <time>2010-11-06T16:27:25Z</time>
      </trkpt>
      <trkpt lat="45.1124" lon="4.89978">
        <ele>199.82800292969</ele>
        <time>2010-11-06T16:27:29Z</time>
      </trkpt>
      <trkpt lat="45.11266" lon="4.90014">
        <ele>200.05099487305</ele>
        <time>2010-11-06T16:27:36Z</time>
      </trkpt>
      <trkpt lat="45.11295" lon="4.90048">
        <ele>200.50100708008</ele>
        <time>2010-11-06T16:27:43Z</time>
      </trkpt>
      <trkpt lat="45.1132" lon="4.90076">
        <ele>201.25199890137</ele>
        <time>2010-11-06T16:27:49Z</time>
      </trkpt>
      <trkpt lat="45.11357" lon="4.90111">
        <ele>200.33299255371</ele>
        <time>2010-11-06T16:27:57Z</time>
      </trkpt>
      <trkpt lat="45.11362" lon="4.90117">
        <ele>200.17199707031</ele>
        <time>2010-11-06T16:27:58Z</time>
      </trkpt>
      <trkpt lat="45.1138" lon="4.90158">
        <ele>200.19400024414</ele>
        <time>2010-11-06T16:28:04Z</time>
      </trkpt>
      <trkpt lat="45.11382" lon="4.90166">
        <ele>200.22799682617</ele>
        <time>2010-11-06T16:28:05Z</time>
      </trkpt>
      <trkpt lat="45.1139" lon="4.90205">
        <ele>201.12399291992</ele>
        <time>2010-11-06T16:28:10Z</time>
      </trkpt>
      <trkpt lat="45.114" lon="4.90232">
        <ele>201.74200439453</ele>
        <time>2010-11-06T16:28:14Z</time>
      </trkpt>
      <trkpt lat="45.11407" lon="4.90244">
        <ele>201.97999572754</ele>
        <time>2010-11-06T16:28:16Z</time>
      </trkpt>
      <trkpt lat="45.11434" lon="4.90271">
        <ele>202.52799987793</ele>
        <time>2010-11-06T16:28:22Z</time>
      </trkpt>
      <trkpt lat="45.11464" lon="4.9029">
        <ele>203.11700439453</ele>
        <time>2010-11-06T16:28:28Z</time>
      </trkpt>
      <trkpt lat="45.1151" lon="4.90312">
        <ele>203.08000183106</ele>
        <time>2010-11-06T16:28:36Z</time>
      </trkpt>
      <trkpt lat="45.11558" lon="4.9034">
        <ele>203.69299316406</ele>
        <time>2010-11-06T16:28:45Z</time>
      </trkpt>
      <trkpt lat="45.11602" lon="4.90366">
        <ele>205.86500549316</ele>
        <time>2010-11-06T16:28:54Z</time>
      </trkpt>
      <trkpt lat="45.11639" lon="4.90389">
        <ele>207.10699462891</ele>
        <time>2010-11-06T16:29:02Z</time>
      </trkpt>
      <trkpt lat="45.11657" lon="4.90402">
        <ele>208.43099975586</ele>
        <time>2010-11-06T16:29:06Z</time>
      </trkpt>
      <trkpt lat="45.11683" lon="4.90432">
        <ele>209.32200622559</ele>
        <time>2010-11-06T16:29:13Z</time>
      </trkpt>
      <trkpt lat="45.1169" lon="4.90449">
        <ele>209.77799987793</ele>
        <time>2010-11-06T16:29:16Z</time>
      </trkpt>
      <trkpt lat="45.11696" lon="4.90477">
        <ele>209.64500427246</ele>
        <time>2010-11-06T16:29:20Z</time>
      </trkpt>
      <trkpt lat="45.11695" lon="4.90526">
        <ele>209.78199768066</ele>
        <time>2010-11-06T16:29:27Z</time>
      </trkpt>
      <trkpt lat="45.11689" lon="4.90585">
        <ele>211.02900695801</ele>
        <time>2010-11-06T16:29:35Z</time>
      </trkpt>
      <trkpt lat="45.11677" lon="4.90659">
        <ele>212.28799438477</ele>
        <time>2010-11-06T16:29:45Z</time>
      </trkpt>
      <trkpt lat="45.11675" lon="4.90666">
        <ele>212.19700622559</ele>
        <time>2010-11-06T16:29:46Z</time>
      </trkpt>
      <trkpt lat="45.1168" lon="4.90692">
        <ele>212.19700622559</ele>
        <time>2010-11-06T16:29:50Z</time>
      </trkpt>
      <trkpt lat="45.11692" lon="4.90714">
        <ele>211.87300109863</ele>
        <time>2010-11-06T16:29:54Z</time>
      </trkpt>
      <trkpt lat="45.11688" lon="4.90734">
        <ele>212.18600463867</ele>
        <time>2010-11-06T16:29:57Z</time>
      </trkpt>
      <trkpt lat="45.11683" lon="4.90748">
        <ele>212.25100708008</ele>
        <time>2010-11-06T16:29:59Z</time>
      </trkpt>
      <trkpt lat="45.11676" lon="4.90787">
        <ele>212.27299499512</ele>
        <time>2010-11-06T16:30:04Z</time>
      </trkpt>
      <trkpt lat="45.11679" lon="4.90873">
        <ele>214.0359954834</ele>
        <time>2010-11-06T16:30:15Z</time>
      </trkpt>
      <trkpt lat="45.11678" lon="4.90934">
        <ele>215.7799987793</ele>
        <time>2010-11-06T16:30:23Z</time>
      </trkpt>
      <trkpt lat="45.11672" lon="4.90981">
        <ele>216.54200744629</ele>
        <time>2010-11-06T16:30:29Z</time>
      </trkpt>
      <trkpt lat="45.11662" lon="4.9103">
        <ele>216.48699951172</ele>
        <time>2010-11-06T16:30:35Z</time>
      </trkpt>
      <trkpt lat="45.11643" lon="4.91101">
        <ele>215.84399414062</ele>
        <time>2010-11-06T16:30:43Z</time>
      </trkpt>
      <trkpt lat="45.11624" lon="4.91163">
        <ele>215.3809967041</ele>
        <time>2010-11-06T16:30:50Z</time>
      </trkpt>
      <trkpt lat="45.116" lon="4.9121">
        <ele>215.54499816894</ele>
        <time>2010-11-06T16:30:56Z</time>
      </trkpt>
      <trkpt lat="45.11579" lon="4.91255">
        <ele>216.41900634766</ele>
        <time>2010-11-06T16:31:02Z</time>
      </trkpt>
      <trkpt lat="45.11568" lon="4.91284">
        <ele>217.28700256348</ele>
        <time>2010-11-06T16:31:06Z</time>
      </trkpt>
      <trkpt lat="45.1156" lon="4.91313">
        <ele>217.65600585938</ele>
        <time>2010-11-06T16:31:10Z</time>
      </trkpt>
      <trkpt lat="45.11556" lon="4.9134">
        <ele>217.81500244141</ele>
        <time>2010-11-06T16:31:14Z</time>
      </trkpt>
      <trkpt lat="45.11547" lon="4.91396">
        <ele>215.8690032959</ele>
        <time>2010-11-06T16:31:21Z</time>
      </trkpt>
      <trkpt lat="45.11539" lon="4.91457">
        <ele>213.47099304199</ele>
        <time>2010-11-06T16:31:27Z</time>
      </trkpt>
      <trkpt lat="45.11534" lon="4.91491">
        <ele>212.16900634766</ele>
        <time>2010-11-06T16:31:30Z</time>
      </trkpt>
      <trkpt lat="45.11522" lon="4.91549">
        <ele>209.99600219727</ele>
        <time>2010-11-06T16:31:35Z</time>
      </trkpt>
      <trkpt lat="45.11498" lon="4.91604">
        <ele>208.45700073242</ele>
        <time>2010-11-06T16:31:40Z</time>
      </trkpt>
      <trkpt lat="45.11461" lon="4.91672">
        <ele>207.63900756836</ele>
        <time>2010-11-06T16:31:47Z</time>
      </trkpt>
      <trkpt lat="45.11446" lon="4.91699">
        <ele>207.66600036621</ele>
        <time>2010-11-06T16:31:50Z</time>
      </trkpt>
      <trkpt lat="45.11441" lon="4.91708">
        <ele>207.68499755859</ele>
        <time>2010-11-06T16:31:51Z</time>
      </trkpt>
      <trkpt lat="45.114" lon="4.91785">
        <ele>206.55099487305</ele>
        <time>2010-11-06T16:32:00Z</time>
      </trkpt>
      <trkpt lat="45.11358" lon="4.9185">
        <ele>204.88000488281</ele>
        <time>2010-11-06T16:32:08Z</time>
      </trkpt>
      <trkpt lat="45.11301" lon="4.91927">
        <ele>202.86999511719</ele>
        <time>2010-11-06T16:32:18Z</time>
      </trkpt>
      <trkpt lat="45.11243" lon="4.91995">
        <ele>200.82699584961</ele>
        <time>2010-11-06T16:32:27Z</time>
      </trkpt>
      <trkpt lat="45.1123" lon="4.92011">
        <ele>200.30799865723</ele>
        <time>2010-11-06T16:32:29Z</time>
      </trkpt>
      <trkpt lat="45.11208" lon="4.92063">
        <ele>199.74000549316</ele>
        <time>2010-11-06T16:32:34Z</time>
      </trkpt>
      <trkpt lat="45.11205" lon="4.92074">
        <ele>199.7440032959</ele>
        <time>2010-11-06T16:32:35Z</time>
      </trkpt>
      <trkpt lat="45.11187" lon="4.92179">
        <ele>198.93899536133</ele>
        <time>2010-11-06T16:32:44Z</time>
      </trkpt>
      <trkpt lat="45.11175" lon="4.92244">
        <ele>199.38000488281</ele>
        <time>2010-11-06T16:32:50Z</time>
      </trkpt>
      <trkpt lat="45.11172" lon="4.92264">
        <ele>200.06300354004</ele>
        <time>2010-11-06T16:32:52Z</time>
      </trkpt>
      <trkpt lat="45.11176" lon="4.92311">
        <ele>200.68099975586</ele>
        <time>2010-11-06T16:32:57Z</time>
      </trkpt>
      <trkpt lat="45.11179" lon="4.92339">
        <ele>201.07400512695</ele>
        <time>2010-11-06T16:33:00Z</time>
      </trkpt>
      <trkpt lat="45.11171" lon="4.92381">
        <ele>201.66200256348</ele>
        <time>2010-11-06T16:33:05Z</time>
      </trkpt>
      <trkpt lat="45.11156" lon="4.924">
        <ele>201.30099487305</ele>
        <time>2010-11-06T16:33:08Z</time>
      </trkpt>
      <trkpt lat="45.11146" lon="4.92411">
        <ele>200.92999267578</ele>
        <time>2010-11-06T16:33:10Z</time>
      </trkpt>
      <trkpt lat="45.11119" lon="4.92437">
        <ele>200.74800109863</ele>
        <time>2010-11-06T16:33:15Z</time>
      </trkpt>
      <trkpt lat="45.11079" lon="4.92474">
        <ele>200.5890045166</ele>
        <time>2010-11-06T16:33:23Z</time>
      </trkpt>
      <trkpt lat="45.11036" lon="4.92513">
        <ele>200.26400756836</ele>
        <time>2010-11-06T16:33:31Z</time>
      </trkpt>
      <trkpt lat="45.11" lon="4.92546">
        <ele>200.2799987793</ele>
        <time>2010-11-06T16:33:38Z</time>
      </trkpt>
      <trkpt lat="45.10991" lon="4.92555">
        <ele>200.22099304199</ele>
        <time>2010-11-06T16:33:40Z</time>
      </trkpt>
      <trkpt lat="45.10982" lon="4.92579">
        <ele>200.28100585938</ele>
        <time>2010-11-06T16:33:44Z</time>
      </trkpt>
      <trkpt lat="45.10987" lon="4.92599">
        <ele>200.81100463867</ele>
        <time>2010-11-06T16:33:48Z</time>
      </trkpt>
      <trkpt lat="45.10992" lon="4.92614">
        <ele>201.14100646973</ele>
        <time>2010-11-06T16:33:51Z</time>
      </trkpt>
      <trkpt lat="45.11003" lon="4.92648">
        <ele>202.0119934082</ele>
        <time>2010-11-06T16:33:57Z</time>
      </trkpt>
      <trkpt lat="45.11016" lon="4.92688">
        <ele>203.13600158691</ele>
        <time>2010-11-06T16:34:04Z</time>
      </trkpt>
      <trkpt lat="45.11028" lon="4.92731">
        <ele>202.97300720215</ele>
        <time>2010-11-06T16:34:10Z</time>
      </trkpt>
      <trkpt lat="45.11041" lon="4.92786">
        <ele>202.74200439453</ele>
        <time>2010-11-06T16:34:17Z</time>
      </trkpt>
      <trkpt lat="45.11054" lon="4.92843">
        <ele>203.06300354004</ele>
        <time>2010-11-06T16:34:24Z</time>
      </trkpt>
      <trkpt lat="45.11063" lon="4.92888">
        <ele>203.45399475098</ele>
        <time>2010-11-06T16:34:30Z</time>
      </trkpt>
      <trkpt lat="45.11074" lon="4.9294">
        <ele>203.56100463867</ele>
        <time>2010-11-06T16:34:37Z</time>
      </trkpt>
      <trkpt lat="45.11088" lon="4.93008">
        <ele>204.0359954834</ele>
        <time>2010-11-06T16:34:46Z</time>
      </trkpt>
      <trkpt lat="45.11105" lon="4.93089">
        <ele>205.30400085449</ele>
        <time>2010-11-06T16:34:57Z</time>
      </trkpt>
      <trkpt lat="45.11116" lon="4.93142">
        <ele>204.85099792481</ele>
        <time>2010-11-06T16:35:04Z</time>
      </trkpt>
      <trkpt lat="45.11121" lon="4.93173">
        <ele>205.58000183106</ele>
        <time>2010-11-06T16:35:08Z</time>
      </trkpt>
      <trkpt lat="45.11143" lon="4.93233">
        <ele>206.55900573731</ele>
        <time>2010-11-06T16:35:17Z</time>
      </trkpt>
      <trkpt lat="45.11159" lon="4.93267">
        <ele>207.73500061035</ele>
        <time>2010-11-06T16:35:23Z</time>
      </trkpt>
      <trkpt lat="45.11184" lon="4.93322">
        <ele>209.26100158691</ele>
        <time>2010-11-06T16:35:33Z</time>
      </trkpt>
      <trkpt lat="45.11208" lon="4.93369">
        <ele>210.89500427246</ele>
        <time>2010-11-06T16:35:42Z</time>
      </trkpt>
      <trkpt lat="45.11236" lon="4.93414">
        <ele>213.13900756836</ele>
        <time>2010-11-06T16:35:52Z</time>
      </trkpt>
      <trkpt lat="45.11263" lon="4.93453">
        <ele>215.32099914551</ele>
        <time>2010-11-06T16:36:02Z</time>
      </trkpt>
      <trkpt lat="45.11282" lon="4.93479">
        <ele>216.69000244141</ele>
        <time>2010-11-06T16:36:09Z</time>
      </trkpt>
      <trkpt lat="45.11296" lon="4.93501">
        <ele>217.99800109863</ele>
        <time>2010-11-06T16:36:15Z</time>
      </trkpt>
      <trkpt lat="45.11318" lon="4.93538">
        <ele>219.82200622559</ele>
        <time>2010-11-06T16:36:24Z</time>
      </trkpt>
      <trkpt lat="45.11338" lon="4.93577">
        <ele>221.60699462891</ele>
        <time>2010-11-06T16:36:33Z</time>
      </trkpt>
      <trkpt lat="45.11353" lon="4.93615">
        <ele>223.03799438477</ele>
        <time>2010-11-06T16:36:41Z</time>
      </trkpt>
      <trkpt lat="45.1136" lon="4.93636">
        <ele>224.02200317383</ele>
        <time>2010-11-06T16:36:45Z</time>
      </trkpt>
      <trkpt lat="45.11373" lon="4.93674">
        <ele>224.80099487305</ele>
        <time>2010-11-06T16:36:52Z</time>
      </trkpt>
      <trkpt lat="45.11391" lon="4.93725">
        <ele>225.03799438477</ele>
        <time>2010-11-06T16:37:01Z</time>
      </trkpt>
      <trkpt lat="45.11409" lon="4.93778">
        <ele>223.75100708008</ele>
        <time>2010-11-06T16:37:09Z</time>
      </trkpt>
      <trkpt lat="45.11428" lon="4.93826">
        <ele>221.48899841309</ele>
        <time>2010-11-06T16:37:15Z</time>
      </trkpt>
      <trkpt lat="45.11452" lon="4.93869">
        <ele>218.71000671387</ele>
        <time>2010-11-06T16:37:20Z</time>
      </trkpt>
      <trkpt lat="45.11478" lon="4.93902">
        <ele>217.02499389648</ele>
        <time>2010-11-06T16:37:24Z</time>
      </trkpt>
      <trkpt lat="45.11516" lon="4.93945">
        <ele>216.64199829102</ele>
        <time>2010-11-06T16:37:30Z</time>
      </trkpt>
      <trkpt lat="45.11537" lon="4.93984">
        <ele>215.59800720215</ele>
        <time>2010-11-06T16:37:35Z</time>
      </trkpt>
      <trkpt lat="45.11557" lon="4.94044">
        <ele>215.10600280762</ele>
        <time>2010-11-06T16:37:42Z</time>
      </trkpt>
      <trkpt lat="45.11583" lon="4.94076">
        <ele>213.75</ele>
        <time>2010-11-06T16:37:47Z</time>
      </trkpt>
      <trkpt lat="45.11611" lon="4.94095">
        <ele>214.60299682617</ele>
        <time>2010-11-06T16:37:52Z</time>
      </trkpt>
      <trkpt lat="45.11643" lon="4.94114">
        <ele>214.91499328613</ele>
        <time>2010-11-06T16:37:58Z</time>
      </trkpt>
      <trkpt lat="45.11658" lon="4.94134">
        <ele>215.27200317383</ele>
        <time>2010-11-06T16:38:02Z</time>
      </trkpt>
      <trkpt lat="45.1166" lon="4.94148">
        <ele>215.7799987793</ele>
        <time>2010-11-06T16:38:04Z</time>
      </trkpt>
      <trkpt lat="45.11655" lon="4.94211">
        <ele>215.50700378418</ele>
        <time>2010-11-06T16:38:12Z</time>
      </trkpt>
      <trkpt lat="45.11653" lon="4.94267">
        <ele>215.59599304199</ele>
        <time>2010-11-06T16:38:19Z</time>
      </trkpt>
      <trkpt lat="45.11652" lon="4.94291">
        <ele>215.78300476074</ele>
        <time>2010-11-06T16:38:22Z</time>
      </trkpt>
      <trkpt lat="45.11658" lon="4.94352">
        <ele>216.67700195312</ele>
        <time>2010-11-06T16:38:30Z</time>
      </trkpt>
      <trkpt lat="45.11663" lon="4.94388">
        <ele>218.02099609375</ele>
        <time>2010-11-06T16:38:36Z</time>
      </trkpt>
      <trkpt lat="45.1167" lon="4.94418">
        <ele>219.58999633789</ele>
        <time>2010-11-06T16:38:42Z</time>
      </trkpt>
      <trkpt lat="45.11672" lon="4.94427">
        <ele>220.86099243164</ele>
        <time>2010-11-06T16:38:45Z</time>
      </trkpt>
      <trkpt lat="45.11662" lon="4.94438">
        <ele>221.94900512695</ele>
        <time>2010-11-06T16:38:50Z</time>
      </trkpt>
      <trkpt lat="45.11639" lon="4.94446">
        <ele>223.40100097656</ele>
        <time>2010-11-06T16:38:57Z</time>
      </trkpt>
      <trkpt lat="45.11621" lon="4.94456">
        <ele>224.86199951172</ele>
        <time>2010-11-06T16:39:02Z</time>
      </trkpt>
      <trkpt lat="45.11601" lon="4.94474">
        <ele>226.4880065918</ele>
        <time>2010-11-06T16:39:08Z</time>
      </trkpt>
      <trkpt lat="45.11592" lon="4.94486">
        <ele>227.24299621582</ele>
        <time>2010-11-06T16:39:11Z</time>
      </trkpt>
      <trkpt lat="45.11572" lon="4.94514">
        <ele>229.10400390625</ele>
        <time>2010-11-06T16:39:18Z</time>
      </trkpt>
      <trkpt lat="45.11559" lon="4.94543">
        <ele>230.33700561523</ele>
        <time>2010-11-06T16:39:24Z</time>
      </trkpt>
      <trkpt lat="45.11556" lon="4.9457">
        <ele>230.98100280762</ele>
        <time>2010-11-06T16:39:29Z</time>
      </trkpt>
      <trkpt lat="45.11555" lon="4.94611">
        <ele>231.71800231934</ele>
        <time>2010-11-06T16:39:37Z</time>
      </trkpt>
      <trkpt lat="45.11555" lon="4.94639">
        <ele>231.90299987793</ele>
        <time>2010-11-06T16:39:42Z</time>
      </trkpt>
      <trkpt lat="45.11555" lon="4.94697">
        <ele>232.48500061035</ele>
        <time>2010-11-06T16:39:51Z</time>
      </trkpt>
      <trkpt lat="45.11555" lon="4.9471">
        <ele>232.65800476074</ele>
        <time>2010-11-06T16:39:53Z</time>
      </trkpt>
      <trkpt lat="45.11559" lon="4.94768">
        <ele>233.27000427246</ele>
        <time>2010-11-06T16:40:02Z</time>
      </trkpt>
      <trkpt lat="45.11567" lon="4.94824">
        <ele>234.5950012207</ele>
        <time>2010-11-06T16:40:11Z</time>
      </trkpt>
      <trkpt lat="45.11576" lon="4.94872">
        <ele>235.91600036621</ele>
        <time>2010-11-06T16:40:19Z</time>
      </trkpt>
      <trkpt lat="45.11584" lon="4.94914">
        <ele>236.64700317383</ele>
        <time>2010-11-06T16:40:26Z</time>
      </trkpt>
      <trkpt lat="45.11597" lon="4.94962">
        <ele>236.72599792481</ele>
        <time>2010-11-06T16:40:34Z</time>
      </trkpt>
      <trkpt lat="45.11613" lon="4.95">
        <ele>236.67599487305</ele>
        <time>2010-11-06T16:40:40Z</time>
      </trkpt>
      <trkpt lat="45.11638" lon="4.95054">
        <ele>235.66000366211</ele>
        <time>2010-11-06T16:40:48Z</time>
      </trkpt>
      <trkpt lat="45.11662" lon="4.95108">
        <ele>234.31799316406</ele>
        <time>2010-11-06T16:40:55Z</time>
      </trkpt>
      <trkpt lat="45.11667" lon="4.95125">
        <ele>234.04800415039</ele>
        <time>2010-11-06T16:40:57Z</time>
      </trkpt>
      <trkpt lat="45.11685" lon="4.9519">
        <ele>232.72200012207</ele>
        <time>2010-11-06T16:41:04Z</time>
      </trkpt>
      <trkpt lat="45.11704" lon="4.95252">
        <ele>231.35800170898</ele>
        <time>2010-11-06T16:41:11Z</time>
      </trkpt>
      <trkpt lat="45.11716" lon="4.95278">
        <ele>230.52099609375</ele>
        <time>2010-11-06T16:41:14Z</time>
      </trkpt>
      <trkpt lat="45.11722" lon="4.95321">
        <ele>228.92999267578</ele>
        <time>2010-11-06T16:41:18Z</time>
      </trkpt>
      <trkpt lat="45.1172" lon="4.95333">
        <ele>228.19599914551</ele>
        <time>2010-11-06T16:41:19Z</time>
      </trkpt>
      <trkpt lat="45.11716" lon="4.95371">
        <ele>226.27699279785</ele>
        <time>2010-11-06T16:41:22Z</time>
      </trkpt>
      <trkpt lat="45.11727" lon="4.9541">
        <ele>223.84599304199</ele>
        <time>2010-11-06T16:41:25Z</time>
      </trkpt>
      <trkpt lat="45.11745" lon="4.95423">
        <ele>221.93400573731</ele>
        <time>2010-11-06T16:41:27Z</time>
      </trkpt>
      <trkpt lat="45.11763" lon="4.95428">
        <ele>220.75399780273</ele>
        <time>2010-11-06T16:41:29Z</time>
      </trkpt>
      <trkpt lat="45.11801" lon="4.95438">
        <ele>217.06799316406</ele>
        <time>2010-11-06T16:41:33Z</time>
      </trkpt>
      <trkpt lat="45.11817" lon="4.95448">
        <ele>216.28100585938</ele>
        <time>2010-11-06T16:41:35Z</time>
      </trkpt>
      <trkpt lat="45.11827" lon="4.95468">
        <ele>215.09800720215</ele>
        <time>2010-11-06T16:41:37Z</time>
      </trkpt>
      <trkpt lat="45.11829" lon="4.95495">
        <ele>214.5059967041</ele>
        <time>2010-11-06T16:41:39Z</time>
      </trkpt>
      <trkpt lat="45.11817" lon="4.95525">
        <ele>215.12199401856</ele>
        <time>2010-11-06T16:41:42Z</time>
      </trkpt>
      <trkpt lat="45.11802" lon="4.95543">
        <ele>216.61099243164</ele>
        <time>2010-11-06T16:41:45Z</time>
      </trkpt>
      <trkpt lat="45.11795" lon="4.95563">
        <ele>218.20100402832</ele>
        <time>2010-11-06T16:41:48Z</time>
      </trkpt>
      <trkpt lat="45.11795" lon="4.9557">
        <ele>218.80299377441</ele>
        <time>2010-11-06T16:41:49Z</time>
      </trkpt>
      <trkpt lat="45.11798" lon="4.95599">
        <ele>220.63200378418</ele>
        <time>2010-11-06T16:41:54Z</time>
      </trkpt>
      <trkpt lat="45.11793" lon="4.95623">
        <ele>222.11399841309</ele>
        <time>2010-11-06T16:41:58Z</time>
      </trkpt>
      <trkpt lat="45.11778" lon="4.95629">
        <ele>223.71600341797</ele>
        <time>2010-11-06T16:42:01Z</time>
      </trkpt>
      <trkpt lat="45.11761" lon="4.95635">
        <ele>224.89700317383</ele>
        <time>2010-11-06T16:42:04Z</time>
      </trkpt>
      <trkpt lat="45.11755" lon="4.95639">
        <ele>225.3869934082</ele>
        <time>2010-11-06T16:42:05Z</time>
      </trkpt>
      <trkpt lat="45.11744" lon="4.95658">
        <ele>226.67700195312</ele>
        <time>2010-11-06T16:42:08Z</time>
      </trkpt>
      <trkpt lat="45.11743" lon="4.95676">
        <ele>227.41700744629</ele>
        <time>2010-11-06T16:42:10Z</time>
      </trkpt>
      <trkpt lat="45.11742" lon="4.95726">
        <ele>230.16999816894</ele>
        <time>2010-11-06T16:42:15Z</time>
      </trkpt>
      <trkpt lat="45.11742" lon="4.95745">
        <ele>231.20100402832</ele>
        <time>2010-11-06T16:42:17Z</time>
      </trkpt>
      <trkpt lat="45.11741" lon="4.95774">
        <ele>233.40199279785</ele>
        <time>2010-11-06T16:42:21Z</time>
      </trkpt>
      <trkpt lat="45.11747" lon="4.95817">
        <ele>234.08000183106</ele>
        <time>2010-11-06T16:42:28Z</time>
      </trkpt>
      <trkpt lat="45.11758" lon="4.95867">
        <ele>233.33599853516</ele>
        <time>2010-11-06T16:42:36Z</time>
      </trkpt>
      <trkpt lat="45.11765" lon="4.95893">
        <ele>232.36700439453</ele>
        <time>2010-11-06T16:42:41Z</time>
      </trkpt>
      <trkpt lat="45.11771" lon="4.9592">
        <ele>231.18299865723</ele>
        <time>2010-11-06T16:42:47Z</time>
      </trkpt>
      <trkpt lat="45.11771" lon="4.95926">
        <ele>230.95799255371</ele>
        <time>2010-11-06T16:42:49Z</time>
      </trkpt>
      <trkpt lat="45.11766" lon="4.95931">
        <ele>230.55299377441</ele>
        <time>2010-11-06T16:42:54Z</time>
      </trkpt>
      <trkpt lat="45.11755" lon="4.95925">
        <ele>230.94799804688</ele>
        <time>2010-11-06T16:42:59Z</time>
      </trkpt>
      <trkpt lat="45.11736" lon="4.95913">
        <ele>231.57899475098</ele>
        <time>2010-11-06T16:43:05Z</time>
      </trkpt>
      <trkpt lat="45.11702" lon="4.95892">
        <ele>232.97399902344</ele>
        <time>2010-11-06T16:43:14Z</time>
      </trkpt>
      <trkpt lat="45.11674" lon="4.95878">
        <ele>235.13499450684</ele>
        <time>2010-11-06T16:43:22Z</time>
      </trkpt>
      <trkpt lat="45.11665" lon="4.95889">
        <ele>236.08299255371</ele>
        <time>2010-11-06T16:43:26Z</time>
      </trkpt>
      <trkpt lat="45.1166" lon="4.95917">
        <ele>236.04400634766</ele>
        <time>2010-11-06T16:43:32Z</time>
      </trkpt>
      <trkpt lat="45.11651" lon="4.9595">
        <ele>235.28799438477</ele>
        <time>2010-11-06T16:43:38Z</time>
      </trkpt>
      <trkpt lat="45.11632" lon="4.95999">
        <ele>231.72799682617</ele>
        <time>2010-11-06T16:43:44Z</time>
      </trkpt>
      <trkpt lat="45.11621" lon="4.96033">
        <ele>229.52000427246</ele>
        <time>2010-11-06T16:43:47Z</time>
      </trkpt>
      <trkpt lat="45.11604" lon="4.96101">
        <ele>224.82699584961</ele>
        <time>2010-11-06T16:43:52Z</time>
      </trkpt>
      <trkpt lat="45.11595" lon="4.96145">
        <ele>222.77799987793</ele>
        <time>2010-11-06T16:43:55Z</time>
      </trkpt>
      <trkpt lat="45.11576" lon="4.96176">
        <ele>221.37800598144</ele>
        <time>2010-11-06T16:43:58Z</time>
      </trkpt>
      <trkpt lat="45.11557" lon="4.96184">
        <ele>220.67799377441</ele>
        <time>2010-11-06T16:44:00Z</time>
      </trkpt>
      <trkpt lat="45.1153" lon="4.96188">
        <ele>219.51100158691</ele>
        <time>2010-11-06T16:44:03Z</time>
      </trkpt>
      <trkpt lat="45.1152" lon="4.96202">
        <ele>218.64700317383</ele>
        <time>2010-11-06T16:44:07Z</time>
      </trkpt>
      <trkpt lat="45.11532" lon="4.96219">
        <ele>216.13000488281</ele>
        <time>2010-11-06T16:44:10Z</time>
      </trkpt>
      <trkpt lat="45.11557" lon="4.96245">
        <ele>213.23699951172</ele>
        <time>2010-11-06T16:44:14Z</time>
      </trkpt>
      <trkpt lat="45.11579" lon="4.96297">
        <ele>207.66600036621</ele>
        <time>2010-11-06T16:44:18Z</time>
      </trkpt>
      <trkpt lat="45.11581" lon="4.96314">
        <ele>205.70300292969</ele>
        <time>2010-11-06T16:44:19Z</time>
      </trkpt>
      <trkpt lat="45.11584" lon="4.96348">
        <ele>202.31500244141</ele>
        <time>2010-11-06T16:44:21Z</time>
      </trkpt>
      <trkpt lat="45.11584" lon="4.96428">
        <ele>198.69700622559</ele>
        <time>2010-11-06T16:44:26Z</time>
      </trkpt>
      <trkpt lat="45.11582" lon="4.9645">
        <ele>198.9700012207</ele>
        <time>2010-11-06T16:44:29Z</time>
      </trkpt>
      <trkpt lat="45.11576" lon="4.96453">
        <ele>199.01699829102</ele>
        <time>2010-11-06T16:44:34Z</time>
      </trkpt>
      <trkpt lat="45.11576" lon="4.96453">
        <ele>198.96600341797</ele>
        <time>2010-11-06T16:44:35Z</time>
      </trkpt>
      <trkpt lat="45.11567" lon="4.96454">
        <ele>198.42199707031</ele>
        <time>2010-11-06T16:45:01Z</time>
      </trkpt>
      <trkpt lat="45.1156" lon="4.96443">
        <ele>198.16799926758</ele>
        <time>2010-11-06T16:45:05Z</time>
      </trkpt>
      <trkpt lat="45.11562" lon="4.96429">
        <ele>198.75500488281</ele>
        <time>2010-11-06T16:45:09Z</time>
      </trkpt>
      <trkpt lat="45.11566" lon="4.96429">
        <ele>199.26100158691</ele>
        <time>2010-11-06T16:45:13Z</time>
      </trkpt>
      <trkpt lat="45.11566" lon="4.96429">
        <ele>199.37100219727</ele>
        <time>2010-11-06T16:45:14Z</time>
      </trkpt>
    </trkseg>
  </trk>
</gpx>